# Wetter Temperatur Luftdruck Luftfeuchtigkeit Sichtweite Windgeschwindigkeit Windrichtung Zeit
1 Clouds -1 1010 43 0 2.05 171.435 19:56 17.10.2019
2 Clouds -1 1010 43 0 2.05 171.435 19:38 17.10.2019
3 Clouds -1 1010 43 0 2.05 171.435 19:19 17.10.2019
4 Clouds -1 1010 43 0 2.05 171.435 18:43 17.10.2019
5 Clouds 0 1011 41 0 1.96 156.717 18:21 17.10.2019
6 Clouds 0 1011 41 0 1.96 156.717 17:58 17.10.2019
7 Clouds 0 1012 37 0 3.632 133 17:40 17.10.2019
8 Clouds 0 1012 37 0 3.632 133 17:22 17.10.2019
9 Clouds 0 1012 37 0 3.632 133 16:55 17.10.2019
10 Clouds 0 1012 37 0 3.632 133 16:37 17.10.2019
11 Clouds 0 1012 37 0 3.632 133 16:18 17.10.2019
12 Clouds 0 1012 37 0 3.632 133 15:55 17.10.2019
13 Clouds 0 1012 37 0 3.632 133 15:37 17.10.2019
14 Clear 0 1012 39 0 2.546 153 15:18 17.10.2019
15 Clouds 0 1012 37 0 2.717 152 14:42 17.10.2019
16 Clouds 0 1012 37 0 2.717 152 14:23 17.10.2019
17 Clouds 0 1012 37 0 2.717 152 13:54 17.10.2019
18 Clouds 0 1012 37 0 2.717 152 13:36 17.10.2019
19 Clouds 0 1012 37 0 2.717 152 13:18 17.10.2019
20 Clouds 0 1012 37 0 2.717 152 12:41 17.10.2019
21 Clear 6 1010 29 0 1.187 205 12:20 17.10.2019
22 Clear 6 1010 29 0 1.187 205 11:58 17.10.2019
23 Clear 6 1010 29 0 1.187 205 11:40 17.10.2019
24 Clear 6 1010 29 0 1.187 205 11:19 17.10.2019
25 Clear 6 1010 29 0 1.187 205 10:54 17.10.2019
26 Clear 6 1010 29 0 1.187 205 10:54 17.10.2019
27 Clear 6 1010 29 0 1.187 205 10:54 17.10.2019
28 Clear 6 1010 29 0 1.187 205 10:36 17.10.2019
29 Clear 6 1010 29 0 1.187 205 10:18 17.10.2019
30 Clear 6 1010 29 0 1.187 205 10:18 17.10.2019
31 Clear 6 1010 29 0 1.187 205 10:18 17.10.2019
32 Clear 6 1010 29 0 1.345 190 09:41 17.10.2019
33 Clouds 6 1012 25 0 1.573 225 09:22 17.10.2019
34 Clouds 6 1012 25 0 1.573 225 08:58 17.10.2019
35 Clouds 6 1012 25 0 1.573 225 08:58 17.10.2019
36 Clouds 6 1012 25 0 1.573 225 08:39 17.10.2019
37 Clouds 6 1012 25 0 1.573 225 08:20 17.10.2019
38 -273 0 0 0 0 0 07:54 17.10.2019
39 Clouds 6 1012 25 0 1.573 225 07:54 17.10.2019
40 Clouds 6 1012 25 0 1.573 225 07:36 17.10.2019
41 Clouds 6 1012 25 0 1.573 225 07:18 17.10.2019
42 Clouds 6 1012 25 0 1.573 225 06:39 17.10.2019
43 Clouds 3 1015 33 0 1.81 152 06:20 17.10.2019
44 Clouds 3 1015 33 0 1.81 152 05:49 17.10.2019
45 Clouds 3 1015 33 0 1.81 152 05:30 17.10.2019
46 Clouds 3 1015 33 0 1.81 152 04:51 17.10.2019
47 Clouds 3 1015 33 0 1.81 152 03:52 17.10.2019
48 Clear -4 1018 51 0 2.193 137 02:35 17.10.2019
49 Clear -4 1018 51 0 2.193 137 00:56 17.10.2019
50 Clear -4 1018 51 0 2.193 137 00:36 17.10.2019
51 Clear -4 1017 49 0 1.584 143 00:18 17.10.2019
52 Clear -4 1017 49 0 1.584 143 23:42 16.10.2019
53 Clear -4 1017 49 0 1.584 143 23:20 16.10.2019
54 -273 0 0 0 0 0 22:55 16.10.2019
55 Clear -4 1017 49 0 1.584 143 22:36 16.10.2019
56 Clear -4 1017 49 0 1.584 143 22:18 16.10.2019
57 -273 0 0 0 0 0 21:55 16.10.2019
58 Clear -4 1017 49 0 1.745 140 21:37 16.10.2019
59 Clear -4 1018 47 0 1.15 158 21:18 16.10.2019
60 Clear -4 1018 47 0 1.15 158 21:18 16.10.2019
61 Clear -4 1018 47 0 1.15 158 20:56 16.10.2019
62 Clear -4 1018 47 0 1.15 158 20:38 16.10.2019
63 Clear -4 1018 47 0 1.15 158 20:20 16.10.2019
64 Clear -4 1018 47 0 1.15 158 20:20 16.10.2019
65 Clear -4 1018 47 0 1.15 158 19:42 16.10.2019
66 Clear -4 1018 47 0 1.15 158 19:21 16.10.2019
67 Clear -4 1018 47 0 1.15 158 18:59 16.10.2019
68 Clear -4 1018 47 0 1.15 158 18:39 16.10.2019
69 Clear -4 1018 44 0 1.048 154 18:19 16.10.2019
70 Clear -4 1018 44 0 1.048 154 17:56 16.10.2019
71 Clear -4 1018 44 0 1.048 154 17:38 16.10.2019
72 Clear -4 1018 44 0 1.048 154 17:19 16.10.2019
73 Clear -4 1018 44 0 1.048 154 16:58 16.10.2019
74 Clear -4 1018 44 0 1.048 154 16:38 16.10.2019
75 Clear -4 1018 44 0 1.048 154 16:20 16.10.2019
76 Clear -4 1018 44 0 1.048 154 15:55 16.10.2019
77 Clear -4 1018 44 0 1.048 154 15:36 16.10.2019
78 Clear -3 1018 44 0 0.401 284 15:18 16.10.2019
79 Clear -3 1018 44 0 0.401 284 15:18 16.10.2019
80 Clear -3 1018 44 0 0.401 284 14:55 16.10.2019
81 Clear -3 1017 44 0 0.327 290 14:36 16.10.2019
82 Clear -3 1017 44 0 0.327 290 14:18 16.10.2019
83 Clear -3 1017 44 0 0.327 290 13:42 16.10.2019
84 Clear -3 1017 44 0 0.327 290 13:23 16.10.2019
85 Clear -3 1017 44 0 0.327 290 12:57 16.10.2019
86 Clear -3 1017 44 0 0.327 290 12:39 16.10.2019
87 Clear 4 1016 27 0 2.362 286 12:18 16.10.2019
88 Clear 4 1016 27 0 2.362 286 11:42 16.10.2019
89 Clear 4 1016 27 0 2.362 286 11:42 16.10.2019
90 Clear 4 1016 27 0 2.362 286 11:18 16.10.2019
91 Clear 4 1016 27 0 2.362 286 11:18 16.10.2019
92 Clear 4 1016 27 0 2.362 286 10:38 16.10.2019
93 Clear 4 1016 27 0 2.362 286 10:20 16.10.2019
94 Clear 4 1016 27 0 2.362 286 09:55 16.10.2019
95 Clear 4 1016 27 0 2.808 283 09:37 16.10.2019
96 Clear 4 1017 23 0 2.561 274 09:19 16.10.2019
97 Clear 4 1017 23 0 2.561 274 08:42 16.10.2019
98 -273 0 0 0 0 0 08:24 16.10.2019
99 Clear 4 1017 23 0 2.561 274 07:45 16.10.2019
100 Clear 4 1017 23 0 2.561 274 07:45 16.10.2019
101 Clear 4 1017 23 0 2.561 274 07:45 16.10.2019
102 Clear 4 1017 23 0 2.561 274 07:25 16.10.2019
103 Clear 4 1017 23 0 2.561 274 07:24 16.10.2019
104 Clear 4 1017 23 0 2.561 274 06:57 16.10.2019
105 Clear 4 1017 23 0 2.561 274 06:35 16.10.2019
106 Clear 1 1021 26 0 1.373 162 05:39 16.10.2019
107 Clear -5 1023 44 0 1.953 141 02:57 16.10.2019
108 Clear -5 1023 44 0 1.953 141 02:38 16.10.2019
109 Clear -5 1023 44 0 2.011 141 01:19 16.10.2019
110 Clear -5 1023 44 0 2.011 141 00:47 16.10.2019
111 Clear -5 1023 44 0 2.011 141 00:27 16.10.2019
112 Clear -4 1023 42 0 2.628 137 23:40 15.10.2019
113 Clear -4 1023 42 0 2.628 137 23:22 15.10.2019
114 Clear -4 1023 42 0 2.628 137 22:56 15.10.2019
115 Clear -4 1023 42 0 2.628 137 22:38 15.10.2019
116 Clear -4 1023 42 0 2.628 137 22:19 15.10.2019
117 Clear -4 1023 42 0 2.628 137 21:56 15.10.2019
118 Clear -4 1023 42 0 2.503 138 21:38 15.10.2019
119 Clear -4 1023 39 0 2.642 138 21:19 15.10.2019
120 Clear -4 1023 39 0 2.642 138 20:57 15.10.2019
121 Clear -4 1023 39 0 2.642 138 20:39 15.10.2019
122 Clear -4 1023 39 0 2.642 138 20:20 15.10.2019
123 Clear -4 1023 39 0 2.642 138 19:57 15.10.2019
124 Clear -4 1023 39 0 2.642 138 19:39 15.10.2019
125 Clear -4 1023 39 0 2.642 138 19:19 15.10.2019
126 Clear -4 1023 39 0 2.642 138 19:19 15.10.2019
127 Clear -4 1023 39 0 2.642 138 18:47 15.10.2019
128 Clear -4 1023 39 0 2.642 138 18:28 15.10.2019
129 Clear -3 1024 34 0 2.284 146 17:58 15.10.2019
130 Clear -3 1024 34 0 2.284 146 17:39 15.10.2019
131 Clear -3 1024 34 0 2.284 146 17:19 15.10.2019
132 Clear -3 1024 34 0 2.284 146 16:46 15.10.2019
133 Clear -3 1024 34 0 2.284 146 16:24 15.10.2019
134 Clear -3 1024 34 0 2.284 146 15:59 15.10.2019
135 Clear -3 1024 34 0 2.284 146 15:41 15.10.2019
136 Clear -3 1024 34 0 2.284 146 15:41 15.10.2019
137 Clear -3 1023 34 0 1.946 161 15:20 15.10.2019
138 Clear -3 1023 34 0 1.946 161 14:58 15.10.2019
139 Clear -3 1023 34 0 1.946 161 14:38 15.10.2019
140 Clear -2 1023 34 0 2.415 153 14:19 15.10.2019
141 Clear -2 1023 34 0 2.415 153 13:44 15.10.2019
142 Clear -2 1023 34 0 2.415 153 13:21 15.10.2019
143 Clear -2 1023 34 0 2.415 153 12:59 15.10.2019
144 Clear -2 1023 34 0 2.415 153 12:39 15.10.2019
145 Clear 5 1022 21 0 1.484 224 12:21 15.10.2019
146 Clear 5 1022 21 0 1.484 224 11:55 15.10.2019
147 Clear 5 1022 21 0 1.484 224 11:37 15.10.2019
148 Clear 5 1022 21 0 1.484 224 11:18 15.10.2019
149 Clear 5 1022 21 0 1.484 224 10:42 15.10.2019
150 Clear 4 1021 24 0 1.96 176.63 10:19 15.10.2019
151 Clear 4 1021 24 0 1.96 176.63 09:57 15.10.2019
152 Clear 4 1021 24 0 1.96 176.63 09:37 15.10.2019
153 Clear 4 1023 22 0 2.22 172.856 09:19 15.10.2019
154 Clear 4 1023 22 0 2.09 173.466 08:42 15.10.2019
155 Clear 4 1023 22 0 2.09 173.466 08:22 15.10.2019
156 Clear 4 1023 22 0 2.09 173.466 07:56 15.10.2019
157 Clear 4 1023 22 0 2.09 173.466 07:56 15.10.2019
158 Clear 4 1023 22 0 2.09 173.466 07:38 15.10.2019
159 Clear 4 1023 22 0 2.09 173.466 07:19 15.10.2019
160 Clear 4 1023 22 0 2.09 173.466 06:44 15.10.2019
161 -273 0 0 0 0 0 06:26 15.10.2019
162 Clear 2 1027 24 0 1.52 150.909 05:41 15.10.2019
163 Clear 2 1027 24 0 1.52 150.909 05:23 15.10.2019
164 Clear 2 1027 24 0 1.52 150.909 04:25 15.10.2019
165 Clear 2 1027 24 0 1.52 150.909 03:37 15.10.2019
166 Clear -6 1028 37 0 0.97 140.436 02:24 15.10.2019
167 Clear -6 1028 37 0 0.97 140.436 01:48 15.10.2019
168 Clear -6 1028 37 0 0.93 139.519 01:19 15.10.2019
169 Clear -6 1028 37 0 0.93 139.519 00:49 15.10.2019
170 Clear -5 1029 35 0 0.87 144.546 00:21 15.10.2019
171 Clear -5 1029 35 0 0.87 144.546 23:43 14.10.2019
172 Clear -5 1029 35 0 0.87 144.546 23:20 14.10.2019
173 Clear -5 1029 35 0 0.87 144.546 22:55 14.10.2019
174 Clear -5 1029 35 0 0.87 144.546 22:37 14.10.2019
175 Clear -5 1029 35 0 0.87 144.546 22:37 14.10.2019
176 Clear -5 1029 35 0 0.87 144.546 22:18 14.10.2019
177 Clear -5 1029 35 0 0.87 144.546 21:41 14.10.2019
178 Clear -5 1029 34 0 0.91 143.557 21:22 14.10.2019
179 Clear -5 1029 33 0 0.89 144.971 20:59 14.10.2019
180 Clear -5 1029 33 0 0.89 144.971 20:40 14.10.2019
181 Clear -5 1029 33 0 0.89 144.971 20:21 14.10.2019
182 Clear -5 1029 33 0 0.89 144.971 19:59 14.10.2019
183 Clear -5 1030 36 0 1.73 143 19:40 14.10.2019
184 Clear -5 1030 36 0 1.73 143 19:22 14.10.2019
185 Clear -5 1029 33 0 0.89 144.971 18:58 14.10.2019
186 -273 0 0 0 0 0 18:58 14.10.2019
187 Clear -5 1029 33 0 0.89 144.971 18:58 14.10.2019
188 Clear -5 1029 33 0 0.89 144.971 18:38 14.10.2019
189 Clear -4 1030 35 0 0.91 145.384 18:19 14.10.2019
190 Clear -4 1030 35 0 0.91 145.384 17:44 14.10.2019
191 Clear -4 1030 35 0 0.91 145.384 17:26 14.10.2019
192 Clear -4 1030 35 0 0.91 145.384 16:59 14.10.2019
193 Clear -4 1030 35 0 0.91 145.384 16:40 14.10.2019
194 Clear -4 1030 35 0 0.91 145.384 16:20 14.10.2019
195 Clear -4 1030 35 0 0.91 145.384 15:42 14.10.2019
196 Clear -4 1029 37 0 0.75 199.113 15:22 14.10.2019
197 Clear -4 1029 37 0 0.75 199.113 14:56 14.10.2019
198 Clear -4 1029 37 0 0.75 199.113 14:56 14.10.2019
199 Clear -4 1029 37 0 0.75 199.113 14:38 14.10.2019
200 Clear -4 1029 37 0 0.75 199.113 14:18 14.10.2019
201 Clear -4 1029 37 0 0.75 199.113 13:42 14.10.2019
202 Clear -4 1029 38 0 0.7 189.341 13:21 14.10.2019
203 Clear -4 1029 38 0 0.7 189.341 12:55 14.10.2019
204 Clear -4 1029 38 0 0.7 189.341 12:36 14.10.2019
205 Clear 4 1028 22 0 1.6 221.687 12:18 14.10.2019
206 Clear 4 1028 22 0 1.6 221.687 11:44 14.10.2019
207 Clear 4 1028 22 0 1.6 221.687 11:24 14.10.2019
208 Clear 4 1028 22 0 1.6 221.687 10:57 14.10.2019
209 Clear 4 1028 22 0 1.6 221.687 10:37 14.10.2019
210 Clear 4 1028 22 0 1.6 221.687 10:18 14.10.2019
211 Clear 4 1028 22 0 1.6 221.687 09:42 14.10.2019
212 Clear 4 1028 22 0 1.6 221.687 09:41 14.10.2019
213 Clear 3 1029 19 0 1.16 199.138 09:21 14.10.2019
214 Clear 3 1029 19 0 1.16 199.138 08:51 14.10.2019
215 Clear 3 1029 19 0 1.16 199.138 08:23 14.10.2019
216 Clear 3 1029 19 0 1.16 199.138 07:47 14.10.2019
217 Clear 3 1029 19 0 1.16 199.138 07:47 14.10.2019
218 Clear 3 1029 19 0 1.16 199.138 07:25 14.10.2019
219 Clear 3 1029 19 0 1.16 199.138 06:59 14.10.2019
220 Clear 3 1029 19 0 1.16 199.138 06:28 14.10.2019
221 Clear 0 1033 22 0 0.85 150.9 05:57 14.10.2019
222 Clear 0 1033 22 0 0.85 150.9 05:27 14.10.2019
223 Clear 0 1033 22 0 0.85 150.9 03:51 14.10.2019
224 Clear 0 1033 22 0 0.85 150.9 03:26 14.10.2019
225 Clear -7 1034 39 0 0.55 135.879 02:32 14.10.2019
226 Clear -7 1034 38 0 0.51 129.012 01:21 14.10.2019
227 Clear -7 1034 38 0 0.51 129.012 00:44 14.10.2019
228 Clear -6 1033 38 0 0.55 153.67 00:19 14.10.2019
229 Clear -6 1033 38 0 0.55 153.67 23:43 13.10.2019
230 Clear -6 1033 38 0 0.55 153.67 23:20 13.10.2019
231 Clear -6 1033 38 0 0.55 153.67 22:57 13.10.2019
232 Clear -6 1033 38 0 0.55 153.67 22:39 13.10.2019
233 Clear -6 1033 38 0 0.55 153.67 22:20 13.10.2019
234 Clear -6 1033 38 0 0.55 153.67 21:57 13.10.2019
235 Clear -6 1033 38 0 0.55 153.67 21:36 13.10.2019
236 Clear -6 1033 38 0 0.55 153.67 21:36 13.10.2019
237 Clear -5 1033 39 0 0.56 143.905 21:18 13.10.2019
238 Clear -5 1033 39 0 0.56 143.905 20:57 13.10.2019
239 Clear -6 1034 38 0 0.53 137.437 20:37 13.10.2019
240 Clear -6 1034 38 0 0.53 137.437 20:19 13.10.2019
241 Clear -6 1034 38 0 0.53 137.437 19:55 13.10.2019
242 Clear -6 1034 38 0 0.53 137.437 19:55 13.10.2019
243 Clear -6 1034 38 0 0.53 137.437 19:55 13.10.2019
244 Clear -6 1034 38 0 0.53 137.437 19:37 13.10.2019
245 Clear -6 1034 38 0 0.53 137.437 19:37 13.10.2019
246 Clear -6 1034 38 0 0.53 137.437 19:19 13.10.2019
247 -273 0 0 0 0 0 18:55 13.10.2019
248 Clear -6 1034 38 0 0.53 137.437 18:55 13.10.2019
249 Clear -6 1034 38 0 0.53 137.437 18:36 13.10.2019
250 Clear -5 1033 39 0 0.42 86.561 18:18 13.10.2019
251 Clear -5 1033 39 0 0.42 86.561 17:43 13.10.2019
252 Clear -5 1033 39 0 0.42 86.561 17:25 13.10.2019
253 -273 0 0 0 0 0 16:56 13.10.2019
254 Clear -5 1033 39 0 0.42 86.561 16:36 13.10.2019
255 Clear -5 1033 39 0 0.42 86.561 16:18 13.10.2019
256 Clear -5 1033 39 0 0.42 86.561 15:55 13.10.2019
257 Clear -5 1033 39 0 0.42 86.561 15:55 13.10.2019
258 Clear -5 1033 39 0 0.42 86.561 15:36 13.10.2019
259 Clouds -5 1032 41 0 0.59 278.42 15:18 13.10.2019
260 Clouds -5 1032 41 0 0.59 278.42 14:40 13.10.2019
261 Clouds -5 1032 41 0 0.59 278.42 14:22 13.10.2019
262 Clouds -5 1032 41 0 0.59 278.42 13:59 13.10.2019
263 Clouds -5 1032 41 0 0.59 278.42 13:39 13.10.2019
264 Clouds -5 1032 41 0 0.59 278.42 13:39 13.10.2019
265 Clouds -5 1032 43 0 0.59 293.707 13:21 13.10.2019
266 Clouds -5 1032 43 0 0.59 293.707 12:57 13.10.2019
267 Clouds -5 1032 43 0 0.59 293.707 12:38 13.10.2019
268 Clouds 2 1030 22 0 2.61 249.13 12:19 13.10.2019
269 Clouds 2 1030 22 0 2.61 249.13 11:58 13.10.2019
270 Clouds 2 1030 22 0 2.61 249.13 11:38 13.10.2019
271 Clouds 2 1030 22 0 2.61 249.13 11:19 13.10.2019
272 Clouds 2 1030 22 0 2.61 249.13 10:42 13.10.2019
273 Clouds 2 1030 22 0 2.61 249.13 10:23 13.10.2019
274 Clouds 2 1030 22 0 2.61 249.13 09:58 13.10.2019
275 Clouds 2 1030 22 0 2.61 249.13 09:38 13.10.2019
276 Clouds 2 1030 18 0 1.95 232.673 09:19 13.10.2019
277 Clouds 2 1030 19 0 1.94 229.888 08:43 13.10.2019
278 Clouds 2 1030 19 0 1.94 229.888 08:23 13.10.2019
279 Clouds 2 1030 19 0 1.94 229.888 07:50 13.10.2019
280 Clouds 2 1030 19 0 1.94 229.888 07:30 13.10.2019
281 Clouds 2 1030 19 0 1.94 229.888 06:49 13.10.2019
282 Clouds 0 1033 23 0 1.66 201.667 05:59 13.10.2019
283 Clouds 0 1033 23 0 1.66 201.667 04:59 13.10.2019
284 Clouds 0 1033 23 0 1.66 201.667 04:33 13.10.2019
285 Clear -6 1033 34 0 0.57 161.948 02:50 13.10.2019
286 Clear -6 1033 34 0 0.57 161.948 02:25 13.10.2019
287 Clear -6 1033 34 0 0.57 161.948 01:34 13.10.2019
288 Clear -6 1033 34 0 0.74 173.754 00:53 13.10.2019
289 Clear -6 1031 36 0 1.32 48.582 00:23 13.10.2019
290 Clear -6 1031 36 0 1.32 48.582 23:59 12.10.2019
291 Clear -6 1031 36 0 1.32 48.582 23:40 12.10.2019
292 Clear -6 1031 36 0 1.32 48.582 23:21 12.10.2019
293 Clear -6 1031 36 0 1.32 48.582 22:58 12.10.2019
294 Clear -6 1031 36 0 1.32 48.582 22:39 12.10.2019
295 Clear -6 1031 36 0 1.32 48.582 22:21 12.10.2019
296 Clear -6 1031 36 0 1.32 48.582 21:56 12.10.2019
297 Clear -6 1031 36 0 1.32 48.582 21:37 12.10.2019
298 Clear -4 1030 38 0 2.25 38.851 21:19 12.10.2019
299 Clear -5 1030 38 0 2.17 39.87 20:44 12.10.2019
300 Clear -5 1030 38 0 2.17 39.87 20:26 12.10.2019
301 -273 0 0 0 0 0 19:42 12.10.2019
302 Clear -5 1030 38 0 2.17 39.87 19:23 12.10.2019
303 Clear -5 1030 38 0 2.17 39.87 18:59 12.10.2019
304 Clear -5 1030 38 0 2.17 39.87 18:59 12.10.2019
305 Clear -5 1030 38 0 2.17 39.87 18:41 12.10.2019
306 Clear -4 1029 39 0 2.63 33.394 18:23 12.10.2019
307 Clear -4 1029 39 0 2.63 33.394 17:45 12.10.2019
308 Clear -4 1029 39 0 2.63 33.394 17:20 12.10.2019
309 Clear -4 1029 39 0 2.63 33.394 16:56 12.10.2019
310 Clear -4 1029 39 0 2.63 33.394 16:38 12.10.2019
311 Clear -4 1029 39 0 2.63 33.394 16:19 12.10.2019
312 Clear -4 1029 39 0 2.63 33.394 15:44 12.10.2019
313 Clear -4 1029 39 0 2.63 33.394 15:25 12.10.2019
314 Clear -4 1029 39 0 2.63 33.394 15:25 12.10.2019
315 Clear -3 1026 27 0 2.36 28.131 14:59 12.10.2019
316 Clear -3 1026 27 0 2.36 28.131 14:38 12.10.2019
317 Clear -3 1026 27 0 2.36 28.131 14:19 12.10.2019
318 Clear -3 1026 27 0 2.36 28.131 13:45 12.10.2019
319 Clear -3 1026 27 0 2.37 31.893 13:27 12.10.2019
320 Clear -3 1026 27 0 2.37 31.893 12:55 12.10.2019
321 Clear -3 1026 27 0 2.37 31.893 12:36 12.10.2019
322 Clear 3 1022 16 0 2.81 29.586 12:18 12.10.2019
323 Clear 3 1022 16 0 2.81 29.586 11:40 12.10.2019
324 Clear 3 1022 16 0 2.81 29.586 11:22 12.10.2019
325 Clear 3 1022 16 0 2.81 29.586 10:56 12.10.2019
326 Clear 3 1022 16 0 2.81 29.586 10:37 12.10.2019
327 Clear 3 1022 16 0 2.81 29.586 10:19 12.10.2019
328 Clear 3 1022 16 0 2.81 29.586 09:56 12.10.2019
329 Clear 3 1022 16 0 2.81 29.586 09:56 12.10.2019
330 Clear 3 1022 16 0 2.81 29.586 09:55 12.10.2019
331 Clear 3 1022 16 0 2.81 29.586 09:37 12.10.2019
332 Clear 4 1022 14 0 2.09 3.233 09:18 12.10.2019
333 Clear 4 1022 14 0 2.09 3.233 09:18 12.10.2019
334 Clear 4 1022 13 0 1.96 352.193 08:41 12.10.2019
335 Clear 4 1022 13 0 1.96 352.193 08:41 12.10.2019
336 Clear 4 1022 13 0 1.96 352.193 08:20 12.10.2019
337 Clear 4 1022 13 0 1.96 352.193 07:36 12.10.2019
338 Clear 4 1022 13 0 1.96 352.193 07:18 12.10.2019
339 Clear 1 1024 29 0 1.5 29.003 05:53 12.10.2019
340 Clear 1 1024 29 0 1.5 29.003 05:24 12.10.2019
341 Clear 1 1024 29 0 1.5 29.003 04:26 12.10.2019
342 Clear 1 1024 29 0 1.5 29.003 04:26 12.10.2019
343 Clear 1 1024 29 0 1.5 29.003 03:42 12.10.2019
344 Clear -5 1024 77 0 1.74 27.909 02:28 12.10.2019
345 Clear -5 1024 75 0 1.92 30.366 01:29 12.10.2019
346 Clear -5 1024 75 0 1.92 30.366 00:43 12.10.2019
347 Clear -4 1021 75 0 1.67 22.593 00:19 12.10.2019
348 Clear -4 1021 75 0 1.67 22.593 00:19 12.10.2019
349 Clear -4 1021 75 0 1.67 22.593 23:40 11.10.2019
350 Clear -4 1021 75 0 1.67 22.593 23:20 11.10.2019
351 Clear -4 1021 75 0 1.67 22.593 22:56 11.10.2019
352 Clear -4 1021 75 0 1.67 22.593 22:37 11.10.2019
353 Clear -4 1021 75 0 1.67 22.593 22:18 11.10.2019
354 Clear -4 1021 75 0 1.67 22.593 21:40 11.10.2019
355 Clear -3 1020 68 0 1.38 18.211 21:21 11.10.2019
356 Clear -4 1020 69 0 1.21 14.392 20:45 11.10.2019
357 Clear -4 1020 69 0 1.21 14.392 20:27 11.10.2019
358 Clear -4 1020 69 0 1.21 14.392 19:59 11.10.2019
359 Clear -4 1020 69 0 1.21 14.392 19:39 11.10.2019
360 Clear -4 1020 69 0 1.21 14.392 19:18 11.10.2019
361 Clear -4 1020 69 0 1.21 14.392 19:18 11.10.2019
362 Clear -4 1020 69 0 1.21 14.392 19:18 11.10.2019
363 Clear -4 1020 69 0 1.21 14.392 19:18 11.10.2019
364 Clear -4 1020 69 0 1.21 14.392 18:59 11.10.2019
365 Clear -4 1020 69 0 1.21 14.392 18:39 11.10.2019
366 Clear -3 1019 63 0 1.05 353.828 18:19 11.10.2019
367 Clear -3 1019 63 0 1.05 353.828 17:59 11.10.2019
368 Clear -3 1019 63 0 1.05 353.828 17:38 11.10.2019
369 Clear -3 1019 63 0 1.05 353.828 17:19 11.10.2019
370 Clear -3 1019 63 0 1.05 353.828 17:19 11.10.2019
371 Clear -3 1019 63 0 1.05 353.828 16:59 11.10.2019
372 Clear -3 1019 63 0 1.05 353.828 16:39 11.10.2019
373 Clear -3 1019 63 0 1.05 353.828 16:19 11.10.2019
374 Clear -3 1019 63 0 1.05 353.828 15:55 11.10.2019
375 Clear -3 1019 63 0 1.05 353.828 15:36 11.10.2019
376 Clear -1 1017 58 0 1.6 320.849 15:18 11.10.2019
377 Clear -1 1017 58 0 1.6 320.849 14:41 11.10.2019
378 Clear -1 1017 58 0 1.6 320.849 14:21 11.10.2019
379 Clear -1 1017 58 0 1.6 320.849 13:45 11.10.2019
380 Clear -1 1017 60 0 1.62 322.205 13:26 11.10.2019
381 Clear -1 1017 60 0 1.62 322.205 12:58 11.10.2019
382 Clear -1 1017 60 0 1.62 322.205 12:39 11.10.2019
383 Clear 4 1014 41 0 5.12 305.46 12:20 11.10.2019
384 Clear 4 1014 41 0 5.12 305.46 11:58 11.10.2019
385 Clear 4 1014 41 0 5.12 305.46 11:38 11.10.2019
386 Clear 4 1014 41 0 5.12 305.46 11:38 11.10.2019
387 Clear 4 1014 41 0 5.12 305.46 11:20 11.10.2019
388 Clear 4 1014 41 0 5.12 305.46 10:55 11.10.2019
389 Clear 4 1014 41 0 5.12 305.46 10:36 11.10.2019
390 Clear 4 1014 41 0 5.12 305.46 10:18 11.10.2019
391 Clear 4 1014 41 0 5.12 305.46 09:42 11.10.2019
392 Clouds 6 1015 38 0 5.42 293.294 09:21 11.10.2019
393 Clouds 6 1015 38 0 5.42 293.294 08:57 11.10.2019
394 Clouds 6 1015 38 0 5.42 293.294 08:38 11.10.2019
395 Clouds 6 1015 38 0 5.42 293.294 08:20 11.10.2019
396 Clouds 6 1015 38 0 5.42 293.294 07:52 11.10.2019
397 Clouds 6 1015 38 0 5.42 293.294 07:33 11.10.2019
398 Clouds 6 1015 38 0 5.42 293.294 06:50 11.10.2019
399 Clouds 6 1015 38 0 5.42 293.294 06:25 11.10.2019
400 Clouds 3 1016 36 0 1.68 284.202 05:47 11.10.2019
401 Clouds 3 1016 36 0 1.68 284.202 05:29 11.10.2019
402 Clouds 3 1016 36 0 1.68 284.202 04:58 11.10.2019
403 Clouds 3 1016 36 0 1.68 284.202 03:27 11.10.2019
404 Clouds -3 1018 63 0 0.61 340.732 01:18 11.10.2019
405 Clouds -3 1018 63 0 0.61 340.732 01:18 11.10.2019
406 Clouds -3 1018 63 0 0.61 340.732 00:31 11.10.2019
407 Clouds -2 1017 74 0 1.48 270.543 23:58 10.10.2019
408 Clouds -2 1017 74 0 1.48 270.543 23:40 10.10.2019
409 Clouds -2 1017 74 0 1.48 270.543 23:19 10.10.2019
410 Clouds -2 1017 74 0 1.48 270.543 22:55 10.10.2019
411 Clouds -2 1017 74 0 1.48 270.543 22:36 10.10.2019
412 Clouds -2 1017 74 0 1.48 270.543 22:18 10.10.2019
413 Clouds -2 1017 74 0 1.48 270.543 21:42 10.10.2019
414 Clear -2 1017 77 0 1.32 270.479 21:22 10.10.2019
415 Clear -2 1018 78 0 1.04 262.978 20:58 10.10.2019
416 Clear -2 1018 78 0 1.04 262.978 20:39 10.10.2019
417 Clear -2 1018 78 0 1.04 262.978 20:19 10.10.2019
418 Clear -2 1018 78 0 1.04 262.978 19:56 10.10.2019
419 Clear -2 1018 78 0 1.04 262.978 19:38 10.10.2019
420 Clear -2 1018 78 0 1.04 262.978 19:19 10.10.2019
421 Clear -2 1018 78 0 1.04 262.978 18:42 10.10.2019
422 Clear -2 1018 78 0 0.9 9.619 18:21 10.10.2019
423 Clear -2 1018 78 0 0.9 9.619 17:58 10.10.2019
424 Clear -2 1018 78 0 0.9 9.619 17:39 10.10.2019
425 Clear -2 1018 78 0 0.9 9.619 17:18 10.10.2019
426 Clear -2 1018 78 0 0.9 9.619 17:18 10.10.2019
427 Clear -2 1018 78 0 0.9 9.619 16:55 10.10.2019
428 Clear -2 1018 78 0 0.9 9.619 16:37 10.10.2019
429 Clear -2 1018 78 0 0.9 9.619 16:18 10.10.2019
430 Clear -2 1018 78 0 0.9 9.619 15:39 10.10.2019
431 Clouds 0 1017 60 0 2.61 316.085 15:21 10.10.2019
432 Clouds 0 1017 60 0 2.61 316.085 14:56 10.10.2019
433 Clouds 0 1017 60 0 2.61 316.085 14:37 10.10.2019
434 Clouds 0 1017 60 0 2.61 316.085 14:19 10.10.2019
435 Clouds 0 1017 60 0 2.61 316.085 13:55 10.10.2019
436 Clouds 0 1017 60 0 2.61 316.085 13:37 10.10.2019
437 Clouds 0 1017 62 0 2.51 325.303 13:18 10.10.2019
438 Clouds 0 1017 62 0 2.51 325.303 12:41 10.10.2019
439 Clouds 6 1015 42 0 6.24 302.633 12:20 10.10.2019
440 Clouds 6 1015 42 0 6.24 302.633 11:58 10.10.2019
441 Clouds 6 1015 42 0 6.24 302.633 11:58 10.10.2019
442 Clouds 6 1015 42 0 6.24 302.633 11:39 10.10.2019
443 Clouds 6 1015 42 0 6.24 302.633 11:19 10.10.2019
444 Clouds 6 1015 42 0 6.24 302.633 10:45 10.10.2019
445 Clouds 6 1015 42 0 6.24 302.633 10:27 10.10.2019
446 Clouds 6 1015 42 0 6.24 302.633 09:58 10.10.2019
447 Clouds 6 1015 42 0 6.24 302.633 09:40 10.10.2019
448 Clouds 6 1016 41 0 5.87 288.352 09:21 10.10.2019
449 Clouds 6 1016 41 0 6.3 292.075 08:58 10.10.2019
450 Clouds 6 1016 41 0 6.3 292.075 08:38 10.10.2019
451 Clouds 6 1016 41 0 6.3 292.075 08:19 10.10.2019
452 Clouds 6 1016 41 0 6.3 292.075 08:19 10.10.2019
453 Clouds 6 1016 41 0 6.3 292.075 07:45 10.10.2019
454 Clouds 6 1016 41 0 6.3 292.075 07:23 10.10.2019
455 Clouds 6 1016 41 0 6.3 292.075 06:49 10.10.2019
456 Clouds 6 1016 41 0 6.3 292.075 06:29 10.10.2019
457 Clear 3 1018 46 0 1.57 216.468 05:28 10.10.2019
458 Clear 3 1018 46 0 1.57 216.468 05:28 10.10.2019
459 Clear 3 1018 46 0 1.57 216.468 04:54 10.10.2019
460 Clear 3 1018 46 0 1.57 216.468 04:33 10.10.2019
461 Clear -4 1020 82 0 1.08 228.446 01:46 10.10.2019
462 Clear -4 1020 82 0 1.08 228.446 01:46 10.10.2019
463 Clear -4 1020 79 0 1.09 240.711 01:26 10.10.2019
464 Clear -4 1020 79 0 1.09 240.711 00:54 10.10.2019
465 Clear -3 1020 79 0 1.13 248.915 00:23 10.10.2019
466 Clear -3 1020 79 0 1.13 248.915 23:40 09.10.2019
467 Clear -3 1020 79 0 1.13 248.915 23:22 09.10.2019
468 Clear -3 1020 79 0 1.13 248.915 22:57 09.10.2019
469 Clear -3 1020 79 0 1.13 248.915 22:38 09.10.2019
470 Clear -3 1020 79 0 1.13 248.915 22:20 09.10.2019
471 Clear -3 1020 79 0 1.13 248.915 21:41 09.10.2019
472 Clear -2 1020 81 0 0.9 279.869 21:21 09.10.2019
473 Clear -2 1020 80 0 0.84 273.47 20:56 09.10.2019
474 Clear -2 1020 80 0 0.84 273.47 20:38 09.10.2019
475 Clear -2 1020 80 0 0.84 273.47 20:19 09.10.2019
476 Clear -2 1020 80 0 0.84 273.47 20:19 09.10.2019
477 Clear -2 1020 80 0 0.84 273.47 19:58 09.10.2019
478 Clear -2 1020 80 0 0.84 273.47 19:40 09.10.2019
479 Clear -2 1020 80 0 0.84 273.47 19:21 09.10.2019
480 Clear -2 1020 80 0 0.84 273.47 18:38 09.10.2019
481 Clear -2 1020 76 0 0.89 335.966 18:20 09.10.2019
482 Clear -2 1020 76 0 0.89 335.966 17:57 09.10.2019
483 Clear -2 1020 76 0 0.89 335.966 17:37 09.10.2019
484 Clear -2 1020 76 0 0.89 335.966 17:19 09.10.2019
485 Clear -2 1020 76 0 0.89 335.966 16:55 09.10.2019
486 Clear -2 1020 76 0 0.89 335.966 16:36 09.10.2019
487 Clear -2 1020 76 0 0.89 335.966 16:18 09.10.2019
488 Clear -2 1020 76 0 0.89 335.966 15:55 09.10.2019
489 Clear -2 1020 76 0 0.89 335.966 15:55 09.10.2019
490 Clear -2 1020 76 0 0.89 335.966 15:36 09.10.2019
491 Clear 2 1019 52 0 4.03 318.72 15:18 09.10.2019
492 Clear 2 1019 52 0 4.03 318.72 14:42 09.10.2019
493 Clear 2 1019 52 0 4.03 318.72 14:42 09.10.2019
494 Clear 2 1019 52 0 4.03 318.72 14:18 09.10.2019
495 Clear 2 1019 52 0 4.03 318.72 13:58 09.10.2019
496 Clear 2 1019 52 0 4.03 318.72 13:36 09.10.2019
497 Clear 2 1019 52 0 4.03 318.72 13:36 09.10.2019
498 Clear 2 1019 52 0 3.88 321.172 13:18 09.10.2019
499 Clear 2 1019 52 0 3.88 321.172 12:42 09.10.2019
500 Clear 6 1017 38 0 6.91 311.85 12:22 09.10.2019
501 Clear 6 1017 38 0 6.91 311.85 11:58 09.10.2019
502 Clear 6 1017 38 0 6.91 311.85 11:39 09.10.2019
503 Clear 6 1017 38 0 6.91 311.85 11:20 09.10.2019
504 -273 0 0 0 0 0 10:55 09.10.2019
505 Clear 6 1017 38 0 6.91 311.85 10:37 09.10.2019
506 Clear 6 1017 38 0 6.91 311.85 10:18 09.10.2019
507 Clear 6 1017 38 0 6.91 311.85 09:42 09.10.2019
508 Clear 7 1017 36 0 5.53 302.414 09:19 09.10.2019
509 Clear 7 1017 36 0 5.53 302.414 08:56 09.10.2019
510 Clear 7 1017 37 0 5.02 294.795 08:37 09.10.2019
511 Clear 7 1017 37 0 5.02 294.795 08:18 09.10.2019
512 Clear 7 1017 37 0 5.02 294.795 08:18 09.10.2019
513 Clear 7 1017 37 0 5.02 294.795 07:43 09.10.2019
514 Clear 7 1017 37 0 5.02 294.795 07:23 09.10.2019
515 Clear 7 1017 37 0 5.02 294.795 06:52 09.10.2019
516 Clear 5 1019 39 0 1.77 246.267 06:20 09.10.2019
517 Clear 5 1019 39 0 1.77 246.267 06:20 09.10.2019
518 Clear 5 1019 39 0 1.77 246.267 05:46 09.10.2019
519 Clear 5 1019 39 0 1.77 246.267 04:27 09.10.2019
520 Clear -3 1020 63 0 0.63 291.279 02:54 09.10.2019
521 Clear -3 1020 63 0 0.63 291.279 01:44 09.10.2019
522 Clear -3 1020 63 0 0.77 275.666 01:21 09.10.2019
523 Clear -3 1020 63 0 0.77 275.666 01:21 09.10.2019
524 Clear -3 1020 63 0 0.77 275.666 01:21 09.10.2019
525 Clear -3 1020 63 0 0.77 275.666 00:57 09.10.2019
526 Clear -3 1020 63 0 0.77 275.666 00:39 09.10.2019
527 Clear -2 1019 63 0 1.22 287.469 00:20 09.10.2019
528 Clear -2 1019 63 0 1.22 287.469 23:40 08.10.2019
529 Clear -2 1019 63 0 1.22 287.469 23:19 08.10.2019
530 Clear -2 1019 63 0 1.22 287.469 22:58 08.10.2019
531 Clear -2 1019 63 0 1.22 287.469 22:39 08.10.2019
532 Clear -2 1019 63 0 1.22 287.469 22:20 08.10.2019
533 Clear -2 1019 63 0 1.22 287.469 21:57 08.10.2019
534 Clear -2 1019 63 0 1.22 287.469 21:39 08.10.2019
535 Clouds -1 1019 60 0 1.16 281.455 21:19 08.10.2019
536 Clouds -1 1019 60 0 1.16 281.455 20:56 08.10.2019
537 Clear -1 1019 58 0 1.3 269.912 20:38 08.10.2019
538 Clear -1 1019 58 0 1.3 269.912 20:20 08.10.2019
539 Clear -1 1019 58 0 1.3 269.912 19:58 08.10.2019
540 Clear -1 1019 58 0 1.3 269.912 19:39 08.10.2019
541 Clear -1 1019 58 0 1.3 269.912 19:20 08.10.2019
542 Clear -1 1019 58 0 1.3 269.912 18:54 08.10.2019
543 Clear -1 1019 58 0 1.3 269.912 18:36 08.10.2019
544 Clear 0 1018 51 0 1.39 266.663 18:18 08.10.2019
545 Clear 0 1018 51 0 1.39 266.663 17:40 08.10.2019
546 Clear 0 1018 51 0 1.39 266.663 17:20 08.10.2019
547 Clear 0 1018 51 0 1.39 266.663 16:58 08.10.2019
548 Clear 0 1018 51 0 1.39 266.663 16:38 08.10.2019
549 Clear 0 1018 51 0 1.39 266.663 16:20 08.10.2019
550 Clear 0 1018 51 0 1.39 266.663 15:41 08.10.2019
551 Clear 0 1018 51 0 1.39 266.663 15:41 08.10.2019
552 Clear 2 1018 44 0 1.98 279.291 15:21 08.10.2019
553 Clear 2 1018 44 0 1.98 279.291 14:58 08.10.2019
554 Clear 2 1018 44 0 1.98 279.291 14:39 08.10.2019
555 Clear 2 1018 44 0 1.98 279.291 14:20 08.10.2019
556 -273 0 0 0 0 0 13:56 08.10.2019
557 Clear 2 1018 44 0 1.98 279.291 13:38 08.10.2019
558 Clear 2 1018 44 0 1.98 279.291 13:18 08.10.2019
559 Clear 2 1018 41 0 2.05 269.413 12:56 08.10.2019
560 Clear 2 1018 41 0 2.05 269.413 12:37 08.10.2019
561 Clear 8 1016 28 0 5.64 261.258 12:18 08.10.2019
562 Clear 8 1016 28 0 5.64 261.258 11:41 08.10.2019
563 Clear 8 1016 28 0 5.64 261.258 11:22 08.10.2019
564 Clear 8 1016 28 0 5.64 261.258 10:56 08.10.2019
565 Clear 8 1016 28 0 5.64 261.258 10:36 08.10.2019
566 Clear 8 1016 28 0 5.64 261.258 10:18 08.10.2019
567 Clear 8 1016 28 0 5.64 261.258 09:41 08.10.2019
568 Clear 8 1016 28 0 5.64 261.258 09:41 08.10.2019
569 Clear 8 1016 28 0 5.64 261.258 09:41 08.10.2019
570 Clear 9 1018 27 0 6.18 243.12 09:23 08.10.2019
571 Clear 9 1018 27 0 6.18 243.12 08:57 08.10.2019
572 Clear 9 1018 27 0 6.31 244.535 08:39 08.10.2019
573 Clear 9 1018 27 0 6.31 244.535 08:21 08.10.2019
574 Clear 9 1018 27 0 6.31 244.535 07:41 08.10.2019
575 Clear 9 1018 27 0 6.31 244.535 07:20 08.10.2019
576 Clear 9 1018 27 0 6.31 244.535 07:20 08.10.2019
577 Clear 9 1018 27 0 6.31 244.535 06:47 08.10.2019
578 Clear 9 1018 27 0 6.31 244.535 06:26 08.10.2019
579 Clear 6 1021 38 0 2.38 197.956 05:44 08.10.2019
580 Clear 6 1021 38 0 2.38 197.956 05:24 08.10.2019
581 Clear 6 1021 38 0 2.38 197.956 03:32 08.10.2019
582 Clear -1 1022 68 0 1.35 163.317 02:46 08.10.2019
583 Clear -1 1022 68 0 1.35 163.317 02:26 08.10.2019
584 Clear -1 1022 68 0 1.35 163.317 01:42 08.10.2019
585 Clear -1 1022 64 0 1.33 162.286 00:57 08.10.2019
586 Clear -1 1022 64 0 1.33 162.286 00:36 08.10.2019
587 Clear -1 1022 70 0 1.12 160.135 00:18 08.10.2019
588 Clear -1 1022 70 0 1.12 160.135 23:38 07.10.2019
589 Clear -1 1022 70 0 1.12 160.135 23:19 07.10.2019
590 Clear -1 1022 70 0 1.12 160.135 22:55 07.10.2019
591 Clear -1 1022 70 0 1.12 160.135 22:37 07.10.2019
592 Clear -1 1022 70 0 1.12 160.135 22:19 07.10.2019
593 Clear -1 1022 70 0 1.12 160.135 21:55 07.10.2019
594 Clear -1 1022 70 0 1.12 160.135 21:37 07.10.2019
595 Clear -1 1023 68 0 0.79 153.564 21:18 07.10.2019
596 Clear -1 1023 67 0 0.79 154.957 20:56 07.10.2019
597 Clear -1 1023 67 0 0.79 154.957 20:38 07.10.2019
598 Clear -1 1023 67 0 0.79 154.957 20:18 07.10.2019
599 Clear -1 1023 67 0 0.79 154.957 19:42 07.10.2019
600 Clear -1 1023 67 0 0.79 154.957 19:42 07.10.2019
601 Clear -1 1023 67 0 0.79 154.957 19:21 07.10.2019
602 Clear -1 1023 67 0 0.79 154.957 19:00 07.10.2019
603 Clear -1 1023 67 0 0.79 154.957 18:41 07.10.2019
604 Clear 0 1024 62 0 0.97 64.987 18:19 07.10.2019
605 Clear 0 1024 62 0 0.97 64.987 17:56 07.10.2019
606 Clear 0 1024 62 0 0.97 64.987 17:38 07.10.2019
607 Clear 0 1024 62 0 0.97 64.987 17:18 07.10.2019
608 Clear 0 1024 62 0 0.97 64.987 16:44 07.10.2019
609 Clear 0 1024 62 0 0.97 64.987 16:25 07.10.2019
610 Clear 0 1024 62 0 0.97 64.987 15:57 07.10.2019
611 Clear 0 1024 62 0 0.97 64.987 15:38 07.10.2019
612 Clear 2 1024 55 0 1.86 42.673 15:20 07.10.2019
613 Clear 2 1024 55 0 1.86 42.673 14:41 07.10.2019
614 Clear 2 1024 55 0 1.86 42.673 14:23 07.10.2019
615 Clear 2 1024 55 0 1.86 42.673 13:45 07.10.2019
616 Clear 2 1024 57 0 1.71 49.37 13:21 07.10.2019
617 Clear 2 1024 57 0 1.71 49.37 12:58 07.10.2019
618 Clear 2 1024 57 0 1.71 49.37 12:39 07.10.2019
619 Clear 8 1023 36 0 1.29 6.095 12:20 07.10.2019
620 Clear 8 1023 36 0 1.29 6.095 11:59 07.10.2019
621 Clear 8 1023 36 0 1.29 6.095 11:40 07.10.2019
622 Clear 8 1023 36 0 1.29 6.095 11:20 07.10.2019
623 Clear 8 1023 36 0 1.29 6.095 10:43 07.10.2019
624 Clear 8 1023 36 0 1.29 6.095 10:23 07.10.2019
625 Clear 8 1023 36 0 1.29 6.095 09:58 07.10.2019
626 Clear 8 1023 36 0 1.29 6.095 09:38 07.10.2019
627 Clear 8 1023 36 0 1.29 6.095 09:38 07.10.2019
628 Clear 8 1025 37 0 1.03 338.549 09:20 07.10.2019
629 Clear 8 1025 39 0 0.82 331.496 08:43 07.10.2019
630 Clear 8 1025 39 0 0.82 331.496 08:20 07.10.2019
631 Clear 8 1025 39 0 0.82 331.496 07:47 07.10.2019
632 Clear 8 1025 39 0 0.82 331.496 07:27 07.10.2019
633 Clear 8 1025 39 0 0.82 331.496 06:58 07.10.2019
634 Clear 8 1025 39 0 0.82 331.496 06:38 07.10.2019
635 Clear 5 1026 51 0 1.44 48.508 06:18 07.10.2019
636 Clear 5 1026 51 0 1.44 48.508 05:26 07.10.2019
637 Clear 5 1026 51 0 1.44 48.508 04:49 07.10.2019
638 Clear 5 1026 51 0 1.44 48.508 03:46 07.10.2019
639 Clear 5 1026 51 0 1.44 48.508 03:46 07.10.2019
640 Clear 5 1026 51 0 1.44 48.508 03:27 07.10.2019
641 Clear -1 1027 74 0 1.93 37.664 02:37 07.10.2019
642 Clear -1 1027 74 0 1.93 37.664 02:18 07.10.2019
643 Clear -1 1027 74 0 1.93 37.664 02:18 07.10.2019
644 Clear -1 1027 73 0 1.93 35.438 01:23 07.10.2019
645 Clear -1 1027 73 0 1.93 35.438 00:51 07.10.2019
646 Clear -1 1026 71 0 1.8 32.984 00:24 07.10.2019
647 Clear -1 1026 71 0 1.8 32.984 23:59 06.10.2019
648 Clear -1 1026 71 0 1.8 32.984 23:40 06.10.2019
649 Clear -1 1026 71 0 1.8 32.984 23:19 06.10.2019
650 Clear -1 1026 71 0 1.8 32.984 22:55 06.10.2019
651 Clear -1 1026 71 0 1.8 32.984 22:55 06.10.2019
652 Clear -1 1026 71 0 1.8 32.984 22:37 06.10.2019
653 Clear -1 1026 71 0 1.8 32.984 22:18 06.10.2019
654 Clear -1 1026 71 0 1.8 32.984 21:55 06.10.2019
655 Clear -1 1026 71 0 1.8 32.984 21:55 06.10.2019
656 Clear -1 1026 71 0 1.8 32.984 21:36 06.10.2019
657 Clear -1 1027 64 0 1.4 27.206 21:18 06.10.2019
658 Clear -1 1027 64 0 1.4 27.206 20:54 06.10.2019
659 Clear -1 1027 64 0 1.4 27.206 20:54 06.10.2019
660 Clear -1 1027 63 0 1.4 29.126 20:36 06.10.2019
661 Clear -1 1027 63 0 1.4 29.126 20:18 06.10.2019
662 Clear -1 1027 63 0 1.4 29.126 19:54 06.10.2019
663 Clear -1 1027 63 0 1.4 29.126 19:36 06.10.2019
664 Clear -1 1027 63 0 1.4 29.126 19:18 06.10.2019
665 Clear -1 1027 63 0 1.4 29.126 18:54 06.10.2019
666 Clear -1 1027 63 0 1.4 29.126 18:54 06.10.2019
667 Clear -1 1027 63 0 1.4 29.126 18:36 06.10.2019
668 Clear 0 1027 60 0 1.41 30.811 18:18 06.10.2019
669 Clear 0 1027 60 0 1.41 30.811 17:42 06.10.2019
670 Clear 0 1027 60 0 1.41 30.811 17:20 06.10.2019
671 Clear 0 1027 60 0 1.41 30.811 16:55 06.10.2019
672 Clear 0 1027 60 0 1.41 30.811 16:55 06.10.2019
673 Clear 0 1027 60 0 1.41 30.811 16:36 06.10.2019
674 Clear 0 1027 60 0 1.41 30.811 16:18 06.10.2019
675 Clear 0 1027 60 0 1.41 30.811 15:42 06.10.2019
676 Clear 1 1026 59 0 1.21 329.443 15:19 06.10.2019
677 Clear 1 1026 59 0 1.21 329.443 15:19 06.10.2019
678 -273 0 0 0 0 0 15:19 06.10.2019
679 Clear 1 1026 59 0 1.21 329.443 14:44 06.10.2019
680 Clear 1 1026 59 0 1.21 329.443 14:25 06.10.2019
681 Clear 1 1026 59 0 1.21 329.443 13:58 06.10.2019
682 Clear 1 1026 59 0 1.21 329.443 13:39 06.10.2019
683 Clear 0 1026 58 0 1.16 326.159 13:21 06.10.2019
684 Clear 0 1026 58 0 1.16 326.159 12:57 06.10.2019
685 Clear 0 1026 58 0 1.16 326.159 12:39 06.10.2019
686 Clear 7 1024 37 0 2.75 292.466 12:20 06.10.2019
687 Clear 7 1024 37 0 2.75 292.466 11:57 06.10.2019
688 Clear 7 1024 37 0 2.75 292.466 11:38 06.10.2019
689 Clear 7 1024 37 0 2.75 292.466 11:20 06.10.2019
690 Clear 7 1024 37 0 2.75 292.466 10:44 06.10.2019
691 Clear 7 1024 37 0 2.75 292.466 10:26 06.10.2019
692 Clear 7 1024 37 0 2.75 292.466 09:58 06.10.2019
693 Clear 7 1024 37 0 2.75 292.466 09:40 06.10.2019
694 Clear 7 1026 32 0 1.33 291.103 09:19 06.10.2019
695 Clear 7 1026 32 0 1.33 291.103 08:43 06.10.2019
696 Clear 7 1025 32 0 1.59 276.977 08:21 06.10.2019
697 Clear 7 1025 32 0 1.59 276.977 07:57 06.10.2019
698 Clear 7 1025 32 0 1.59 276.977 07:35 06.10.2019
699 Clear 4 1027 26 0 0.5 261.081 06:23 06.10.2019
700 Clear 4 1027 26 0 0.5 261.081 05:35 06.10.2019
701 Clear 4 1027 26 0 0.5 261.081 04:26 06.10.2019
702 Clear -4 1030 40 0 0.16 22.457 02:46 06.10.2019
703 Clear -4 1030 40 0 0.16 22.457 02:27 06.10.2019
704 Clear -4 1030 40 0 0.16 22.457 01:46 06.10.2019
705 Clear -4 1030 41 0 0.09 305.096 01:27 06.10.2019
706 Clear -4 1030 41 0 0.09 305.096 00:53 06.10.2019
707 Clear -4 1030 41 0 0.09 305.096 00:27 06.10.2019
708 Clear -4 1029 38 0 0.11 154.558 23:45 05.10.2019
709 Clear -4 1029 38 0 0.11 154.558 23:23 05.10.2019
710 Clear -4 1029 38 0 0.11 154.558 22:58 05.10.2019
711 Clear -4 1029 38 0 0.11 154.558 22:40 05.10.2019
712 Clear -4 1029 38 0 0.11 154.558 22:20 05.10.2019
713 Clear -4 1029 38 0 0.11 154.558 21:57 05.10.2019
714 Clear -4 1029 38 0 0.11 154.558 21:39 05.10.2019
715 Clear -4 1029 38 0 0.11 154.558 21:39 05.10.2019
716 Clear -3 1030 40 0 0.79 35.841 21:20 05.10.2019
717 Clear -3 1030 40 0 0.79 35.841 20:56 05.10.2019
718 Clear -3 1030 41 0 0.48 70.738 20:37 05.10.2019
719 Clear -3 1030 41 0 0.48 70.738 20:37 05.10.2019
720 Clear -3 1030 41 0 0.48 70.738 20:18 05.10.2019
721 Clear -3 1030 41 0 0.48 70.738 19:38 05.10.2019
722 Clear -3 1030 41 0 0.48 70.738 19:19 05.10.2019
723 Clear -3 1030 41 0 0.48 70.738 18:56 05.10.2019
724 Clear -3 1030 41 0 0.48 70.738 18:37 05.10.2019
725 Clear -3 1030 42 0 0.97 16.745 18:19 05.10.2019
726 Clear -3 1030 42 0 0.97 16.745 17:43 05.10.2019
727 Clear -3 1030 42 0 0.97 16.745 17:25 05.10.2019
728 Clear -3 1030 42 0 0.97 16.745 16:58 05.10.2019
729 Clear -3 1030 42 0 0.97 16.745 16:40 05.10.2019
730 Clear -3 1030 42 0 0.97 16.745 16:21 05.10.2019
731 Clear -3 1030 42 0 0.97 16.745 15:57 05.10.2019
732 Clear -3 1030 42 0 0.97 16.745 15:38 05.10.2019
733 Clear -3 1030 42 0 0.97 16.745 15:38 05.10.2019
734 Clear -3 1028 41 0 1.11 326.767 15:20 05.10.2019
735 Clear -3 1028 41 0 1.11 326.767 14:44 05.10.2019
736 Clear -3 1028 41 0 1.11 326.767 14:25 05.10.2019
737 Clear -3 1028 41 0 1.11 326.767 13:59 05.10.2019
738 Clear -3 1028 41 0 1.11 326.767 13:40 05.10.2019
739 Clear -3 1028 42 0 1.06 315.343 13:20 05.10.2019
740 Clear -3 1028 42 0 1.06 315.343 12:44 05.10.2019
741 Clear 4 1025 24 0 3.22 291.415 12:20 05.10.2019
742 Clear 4 1025 24 0 3.22 291.415 11:45 05.10.2019
743 Clear 4 1025 24 0 3.22 291.415 11:23 05.10.2019
744 Clear 4 1025 24 0 3.22 291.415 10:59 05.10.2019
745 Clear 4 1025 24 0 3.22 291.415 10:41 05.10.2019
746 Clear 4 1025 24 0 3.22 291.415 10:23 05.10.2019
747 Clear 4 1025 24 0 3.22 291.415 09:56 05.10.2019
748 Clear 4 1025 24 0 3.22 291.415 09:37 05.10.2019
749 Clear 4 1026 28 0 4.26 273.604 09:19 05.10.2019
750 Clear 4 1026 27 0 4.14 275.103 08:39 05.10.2019
751 Clear 4 1026 27 0 4.14 275.103 08:19 05.10.2019
752 Clear 4 1026 27 0 4.14 275.103 07:52 05.10.2019
753 Clear 4 1026 27 0 4.14 275.103 07:31 05.10.2019
754 Clear 4 1026 27 0 4.14 275.103 06:57 05.10.2019
755 Clear 4 1026 27 0 4.14 275.103 06:24 05.10.2019
756 Clear 2 1027 39 0 2.86 260.676 05:39 05.10.2019
757 Clear 2 1027 39 0 2.86 260.676 03:34 05.10.2019
758 Clouds -4 1028 82 0 1.53 216.676 02:45 05.10.2019
759 Clear -4 1028 78 0 1.52 215.103 01:29 05.10.2019
760 Clear -4 1028 78 0 1.52 215.103 00:49 05.10.2019
761 Clear -4 1028 78 0 1.52 215.103 00:28 05.10.2019
762 Clear -4 1027 76 0 1.45 209.539 23:58 04.10.2019
763 Clear -4 1027 76 0 1.45 209.539 23:40 04.10.2019
764 Clear -4 1027 76 0 1.45 209.539 23:22 04.10.2019
765 Clear -4 1027 76 0 1.45 209.539 22:57 04.10.2019
766 Clear -4 1027 76 0 1.45 209.539 22:38 04.10.2019
767 Clear -4 1027 76 0 1.45 209.539 22:19 04.10.2019
768 Clear -4 1027 76 0 1.45 209.539 21:40 04.10.2019
769 Clouds -3 1027 68 0 1.58 208.055 21:22 04.10.2019
770 Clouds -3 1027 68 0 1.58 208.055 20:59 04.10.2019
771 Clouds -4 1027 70 0 1.26 197.932 20:41 04.10.2019
772 Clouds -4 1027 70 0 1.26 197.932 20:22 04.10.2019
773 Clouds -4 1027 70 0 1.26 197.932 19:56 04.10.2019
774 Clouds -4 1027 70 0 1.26 197.932 19:38 04.10.2019
775 Clouds -4 1027 70 0 1.26 197.932 19:20 04.10.2019
776 Clouds -4 1027 70 0 1.26 197.932 18:55 04.10.2019
777 Clouds -4 1027 70 0 1.26 197.932 18:36 04.10.2019
778 Clouds -3 1027 68 0 0.29 214.72 18:18 04.10.2019
779 Clouds -3 1027 68 0 0.29 214.72 17:40 04.10.2019
780 Clouds -3 1027 68 0 0.29 214.72 17:22 04.10.2019
781 Clouds -3 1027 68 0 0.29 214.72 16:58 04.10.2019
782 Clouds -3 1027 68 0 0.29 214.72 16:39 04.10.2019
783 Clouds -3 1027 68 0 0.29 214.72 16:18 04.10.2019
784 Clouds -3 1027 68 0 0.29 214.72 16:18 04.10.2019
785 Clouds -3 1027 68 0 0.29 214.72 16:18 04.10.2019
786 Clouds -3 1027 68 0 0.29 214.72 15:56 04.10.2019
787 Clouds -3 1027 68 0 0.29 214.72 15:37 04.10.2019
788 Clouds -2 1025 62 0 1.47 241.278 15:19 04.10.2019
789 Clouds -2 1025 62 0 1.47 241.278 14:55 04.10.2019
790 Clouds -2 1025 62 0 1.47 241.278 14:55 04.10.2019
791 Clouds -2 1025 62 0 1.47 241.278 14:36 04.10.2019
792 Clouds -2 1025 62 0 1.47 241.278 14:18 04.10.2019
793 Clouds -2 1025 62 0 1.47 241.278 13:43 04.10.2019
794 Clouds -3 1026 65 0 1.47 238.011 13:21 04.10.2019
795 Clouds -3 1026 65 0 1.47 238.011 12:47 04.10.2019
796 Clouds -3 1026 65 0 1.47 238.011 12:29 04.10.2019
797 Clouds 3 1024 39 0 2.52 214.29 11:59 04.10.2019
798 Clouds 3 1024 39 0 2.52 214.29 11:59 04.10.2019
799 Clouds 3 1024 39 0 2.52 214.29 11:59 04.10.2019
800 Clouds 3 1024 39 0 2.52 214.29 11:59 04.10.2019
801 Clouds 3 1024 39 0 2.52 214.29 11:41 04.10.2019
802 Clouds 3 1024 39 0 2.52 214.29 11:20 04.10.2019
803 Clouds 3 1024 39 0 2.52 214.29 11:20 04.10.2019
804 Clouds 3 1024 39 0 2.52 214.29 10:41 04.10.2019
805 Clouds 3 1024 39 0 2.52 214.29 10:21 04.10.2019
806 Clouds 3 1024 39 0 2.52 214.29 09:48 04.10.2019
807 Clouds 3 1024 39 0 3.05 211.791 09:30 04.10.2019
808 Clouds 3 1026 35 0 2.91 185.059 08:57 04.10.2019
809 Clouds 3 1026 35 0 2.91 185.059 08:38 04.10.2019
810 Clouds 3 1026 35 0 2.91 185.059 08:20 04.10.2019
811 Clouds 3 1026 35 0 2.91 185.059 07:45 04.10.2019
812 Clouds 3 1026 35 0 2.91 185.059 07:22 04.10.2019
813 Clouds 3 1026 35 0 2.91 185.059 06:44 04.10.2019
814 Clouds 3 1026 35 0 2.91 185.059 06:25 04.10.2019
815 Clouds 0 1030 40 0 2.23 177.024 05:42 04.10.2019
816 Clouds 0 1030 40 0 2.23 177.024 05:18 04.10.2019
817 Clouds 0 1030 40 0 2.23 177.024 03:48 04.10.2019
818 Clear -6 1033 59 0 0.68 153.698 02:54 04.10.2019
819 Clear -6 1033 59 0 0.68 153.698 02:54 04.10.2019
820 Clear -6 1033 59 0 0.68 153.698 01:56 04.10.2019
821 Clear -6 1033 59 0 0.75 169.716 01:30 04.10.2019
822 Clear -6 1033 59 0 0.75 169.716 00:58 04.10.2019
823 Clear -6 1032 56 0 0.8 150.869 23:59 03.10.2019
824 Clear -6 1032 56 0 0.8 150.869 23:37 03.10.2019
825 Clear -6 1032 56 0 0.8 150.869 23:18 03.10.2019
826 Clear -6 1032 56 0 0.8 150.869 22:56 03.10.2019
827 Clear -6 1032 56 0 0.8 150.869 22:38 03.10.2019
828 Clear -6 1032 56 0 0.8 150.869 22:20 03.10.2019
829 Clear -6 1032 56 0 0.8 150.869 21:56 03.10.2019
830 Clear -6 1032 56 0 0.8 150.869 21:37 03.10.2019
831 Clear -5 1034 51 0 1.05 142.341 21:19 03.10.2019
832 Clear -5 1034 51 0 1.05 142.341 20:55 03.10.2019
833 Clear -5 1033 51 0 1.03 139.597 20:37 03.10.2019
834 Clear -5 1033 51 0 1.03 139.597 20:37 03.10.2019
835 Clear -5 1033 51 0 1.03 139.597 20:19 03.10.2019
836 Clear -5 1033 51 0 1.03 139.597 19:41 03.10.2019
837 Clear -5 1033 51 0 1.03 139.597 19:22 03.10.2019
838 Clear -5 1033 51 0 1.03 139.597 18:59 03.10.2019
839 Clear -5 1033 51 0 1.03 139.597 18:39 03.10.2019
840 Clear -5 1033 51 0 1.03 139.597 18:39 03.10.2019
841 Clear -5 1033 50 0 0.11 314.615 18:19 03.10.2019
842 Clear -5 1033 50 0 0.11 314.615 17:56 03.10.2019
843 Clear -5 1033 50 0 0.11 314.615 17:37 03.10.2019
844 Clear -5 1033 50 0 0.11 314.615 17:19 03.10.2019
845 Clear -5 1033 50 0 0.11 314.615 16:43 03.10.2019
846 Clear -5 1033 50 0 0.11 314.615 16:25 03.10.2019
847 Clear -5 1033 50 0 0.11 314.615 15:56 03.10.2019
848 Clear -5 1033 50 0 0.11 314.615 15:38 03.10.2019
849 Clear -5 1033 50 0 0.11 314.615 15:38 03.10.2019
850 Clear -4 1032 45 0 1.67 267.119 15:19 03.10.2019
851 Clear -4 1032 45 0 1.67 267.119 14:45 03.10.2019
852 Clear -4 1032 45 0 1.67 267.119 14:26 03.10.2019
853 Clear -4 1032 45 0 1.67 267.119 13:57 03.10.2019
854 Clear -4 1032 45 0 1.67 267.119 13:39 03.10.2019
855 Clear -4 1032 47 0 1.5 276.185 13:19 03.10.2019
856 Clear -4 1032 47 0 1.5 276.185 12:55 03.10.2019
857 Clear -4 1032 47 0 1.5 276.185 12:36 03.10.2019
858 Clear 2 1030 29 0 1.94 246.67 12:18 03.10.2019
859 Clear 2 1030 29 0 1.94 246.67 11:41 03.10.2019
860 Clear 2 1030 29 0 1.94 246.67 11:22 03.10.2019
861 Clear 2 1030 29 0 1.94 246.67 10:58 03.10.2019
862 Clear 2 1030 29 0 1.94 246.67 10:40 03.10.2019
863 Clear 2 1030 29 0 1.94 246.67 10:18 03.10.2019
864 Clear 2 1030 29 0 1.94 246.67 09:57 03.10.2019
865 Clear 2 1030 29 0 1.94 246.67 09:39 03.10.2019
866 Clear 1 1031 33 0 1.4 248.115 09:20 03.10.2019
867 Clear 1 1031 33 0 1.4 248.115 09:20 03.10.2019
868 Clear 1 1031 34 0 1.37 245.263 08:44 03.10.2019
869 Clear 1 1031 34 0 1.37 245.263 08:26 03.10.2019
870 Clear 1 1031 34 0 1.37 245.263 07:57 03.10.2019
871 Clear 1 1031 34 0 1.37 245.263 07:38 03.10.2019
872 Clear 1 1031 34 0 1.37 245.263 07:19 03.10.2019
873 Clear 1 1031 34 0 1.37 245.263 06:45 03.10.2019
874 Clear -2 1034 54 0 0.57 60.032 06:18 03.10.2019
875 Clear -2 1034 54 0 0.57 60.032 05:38 03.10.2019
876 Clear -2 1034 54 0 0.57 60.032 04:50 03.10.2019
877 Clear -2 1034 54 0 0.57 60.032 04:25 03.10.2019
878 Clear -7 1035 78 0 2.14 36.741 03:20 03.10.2019
879 Clear -7 1035 78 0 2.14 36.741 02:33 03.10.2019
880 Clear -7 1035 78 0 2.14 36.741 01:50 03.10.2019
881 Clear -7 1035 75 0 2.2 34.738 01:31 03.10.2019
882 Clear -7 1035 75 0 2.2 34.738 00:45 03.10.2019
883 Clear -7 1034 69 0 2.3 30.904 23:58 02.10.2019
884 Clear -7 1034 69 0 2.3 30.904 23:38 02.10.2019
885 Clear -7 1034 69 0 2.3 30.904 23:19 02.10.2019
886 Clear -7 1034 69 0 2.3 30.904 22:43 02.10.2019
887 Clear -7 1034 69 0 2.3 30.904 22:21 02.10.2019
888 Clear -7 1034 69 0 2.3 30.904 21:56 02.10.2019
889 Clear -7 1034 69 0 2.3 30.904 21:38 02.10.2019
890 Clear -6 1034 62 0 2.61 25.153 21:19 02.10.2019
891 Clear -6 1034 62 0 2.61 25.153 21:19 02.10.2019
892 Clear -6 1034 62 0 2.86 26.063 20:55 02.10.2019
893 Clear -6 1034 62 0 2.86 26.063 20:37 02.10.2019
894 Clear -6 1034 62 0 2.86 26.063 20:19 02.10.2019
895 Clear -6 1034 62 0 2.86 26.063 19:45 02.10.2019
896 Clear -6 1034 62 0 2.86 26.063 19:23 02.10.2019
897 Clear -6 1034 62 0 2.86 26.063 19:23 02.10.2019
898 Clear -6 1034 62 0 2.86 26.063 18:59 02.10.2019
899 Clear -6 1034 62 0 2.86 26.063 18:59 02.10.2019
900 Clear -6 1034 62 0 2.86 26.063 18:40 02.10.2019
901 Clear -5 1033 61 0 2.82 21.609 18:21 02.10.2019
902 Clear -5 1033 61 0 2.82 21.609 17:58 02.10.2019
903 Clear -5 1033 61 0 2.82 21.609 17:40 02.10.2019
904 Clear -5 1033 61 0 2.82 21.609 17:21 02.10.2019
905 Clear -5 1033 61 0 2.82 21.609 16:57 02.10.2019
906 Clear -5 1033 61 0 2.82 21.609 16:37 02.10.2019
907 Clear -5 1033 61 0 2.82 21.609 16:19 02.10.2019
908 Clear -5 1033 61 0 2.82 21.609 15:55 02.10.2019
909 Clear -5 1033 61 0 2.82 21.609 15:37 02.10.2019
910 Clouds -4 1030 61 0 4.15 18.483 15:18 02.10.2019
911 Clouds -4 1030 61 0 4.15 18.483 14:43 02.10.2019
912 Clouds -4 1030 61 0 4.15 18.483 14:23 02.10.2019
913 Clouds -4 1030 61 0 4.15 18.483 13:56 02.10.2019
914 Clouds -4 1030 61 0 4.15 18.483 13:37 02.10.2019
915 Clouds -4 1030 58 0 3.46 18.079 13:19 02.10.2019
916 Clouds -4 1030 58 0 3.46 18.079 12:39 02.10.2019
917 Clouds -4 1030 58 0 3.46 18.079 12:39 02.10.2019
918 Clouds 0 1026 48 0 5.58 23.849 12:21 02.10.2019
919 Clouds 0 1026 48 0 5.58 23.849 11:45 02.10.2019
920 Clouds 0 1026 48 0 5.58 23.849 11:24 02.10.2019
921 -273 0 0 0 0 0 10:56 02.10.2019
922 -273 0 0 0 0 0 10:55 02.10.2019
923 Clouds 0 1026 48 0 5.58 23.849 10:36 02.10.2019
924 Clouds 0 1026 48 0 5.58 23.849 10:18 02.10.2019
925 Clouds 0 1026 48 0 5.58 23.849 09:39 02.10.2019
926 Clouds 1 1024 47 0 4.72 358.07 09:20 02.10.2019
927 Clouds 1 1024 47 0 4.72 358.07 08:55 02.10.2019
928 Clouds 1 1024 50 0 4.55 1.978 08:36 02.10.2019
929 Clouds 1 1024 50 0 4.55 1.978 08:18 02.10.2019
930 Clouds 1 1024 50 0 4.55 1.978 07:39 02.10.2019
931 Clouds 1 1024 50 0 4.55 1.978 07:20 02.10.2019
932 Clouds 1 1024 50 0 4.55 1.978 07:20 02.10.2019
933 Clouds 1 1024 50 0 4.55 1.978 06:46 02.10.2019
934 Clouds 0 1024 59 0 3.1 279.651 05:56 02.10.2019
935 Clouds 0 1024 59 0 3.1 279.651 05:24 02.10.2019
936 Clouds 0 1024 59 0 3.1 279.651 04:53 02.10.2019
937 Clouds 0 1024 59 0 3.1 279.651 03:52 02.10.2019
938 Clouds -3 1022 88 0 0.97 157.539 02:43 02.10.2019
939 Clouds -3 1022 88 0 0.97 157.539 02:23 02.10.2019
940 Clouds -3 1022 88 0 0.97 157.539 01:40 02.10.2019
941 Clouds -3 1023 90 0 0.99 109.482 00:50 02.10.2019
942 Clouds -3 1023 90 0 0.99 109.482 00:27 02.10.2019
943 Clouds -3 1020 93 0 1.16 38.929 23:44 01.10.2019
944 Clouds -3 1020 93 0 1.16 38.929 23:25 01.10.2019
945 Clouds -3 1020 93 0 1.16 38.929 22:59 01.10.2019
946 Clouds -3 1020 93 0 1.16 38.929 22:40 01.10.2019
947 Clouds -3 1020 93 0 1.16 38.929 22:20 01.10.2019
948 Clouds -3 1020 93 0 1.16 38.929 22:20 01.10.2019
949 Clouds -3 1020 93 0 1.16 38.929 22:20 01.10.2019
950 Clouds -3 1020 93 0 1.16 38.929 21:57 01.10.2019
951 Clouds -3 1020 93 0 1.16 38.929 21:39 01.10.2019
952 Clouds -2 1018 89 0 1.58 7.35 21:20 01.10.2019
953 Clouds -2 1018 89 0 1.58 7.35 20:56 01.10.2019
954 Clouds -3 1019 83 0 1.45 4.944 20:37 01.10.2019
955 Clouds -3 1019 83 0 1.45 4.944 20:19 01.10.2019
956 Clouds -3 1019 83 0 1.45 4.944 19:55 01.10.2019
957 Clouds -3 1019 83 0 1.45 4.944 19:55 01.10.2019
958 Clouds -3 1019 83 0 1.45 4.944 19:55 01.10.2019
959 Clouds -3 1019 83 0 1.45 4.944 19:37 01.10.2019
960 Clouds -3 1019 83 0 1.45 4.944 19:37 01.10.2019
961 Clouds -3 1019 83 0 1.45 4.944 19:18 01.10.2019
962 Clouds -3 1019 83 0 1.45 4.944 18:40 01.10.2019
963 Clouds -2 1018 68 0 0.63 346.25 18:21 01.10.2019
964 Clouds -2 1018 68 0 0.63 346.25 17:58 01.10.2019
965 Clouds -2 1018 68 0 0.63 346.25 17:39 01.10.2019
966 Clouds -2 1018 68 0 0.63 346.25 17:19 01.10.2019
967 Clouds -2 1018 68 0 0.63 346.25 16:57 01.10.2019
968 Clouds -2 1018 68 0 0.63 346.25 16:39 01.10.2019
969 Clouds -2 1018 68 0 0.63 346.25 16:39 01.10.2019
970 Clouds -2 1018 68 0 0.63 346.25 16:20 01.10.2019
971 Clouds -2 1018 68 0 0.63 346.25 15:42 01.10.2019
972 Clear 0 1016 58 0 1.22 287.932 15:22 01.10.2019
973 Clear 0 1016 58 0 1.22 287.932 14:41 01.10.2019
974 Clear 0 1016 58 0 1.22 287.932 14:20 01.10.2019
975 Clear 0 1016 58 0 1.22 287.932 13:58 01.10.2019
976 Clear 0 1016 58 0 1.22 287.932 13:58 01.10.2019
977 Clear 0 1016 58 0 1.22 287.932 13:58 01.10.2019
978 Clear 0 1016 58 0 1.22 287.932 13:39 01.10.2019
979 Clear 0 1016 58 0 1.22 287.932 13:39 01.10.2019
980 Clear 0 1017 57 0 1.1 300.283 13:20 01.10.2019
981 Clear 0 1017 57 0 1.1 300.283 12:58 01.10.2019
982 Clear 0 1017 57 0 1.1 300.283 12:39 01.10.2019
983 Clear 5 1014 38 0 5.12 273.43 12:19 01.10.2019
984 Clear 5 1014 38 0 5.12 273.43 11:58 01.10.2019
985 Clear 5 1014 38 0 5.12 273.43 11:38 01.10.2019
986 Clear 5 1014 38 0 5.12 273.43 11:18 01.10.2019
987 Clear 5 1014 38 0 5.12 273.43 11:18 01.10.2019
988 Clear 5 1014 38 0 5.12 273.43 10:49 01.10.2019
989 Clear 5 1014 38 0 5.12 273.43 10:29 01.10.2019
990 Clear 5 1014 38 0 5.12 273.43 09:47 01.10.2019
991 Clear 5 1014 38 0 5.12 273.43 09:27 01.10.2019
992 Clouds 6 1015 35 0 4.67 273.397 08:57 01.10.2019
993 Clouds 6 1015 34 0 4.15 278.641 08:39 01.10.2019
994 Clouds 6 1015 34 0 4.15 278.641 08:20 01.10.2019
995 Clouds 6 1015 34 0 4.15 278.641 07:42 01.10.2019
996 Clouds 6 1015 34 0 4.15 278.641 07:22 01.10.2019
997 Clouds 6 1015 34 0 4.15 278.641 06:45 01.10.2019
998 Clouds 4 1016 64 0 1.69 317.754 06:18 01.10.2019
999 Clouds 4 1016 64 0 1.69 317.754 05:45 01.10.2019
1000 Clouds 4 1016 64 0 1.69 317.754 04:49 01.10.2019
1001 Clouds 4 1016 64 0 1.69 317.754 04:26 01.10.2019
1002 Clouds 1 1015 94 0 1.4 341.76 02:26 01.10.2019
1003 Clouds 1 1015 94 0 1.4 341.76 01:57 01.10.2019
1004 Clouds 0 1015 92 0 1.02 352.308 00:53 01.10.2019
1005 Clouds 0 1015 92 0 1.02 352.308 00:26 01.10.2019
1006 Clouds 3 1012 83 0 0.32 29.79 23:55 30.09.2019
1007 Clouds 3 1012 83 0 0.32 29.79 23:37 30.09.2019
1008 Clouds 3 1012 83 0 0.32 29.79 23:18 30.09.2019
1009 Clouds 3 1012 83 0 0.32 29.79 22:42 30.09.2019
1010 Clouds 3 1012 83 0 0.32 29.79 22:24 30.09.2019
1011 Clouds 3 1012 83 0 0.32 29.79 21:56 30.09.2019
1012 Clouds 3 1012 83 0 0.32 29.79 21:38 30.09.2019
1013 Clouds 3 1012 83 0 0.32 29.79 21:38 30.09.2019
1014 Clouds 5 1009 70 0 1.93 296.22 21:19 30.09.2019
1015 -273 0 0 0 0 0 20:55 30.09.2019
1016 Clouds 5 1009 70 0 1.93 296.22 20:55 30.09.2019
1017 Clouds 5 1009 70 0 1.93 296.22 20:55 30.09.2019
1018 Clouds 4 1009 75 0 0.89 322.21 20:37 30.09.2019
1019 Clouds 4 1009 75 0 0.89 322.21 20:19 30.09.2019
1020 Clouds 4 1009 75 0 0.89 322.21 19:56 30.09.2019
1021 Clouds 4 1009 75 0 0.89 322.21 19:56 30.09.2019
1022 -273 0 0 0 0 0 19:56 30.09.2019
1023 Clouds 4 1009 75 0 0.89 322.21 19:38 30.09.2019
1024 Clouds 4 1009 75 0 0.89 322.21 19:18 30.09.2019
1025 Clouds 4 1009 75 0 0.89 322.21 18:54 30.09.2019
1026 Clouds 4 1009 75 0 0.89 322.21 18:36 30.09.2019
1027 Clouds 7 1007 62 0 1.34 208.839 18:18 30.09.2019
1028 Clouds 7 1007 62 0 1.34 208.839 17:40 30.09.2019
1029 Clouds 7 1007 62 0 1.34 208.839 17:22 30.09.2019
1030 Clouds 7 1007 62 0 1.34 208.839 16:56 30.09.2019
1031 Clouds 7 1007 62 0 1.34 208.839 16:56 30.09.2019
1032 Clouds 7 1007 62 0 1.34 208.839 16:37 30.09.2019
1033 Clouds 7 1007 62 0 1.34 208.839 16:18 30.09.2019
1034 Clouds 7 1007 62 0 1.34 208.839 15:55 30.09.2019
1035 Clouds 7 1007 62 0 1.34 208.839 15:37 30.09.2019
1036 Rain 7 1005 68 0 2.41 286.615 15:18 30.09.2019
1037 Rain 7 1005 68 0 2.41 286.615 14:57 30.09.2019
1038 Rain 7 1005 68 0 2.41 286.615 14:37 30.09.2019
1039 Rain 7 1005 68 0 2.41 286.615 14:18 30.09.2019
1040 Rain 7 1005 68 0 2.41 286.615 13:44 30.09.2019
1041 Rain 7 1005 65 0 2.72 243.841 13:23 30.09.2019
1042 Rain 7 1005 65 0 2.72 243.841 12:59 30.09.2019
1043 Rain 7 1005 65 0 2.72 243.841 12:40 30.09.2019
1044 Rain 8 1001 71 0 10.29 291.324 12:21 30.09.2019
1045 Rain 8 1001 71 0 10.29 291.324 11:43 30.09.2019
1046 Rain 8 1001 71 0 10.29 291.324 11:22 30.09.2019
1047 Rain 8 1001 71 0 10.29 291.324 10:59 30.09.2019
1048 Rain 8 1001 71 0 10.29 291.324 10:39 30.09.2019
1049 Rain 8 1001 71 0 10.29 291.324 10:19 30.09.2019
1050 Rain 8 1001 71 0 10.29 291.324 10:19 30.09.2019
1051 Rain 8 1001 71 0 10.29 291.324 09:58 30.09.2019
1052 Rain 8 1001 71 0 10.29 291.324 09:39 30.09.2019
1053 Rain 8 1001 71 0 10.29 291.324 09:39 30.09.2019
1054 Clouds 13 1000 40 0 10.86 240.351 09:19 30.09.2019
1055 Clouds 13 1000 40 0 10.86 240.351 08:46 30.09.2019
1056 Rain 12 1000 44 0 8.03 236.116 08:28 30.09.2019
1057 Rain 12 1000 44 0 8.03 236.116 07:44 30.09.2019
1058 Rain 12 1000 44 0 8.03 236.116 07:26 30.09.2019
1059 Rain 12 1000 44 0 8.03 236.116 06:50 30.09.2019
1060 Rain 12 1000 44 0 8.03 236.116 06:50 30.09.2019
1061 Rain 12 1000 44 0 8.03 236.116 06:32 30.09.2019
1062 Clouds 11 1000 47 0 5.13 217.31 05:47 30.09.2019
1063 Clouds 11 1000 47 0 5.13 217.31 03:45 30.09.2019
1064 Clouds 4 1002 72 0 2.47 198.633 02:46 30.09.2019
1065 Clouds 4 1002 67 0 2.73 190.639 01:35 30.09.2019
1066 Clouds 4 1002 67 0 2.73 190.639 00:42 30.09.2019
1067 Clouds 4 1001 63 0 2.91 180.433 00:21 30.09.2019
1068 Clouds 4 1001 63 0 2.91 180.433 23:45 29.09.2019
1069 Clouds 4 1001 63 0 2.91 180.433 23:23 29.09.2019
1070 Clouds 4 1001 63 0 2.91 180.433 22:55 29.09.2019
1071 Clouds 4 1001 63 0 2.91 180.433 22:37 29.09.2019
1072 Clouds 4 1001 63 0 2.91 180.433 22:37 29.09.2019
1073 Clouds 4 1001 63 0 2.91 180.433 22:19 29.09.2019
1074 Clouds 4 1001 63 0 2.91 180.433 21:56 29.09.2019
1075 Clouds 4 1001 63 0 2.91 180.433 21:37 29.09.2019
1076 Clouds 6 1003 46 0 3.38 176.756 21:19 29.09.2019
1077 Clouds 6 1003 46 0 3.38 176.756 20:44 29.09.2019
1078 Clouds 6 1003 45 0 3.58 170.098 20:20 29.09.2019
1079 Clouds 6 1003 45 0 3.58 170.098 19:58 29.09.2019
1080 Clouds 6 1003 45 0 3.58 170.098 19:37 29.09.2019
1081 Clouds 6 1003 45 0 3.58 170.098 19:19 29.09.2019
1082 Clouds 6 1003 45 0 3.58 170.098 18:56 29.09.2019
1083 Clouds 6 1003 45 0 3.58 170.098 18:56 29.09.2019
1084 Clouds 6 1003 45 0 3.58 170.098 18:56 29.09.2019
1085 Clouds 6 1003 45 0 3.58 170.098 18:56 29.09.2019
1086 Clouds 6 1003 45 0 3.58 170.098 18:56 29.09.2019
1087 Clouds 6 1003 45 0 3.58 170.098 18:38 29.09.2019
1088 Clouds 6 1005 48 0 2.22 158.333 18:19 29.09.2019
1089 Clouds 6 1005 48 0 2.22 158.333 17:57 29.09.2019
1090 Clouds 6 1005 48 0 2.22 158.333 17:38 29.09.2019
1091 Clouds 6 1005 48 0 2.22 158.333 17:19 29.09.2019
1092 Clouds 6 1005 48 0 2.22 158.333 16:58 29.09.2019
1093 Clouds 6 1005 48 0 2.22 158.333 16:39 29.09.2019
1094 Clouds 6 1005 48 0 2.22 158.333 16:19 29.09.2019
1095 Clouds 6 1005 48 0 2.22 158.333 15:42 29.09.2019
1096 Clear 7 1006 48 0 2.05 208.724 15:20 29.09.2019
1097 Clear 7 1006 48 0 2.05 208.724 15:00 29.09.2019
1098 Clear 7 1006 48 0 2.05 208.724 14:40 29.09.2019
1099 Clear 7 1006 48 0 2.05 208.724 14:21 29.09.2019
1100 Clear 7 1006 48 0 2.05 208.724 13:58 29.09.2019
1101 Clear 7 1006 48 0 2.05 208.724 13:40 29.09.2019
1102 Clouds 7 1006 47 0 2.18 194.488 13:19 29.09.2019
1103 Clouds 7 1006 47 0 2.18 194.488 12:58 29.09.2019
1104 Clouds 7 1006 47 0 2.18 194.488 12:39 29.09.2019
1105 Clouds 12 1005 34 0 6.95 264.904 12:21 29.09.2019
1106 Clouds 12 1005 34 0 6.95 264.904 11:57 29.09.2019
1107 Clouds 12 1005 34 0 6.95 264.904 11:37 29.09.2019
1108 Clouds 12 1005 34 0 6.95 264.904 11:18 29.09.2019
1109 Clouds 12 1005 34 0 6.95 264.904 10:56 29.09.2019
1110 Clouds 12 1005 34 0 6.95 264.904 10:56 29.09.2019
1111 Clouds 12 1005 34 0 6.95 264.904 10:36 29.09.2019
1112 Clouds 12 1005 34 0 6.95 264.904 10:18 29.09.2019
1113 Clouds 12 1005 34 0 6.95 264.904 09:44 29.09.2019
1114 Clouds 12 1006 39 0 6.65 257.228 09:20 29.09.2019
1115 Clouds 12 1006 39 0 6.65 257.228 08:57 29.09.2019
1116 Clouds 12 1005 40 0 6.69 254.891 08:37 29.09.2019
1117 Clouds 12 1005 40 0 6.69 254.891 08:18 29.09.2019
1118 Clouds 12 1005 40 0 6.69 254.891 08:18 29.09.2019
1119 Clouds 12 1005 40 0 6.69 254.891 07:41 29.09.2019
1120 Clouds 12 1005 40 0 6.69 254.891 07:41 29.09.2019
1121 Clouds 12 1005 40 0 6.69 254.891 07:23 29.09.2019
1122 Clouds 12 1005 40 0 6.69 254.891 06:42 29.09.2019
1123 Clouds 10 1006 50 0 5.08 242.8 04:57 29.09.2019
1124 Clouds 10 1006 50 0 5.08 242.8 04:25 29.09.2019
1125 Clouds 10 1006 50 0 5.08 242.8 03:55 29.09.2019
1126 Clouds 4 1007 79 0 1.72 216.637 02:40 29.09.2019
1127 Clouds 4 1007 79 0 1.72 216.637 01:51 29.09.2019
1128 Clouds 4 1007 78 0 1.67 228.392 01:30 29.09.2019
1129 Clouds 4 1007 78 0 1.67 228.392 00:42 29.09.2019
1130 Clouds 4 1006 74 0 2.21 226.01 00:19 29.09.2019
1131 Clouds 4 1006 74 0 2.21 226.01 23:40 28.09.2019
1132 Clouds 4 1006 74 0 2.21 226.01 23:21 28.09.2019
1133 Clouds 4 1006 74 0 2.21 226.01 22:56 28.09.2019
1134 Clouds 4 1006 74 0 2.21 226.01 22:37 28.09.2019
1135 Clouds 4 1006 74 0 2.21 226.01 22:37 28.09.2019
1136 Clouds 4 1006 74 0 2.21 226.01 22:19 28.09.2019
1137 Clouds 4 1006 74 0 2.21 226.01 21:54 28.09.2019
1138 Clouds 4 1006 74 0 2.21 226.01 21:36 28.09.2019
1139 Clouds 7 1006 64 0 2.24 248.346 21:18 28.09.2019
1140 Clouds 7 1006 64 0 2.24 248.346 20:54 28.09.2019
1141 Clouds 8 1006 55 0 1.95 208.723 20:36 28.09.2019
1142 Clouds 8 1006 55 0 1.95 208.723 20:36 28.09.2019
1143 Clouds 8 1006 55 0 1.95 208.723 20:18 28.09.2019
1144 Clouds 8 1006 55 0 1.95 208.723 20:18 28.09.2019
1145 Clouds 8 1006 55 0 1.95 208.723 19:42 28.09.2019
1146 Clouds 8 1006 55 0 1.95 208.723 19:42 28.09.2019
1147 Clouds 8 1006 55 0 1.95 208.723 19:22 28.09.2019
1148 Clouds 8 1006 55 0 1.95 208.723 18:59 28.09.2019
1149 Clouds 8 1006 55 0 1.95 208.723 18:41 28.09.2019
1150 Clouds 9 1006 46 0 3.2 180.734 18:21 28.09.2019
1151 Clouds 9 1006 46 0 3.2 180.734 18:21 28.09.2019
1152 Clouds 9 1006 46 0 3.2 180.734 17:57 28.09.2019
1153 Clouds 9 1006 46 0 3.2 180.734 17:39 28.09.2019
1154 Clouds 9 1006 46 0 3.2 180.734 17:21 28.09.2019
1155 Clouds 9 1006 46 0 3.2 180.734 16:48 28.09.2019
1156 Clouds 9 1006 46 0 3.2 180.734 16:28 28.09.2019
1157 Clouds 9 1006 46 0 3.2 180.734 15:57 28.09.2019
1158 Clouds 9 1006 46 0 3.2 180.734 15:38 28.09.2019
1159 Clouds 7 1006 52 0 1.96 226.406 15:20 28.09.2019
1160 Clouds 7 1006 52 0 1.96 226.406 14:54 28.09.2019
1161 Clouds 7 1006 52 0 1.96 226.406 14:36 28.09.2019
1162 Clouds 7 1006 52 0 1.96 226.406 14:18 28.09.2019
1163 Clouds 7 1006 52 0 1.96 226.406 13:42 28.09.2019
1164 Clouds 7 1006 52 0 2.05 219.899 13:20 28.09.2019
1165 Clouds 7 1006 52 0 2.05 219.899 12:55 28.09.2019
1166 Clouds 7 1006 52 0 2.05 219.899 12:36 28.09.2019
1167 Clear 14 1004 36 0 6.73 245.864 12:18 28.09.2019
1168 Clear 14 1004 36 0 6.73 245.864 12:18 28.09.2019
1169 Clear 14 1004 36 0 6.73 245.864 11:40 28.09.2019
1170 Clear 14 1004 36 0 6.73 245.864 11:20 28.09.2019
1171 Clear 14 1004 36 0 6.73 245.864 10:44 28.09.2019
1172 Clear 14 1004 36 0 6.73 245.864 10:21 28.09.2019
1173 Clear 14 1004 36 0 6.73 245.864 09:59 28.09.2019
1174 Clear 14 1004 36 0 6.73 245.864 09:40 28.09.2019
1175 Clouds 13 1006 37 0 7.95 231.049 09:18 28.09.2019
1176 Clouds 13 1006 37 0 7.95 231.049 08:47 28.09.2019
1177 Clouds 13 1005 36 0 7.58 226.036 08:29 28.09.2019
1178 Clouds 13 1005 36 0 7.58 226.036 07:56 28.09.2019
1179 Clouds 13 1005 36 0 7.58 226.036 07:38 28.09.2019
1180 Clouds 13 1005 36 0 7.58 226.036 07:18 28.09.2019
1181 Clouds 13 1005 36 0 7.58 226.036 06:37 28.09.2019
1182 Clouds 10 1009 33 0 3.28 176.088 06:19 28.09.2019
1183 Clouds 10 1009 33 0 3.28 176.088 05:25 28.09.2019
1184 Clouds 10 1009 33 0 3.28 176.088 04:45 28.09.2019
1185 Clouds 10 1009 33 0 3.28 176.088 04:26 28.09.2019
1186 Clouds 10 1009 33 0 3.28 176.088 03:35 28.09.2019
1187 Clouds 3 1011 45 0 1.47 144.498 02:58 28.09.2019
1188 Clouds 3 1011 45 0 1.47 144.498 02:37 28.09.2019
1189 Clouds 3 1011 45 0 1.47 144.498 02:18 28.09.2019
1190 Clouds 3 1011 45 0 1.47 144.498 01:41 28.09.2019
1191 Clouds 3 1011 45 0 1.45 144.066 01:19 28.09.2019
1192 Clouds 3 1011 45 0 1.45 144.066 00:44 28.09.2019
1193 Clouds 3 1011 45 0 1.45 144.066 00:26 28.09.2019
1194 Clouds 2 1011 44 0 1.38 108.159 23:39 27.09.2019
1195 Clouds 2 1011 44 0 1.38 108.159 23:21 27.09.2019
1196 Clouds 2 1011 44 0 1.38 108.159 22:49 27.09.2019
1197 Clouds 2 1011 44 0 1.38 108.159 22:21 27.09.2019
1198 Clouds 2 1011 44 0 1.38 108.159 21:59 27.09.2019
1199 Clouds 2 1011 44 0 1.38 108.159 21:59 27.09.2019
1200 Clouds 2 1011 44 0 1.38 108.159 21:40 27.09.2019
1201 Clouds 2 1013 45 0 1.31 142.317 21:20 27.09.2019
1202 Clouds 2 1013 45 0 1.31 142.317 21:20 27.09.2019
1203 Clouds 2 1013 45 0 1.31 142.317 20:58 27.09.2019
1204 Clouds 2 1013 45 0 1.31 142.317 20:58 27.09.2019
1205 Clouds 2 1013 46 0 1.2 138.526 20:40 27.09.2019
1206 Clouds 2 1013 46 0 1.2 138.526 20:19 27.09.2019
1207 Clouds 2 1013 46 0 1.2 138.526 19:57 27.09.2019
1208 Clouds 2 1013 46 0 1.2 138.526 19:38 27.09.2019
1209 Clouds 2 1013 46 0 1.2 138.526 19:19 27.09.2019
1210 Clouds 2 1013 46 0 1.2 138.526 18:42 27.09.2019
1211 Clouds 4 1015 43 0 1.16 131.13 18:23 27.09.2019
1212 Clouds 4 1015 43 0 1.16 131.13 17:56 27.09.2019
1213 Clouds 4 1015 43 0 1.16 131.13 17:38 27.09.2019
1214 Clouds 4 1015 43 0 1.16 131.13 17:19 27.09.2019
1215 Clouds 4 1015 43 0 1.16 131.13 16:57 27.09.2019
1216 Clouds 4 1015 43 0 1.16 131.13 16:37 27.09.2019
1217 Clouds 4 1015 43 0 1.16 131.13 16:18 27.09.2019
1218 Clouds 4 1015 43 0 1.16 131.13 16:18 27.09.2019
1219 Clouds 4 1015 43 0 1.16 131.13 15:45 27.09.2019
1220 Clouds 5 1015 45 0 0.52 47.04 15:21 27.09.2019
1221 Clouds 5 1015 45 0 0.52 47.04 15:21 27.09.2019
1222 Clouds 5 1015 45 0 0.52 47.04 14:59 27.09.2019
1223 Clouds 5 1015 45 0 0.52 47.04 14:40 27.09.2019
1224 Clouds 5 1015 45 0 0.52 47.04 14:21 27.09.2019
1225 Clouds 5 1015 45 0 0.52 47.04 13:57 27.09.2019
1226 Clouds 5 1015 45 0 0.52 47.04 13:39 27.09.2019
1227 Clouds 5 1015 46 0 0.5 100.903 13:21 27.09.2019
1228 Clouds 5 1015 46 0 0.5 100.903 12:54 27.09.2019
1229 Clear 10 1014 27 0 4.29 281.341 12:23 27.09.2019
1230 Clear 10 1014 27 0 4.29 281.341 11:58 27.09.2019
1231 Clear 10 1014 27 0 4.29 281.341 11:38 27.09.2019
1232 Clear 10 1014 27 0 4.29 281.341 11:19 27.09.2019
1233 Clear 10 1014 27 0 4.29 281.341 11:19 27.09.2019
1234 Clear 10 1014 27 0 4.29 281.341 10:43 27.09.2019
1235 Clear 10 1014 27 0 4.29 281.341 10:22 27.09.2019
1236 Clear 10 1014 27 0 4.29 281.341 09:58 27.09.2019
1237 Clear 10 1014 27 0 4.29 281.341 09:39 27.09.2019
1238 Clear 10 1016 29 0 6.12 280.572 09:19 27.09.2019
1239 Clear 10 1016 29 0 6.12 280.572 08:41 27.09.2019
1240 Clear 11 1016 32 0 6.22 274.9 08:21 27.09.2019
1241 Clear 11 1016 32 0 6.22 274.9 07:50 27.09.2019
1242 Clear 11 1016 32 0 6.22 274.9 07:29 27.09.2019
1243 Clear 11 1016 32 0 6.22 274.9 06:49 27.09.2019
1244 Clear 11 1016 32 0 6.22 274.9 06:31 27.09.2019
1245 Clear 8 1017 38 0 3.65 284.196 05:54 27.09.2019
1246 Clear 8 1017 38 0 3.65 284.196 05:34 27.09.2019
1247 Clear 8 1017 38 0 3.65 284.196 04:52 27.09.2019
1248 Clear 8 1017 38 0 3.65 284.196 03:38 27.09.2019
1249 Clouds 2 1017 71 0 1.35 238.738 01:55 27.09.2019
1250 Clouds 2 1017 76 0 1.55 220.646 01:30 27.09.2019
1251 Clouds 2 1017 76 0 1.55 220.646 01:30 27.09.2019
1252 Clouds 2 1017 76 0 1.55 220.646 00:40 27.09.2019
1253 Clouds 3 1015 90 0 2.01 271.852 23:57 26.09.2019
1254 Clouds 3 1015 90 0 2.01 271.852 23:39 26.09.2019
1255 Clouds 3 1015 90 0 2.01 271.852 23:19 26.09.2019
1256 Clouds 3 1015 90 0 2.01 271.852 23:19 26.09.2019
1257 Clouds 3 1015 90 0 2.01 271.852 22:58 26.09.2019
1258 Clouds 3 1015 90 0 2.01 271.852 22:39 26.09.2019
1259 Clouds 3 1015 90 0 2.01 271.852 22:18 26.09.2019
1260 Clouds 3 1015 90 0 2.01 271.852 21:58 26.09.2019
1261 Clouds 3 1015 90 0 2.01 271.852 21:37 26.09.2019
1262 Rain 5 1014 85 0 3 226.919 21:19 26.09.2019
1263 Clouds 6 1014 69 0 3.73 250.618 20:58 26.09.2019
1264 Clouds 6 1014 69 0 3.73 250.618 20:39 26.09.2019
1265 Clouds 6 1014 69 0 3.73 250.618 20:21 26.09.2019
1266 Clouds 6 1014 69 0 3.73 250.618 19:56 26.09.2019
1267 Clouds 6 1014 69 0 3.73 250.618 19:37 26.09.2019
1268 Clouds 6 1014 69 0 3.73 250.618 19:18 26.09.2019
1269 Clouds 6 1014 69 0 3.73 250.618 18:42 26.09.2019
1270 Rain 8 1014 61 0 4.03 216.756 18:22 26.09.2019
1271 Rain 8 1014 61 0 4.03 216.756 17:59 26.09.2019
1272 Rain 8 1014 61 0 4.03 216.756 17:37 26.09.2019
1273 Rain 8 1014 61 0 4.03 216.756 17:19 26.09.2019
1274 Rain 8 1014 61 0 4.03 216.756 16:55 26.09.2019
1275 Rain 8 1014 61 0 4.03 216.756 16:37 26.09.2019
1276 Rain 8 1014 61 0 4.03 216.756 16:18 26.09.2019
1277 Rain 8 1014 61 0 4.03 216.756 15:41 26.09.2019
1278 Clouds 7 1013 49 0 2.02 197.43 15:23 26.09.2019
1279 Clouds 7 1013 49 0 2.02 197.43 14:58 26.09.2019
1280 Clouds 7 1013 49 0 2.02 197.43 14:40 26.09.2019
1281 Clouds 7 1013 49 0 2.02 197.43 14:21 26.09.2019
1282 Clouds 7 1013 49 0 2.02 197.43 13:57 26.09.2019
1283 Clouds 7 1013 49 0 2.02 197.43 13:39 26.09.2019
1284 Clouds 7 1013 49 0 2.02 197.43 13:39 26.09.2019
1285 Clouds 7 1013 48 0 1.71 214.173 13:19 26.09.2019
1286 Clouds 7 1013 48 0 1.71 214.173 12:41 26.09.2019
1287 Clouds 13 1013 33 0 5.25 236.573 12:22 26.09.2019
1288 Clouds 13 1013 33 0 5.25 236.573 11:57 26.09.2019
1289 Clouds 13 1013 33 0 5.25 236.573 11:38 26.09.2019
1290 Clouds 13 1013 33 0 5.25 236.573 11:19 26.09.2019
1291 Clouds 13 1013 33 0 5.25 236.573 10:42 26.09.2019
1292 Clouds 13 1013 33 0 5.25 236.573 10:23 26.09.2019
1293 Clouds 13 1013 33 0 5.25 236.573 09:57 26.09.2019
1294 Clouds 13 1013 33 0 5.25 236.573 09:39 26.09.2019
1295 Clouds 13 1014 33 0 4.44 249.959 09:18 26.09.2019
1296 Clouds 13 1014 34 0 4.28 249.819 08:48 26.09.2019
1297 Clouds 13 1014 34 0 4.28 249.819 08:30 26.09.2019
1298 Clouds 13 1014 34 0 4.28 249.819 07:47 26.09.2019
1299 Clouds 13 1014 34 0 4.28 249.819 07:22 26.09.2019
1300 Clouds 13 1014 34 0 4.28 249.819 06:52 26.09.2019
1301 Clouds 13 1014 34 0 4.28 249.819 06:28 26.09.2019
1302 Clouds 11 1016 39 0 2.22 245.81 05:52 26.09.2019
1303 Clouds 11 1016 39 0 2.22 245.81 05:29 26.09.2019
1304 Clouds 11 1016 39 0 2.22 245.81 03:33 26.09.2019
1305 Clouds 4 1017 70 0 0.95 203.071 02:19 26.09.2019
1306 Clouds 4 1017 70 0 0.95 203.071 01:40 26.09.2019
1307 Clouds 4 1017 70 0 0.57 196.777 01:22 26.09.2019
1308 Clouds 4 1017 70 0 0.57 196.777 00:45 26.09.2019
1309 Clouds 4 1017 70 0 0.57 196.777 00:25 26.09.2019
1310 Clouds 5 1016 69 0 1.13 296.361 23:43 25.09.2019
1311 Clouds 5 1016 69 0 1.13 296.361 23:22 25.09.2019
1312 Clouds 5 1016 69 0 1.13 296.361 22:55 25.09.2019
1313 Clouds 5 1016 69 0 1.13 296.361 22:55 25.09.2019
1314 Clouds 5 1016 69 0 1.13 296.361 22:55 25.09.2019
1315 Clouds 5 1016 69 0 1.13 296.361 22:36 25.09.2019
1316 Clouds 5 1016 69 0 1.13 296.361 22:18 25.09.2019
1317 Clouds 5 1016 69 0 1.13 296.361 22:18 25.09.2019
1318 Clouds 5 1016 69 0 1.13 296.361 21:55 25.09.2019
1319 Clouds 5 1016 69 0 1.13 296.361 21:36 25.09.2019
1320 Clouds 7 1015 59 0 1.77 236.175 21:18 25.09.2019
1321 Clouds 7 1015 59 0 1.77 236.175 20:55 25.09.2019
1322 Clouds 6 1015 58 0 1.35 247.263 20:37 25.09.2019
1323 Clouds 6 1015 58 0 1.35 247.263 20:18 25.09.2019
1324 Clouds 6 1015 58 0 1.35 247.263 19:39 25.09.2019
1325 Clouds 6 1015 58 0 1.35 247.263 19:20 25.09.2019
1326 Clouds 6 1015 58 0 1.35 247.263 18:56 25.09.2019
1327 Clouds 6 1015 58 0 1.35 247.263 18:37 25.09.2019
1328 Clouds 8 1015 48 0 1.44 214.176 18:18 25.09.2019
1329 Clouds 8 1015 48 0 1.44 214.176 17:40 25.09.2019
1330 Clouds 8 1015 48 0 1.44 214.176 17:21 25.09.2019
1331 Clouds 8 1015 48 0 1.44 214.176 16:57 25.09.2019
1332 Clouds 8 1015 48 0 1.44 214.176 16:38 25.09.2019
1333 Clouds 8 1015 48 0 1.44 214.176 16:19 25.09.2019
1334 Clouds 8 1015 48 0 1.44 214.176 15:55 25.09.2019
1335 Clouds 8 1015 48 0 1.44 214.176 15:55 25.09.2019
1336 Clouds 8 1015 48 0 1.44 214.176 15:37 25.09.2019
1337 Clouds 13 1014 28 0 3.74 211.001 15:18 25.09.2019
1338 Clouds 13 1014 28 0 3.74 211.001 14:42 25.09.2019
1339 Clouds 13 1014 28 0 3.74 211.001 14:22 25.09.2019
1340 Clouds 13 1014 28 0 3.74 211.001 13:57 25.09.2019
1341 Clouds 13 1014 28 0 3.74 211.001 13:57 25.09.2019
1342 Clouds 13 1014 28 0 3.74 211.001 13:39 25.09.2019
1343 Clouds 12 1014 28 0 3.46 206.58 13:20 25.09.2019
1344 Clouds 12 1014 28 0 3.46 206.58 12:44 25.09.2019
1345 Clouds 12 1014 28 0 3.46 206.58 12:44 25.09.2019
1346 Clouds 12 1014 28 0 3.46 206.58 12:25 25.09.2019
1347 Clouds 17 1012 22 0 5.93 220.098 11:59 25.09.2019
1348 Clouds 17 1012 22 0 5.93 220.098 11:40 25.09.2019
1349 Clouds 17 1012 22 0 5.93 220.098 11:20 25.09.2019
1350 Clouds 17 1012 22 0 5.93 220.098 10:46 25.09.2019
1351 Clouds 17 1012 22 0 5.93 220.098 10:26 25.09.2019
1352 Clouds 17 1012 22 0 5.93 220.098 09:58 25.09.2019
1353 Clouds 17 1012 22 0 5.93 220.098 09:58 25.09.2019
1354 Clouds 17 1012 22 0 5.93 220.098 09:58 25.09.2019
1355 Clouds 17 1012 22 0 5.93 220.098 09:38 25.09.2019
1356 Clouds 17 1014 21 0 4.15 190.812 09:20 25.09.2019
1357 -273 0 0 0 0 0 08:55 25.09.2019
1358 Clouds 16 1014 21 0 3.97 193.382 08:37 25.09.2019
1359 Clouds 16 1014 21 0 3.97 193.382 08:18 25.09.2019
1360 Clouds 16 1014 21 0 3.97 193.382 07:40 25.09.2019
1361 Clouds 16 1014 21 0 3.97 193.382 07:22 25.09.2019
1362 Clouds 16 1014 21 0 3.97 193.382 06:45 25.09.2019
1363 Clouds 14 1016 26 0 2.14 159.347 06:23 25.09.2019
1364 Clouds 14 1016 26 0 2.14 159.347 05:37 25.09.2019
1365 Clouds 14 1016 26 0 2.14 159.347 04:55 25.09.2019
1366 Clouds 7 1017 44 0 1.4 133.291 02:31 25.09.2019
1367 Clouds 6 1018 44 0 1.23 130.989 00:56 25.09.2019
1368 Clouds 6 1018 44 0 1.23 130.989 00:36 25.09.2019
1369 Clouds 6 1017 40 0 1.79 152.259 00:18 25.09.2019
1370 Clouds 6 1017 40 0 1.79 152.259 23:40 24.09.2019
1371 Clouds 6 1017 40 0 1.79 152.259 23:21 24.09.2019
1372 Clouds 6 1017 40 0 1.79 152.259 22:40 24.09.2019
1373 Clouds 6 1017 40 0 1.79 152.259 22:22 24.09.2019
1374 Clouds 7 1018 37 0 1.68 158.872 21:58 24.09.2019
1375 Clouds 7 1018 37 0 1.68 158.872 21:38 24.09.2019
1376 Clouds 9 1018 36 0 1.96 154.974 21:19 24.09.2019
1377 Clouds 9 1018 36 0 1.96 154.974 21:19 24.09.2019
1378 Clouds 9 1018 36 0 1.96 154.974 20:59 24.09.2019
1379 Clouds 9 1018 36 0 1.96 154.974 20:41 24.09.2019
1380 Clouds 9 1018 36 0 1.96 154.974 20:22 24.09.2019
1381 Clouds 9 1018 36 0 1.96 154.974 19:59 24.09.2019
1382 Clouds 9 1018 36 0 1.96 154.974 19:41 24.09.2019
1383 Clouds 9 1018 36 0 1.96 154.974 19:18 24.09.2019
1384 Clouds 9 1018 36 0 1.96 154.974 18:55 24.09.2019
1385 Clouds 9 1018 36 0 1.96 154.974 18:55 24.09.2019
1386 Clouds 9 1018 36 0 1.96 154.974 18:36 24.09.2019
1387 Clouds 8 1019 38 0 1.39 130.316 18:18 24.09.2019
1388 Clouds 8 1019 38 0 1.39 130.316 17:54 24.09.2019
1389 Clouds 8 1019 38 0 1.39 130.316 17:36 24.09.2019
1390 Clouds 8 1019 38 0 1.39 130.316 17:18 24.09.2019
1391 Clouds 8 1019 38 0 1.39 130.316 16:41 24.09.2019
1392 Clouds 8 1019 38 0 1.39 130.316 16:20 24.09.2019
1393 Clouds 8 1019 38 0 1.39 130.316 15:57 24.09.2019
1394 Clouds 8 1019 38 0 1.39 130.316 15:37 24.09.2019
1395 Clouds 10 1019 41 0 0.56 169.658 15:19 24.09.2019
1396 Clouds 10 1019 41 0 0.56 169.658 14:37 24.09.2019
1397 Clouds 10 1019 41 0 0.56 169.658 14:18 24.09.2019
1398 Clouds 10 1019 41 0 0.56 169.658 14:18 24.09.2019
1399 Clouds 10 1019 41 0 0.56 169.658 13:41 24.09.2019
1400 Clouds 9 1019 41 0 0.59 207.176 13:21 24.09.2019
1401 Clouds 9 1019 41 0 0.59 207.176 13:21 24.09.2019
1402 Clouds 9 1019 41 0 0.59 207.176 12:42 24.09.2019
1403 Clouds 16 1018 24 0 3.19 220.895 12:21 24.09.2019
1404 Clouds 16 1018 24 0 3.19 220.895 11:58 24.09.2019
1405 Clouds 16 1018 24 0 3.19 220.895 11:40 24.09.2019
1406 Clouds 16 1018 24 0 3.19 220.895 11:21 24.09.2019
1407 Clouds 16 1018 24 0 3.19 220.895 10:40 24.09.2019
1408 Clouds 16 1018 24 0 3.19 220.895 10:21 24.09.2019
1409 Clouds 16 1018 24 0 3.19 220.895 09:58 24.09.2019
1410 Clouds 16 1018 24 0 3.19 220.895 09:58 24.09.2019
1411 Clouds 16 1018 24 0 3.19 220.895 09:40 24.09.2019
1412 Clouds 16 1019 25 0 2.8 188.359 09:19 24.09.2019
1413 Clouds 16 1019 25 0 2.8 188.359 08:55 24.09.2019
1414 Clouds 16 1019 25 0 2.8 188.359 08:55 24.09.2019
1415 Clouds 16 1019 24 0 3.2 199.919 08:37 24.09.2019
1416 Clouds 16 1019 24 0 3.2 199.919 08:18 24.09.2019
1417 Clouds 16 1019 24 0 3.2 199.919 07:42 24.09.2019
1418 Clouds 16 1019 24 0 3.2 199.919 07:42 24.09.2019
1419 Clouds 16 1019 24 0 3.2 199.919 07:24 24.09.2019
1420 Clouds 16 1019 24 0 3.2 199.919 06:47 24.09.2019
1421 Clouds 16 1019 24 0 3.2 199.919 06:27 24.09.2019
1422 Clouds 13 1021 29 0 1.54 150.116 05:26 24.09.2019
1423 Clouds 13 1021 29 0 1.54 150.116 04:58 24.09.2019
1424 Clouds 13 1021 29 0 1.54 150.116 03:42 24.09.2019
1425 Clouds 5 1022 46 0 1.07 159.205 02:45 24.09.2019
1426 Clouds 5 1022 46 0 1.07 159.205 01:44 24.09.2019
1427 Clouds 5 1023 45 0 1.22 138.163 00:42 24.09.2019
1428 Clouds 5 1022 41 0 1.5 145.464 00:23 24.09.2019
1429 Clouds 5 1022 41 0 1.5 145.464 23:44 23.09.2019
1430 Clouds 5 1022 41 0 1.5 145.464 23:24 23.09.2019
1431 Clouds 5 1022 41 0 1.5 145.464 22:57 23.09.2019
1432 Clouds 5 1022 41 0 1.5 145.464 22:38 23.09.2019
1433 Clouds 5 1022 41 0 1.5 145.464 22:20 23.09.2019
1434 Clouds 5 1022 41 0 1.5 145.464 21:56 23.09.2019
1435 Clouds 5 1022 41 0 1.5 145.464 21:37 23.09.2019
1436 Clear 6 1021 43 0 1.39 154.466 21:18 23.09.2019
1437 Clear 6 1022 43 0 1.44 155.058 20:41 23.09.2019
1438 Clear 6 1022 43 0 1.44 155.058 20:20 23.09.2019
1439 Clear 6 1022 43 0 1.44 155.058 19:56 23.09.2019
1440 Clear 6 1022 43 0 1.44 155.058 19:38 23.09.2019
1441 Clear 6 1022 43 0 1.44 155.058 19:20 23.09.2019
1442 Clear 6 1022 43 0 1.44 155.058 18:42 23.09.2019
1443 Clear 8 1022 34 0 2.16 202.832 18:21 23.09.2019
1444 Clear 8 1022 34 0 2.16 202.832 17:59 23.09.2019
1445 Clear 8 1022 34 0 2.16 202.832 17:39 23.09.2019
1446 Clear 8 1022 34 0 2.16 202.832 17:21 23.09.2019
1447 Clear 8 1022 34 0 2.16 202.832 17:21 23.09.2019
1448 Clear 8 1022 34 0 2.16 202.832 16:58 23.09.2019
1449 Clear 8 1022 34 0 2.16 202.832 16:37 23.09.2019
1450 Clear 8 1022 34 0 2.16 202.832 16:19 23.09.2019
1451 Clear 8 1022 34 0 2.16 202.832 15:57 23.09.2019
1452 Clear 8 1022 34 0 2.16 202.832 15:39 23.09.2019
1453 Clear 10 1020 31 0 3.16 203.491 15:19 23.09.2019
1454 Clear 10 1020 31 0 3.16 203.491 14:40 23.09.2019
1455 Clear 10 1020 31 0 3.16 203.491 14:40 23.09.2019
1456 Clear 10 1020 31 0 3.16 203.491 14:21 23.09.2019
1457 Clear 10 1020 31 0 3.16 203.491 13:59 23.09.2019
1458 Clear 10 1020 31 0 3.16 203.491 13:39 23.09.2019
1459 Clouds 10 1020 32 0 3.37 206.359 13:19 23.09.2019
1460 Clouds 10 1020 32 0 3.37 206.359 12:56 23.09.2019
1461 Clouds 10 1020 32 0 3.37 206.359 12:37 23.09.2019
1462 Clouds 17 1018 23 0 8.31 218.209 12:19 23.09.2019
1463 Clouds 17 1018 23 0 8.31 218.209 11:45 23.09.2019
1464 Clouds 17 1018 23 0 8.31 218.209 11:45 23.09.2019
1465 Clouds 17 1018 23 0 8.31 218.209 11:26 23.09.2019
1466 Clouds 17 1018 23 0 8.31 218.209 11:26 23.09.2019
1467 Clouds 17 1018 23 0 8.31 218.209 10:57 23.09.2019
1468 Clouds 17 1018 23 0 8.31 218.209 10:39 23.09.2019
1469 Clouds 17 1018 23 0 8.31 218.209 10:20 23.09.2019
1470 Clouds 17 1018 23 0 8.31 218.209 10:20 23.09.2019
1471 Clouds 17 1018 23 0 8.31 218.209 09:40 23.09.2019
1472 Clear 17 1020 22 0 8.26 211.557 09:21 23.09.2019
1473 Clear 17 1020 22 0 8.26 211.557 08:57 23.09.2019
1474 Clear 17 1019 22 0 8.12 214.894 08:38 23.09.2019
1475 Clear 17 1019 22 0 8.12 214.894 08:18 23.09.2019
1476 Clear 17 1019 22 0 8.12 214.894 08:18 23.09.2019
1477 Clear 17 1019 22 0 8.12 214.894 07:33 23.09.2019
1478 Clear 17 1019 22 0 8.12 214.894 06:50 23.09.2019
1479 Clear 14 1021 27 0 3.09 169.986 06:19 23.09.2019
1480 Clear 14 1021 27 0 3.09 169.986 05:22 23.09.2019
1481 Clear 14 1021 27 0 3.09 169.986 04:55 23.09.2019
1482 Clear 14 1021 27 0 3.09 169.986 03:56 23.09.2019
1483 Clear 14 1021 27 0 3.09 169.986 03:56 23.09.2019
1484 Clouds 5 1023 45 0 1.59 141.312 01:25 23.09.2019
1485 Clear 5 1022 45 0 1.47 127.073 00:24 23.09.2019
1486 Clear 5 1022 45 0 1.47 127.073 23:58 22.09.2019
1487 Clear 5 1022 45 0 1.47 127.073 23:33 22.09.2019
1488 Clear 5 1022 45 0 1.47 127.073 23:33 22.09.2019
1489 Clear 5 1022 45 0 1.47 127.073 22:59 22.09.2019
1490 Clear 5 1022 45 0 1.47 127.073 22:41 22.09.2019
1491 Clear 5 1022 45 0 1.47 127.073 22:41 22.09.2019
1492 Clear 5 1022 45 0 1.47 127.073 22:23 22.09.2019
1493 Clear 5 1022 45 0 1.47 127.073 21:59 22.09.2019
1494 Clear 5 1022 45 0 1.47 127.073 21:39 22.09.2019
1495 Clear 6 1021 44 0 1.2 145.275 21:19 22.09.2019
1496 Clear 6 1021 44 0 1.2 145.275 20:43 22.09.2019
1497 Clear 6 1022 43 0 1.43 144.369 20:24 22.09.2019
1498 Clear 6 1022 43 0 1.43 144.369 19:56 22.09.2019
1499 Clear 6 1022 43 0 1.43 144.369 19:38 22.09.2019
1500 Clear 6 1022 43 0 1.43 144.369 19:38 22.09.2019
1501 Clear 6 1022 43 0 1.43 144.369 19:19 22.09.2019
1502 Clear 6 1022 43 0 1.43 144.369 18:56 22.09.2019
1503 Clear 6 1022 43 0 1.43 144.369 18:56 22.09.2019
1504 Clear 6 1022 43 0 1.43 144.369 18:36 22.09.2019
1505 Clear 6 1022 43 0 1.43 144.369 18:36 22.09.2019
1506 Clear 7 1021 41 0 1.05 110.403 18:18 22.09.2019
1507 Clear 7 1021 41 0 1.05 110.403 17:42 22.09.2019
1508 Clear 7 1021 41 0 1.05 110.403 17:24 22.09.2019
1509 Clear 7 1021 41 0 1.05 110.403 16:46 22.09.2019
1510 Clear 7 1021 41 0 1.05 110.403 16:27 22.09.2019
1511 Clear 7 1021 41 0 1.05 110.403 16:27 22.09.2019
1512 Clear 7 1021 41 0 1.05 110.403 15:58 22.09.2019
1513 Clear 7 1021 41 0 1.05 110.403 15:40 22.09.2019
1514 Clear 7 1021 41 0 1.05 110.403 15:40 22.09.2019
1515 Clouds 8 1020 41 0 0.39 112.911 15:22 22.09.2019
1516 Clouds 8 1020 41 0 0.39 112.911 14:47 22.09.2019
1517 Clouds 8 1020 41 0 0.39 112.911 14:47 22.09.2019
1518 Clouds 8 1020 41 0 0.39 112.911 14:27 22.09.2019
1519 Clouds 8 1020 41 0 0.39 112.911 13:59 22.09.2019
1520 Clouds 8 1020 41 0 0.39 112.911 13:41 22.09.2019
1521 Clouds 8 1020 41 0 0.39 112.911 13:41 22.09.2019
1522 Clouds 8 1020 41 0 0.58 60.292 13:22 22.09.2019
1523 Clouds 8 1020 41 0 0.58 60.292 12:56 22.09.2019
1524 Clouds 8 1020 41 0 0.58 60.292 12:38 22.09.2019
1525 Clouds 16 1019 23 0 3.49 202.149 12:18 22.09.2019
1526 Clouds 16 1019 23 0 3.49 202.149 11:43 22.09.2019
1527 Clouds 16 1019 23 0 3.49 202.149 11:24 22.09.2019
1528 Clouds 16 1019 23 0 3.49 202.149 10:55 22.09.2019
1529 Clouds 16 1019 23 0 3.49 202.149 10:55 22.09.2019
1530 Clouds 16 1019 23 0 3.49 202.149 10:37 22.09.2019
1531 Clouds 16 1019 23 0 3.49 202.149 10:18 22.09.2019
1532 Clouds 16 1019 23 0 3.49 202.149 09:42 22.09.2019
1533 Clouds 16 1019 23 0 3.49 202.149 09:42 22.09.2019
1534 Clouds 16 1020 23 0 3.68 199.085 09:21 22.09.2019
1535 Clouds 16 1020 23 0 3.68 199.085 08:48 22.09.2019
1536 Clouds 16 1020 23 0 4.14 203.08 08:26 22.09.2019
1537 Clouds 16 1020 23 0 4.14 203.08 07:57 22.09.2019
1538 Clouds 16 1020 23 0 4.14 203.08 07:39 22.09.2019
1539 Clouds 16 1020 23 0 4.14 203.08 07:20 22.09.2019
1540 Clouds 16 1020 23 0 4.14 203.08 06:55 22.09.2019
1541 Clouds 13 1022 31 0 1.4 127.972 05:37 22.09.2019
1542 Clouds 13 1022 31 0 1.4 127.972 03:50 22.09.2019
1543 Clouds 5 1022 52 0 1.36 90.042 02:41 22.09.2019
1544 Clouds 5 1022 52 0 1.36 90.042 02:23 22.09.2019
1545 Clouds 5 1022 51 0 1.43 88.158 01:23 22.09.2019
1546 Clouds 5 1022 51 0 1.43 88.158 00:37 22.09.2019
1547 Clouds 4 1021 55 0 1.43 83.034 00:18 22.09.2019
1548 Clouds 4 1021 55 0 1.43 83.034 00:18 22.09.2019
1549 Clouds 4 1021 55 0 1.43 83.034 23:41 21.09.2019
1550 Clouds 4 1021 55 0 1.43 83.034 23:22 21.09.2019
1551 Clouds 4 1021 55 0 1.43 83.034 22:39 21.09.2019
1552 Clouds 4 1021 55 0 1.43 83.034 22:21 21.09.2019
1553 Clouds 4 1021 55 0 1.43 83.034 21:55 21.09.2019
1554 Clouds 4 1021 55 0 1.43 83.034 21:37 21.09.2019
1555 Clouds 5 1021 48 0 1.49 67.898 21:18 21.09.2019
1556 Clouds 5 1022 49 0 1.5 67.192 20:39 21.09.2019
1557 Clouds 5 1022 49 0 1.5 67.192 20:39 21.09.2019
1558 Clouds 5 1022 49 0 1.5 67.192 20:21 21.09.2019
1559 Clouds 5 1022 49 0 1.5 67.192 19:48 21.09.2019
1560 Clouds 5 1022 49 0 1.5 67.192 19:25 21.09.2019
1561 Clouds 5 1022 49 0 1.5 67.192 18:59 21.09.2019
1562 Clouds 5 1022 49 0 1.5 67.192 18:37 21.09.2019
1563 Clouds 6 1021 46 0 1.78 57.187 18:19 21.09.2019
1564 Clouds 6 1021 46 0 1.78 57.187 17:42 21.09.2019
1565 Clouds 6 1021 46 0 1.78 57.187 17:21 21.09.2019
1566 Clouds 6 1021 46 0 1.78 57.187 16:44 21.09.2019
1567 Clouds 6 1021 46 0 1.78 57.187 16:24 21.09.2019
1568 Clouds 6 1021 46 0 1.78 57.187 16:24 21.09.2019
1569 Clouds 6 1021 46 0 1.78 57.187 15:56 21.09.2019
1570 Clouds 6 1021 46 0 1.78 57.187 15:56 21.09.2019
1571 Clouds 6 1021 46 0 1.78 57.187 15:38 21.09.2019
1572 Clear 7 1020 47 0 0.91 19.822 15:19 21.09.2019
1573 Clear 7 1020 47 0 0.91 19.822 14:43 21.09.2019
1574 Clear 7 1020 47 0 0.91 19.822 14:43 21.09.2019
1575 Clear 7 1020 47 0 0.91 19.822 14:24 21.09.2019
1576 Clear 7 1020 47 0 0.91 19.822 13:42 21.09.2019
1577 Clouds 7 1020 48 0 0.34 2.222 13:23 21.09.2019
1578 Clouds 7 1020 48 0 0.34 2.222 12:57 21.09.2019
1579 Clouds 7 1020 48 0 0.34 2.222 12:38 21.09.2019
1580 Clear 15 1018 28 0 3.49 292.094 12:20 21.09.2019
1581 Clear 15 1018 28 0 3.49 292.094 11:51 21.09.2019
1582 Clear 15 1018 28 0 3.49 292.094 11:25 21.09.2019
1583 Clear 15 1018 28 0 3.49 292.094 10:56 21.09.2019
1584 Clear 15 1018 28 0 3.49 292.094 10:37 21.09.2019
1585 Clear 15 1018 28 0 3.49 292.094 10:19 21.09.2019
1586 Clear 15 1018 28 0 3.49 292.094 09:55 21.09.2019
1587 Clear 15 1018 28 0 3.49 292.094 09:36 21.09.2019
1588 Clear 15 1019 26 0 3.35 256.072 09:18 21.09.2019
1589 Clear 15 1019 26 0 3.09 255.631 08:42 21.09.2019
1590 Clear 15 1019 26 0 3.09 255.631 07:58 21.09.2019
1591 Clear 15 1019 26 0 3.09 255.631 07:39 21.09.2019
1592 Clear 15 1019 26 0 3.09 255.631 07:18 21.09.2019
1593 Clear 15 1019 26 0 3.09 255.631 06:35 21.09.2019
1594 Clear 11 1021 33 0 1.39 183.019 05:51 21.09.2019
1595 Clear 11 1021 33 0 1.39 183.019 04:39 21.09.2019
1596 Clear 11 1021 33 0 1.39 183.019 04:39 21.09.2019
1597 Clear 11 1021 33 0 1.39 183.019 03:25 21.09.2019
1598 Clear 3 1021 54 0 0.6 143.168 02:23 21.09.2019
1599 Clear 3 1021 54 0 0.6 143.168 01:47 21.09.2019
1600 Clear 3 1021 54 0 0.6 143.168 01:21 21.09.2019
1601 Clear 3 1020 67 0 0.86 159.413 00:23 21.09.2019
1602 Clear 3 1020 67 0 0.86 159.413 23:48 20.09.2019
1603 Clear 3 1020 67 0 0.86 159.413 23:48 20.09.2019
1604 Clear 3 1020 67 0 0.86 159.413 23:30 20.09.2019
1605 Clear 3 1020 67 0 0.86 159.413 22:46 20.09.2019
1606 Clear 3 1020 67 0 0.86 159.413 22:26 20.09.2019
1607 Clear 3 1020 67 0 0.86 159.413 21:58 20.09.2019
1608 Clear 3 1020 67 0 0.86 159.413 21:39 20.09.2019
1609 Clouds 4 1020 44 0 1.11 121.864 21:21 20.09.2019
1610 Clouds 4 1020 44 0 1.11 121.864 21:21 20.09.2019
1611 Clouds 4 1020 44 0 1.11 121.864 20:59 20.09.2019
1612 Clouds 4 1020 43 0 1.1 111.269 20:41 20.09.2019
1613 Clouds 4 1020 43 0 1.1 111.269 20:20 20.09.2019
1614 Clouds 4 1020 43 0 1.1 111.269 19:56 20.09.2019
1615 Clouds 4 1020 43 0 1.1 111.269 19:36 20.09.2019
1616 Clouds 4 1020 43 0 1.1 111.269 19:18 20.09.2019
1617 Clouds 4 1020 43 0 1.1 111.269 18:39 20.09.2019
1618 Clouds 5 1020 44 0 1.08 131.146 18:20 20.09.2019
1619 Clouds 5 1020 44 0 1.08 131.146 17:47 20.09.2019
1620 Clouds 5 1020 44 0 1.08 131.146 17:27 20.09.2019
1621 Clouds 5 1020 44 0 1.08 131.146 16:59 20.09.2019
1622 Clouds 5 1020 44 0 1.08 131.146 16:37 20.09.2019
1623 Clouds 5 1020 44 0 1.08 131.146 16:19 20.09.2019
1624 Clouds 5 1020 44 0 1.08 131.146 15:42 20.09.2019
1625 Clouds 7 1019 44 0 1.04 177.58 15:23 20.09.2019
1626 Clouds 7 1019 44 0 1.04 177.58 14:55 20.09.2019
1627 Clouds 7 1019 44 0 1.04 177.58 14:36 20.09.2019
1628 Clouds 7 1019 44 0 1.04 177.58 14:18 20.09.2019
1629 Clouds 7 1019 44 0 1.04 177.58 13:44 20.09.2019
1630 Clouds 7 1019 45 0 0.9 191.97 13:25 20.09.2019
1631 Clouds 7 1019 45 0 0.9 191.97 12:42 20.09.2019
1632 Clouds 13 1018 29 0 2.95 207.459 12:23 20.09.2019
1633 Clouds 13 1018 29 0 2.95 207.459 11:57 20.09.2019
1634 Clouds 13 1018 29 0 2.95 207.459 11:39 20.09.2019
1635 Clouds 13 1018 29 0 2.95 207.459 11:19 20.09.2019
1636 Clouds 13 1018 29 0 2.95 207.459 10:42 20.09.2019
1637 Clouds 13 1018 29 0 2.95 207.459 10:22 20.09.2019
1638 Clouds 13 1018 29 0 2.95 207.459 10:22 20.09.2019
1639 Clouds 13 1018 29 0 2.95 207.459 09:38 20.09.2019
1640 Clouds 12 1019 32 0 2.61 187.76 09:19 20.09.2019
1641 Clouds 12 1019 32 0 2.61 187.76 08:49 20.09.2019
1642 Clouds 12 1019 32 0 2.61 187.76 08:31 20.09.2019
1643 Clouds 12 1019 32 0 2.61 187.76 07:59 20.09.2019
1644 Clouds 12 1019 32 0 2.61 187.76 07:41 20.09.2019
1645 Clouds 12 1019 31 0 2.56 189.352 07:23 20.09.2019
1646 Clouds 12 1019 31 0 2.56 189.352 06:43 20.09.2019
1647 Clouds 12 1019 31 0 2.56 189.352 06:43 20.09.2019
1648 Clouds 10 1021 41 0 1.66 161.587 06:19 20.09.2019
1649 Clouds 10 1021 41 0 1.66 161.587 04:58 20.09.2019
1650 Clouds 10 1021 41 0 1.66 161.587 03:29 20.09.2019
1651 Clouds 3 1023 70 0 0.94 121.759 02:39 20.09.2019
1652 Clouds 3 1023 70 0 0.94 121.759 01:43 20.09.2019
1653 Clouds 2 1023 70 0 0.88 125.221 00:44 20.09.2019
1654 Clouds 1 1022 78 0 0.83 125.224 23:56 19.09.2019
1655 Clouds 1 1022 78 0 0.83 125.224 23:38 19.09.2019
1656 Clouds 1 1022 78 0 0.83 125.224 23:18 19.09.2019
1657 Clouds 1 1022 78 0 0.83 125.224 22:40 19.09.2019
1658 Clouds 1 1022 78 0 0.83 125.224 22:22 19.09.2019
1659 Clouds 1 1022 78 0 0.83 125.224 21:57 19.09.2019
1660 Clouds 1 1022 78 0 0.83 125.224 21:39 19.09.2019
1661 Clear 3 1024 67 0 0.77 117.599 21:19 19.09.2019
1662 Clear 3 1024 67 0 0.77 117.599 20:57 19.09.2019
1663 Clear 3 1024 67 0 0.77 117.599 20:57 19.09.2019
1664 Clear 3 1024 67 0 0.77 112.038 20:39 19.09.2019
1665 Clear 3 1024 67 0 0.77 112.038 20:19 19.09.2019
1666 Clear 3 1024 67 0 0.77 112.038 19:54 19.09.2019
1667 Clear 3 1024 67 0 0.77 112.038 19:54 19.09.2019
1668 Clear 3 1024 67 0 0.77 112.038 19:36 19.09.2019
1669 Clear 3 1024 67 0 0.77 112.038 19:36 19.09.2019
1670 Clear 3 1024 67 0 0.77 112.038 19:18 19.09.2019
1671 Clear 3 1024 67 0 0.77 112.038 18:41 19.09.2019
1672 Clear 4 1024 64 0 0.71 57.756 18:22 19.09.2019
1673 Clear 4 1024 64 0 0.71 57.756 17:43 19.09.2019
1674 Clear 4 1024 64 0 0.71 57.756 17:24 19.09.2019
1675 Clear 4 1024 64 0 0.71 57.756 16:59 19.09.2019
1676 Clear 4 1024 64 0 0.71 57.756 16:59 19.09.2019
1677 Clear 4 1024 64 0 0.71 57.756 16:40 19.09.2019
1678 Clear 4 1024 64 0 0.71 57.756 16:40 19.09.2019
1679 Clear 4 1024 64 0 0.71 57.756 16:20 19.09.2019
1680 Clear 4 1024 64 0 0.71 57.756 15:41 19.09.2019
1681 Clouds 5 1023 60 0 0.6 19.1 15:21 19.09.2019
1682 Clouds 5 1023 60 0 0.6 19.1 14:58 19.09.2019
1683 Clouds 5 1023 60 0 0.6 19.1 14:39 19.09.2019
1684 Clouds 5 1023 60 0 0.6 19.1 14:20 19.09.2019
1685 Clouds 5 1023 60 0 0.6 19.1 13:40 19.09.2019
1686 Clouds 5 1023 61 0 0.38 311.92 13:22 19.09.2019
1687 Clouds 5 1023 61 0 0.38 311.92 12:58 19.09.2019
1688 Clouds 5 1023 61 0 0.38 311.92 12:36 19.09.2019
1689 Clouds 11 1021 38 0 1.32 297.945 12:18 19.09.2019
1690 Clouds 11 1021 38 0 1.32 297.945 11:41 19.09.2019
1691 Clouds 11 1021 38 0 1.32 297.945 11:21 19.09.2019
1692 Clouds 11 1021 38 0 1.32 297.945 10:58 19.09.2019
1693 Clouds 11 1021 38 0 1.32 297.945 10:38 19.09.2019
1694 Clouds 11 1021 38 0 1.32 297.945 10:20 19.09.2019
1695 Clouds 11 1021 38 0 1.32 297.945 09:55 19.09.2019
1696 Clouds 11 1021 38 0 1.32 297.945 09:55 19.09.2019
1697 Clouds 11 1021 38 0 1.32 297.945 09:55 19.09.2019
1698 Clouds 11 1021 38 0 1.32 297.945 09:55 19.09.2019
1699 Clouds 11 1021 38 0 1.32 297.945 09:36 19.09.2019
1700 Clouds 11 1021 38 0 1.32 297.945 09:36 19.09.2019
1701 Clear 11 1023 39 0 0.88 289.262 09:18 19.09.2019
1702 Clear 11 1022 39 0 1.05 272.135 08:41 19.09.2019
1703 Clear 11 1022 39 0 1.05 272.135 08:22 19.09.2019
1704 Clear 11 1022 39 0 1.05 272.135 07:43 19.09.2019
1705 Clear 11 1022 39 0 1.05 272.135 07:43 19.09.2019
1706 Clear 11 1022 39 0 1.05 272.135 07:22 19.09.2019
1707 Clear 11 1022 39 0 1.05 272.135 06:48 19.09.2019
1708 Clear 11 1022 39 0 1.05 272.135 06:28 19.09.2019
1709 Clear 8 1024 49 0 0.32 82.048 05:52 19.09.2019
1710 Clear 8 1024 49 0 0.32 82.048 05:31 19.09.2019
1711 Clear 8 1024 49 0 0.32 82.048 03:54 19.09.2019
1712 Clear 1 1025 87 0 0.8 52.902 02:47 19.09.2019
1713 Clear 1 1025 82 0 0.73 61.614 01:32 19.09.2019
1714 Clear 1 1025 82 0 0.73 61.614 00:50 19.09.2019
1715 Clear 1 1025 82 0 0.73 61.614 00:26 19.09.2019
1716 Clear 0 1024 88 0 0.82 347.812 23:42 18.09.2019
1717 Clear 0 1024 88 0 0.82 347.812 23:22 18.09.2019
1718 Clear 0 1024 88 0 0.82 347.812 22:55 18.09.2019
1719 Clear 0 1024 88 0 0.82 347.812 22:37 18.09.2019
1720 Clear 0 1024 88 0 0.82 347.812 22:18 18.09.2019
1721 Clear 0 1024 88 0 0.82 347.812 21:55 18.09.2019
1722 Clear 0 1024 88 0 0.82 347.812 21:37 18.09.2019
1723 Clouds 1 1025 91 0 0.5 312.305 21:18 18.09.2019
1724 Clouds 1 1025 89 0 1.08 315.676 20:55 18.09.2019
1725 Clouds 1 1025 89 0 1.08 315.676 20:55 18.09.2019
1726 Clouds 1 1025 89 0 1.08 315.676 20:37 18.09.2019
1727 Clouds 1 1025 89 0 1.08 315.676 20:18 18.09.2019
1728 Clouds 1 1025 89 0 1.08 315.676 19:41 18.09.2019
1729 Clouds 1 1025 89 0 1.08 315.676 19:20 18.09.2019
1730 Clouds 1 1025 89 0 1.08 315.676 18:57 18.09.2019
1731 Clouds 1 1025 89 0 1.08 315.676 18:38 18.09.2019
1732 Clouds 1 1025 89 0 1.08 315.676 18:38 18.09.2019
1733 Rain 3 1024 89 0 1.58 306.637 18:19 18.09.2019
1734 Rain 3 1024 89 0 1.58 306.637 17:59 18.09.2019
1735 Rain 3 1024 89 0 1.58 306.637 17:40 18.09.2019
1736 Rain 3 1024 89 0 1.58 306.637 17:19 18.09.2019
1737 Rain 3 1024 89 0 1.58 306.637 16:57 18.09.2019
1738 Rain 3 1024 89 0 1.58 306.637 16:38 18.09.2019
1739 Rain 3 1024 89 0 1.58 306.637 16:20 18.09.2019
1740 Rain 3 1024 89 0 1.58 306.637 15:56 18.09.2019
1741 Rain 3 1024 89 0 1.58 306.637 15:38 18.09.2019
1742 Rain 4 1023 86 0 1.21 248.543 15:19 18.09.2019
1743 Rain 4 1023 86 0 1.21 248.543 14:58 18.09.2019
1744 Rain 4 1023 86 0 1.21 248.543 14:39 18.09.2019
1745 Rain 4 1023 86 0 1.21 248.543 14:21 18.09.2019
1746 Rain 4 1023 86 0 1.21 248.543 14:21 18.09.2019
1747 Rain 4 1023 86 0 1.21 248.543 13:54 18.09.2019
1748 Rain 4 1023 86 0 1.21 248.543 13:36 18.09.2019
1749 Rain 4 1023 84 0 0.96 236.161 13:18 18.09.2019
1750 Rain 4 1023 84 0 0.96 236.161 12:37 18.09.2019
1751 Rain 7 1021 69 0 2.47 173.693 12:19 18.09.2019
1752 Rain 7 1021 69 0 2.47 173.693 11:40 18.09.2019
1753 Rain 7 1021 69 0 2.47 173.693 11:20 18.09.2019
1754 Rain 7 1021 69 0 2.47 173.693 10:56 18.09.2019
1755 Rain 7 1021 69 0 2.47 173.693 10:37 18.09.2019
1756 Rain 7 1021 69 0 2.47 173.693 10:18 18.09.2019
1757 Rain 7 1021 69 0 2.47 173.693 09:42 18.09.2019
1758 Rain 9 1022 59 0 0.46 239.948 09:22 18.09.2019
1759 Rain 9 1022 59 0 0.46 239.948 09:22 18.09.2019
1760 Rain 9 1022 59 0 0.46 239.948 09:22 18.09.2019
1761 Rain 9 1022 59 0 0.46 239.948 09:22 18.09.2019
1762 Rain 9 1022 59 0 0.46 239.948 08:58 18.09.2019
1763 Rain 6 1022 80 0 1.95 178 08:40 18.09.2019
1764 Rain 6 1022 80 0 1.95 178 08:21 18.09.2019
1765 Rain 6 1022 80 0 1.95 178 07:44 18.09.2019
1766 Rain 6 1022 80 0 1.95 178 07:23 18.09.2019
1767 Rain 6 1022 80 0 1.95 178 06:46 18.09.2019
1768 Rain 5 1023 83 0 3.06 79.072 06:24 18.09.2019
1769 Rain 5 1023 83 0 3.06 79.072 05:27 18.09.2019
1770 Rain 5 1023 83 0 3.06 79.072 03:40 18.09.2019
1771 Clouds 5 1023 74 0 2.79 347.747 02:40 18.09.2019
1772 Clouds 5 1023 74 0 2.79 347.747 01:44 18.09.2019
1773 Clouds 5 1023 74 0 2.06 1.197 00:56 18.09.2019
1774 Clouds 5 1023 74 0 2.06 1.197 00:32 18.09.2019
1775 Clouds 3 1022 69 0 0.48 308.34 23:48 17.09.2019
1776 Clouds 3 1022 69 0 0.48 308.34 23:25 17.09.2019
1777 Clouds 3 1022 69 0 0.48 308.34 23:25 17.09.2019
1778 Clouds 3 1022 69 0 0.48 308.34 22:57 17.09.2019
1779 Clouds 3 1022 69 0 0.48 308.34 22:38 17.09.2019
1780 Clouds 3 1022 69 0 0.48 308.34 22:19 17.09.2019
1781 Clouds 3 1022 69 0 0.48 308.34 21:54 17.09.2019
1782 Clouds 3 1022 69 0 0.48 308.34 21:36 17.09.2019
1783 Clouds 5 1021 57 0 1.56 228.793 21:18 17.09.2019
1784 Clouds 5 1021 58 0 2.55 195.283 20:55 17.09.2019
1785 Clouds 5 1021 58 0 2.55 195.283 20:37 17.09.2019
1786 Clouds 5 1021 58 0 2.55 195.283 20:37 17.09.2019
1787 Clouds 5 1021 58 0 2.55 195.283 20:37 17.09.2019
1788 Clouds 5 1021 58 0 2.55 195.283 20:19 17.09.2019
1789 Clouds 5 1021 58 0 2.55 195.283 19:40 17.09.2019
1790 Clouds 5 1021 58 0 2.55 195.283 19:20 17.09.2019
1791 Clouds 5 1021 58 0 2.55 195.283 19:20 17.09.2019
1792 Clouds 5 1021 58 0 2.55 195.283 18:59 17.09.2019
1793 Clouds 5 1021 58 0 2.55 195.283 18:59 17.09.2019
1794 Clouds 5 1021 58 0 2.55 195.283 18:41 17.09.2019
1795 Clouds 7 1021 50 0 2.9 250.341 18:22 17.09.2019
1796 Clouds 7 1021 50 0 2.9 250.341 17:55 17.09.2019
1797 Clouds 7 1021 50 0 2.9 250.341 17:37 17.09.2019
1798 Clouds 7 1021 50 0 2.9 250.341 17:18 17.09.2019
1799 Clouds 7 1021 50 0 2.9 250.341 17:18 17.09.2019
1800 Clouds 7 1021 50 0 2.9 250.341 16:41 17.09.2019
1801 Clouds 7 1021 50 0 2.9 250.341 16:41 17.09.2019
1802 Clouds 7 1021 50 0 2.9 250.341 16:22 17.09.2019
1803 Clouds 7 1021 50 0 2.9 250.341 15:56 17.09.2019
1804 Clouds 7 1021 50 0 2.9 250.341 15:37 17.09.2019
1805 Clouds 6 1019 38 0 2.48 199.738 15:19 17.09.2019
1806 Clouds 6 1019 38 0 2.48 199.738 14:55 17.09.2019
1807 Clouds 6 1019 38 0 2.48 199.738 14:37 17.09.2019
1808 Clouds 6 1019 38 0 2.48 199.738 14:18 17.09.2019
1809 Clouds 6 1019 38 0 2.48 199.738 13:42 17.09.2019
1810 Clouds 8 1019 36 0 4.12 243.423 13:23 17.09.2019
1811 Clouds 8 1019 36 0 4.12 243.423 12:56 17.09.2019
1812 Clouds 8 1019 36 0 4.12 243.423 12:37 17.09.2019
1813 Clouds 12 1018 27 0 4.58 190.194 12:18 17.09.2019
1814 Clouds 12 1018 27 0 4.58 190.194 12:18 17.09.2019
1815 Clouds 12 1018 27 0 4.58 190.194 11:42 17.09.2019
1816 Clouds 12 1018 27 0 4.58 190.194 11:42 17.09.2019
1817 Clouds 12 1018 27 0 4.58 190.194 11:22 17.09.2019
1818 Clouds 12 1018 27 0 4.58 190.194 10:43 17.09.2019
1819 Clouds 12 1018 27 0 4.58 190.194 10:24 17.09.2019
1820 Clouds 12 1018 27 0 4.58 190.194 09:59 17.09.2019
1821 Clouds 12 1018 27 0 4.58 190.194 09:40 17.09.2019
1822 Clouds 12 1020 29 0 5.16 181.232 09:21 17.09.2019
1823 Clouds 12 1020 29 0 5.16 181.232 08:46 17.09.2019
1824 Clouds 11 1020 29 0 4.95 185.217 08:26 17.09.2019
1825 Clouds 11 1020 29 0 4.95 185.217 07:58 17.09.2019
1826 Clouds 11 1020 29 0 4.95 185.217 07:39 17.09.2019
1827 Clouds 11 1020 29 0 4.95 185.217 07:19 17.09.2019
1828 Clouds 11 1020 29 0 4.95 185.217 06:45 17.09.2019
1829 Clear 8 1022 39 0 2.98 165.698 06:19 17.09.2019
1830 Clear 8 1022 39 0 2.98 165.698 06:19 17.09.2019
1831 Clear 8 1022 39 0 2.98 165.698 05:38 17.09.2019
1832 Clear 8 1022 39 0 2.98 165.698 04:28 17.09.2019
1833 Clear 1 1023 71 0 1.34 115.59 02:57 17.09.2019
1834 Clear 1 1023 71 0 1.34 115.59 02:38 17.09.2019
1835 Clear 1 1023 72 0 1.19 121.304 01:24 17.09.2019
1836 Clear 1 1023 72 0 1.19 121.304 00:32 17.09.2019
1837 Clear -1 1023 80 0 1.29 79.854 23:38 16.09.2019
1838 Clear -1 1023 80 0 1.29 79.854 23:18 16.09.2019
1839 Clear -1 1023 80 0 1.29 79.854 23:18 16.09.2019
1840 Clear -1 1023 80 0 1.29 79.854 22:43 16.09.2019
1841 Clear -1 1023 80 0 1.29 79.854 22:25 16.09.2019
1842 Clear -1 1023 80 0 1.29 79.854 21:59 16.09.2019
1843 Clear -1 1023 80 0 1.29 79.854 21:40 16.09.2019
1844 Clear 0 1023 74 0 2.05 43.712 21:21 16.09.2019
1845 Clear 0 1023 74 0 2.05 43.712 20:59 16.09.2019
1846 Clear 0 1022 74 0 1.93 47.716 20:39 16.09.2019
1847 Clear 0 1022 74 0 1.93 47.716 20:19 16.09.2019
1848 Clear 0 1022 74 0 1.93 47.716 19:56 16.09.2019
1849 Clear 0 1022 74 0 1.93 47.716 19:38 16.09.2019
1850 Clear 0 1022 74 0 1.93 47.716 19:18 16.09.2019
1851 Clear 0 1022 74 0 1.93 47.716 18:44 16.09.2019
1852 Clear 0 1022 74 0 1.93 47.716 18:25 16.09.2019
1853 Clear 2 1022 65 0 2.38 39.753 17:55 16.09.2019
1854 Clear 2 1022 65 0 2.38 39.753 17:37 16.09.2019
1855 Clear 2 1022 65 0 2.38 39.753 17:19 16.09.2019
1856 Clear 2 1022 65 0 2.38 39.753 16:43 16.09.2019
1857 Clear 2 1022 65 0 2.38 39.753 16:21 16.09.2019
1858 Clear 2 1022 65 0 2.38 39.753 15:57 16.09.2019
1859 Clear 2 1022 65 0 2.38 39.753 15:39 16.09.2019
1860 Clouds 3 1019 59 0 2.8 30.953 15:20 16.09.2019
1861 Clouds 3 1019 59 0 2.8 30.953 14:58 16.09.2019
1862 Clouds 3 1019 59 0 2.8 30.953 14:39 16.09.2019
1863 Clouds 3 1019 59 0 2.8 30.953 14:20 16.09.2019
1864 Clouds 3 1019 59 0 2.8 30.953 13:43 16.09.2019
1865 Clouds 3 1019 60 0 2.95 30.543 13:22 16.09.2019
1866 Clouds 3 1019 60 0 2.95 30.543 12:57 16.09.2019
1867 Clouds 3 1019 60 0 2.95 30.543 12:39 16.09.2019
1868 Clouds 9 1017 37 0 5.02 349.221 12:21 16.09.2019
1869 Clouds 9 1017 37 0 5.02 349.221 11:45 16.09.2019
1870 Clouds 9 1017 37 0 5.02 349.221 11:23 16.09.2019
1871 Clouds 9 1017 37 0 5.02 349.221 10:56 16.09.2019
1872 Clouds 9 1017 37 0 5.02 349.221 10:37 16.09.2019
1873 Clouds 9 1017 37 0 5.02 349.221 10:18 16.09.2019
1874 Clouds 9 1017 37 0 5.02 349.221 09:42 16.09.2019
1875 Clear 9 1018 33 0 3.99 333.718 09:21 16.09.2019
1876 Clear 9 1018 33 0 3.99 333.718 09:21 16.09.2019
1877 Clear 9 1018 33 0 3.99 333.718 08:56 16.09.2019
1878 Clear 9 1018 33 0 3.99 333.718 08:38 16.09.2019
1879 Clear 9 1018 34 0 3.78 336.128 08:19 16.09.2019
1880 Clear 9 1018 34 0 3.78 336.128 07:41 16.09.2019
1881 Clear 9 1018 34 0 3.78 336.128 07:21 16.09.2019
1882 Clear 9 1018 34 0 3.78 336.128 06:55 16.09.2019
1883 Clear 9 1018 34 0 3.78 336.128 06:36 16.09.2019
1884 Clear 7 1019 37 0 2.19 355.551 06:18 16.09.2019
1885 Clear 7 1019 37 0 2.19 355.551 05:41 16.09.2019
1886 Clear 7 1019 37 0 2.19 355.551 05:18 16.09.2019
1887 Clear 7 1019 37 0 2.19 355.551 03:36 16.09.2019
1888 Clear 1 1018 59 0 1.41 13.05 01:20 16.09.2019
1889 Clear 1 1018 59 0 1.41 13.05 00:38 16.09.2019
1890 Clear -1 1017 60 0 0.98 15.945 00:20 16.09.2019
1891 Clear -1 1017 60 0 0.98 15.945 23:39 15.09.2019
1892 Clear -1 1017 60 0 0.98 15.945 23:20 15.09.2019
1893 Clear -1 1017 60 0 0.98 15.945 22:39 15.09.2019
1894 Clear -1 1017 60 0 0.98 15.945 22:21 15.09.2019
1895 Clear -1 1017 60 0 0.98 15.945 21:58 15.09.2019
1896 Clear -1 1017 60 0 0.98 15.945 21:39 15.09.2019
1897 Clouds 0 1016 57 0 1.49 30.065 21:21 15.09.2019
1898 Clouds 0 1016 57 0 1.49 30.065 20:55 15.09.2019
1899 Clouds 0 1016 57 0 1.49 30.065 20:55 15.09.2019
1900 Clouds 0 1016 56 0 1.28 33.814 20:37 15.09.2019
1901 Clouds 0 1016 56 0 1.28 33.814 20:19 15.09.2019
1902 Clouds 0 1016 56 0 1.28 33.814 19:42 15.09.2019
1903 Clouds 0 1016 56 0 1.28 33.814 19:22 15.09.2019
1904 Clouds 0 1016 56 0 1.28 33.814 18:42 15.09.2019
1905 Clouds 1 1016 55 0 0.78 354.355 18:24 15.09.2019
1906 Clouds 1 1016 55 0 0.78 354.355 17:56 15.09.2019
1907 Clouds 1 1016 55 0 0.78 354.355 17:37 15.09.2019
1908 Clouds 1 1016 55 0 0.78 354.355 17:19 15.09.2019
1909 Clouds 1 1016 55 0 0.78 354.355 16:42 15.09.2019
1910 Clouds 1 1016 55 0 0.78 354.355 16:24 15.09.2019
1911 Clouds 1 1016 55 0 0.78 354.355 15:58 15.09.2019
1912 Clouds 1 1016 55 0 0.78 354.355 15:58 15.09.2019
1913 Clouds 1 1016 55 0 0.78 354.355 15:39 15.09.2019
1914 Clouds 2 1015 49 0 1.51 279.662 15:20 15.09.2019
1915 Clouds 2 1015 49 0 1.51 279.662 14:56 15.09.2019
1916 Clouds 2 1015 49 0 1.51 279.662 14:38 15.09.2019
1917 Clouds 2 1015 49 0 1.51 279.662 14:38 15.09.2019
1918 Clouds 2 1015 49 0 1.51 279.662 14:19 15.09.2019
1919 Clouds 2 1015 49 0 1.51 279.662 13:45 15.09.2019
1920 Clouds 2 1015 51 0 1.6 279.657 13:23 15.09.2019
1921 Clouds 2 1015 51 0 1.6 279.657 12:44 15.09.2019
1922 Clouds 2 1015 51 0 1.6 279.657 12:25 15.09.2019
1923 Clouds 9 1014 32 0 4.04 269.802 11:59 15.09.2019
1924 Clouds 9 1014 32 0 4.04 269.802 11:41 15.09.2019
1925 Clouds 9 1014 32 0 4.04 269.802 11:22 15.09.2019
1926 Clouds 9 1014 32 0 4.04 269.802 10:55 15.09.2019
1927 Clouds 9 1014 32 0 4.04 269.802 10:37 15.09.2019
1928 Clouds 9 1014 32 0 4.04 269.802 10:18 15.09.2019
1929 Clouds 9 1014 32 0 4.04 269.802 09:39 15.09.2019
1930 Clear 8 1016 30 0 3.25 219.221 09:19 15.09.2019
1931 Clear 8 1016 30 0 3.25 219.221 08:47 15.09.2019
1932 Clear 9 1016 30 0 3.29 213.666 08:27 15.09.2019
1933 Clear 9 1016 30 0 3.29 213.666 07:49 15.09.2019
1934 Clear 9 1016 30 0 3.29 213.666 07:30 15.09.2019
1935 Clear 9 1016 30 0 3.29 213.666 06:43 15.09.2019
1936 Clear 6 1018 36 0 1.41 164.491 03:31 15.09.2019
1937 Clear 0 1020 62 0 1.05 116.736 02:41 15.09.2019
1938 Clear 0 1020 62 0 1.05 116.736 01:41 15.09.2019
1939 Clear 0 1020 62 0 1.05 116.736 01:41 15.09.2019
1940 Clear 0 1020 63 0 1.06 116.782 01:21 15.09.2019
1941 Clear 0 1020 63 0 1.06 116.782 00:46 15.09.2019
1942 Clear -2 1020 67 0 0.62 117.878 00:24 15.09.2019
1943 Clear -2 1020 67 0 0.62 117.878 23:58 14.09.2019
1944 Clear -2 1020 67 0 0.62 117.878 23:40 14.09.2019
1945 Clear -2 1020 67 0 0.62 117.878 23:21 14.09.2019
1946 Clear -2 1020 67 0 0.62 117.878 22:59 14.09.2019
1947 Clear -2 1020 67 0 0.62 117.878 22:40 14.09.2019
1948 Clear -2 1020 67 0 0.62 117.878 22:21 14.09.2019
1949 Clear -2 1020 67 0 0.62 117.878 21:57 14.09.2019
1950 Clear -2 1020 67 0 0.62 117.878 21:39 14.09.2019
1951 Clouds -2 1020 71 0 1.21 90.236 21:19 14.09.2019
1952 Clouds -2 1020 71 0 1.21 90.236 20:54 14.09.2019
1953 Clear -1 1020 69 0 1.14 99.487 20:36 14.09.2019
1954 Clear -1 1020 69 0 1.14 99.487 20:18 14.09.2019
1955 Clear -1 1020 69 0 1.14 99.487 19:41 14.09.2019
1956 Clear -1 1020 69 0 1.14 99.487 19:20 14.09.2019
1957 Clear -1 1020 69 0 1.14 99.487 18:42 14.09.2019
1958 Clouds -1 1020 68 0 1.43 16.934 18:22 14.09.2019
1959 Clouds -1 1020 68 0 1.43 16.934 17:59 14.09.2019
1960 Clouds -1 1020 68 0 1.43 16.934 17:39 14.09.2019
1961 Clouds -1 1020 68 0 1.43 16.934 17:21 14.09.2019
1962 Clouds -1 1020 68 0 1.43 16.934 17:21 14.09.2019
1963 Clouds -1 1020 68 0 1.43 16.934 17:21 14.09.2019
1964 Clouds -1 1020 68 0 1.43 16.934 17:21 14.09.2019
1965 Clouds -1 1020 68 0 1.43 16.934 16:44 14.09.2019
1966 Clouds -1 1020 68 0 1.43 16.934 16:24 14.09.2019
1967 Clouds -1 1020 68 0 1.43 16.934 15:56 14.09.2019
1968 Clouds -1 1020 68 0 1.43 16.934 15:56 14.09.2019
1969 Clouds -1 1020 68 0 1.43 16.934 15:37 14.09.2019
1970 Clouds 2 1018 54 0 3.11 336.734 15:18 14.09.2019
1971 Clouds 2 1018 54 0 3.11 336.734 14:43 14.09.2019
1972 Clouds 2 1018 54 0 3.11 336.734 14:43 14.09.2019
1973 Clouds 2 1018 54 0 3.11 336.734 14:19 14.09.2019
1974 Clouds 2 1018 54 0 3.11 336.734 14:19 14.09.2019
1975 Clouds 2 1018 54 0 3.11 336.734 13:48 14.09.2019
1976 Clouds 2 1018 54 0 3.11 333.83 13:22 14.09.2019
1977 Clouds 2 1018 54 0 3.11 333.83 12:48 14.09.2019
1978 Clouds 2 1018 54 0 3.11 333.83 12:27 14.09.2019
1979 Clouds 7 1015 37 0 6.4 313.758 11:44 14.09.2019
1980 Clouds 7 1015 37 0 6.4 313.758 11:22 14.09.2019
1981 Clouds 7 1015 37 0 6.4 313.758 10:59 14.09.2019
1982 Clouds 7 1015 37 0 6.4 313.758 10:37 14.09.2019
1983 Clouds 7 1015 37 0 6.4 313.758 10:19 14.09.2019
1984 Clouds 7 1015 37 0 6.4 313.758 09:56 14.09.2019
1985 Clouds 7 1015 37 0 6.4 313.758 09:38 14.09.2019
1986 Clouds 7 1015 37 0 6.4 313.758 09:38 14.09.2019
1987 Clouds 7 1015 39 0 7.58 291.821 09:18 14.09.2019
1988 Clouds 7 1015 39 0 7.66 289.832 08:45 14.09.2019
1989 Clouds 7 1015 39 0 7.66 289.832 08:23 14.09.2019
1990 Clouds 7 1015 39 0 7.66 289.832 08:23 14.09.2019
1991 Clouds 7 1015 39 0 7.66 289.832 07:46 14.09.2019
1992 Clouds 7 1015 39 0 7.66 289.832 07:28 14.09.2019
1993 Clouds 7 1015 39 0 7.66 289.832 07:28 14.09.2019
1994 Clouds 7 1015 39 0 7.66 289.832 06:40 14.09.2019
1995 Clouds 5 1016 48 0 6.14 307.041 06:21 14.09.2019
1996 Clouds 5 1016 48 0 6.14 307.041 05:21 14.09.2019
1997 Clouds 5 1016 48 0 6.14 307.041 03:43 14.09.2019
1998 Clouds 1 1015 71 0 1.39 299.576 02:52 14.09.2019
1999 Clouds 1 1015 71 0 1.39 299.576 01:50 14.09.2019
2000 Clouds 2 1015 65 0 2.52 330.87 01:22 14.09.2019
2001 Clouds 2 1015 65 0 2.52 330.87 00:57 14.09.2019
2002 Clouds 2 1015 65 0 2.52 330.87 00:37 14.09.2019
2003 Clouds -1 1013 52 0 0.24 336.303 00:18 14.09.2019
2004 Clouds -1 1013 52 0 0.24 336.303 23:38 13.09.2019
2005 Clouds -1 1013 52 0 0.24 336.303 23:19 13.09.2019
2006 Clouds -1 1013 52 0 0.24 336.303 22:56 13.09.2019
2007 Clouds -1 1013 52 0 0.24 336.303 22:38 13.09.2019
2008 Clouds -1 1013 52 0 0.24 336.303 22:38 13.09.2019
2009 Clouds -1 1013 52 0 0.24 336.303 22:38 13.09.2019
2010 Clouds -1 1013 52 0 0.24 336.303 22:19 13.09.2019
2011 Clouds -1 1013 52 0 0.24 336.303 21:41 13.09.2019
2012 Clouds 0 1014 49 0 0.73 165.964 21:20 13.09.2019
2013 Clouds 0 1014 49 0 0.73 165.964 21:20 13.09.2019
2014 Clouds 0 1014 49 0 0.73 165.964 20:58 13.09.2019
2015 Clouds 0 1014 49 0 0.73 165.964 20:58 13.09.2019
2016 Clouds 0 1014 48 0 0.71 162.748 20:39 13.09.2019
2017 Clouds 0 1014 48 0 0.71 162.748 20:21 13.09.2019
2018 Clouds 0 1014 48 0 0.71 162.748 19:56 13.09.2019
2019 Clouds 0 1014 48 0 0.71 162.748 19:37 13.09.2019
2020 Clouds 0 1014 48 0 0.71 162.748 19:19 13.09.2019
2021 Clouds 0 1014 48 0 0.71 162.748 18:54 13.09.2019
2022 Clouds 0 1014 48 0 0.71 162.748 18:36 13.09.2019
2023 Clouds -1 1014 49 0 0.72 186.603 18:18 13.09.2019
2024 Clouds -1 1014 49 0 0.72 186.603 17:37 13.09.2019
2025 Clouds -1 1014 49 0 0.72 186.603 17:18 13.09.2019
2026 Clouds -1 1014 49 0 0.72 186.603 16:41 13.09.2019
2027 Clouds -1 1014 49 0 0.72 186.603 16:20 13.09.2019
2028 Clouds -1 1014 49 0 0.72 186.603 15:46 13.09.2019
2029 Clouds -1 1014 49 0 0.72 186.603 15:28 13.09.2019
2030 Clouds 0 1014 50 0 1.14 225.678 14:59 13.09.2019
2031 Clouds 0 1014 50 0 1.14 225.678 14:41 13.09.2019
2032 Clouds 0 1014 50 0 1.14 225.678 14:22 13.09.2019
2033 Clouds 0 1014 50 0 1.14 225.678 13:46 13.09.2019
2034 Clouds 0 1013 49 0 1.27 246.837 13:24 13.09.2019
2035 Clouds 0 1013 49 0 1.27 246.837 12:58 13.09.2019
2036 Clouds 0 1013 49 0 1.27 246.837 12:39 13.09.2019
2037 Clouds 0 1013 49 0 1.27 246.837 12:39 13.09.2019
2038 Clouds 6 1013 34 0 4.06 263.359 12:21 13.09.2019
2039 Clouds 6 1013 34 0 4.06 263.359 11:55 13.09.2019
2040 Clouds 6 1013 34 0 4.06 263.359 11:19 13.09.2019
2041 Clouds 6 1013 34 0 4.06 263.359 10:39 13.09.2019
2042 Clouds 6 1013 34 0 4.06 263.359 10:19 13.09.2019
2043 Clouds 6 1013 34 0 4.06 263.359 09:44 13.09.2019
2044 Clear 6 1015 34 0 3.79 240.319 09:24 13.09.2019
2045 Clear 6 1015 34 0 3.79 240.319 08:58 13.09.2019
2046 Clear 6 1015 34 0 3.5 226.75 08:40 13.09.2019
2047 Clear 6 1015 34 0 3.5 226.75 08:40 13.09.2019
2048 Clear 6 1015 34 0 3.5 226.75 08:20 13.09.2019
2049 Clear 6 1015 34 0 3.5 226.75 07:45 13.09.2019
2050 Clear 6 1015 34 0 3.5 226.75 07:27 13.09.2019
2051 Clear 6 1015 34 0 3.5 226.75 06:47 13.09.2019
2052 Clear 2 1019 50 0 2.22 189.377 05:49 13.09.2019
2053 Clear 2 1019 50 0 2.22 189.377 04:53 13.09.2019
2054 Clear 2 1019 50 0 2.22 189.377 03:39 13.09.2019
2055 Clear -2 1023 85 0 0.84 196.686 02:20 13.09.2019
2056 Clear -2 1023 85 0 0.84 196.686 01:42 13.09.2019
2057 Clear -2 1023 84 0 1.04 175.521 01:22 13.09.2019
2058 Clear -2 1023 84 0 1.04 175.521 00:38 13.09.2019
2059 Clear -3 1022 92 0 0.97 296.644 23:58 12.09.2019
2060 Clear -3 1022 92 0 0.97 296.644 23:35 12.09.2019
2061 Clear -3 1022 92 0 0.97 296.644 22:59 12.09.2019
2062 Clear -3 1022 92 0 0.97 296.644 22:41 12.09.2019
2063 Clear -3 1022 92 0 0.97 296.644 22:23 12.09.2019
2064 Clear -3 1022 92 0 0.97 296.644 21:56 12.09.2019
2065 Clear -3 1022 92 0 0.97 296.644 21:37 12.09.2019
2066 Clouds -2 1022 91 0 0.96 279.285 21:19 12.09.2019
2067 -273 0 0 0 0 0 20:55 12.09.2019
2068 Clouds -2 1021 90 0 0.79 294.78 20:55 12.09.2019
2069 Clouds -2 1021 90 0 0.79 294.78 20:55 12.09.2019
2070 Clouds -2 1021 90 0 0.79 294.78 20:36 12.09.2019
2071 Clouds -2 1021 90 0 0.79 294.78 20:18 12.09.2019
2072 Clouds -2 1021 90 0 0.79 294.78 19:41 12.09.2019
2073 Clouds -2 1021 90 0 0.79 294.78 19:41 12.09.2019
2074 Clouds -2 1021 90 0 0.79 294.78 19:20 12.09.2019
2075 Clouds -2 1021 90 0 0.79 294.78 18:58 12.09.2019
2076 Clouds -2 1021 90 0 0.79 294.78 18:36 12.09.2019
2077 Clouds -1 1020 86 0 1.13 303.226 18:18 12.09.2019
2078 Clouds -1 1020 86 0 1.13 303.226 17:41 12.09.2019
2079 Clouds -1 1020 86 0 1.13 303.226 17:21 12.09.2019
2080 Clouds -1 1020 86 0 1.13 303.226 16:58 12.09.2019
2081 Clouds -1 1020 86 0 1.13 303.226 16:40 12.09.2019
2082 Clouds -1 1020 86 0 1.13 303.226 16:19 12.09.2019
2083 Clouds -1 1020 86 0 1.13 303.226 15:41 12.09.2019
2084 Clouds 2 1017 65 0 3.65 294.55 15:23 12.09.2019
2085 Clouds 2 1017 65 0 3.65 294.55 15:23 12.09.2019
2086 Clouds 2 1017 65 0 3.65 294.55 15:23 12.09.2019
2087 Clouds 2 1017 65 0 3.65 294.55 14:47 12.09.2019
2088 Clouds 2 1017 65 0 3.65 294.55 14:23 12.09.2019
2089 Clouds 2 1017 65 0 3.65 294.55 13:59 12.09.2019
2090 Clouds 2 1017 65 0 3.65 294.55 13:38 12.09.2019
2091 Clouds 2 1017 63 0 2.76 279.176 13:20 12.09.2019
2092 Clouds 2 1017 63 0 2.76 279.176 12:47 12.09.2019
2093 Clouds 6 1014 48 0 6.9 279.988 12:19 12.09.2019
2094 Clouds 6 1014 48 0 6.9 279.988 11:57 12.09.2019
2095 Clouds 6 1014 48 0 6.9 279.988 11:39 12.09.2019
2096 Clouds 6 1014 48 0 6.9 279.988 11:19 12.09.2019
2097 Clouds 6 1014 48 0 6.9 279.988 10:45 12.09.2019
2098 Clouds 6 1014 48 0 6.9 279.988 10:26 12.09.2019
2099 Clouds 6 1014 48 0 6.9 279.988 09:45 12.09.2019
2100 Clouds 6 1014 48 0 6.9 279.988 09:25 12.09.2019
2101 Clear 7 1015 39 0 7.81 268.783 08:59 12.09.2019
2102 Clouds 7 1015 40 0 7.72 277.884 08:41 12.09.2019
2103 Clouds 7 1015 40 0 7.72 277.884 08:22 12.09.2019
2104 Clouds 7 1015 40 0 7.72 277.884 07:44 12.09.2019
2105 Clouds 7 1015 40 0 7.72 277.884 07:20 12.09.2019
2106 Clouds 7 1015 40 0 7.72 277.884 06:51 12.09.2019
2107 Clouds 7 1015 40 0 7.72 277.884 06:29 12.09.2019
2108 Clear 5 1016 49 0 5.09 280.996 05:51 12.09.2019
2109 Clear 5 1016 49 0 5.09 280.996 05:33 12.09.2019
2110 Clear 5 1016 49 0 5.09 280.996 04:41 12.09.2019
2111 Clouds 1 1018 82 0 1.35 232.587 02:59 12.09.2019
2112 Clouds 1 1018 81 0 1.2 228.783 01:37 12.09.2019
2113 Clouds 1 1018 81 0 1.2 228.783 01:19 12.09.2019
2114 Clouds 1 1018 81 0 1.2 228.783 00:44 12.09.2019
2115 Clouds 0 1017 84 0 1.3 244.66 00:24 12.09.2019
2116 Clouds 0 1017 84 0 1.3 244.66 23:42 11.09.2019
2117 Clouds 0 1017 84 0 1.3 244.66 23:24 11.09.2019
2118 Clouds 0 1017 84 0 1.3 244.66 22:57 11.09.2019
2119 Clouds 0 1017 84 0 1.3 244.66 22:37 11.09.2019
2120 Clouds 0 1017 84 0 1.3 244.66 22:19 11.09.2019
2121 Clouds 0 1017 84 0 1.3 244.66 21:43 11.09.2019
2122 Clouds 0 1017 84 0 1.3 244.66 21:25 11.09.2019
2123 Clouds 0 1016 87 0 1.79 238.514 20:58 11.09.2019
2124 Clouds 0 1017 88 0 1.67 237.587 20:40 11.09.2019
2125 Clouds 0 1017 88 0 1.67 237.587 20:20 11.09.2019
2126 Clouds 0 1017 88 0 1.67 237.587 20:20 11.09.2019
2127 Clouds 0 1017 88 0 1.67 237.587 19:58 11.09.2019
2128 Clouds 0 1017 88 0 1.67 237.587 19:40 11.09.2019
2129 Clouds 0 1017 88 0 1.67 237.587 19:21 11.09.2019
2130 Clouds 0 1017 88 0 1.67 237.587 18:59 11.09.2019
2131 Clouds 0 1017 88 0 1.67 237.587 18:40 11.09.2019
2132 Clouds 0 1016 90 0 1 240.255 18:22 11.09.2019
2133 -273 0 0 0 0 0 17:56 11.09.2019
2134 Clouds 0 1016 90 0 1 240.255 17:38 11.09.2019
2135 Clouds 0 1016 90 0 1 240.255 17:38 11.09.2019
2136 Clouds 0 1016 90 0 1 240.255 17:20 11.09.2019
2137 Clouds 0 1016 90 0 1 240.255 16:48 11.09.2019
2138 Clouds 0 1016 90 0 1 240.255 16:26 11.09.2019
2139 Clouds 0 1016 90 0 1 240.255 15:59 11.09.2019
2140 Clouds 0 1016 90 0 1 240.255 15:40 11.09.2019
2141 Clouds 3 1015 83 0 3.03 266.19 15:19 11.09.2019
2142 Clouds 3 1015 83 0 3.03 266.19 14:55 11.09.2019
2143 Clouds 3 1015 83 0 3.03 266.19 14:37 11.09.2019
2144 Clouds 3 1015 83 0 3.03 266.19 14:18 11.09.2019
2145 Clouds 3 1015 83 0 3.03 266.19 13:38 11.09.2019
2146 Clouds 3 1014 81 0 3.23 272.641 13:20 11.09.2019
2147 Clouds 3 1014 81 0 3.23 272.641 12:59 11.09.2019
2148 Clouds 3 1014 81 0 3.23 272.641 12:38 11.09.2019
2149 Rain 4 1013 87 0 3.78 248.199 12:20 11.09.2019
2150 Rain 4 1013 87 0 3.78 248.199 11:39 11.09.2019
2151 Rain 4 1013 87 0 3.78 248.199 11:21 11.09.2019
2152 Rain 4 1013 87 0 3.78 248.199 10:57 11.09.2019
2153 Rain 4 1013 87 0 3.78 248.199 10:38 11.09.2019
2154 Rain 4 1013 87 0 3.78 248.199 10:19 11.09.2019
2155 Rain 4 1013 87 0 3.78 248.199 09:39 11.09.2019
2156 Rain 4 1012 94 0 3.92 261.924 09:20 11.09.2019
2157 Rain 4 1012 94 0 3.92 261.924 08:55 11.09.2019
2158 Rain 4 1012 94 0 3.92 261.924 08:55 11.09.2019
2159 Rain 4 1013 94 0 3.35 271.299 08:37 11.09.2019
2160 Rain 4 1013 94 0 3.35 271.299 08:19 11.09.2019
2161 Rain 4 1013 94 0 3.35 271.299 07:40 11.09.2019
2162 Rain 4 1013 94 0 3.35 271.299 07:22 11.09.2019
2163 Rain 4 1013 94 0 3.35 271.299 06:48 11.09.2019
2164 Rain 4 1013 94 0 3.35 271.299 06:27 11.09.2019
2165 Rain 5 1012 91 0 1.97 242.76 05:36 11.09.2019
2166 Rain 5 1012 91 0 1.97 242.76 05:18 11.09.2019
2167 Rain 5 1012 91 0 1.97 242.76 04:22 11.09.2019
2168 Rain 5 1012 91 0 1.97 242.76 03:29 11.09.2019
2169 Rain 7 1011 90 0 3.08 217.13 02:40 11.09.2019
2170 Rain 7 1011 90 0 3.08 217.13 01:42 11.09.2019
2171 Rain 6 1011 91 0 3.37 224.892 00:46 11.09.2019
2172 Clouds 6 1010 84 0 2.05 209.599 00:20 11.09.2019
2173 Clouds 6 1010 84 0 2.05 209.599 23:41 10.09.2019
2174 Clouds 6 1010 84 0 2.05 209.599 23:41 10.09.2019
2175 Clouds 6 1010 84 0 2.05 209.599 23:22 10.09.2019
2176 Clouds 6 1010 84 0 2.05 209.599 22:57 10.09.2019
2177 Clouds 6 1010 84 0 2.05 209.599 22:38 10.09.2019
2178 Clouds 6 1010 84 0 2.05 209.599 22:19 10.09.2019
2179 -273 0 0 0 0 0 21:55 10.09.2019
2180 Clouds 6 1010 84 0 2.05 209.599 21:37 10.09.2019
2181 Rain 7 1011 71 0 1.2 209.472 21:18 10.09.2019
2182 Rain 7 1011 71 0 1.2 209.472 20:56 10.09.2019
2183 Clouds 8 1011 68 0 0.89 195.459 20:37 10.09.2019
2184 Clouds 8 1011 68 0 0.89 195.459 20:18 10.09.2019
2185 Clouds 8 1011 68 0 0.89 195.459 19:55 10.09.2019
2186 Clouds 8 1011 68 0 0.89 195.459 19:55 10.09.2019
2187 Clouds 8 1011 68 0 0.89 195.459 19:36 10.09.2019
2188 Clouds 8 1011 68 0 0.89 195.459 19:18 10.09.2019
2189 Clouds 8 1011 68 0 0.89 195.459 19:18 10.09.2019
2190 Clouds 8 1011 68 0 0.89 195.459 18:45 10.09.2019
2191 Clouds 8 1010 57 0 1.49 223.858 18:22 10.09.2019
2192 Clouds 8 1010 57 0 1.49 223.858 17:57 10.09.2019
2193 Clouds 8 1010 57 0 1.49 223.858 17:39 10.09.2019
2194 Clouds 8 1010 57 0 1.49 223.858 17:20 10.09.2019
2195 Clouds 8 1010 57 0 1.49 223.858 16:57 10.09.2019
2196 Clouds 8 1010 57 0 1.49 223.858 16:38 10.09.2019
2197 Clouds 8 1010 57 0 1.49 223.858 16:38 10.09.2019
2198 Clouds 8 1010 57 0 1.49 223.858 16:19 10.09.2019
2199 Clouds 8 1010 57 0 1.49 223.858 15:44 10.09.2019
2200 Clouds 8 1010 57 0 1.49 223.858 15:44 10.09.2019
2201 Clouds 13 1008 38 0 4.53 213.75 15:23 10.09.2019
2202 Clouds 13 1008 38 0 4.53 213.75 14:58 10.09.2019
2203 Clouds 13 1008 38 0 4.53 213.75 14:39 10.09.2019
2204 Clouds 13 1008 38 0 4.53 213.75 14:21 10.09.2019
2205 Clouds 13 1008 38 0 4.53 213.75 13:47 10.09.2019
2206 Clouds 13 1008 38 0 4.53 213.75 13:47 10.09.2019
2207 Clouds 13 1008 37 0 5.6 213.421 13:23 10.09.2019
2208 Clouds 13 1008 37 0 5.6 213.421 12:55 10.09.2019
2209 Clouds 13 1008 37 0 5.6 213.421 12:36 10.09.2019
2210 Clouds 17 1005 29 0 7.72 217.152 12:18 10.09.2019
2211 Clouds 17 1005 29 0 7.72 217.152 11:42 10.09.2019
2212 Clouds 17 1005 29 0 7.72 217.152 11:22 10.09.2019
2213 Clouds 17 1005 29 0 7.72 217.152 10:57 10.09.2019
2214 Clouds 17 1005 29 0 7.72 217.152 10:36 10.09.2019
2215 Clouds 17 1005 29 0 7.72 217.152 10:18 10.09.2019
2216 Clouds 17 1005 29 0 7.72 217.152 09:44 10.09.2019
2217 Clouds 17 1007 30 0 8.75 200.623 09:20 10.09.2019
2218 Clouds 17 1007 30 0 9.68 203.022 08:49 10.09.2019
2219 Clouds 17 1007 30 0 9.68 203.022 08:29 10.09.2019
2220 Clouds 17 1007 30 0 9.68 203.022 07:59 10.09.2019
2221 Clouds 17 1007 30 0 9.68 203.022 07:41 10.09.2019
2222 Clouds 17 1007 30 0 9.68 203.022 07:41 10.09.2019
2223 Clouds 17 1007 30 0 9.68 203.022 07:23 10.09.2019
2224 Clouds 17 1007 30 0 9.68 203.022 06:42 10.09.2019
2225 Clouds 14 1009 33 0 7.09 194.073 06:21 10.09.2019
2226 Clouds 14 1009 33 0 7.09 194.073 04:24 10.09.2019
2227 Clouds 7 1011 48 0 2.55 171.959 02:40 10.09.2019
2228 Clouds 7 1011 48 0 2.55 171.959 02:21 10.09.2019
2229 Clouds 7 1011 48 0 2.55 171.959 02:21 10.09.2019
2230 Clouds 7 1011 48 0 2.55 171.959 02:21 10.09.2019
2231 Clouds 7 1011 48 0 2.55 171.959 01:50 10.09.2019
2232 Clouds 7 1011 48 0 2.09 161.305 01:23 10.09.2019
2233 Clouds 7 1011 48 0 2.09 161.305 00:36 10.09.2019
2234 Clouds 7 1010 36 0 2.58 154.507 00:00 10.09.2019
2235 Clouds 7 1010 36 0 2.58 154.507 23:40 09.09.2019
2236 Clouds 7 1010 36 0 2.58 154.507 23:18 09.09.2019
2237 Clouds 7 1010 36 0 2.58 154.507 22:55 09.09.2019
2238 Clouds 7 1010 36 0 2.58 154.507 22:37 09.09.2019
2239 Clouds 7 1010 36 0 2.58 154.507 22:19 09.09.2019
2240 Clouds 7 1010 36 0 2.58 154.507 21:55 09.09.2019
2241 Clouds 7 1010 36 0 2.58 154.507 21:55 09.09.2019
2242 Clouds 7 1010 36 0 2.58 154.507 21:37 09.09.2019
2243 Clouds 9 1011 42 0 2.56 158.481 21:18 09.09.2019
2244 Clouds 9 1011 42 0 2.56 158.481 20:55 09.09.2019
2245 Rain 8 1011 49 0 2.57 163.812 20:36 09.09.2019
2246 Rain 8 1011 49 0 2.57 163.812 20:18 09.09.2019
2247 Rain 8 1011 49 0 2.57 163.812 19:56 09.09.2019
2248 Rain 8 1011 49 0 2.57 163.812 19:37 09.09.2019
2249 Rain 8 1011 49 0 2.57 163.812 19:19 09.09.2019
2250 Rain 8 1011 49 0 2.57 163.812 19:19 09.09.2019
2251 Rain 8 1011 49 0 2.57 163.812 18:55 09.09.2019
2252 Rain 8 1011 49 0 2.57 163.812 18:36 09.09.2019
2253 Clouds 8 1012 51 0 1.76 137.785 18:18 09.09.2019
2254 Clouds 8 1012 51 0 1.76 137.785 18:18 09.09.2019
2255 Clouds 8 1012 51 0 1.76 137.785 17:56 09.09.2019
2256 Clouds 8 1012 51 0 1.76 137.785 17:37 09.09.2019
2257 Clouds 8 1012 51 0 1.76 137.785 17:19 09.09.2019
2258 Clouds 8 1012 51 0 1.76 137.785 16:40 09.09.2019
2259 Clouds 8 1012 51 0 1.76 137.785 16:21 09.09.2019
2260 Clouds 8 1012 51 0 1.76 137.785 16:21 09.09.2019
2261 Clouds 8 1012 51 0 1.76 137.785 15:56 09.09.2019
2262 Clouds 8 1012 51 0 1.76 137.785 15:56 09.09.2019
2263 Clouds 8 1012 51 0 1.76 137.785 15:38 09.09.2019
2264 Clouds 9 1011 41 0 1.61 147.885 15:20 09.09.2019
2265 Clouds 9 1011 41 0 1.61 147.885 14:57 09.09.2019
2266 Clouds 9 1011 41 0 1.61 147.885 14:39 09.09.2019
2267 Clouds 9 1011 41 0 1.61 147.885 14:21 09.09.2019
2268 Clouds 9 1011 41 0 1.61 147.885 13:54 09.09.2019
2269 Clouds 9 1011 41 0 1.61 147.885 13:36 09.09.2019
2270 Clouds 9 1011 39 0 1.86 145.106 13:18 09.09.2019
2271 Clouds 9 1011 39 0 1.86 145.106 12:41 09.09.2019
2272 Clouds 15 1009 27 0 4.51 225.602 12:22 09.09.2019
2273 Clouds 15 1009 27 0 4.51 225.602 11:58 09.09.2019
2274 Clouds 15 1009 27 0 4.51 225.602 11:40 09.09.2019
2275 Clouds 15 1009 27 0 4.51 225.602 11:18 09.09.2019
2276 Clouds 15 1009 27 0 4.51 225.602 10:42 09.09.2019
2277 Clouds 15 1009 27 0 4.51 225.602 10:23 09.09.2019
2278 Clouds 15 1009 27 0 4.51 225.602 09:58 09.09.2019
2279 Clouds 15 1009 27 0 4.51 225.602 09:39 09.09.2019
2280 Clouds 13 1011 25 0 3.1 203.902 09:21 09.09.2019
2281 Clouds 13 1011 26 0 2.99 198.187 08:39 09.09.2019
2282 Clouds 13 1011 26 0 2.99 198.187 08:21 09.09.2019
2283 Clouds 13 1011 26 0 2.99 198.187 07:58 09.09.2019
2284 Clouds 13 1011 26 0 2.99 198.187 07:39 09.09.2019
2285 Clouds 13 1011 26 0 2.99 198.187 07:20 09.09.2019
2286 Clouds 13 1011 26 0 2.99 198.187 06:46 09.09.2019
2287 Clouds 10 1014 29 0 1.42 149.581 05:37 09.09.2019
2288 Clouds 3 1016 54 0 1.11 126.384 02:59 09.09.2019
2289 Clouds 3 1016 54 0 1.11 126.384 02:41 09.09.2019
2290 Clouds 3 1016 54 0 1.06 130.713 01:22 09.09.2019
2291 Clouds 1 1015 54 0 0.43 174.757 00:24 09.09.2019
2292 Clouds 1 1015 54 0 0.43 174.757 23:47 08.09.2019
2293 Clouds 1 1015 54 0 0.43 174.757 23:29 08.09.2019
2294 Clouds 1 1015 54 0 0.43 174.757 22:59 08.09.2019
2295 Clouds 1 1015 54 0 0.43 174.757 22:39 08.09.2019
2296 Clouds 1 1015 54 0 0.43 174.757 22:21 08.09.2019
2297 Clouds 1 1015 54 0 0.43 174.757 21:57 08.09.2019
2298 Clouds 1 1015 54 0 0.43 174.757 21:39 08.09.2019
2299 Clouds 2 1015 52 0 0.77 207.893 21:21 08.09.2019
2300 Clouds 2 1015 52 0 0.77 207.893 20:41 08.09.2019
2301 Clear 1 1015 50 0 0.62 237.7 20:22 08.09.2019
2302 Clear 1 1015 50 0 0.62 237.7 19:59 08.09.2019
2303 Clear 1 1015 50 0 0.62 237.7 19:39 08.09.2019
2304 Clear 1 1015 50 0 0.62 237.7 19:21 08.09.2019
2305 Clear 1 1015 50 0 0.62 237.7 18:58 08.09.2019
2306 Clear 1 1015 50 0 0.62 237.7 18:39 08.09.2019
2307 Clear 3 1015 50 0 0.86 313.058 18:19 08.09.2019
2308 Clear 3 1015 50 0 0.86 313.058 18:19 08.09.2019
2309 Clear 3 1015 50 0 0.86 313.058 17:57 08.09.2019
2310 Clear 3 1015 50 0 0.86 313.058 17:37 08.09.2019
2311 Clear 3 1015 50 0 0.86 313.058 17:18 08.09.2019
2312 Clear 3 1015 50 0 0.86 313.058 16:45 08.09.2019
2313 Clear 3 1015 50 0 0.86 313.058 16:23 08.09.2019
2314 Clear 3 1015 50 0 0.86 313.058 15:59 08.09.2019
2315 Clear 3 1015 50 0 0.86 313.058 15:41 08.09.2019
2316 Clouds 7 1013 46 0 2.89 319.75 15:21 08.09.2019
2317 Clouds 7 1013 46 0 2.89 319.75 14:58 08.09.2019
2318 Clouds 7 1013 46 0 2.89 319.75 14:39 08.09.2019
2319 Clouds 7 1013 46 0 2.89 319.75 14:20 08.09.2019
2320 Clouds 7 1013 46 0 2.89 319.75 13:57 08.09.2019
2321 Clouds 7 1013 46 0 2.89 319.75 13:38 08.09.2019
2322 Clouds 7 1013 47 0 2.74 317.632 13:19 08.09.2019
2323 Clouds 7 1013 47 0 2.74 317.632 12:42 08.09.2019
2324 Clouds 12 1011 34 0 5.38 297.698 12:24 08.09.2019
2325 Clouds 12 1011 34 0 5.38 297.698 11:59 08.09.2019
2326 Clouds 12 1011 34 0 5.38 297.698 11:40 08.09.2019
2327 Clouds 12 1011 34 0 5.38 297.698 11:20 08.09.2019
2328 Clouds 12 1011 34 0 5.38 297.698 10:58 08.09.2019
2329 Clouds 12 1011 34 0 5.38 297.698 10:40 08.09.2019
2330 Clouds 12 1011 34 0 5.38 297.698 10:21 08.09.2019
2331 Clouds 12 1011 34 0 5.38 297.698 09:39 08.09.2019
2332 Clouds 13 1011 32 0 5.64 284.878 09:21 08.09.2019
2333 Clouds 13 1011 32 0 5.64 284.878 08:57 08.09.2019
2334 Clouds 13 1011 32 0 5.96 285.672 08:38 08.09.2019
2335 Clouds 13 1011 32 0 5.96 285.672 08:18 08.09.2019
2336 Clouds 13 1011 32 0 5.96 285.672 07:39 08.09.2019
2337 Clouds 13 1011 32 0 5.96 285.672 07:21 08.09.2019
2338 Clouds 13 1011 32 0 5.96 285.672 06:53 08.09.2019
2339 Clouds 13 1011 32 0 5.96 285.672 06:32 08.09.2019
2340 Clouds 13 1011 32 0 5.96 285.672 06:32 08.09.2019
2341 Clouds 11 1012 43 0 2.49 261.166 05:38 08.09.2019
2342 Clouds 11 1012 43 0 2.49 261.166 03:56 08.09.2019
2343 Clouds 5 1013 65 0 0.49 354.394 02:59 08.09.2019
2344 Clouds 5 1013 65 0 0.49 354.394 02:26 08.09.2019
2345 Clouds 5 1013 65 0 0.49 354.394 01:52 08.09.2019
2346 Clouds 5 1012 64 0 1.15 20.905 01:22 08.09.2019
2347 Clouds 5 1012 64 0 1.15 20.905 00:45 08.09.2019
2348 Clouds 5 1012 64 0 1.15 20.905 00:27 08.09.2019
2349 Rain 5 1011 61 0 1.9 37.534 23:39 07.09.2019
2350 Rain 5 1011 61 0 1.9 37.534 23:21 07.09.2019
2351 Rain 5 1011 61 0 1.9 37.534 22:58 07.09.2019
2352 Rain 5 1011 61 0 1.9 37.534 22:39 07.09.2019
2353 Rain 5 1011 61 0 1.9 37.534 22:20 07.09.2019
2354 Rain 5 1011 61 0 1.9 37.534 21:43 07.09.2019
2355 Rain 5 1011 61 0 1.9 37.534 21:25 07.09.2019
2356 Rain 5 1011 59 0 0.91 26.565 20:58 07.09.2019
2357 Clouds 4 1011 59 0 0.44 65.197 20:39 07.09.2019
2358 Clouds 4 1011 59 0 0.44 65.197 20:20 07.09.2019
2359 Clouds 4 1011 59 0 0.44 65.197 19:55 07.09.2019
2360 Clouds 4 1011 59 0 0.44 65.197 19:37 07.09.2019
2361 Clouds 4 1011 59 0 0.44 65.197 19:19 07.09.2019
2362 Clouds 4 1011 59 0 0.44 65.197 18:55 07.09.2019
2363 Clouds 4 1011 59 0 0.44 65.197 18:55 07.09.2019
2364 Clouds 4 1011 59 0 0.44 65.197 18:36 07.09.2019
2365 Clouds 5 1011 56 0 0.9 76.166 18:18 07.09.2019
2366 Clouds 5 1011 56 0 0.9 76.166 17:55 07.09.2019
2367 Clouds 5 1011 56 0 0.9 76.166 17:55 07.09.2019
2368 Clouds 5 1011 56 0 0.9 76.166 17:36 07.09.2019
2369 Clouds 5 1011 56 0 0.9 76.166 17:18 07.09.2019
2370 Clouds 5 1011 56 0 0.9 76.166 16:43 07.09.2019
2371 Clouds 5 1011 56 0 0.9 76.166 16:21 07.09.2019
2372 Clouds 5 1011 56 0 0.9 76.166 15:50 07.09.2019
2373 Clouds 5 1011 56 0 0.9 76.166 15:27 07.09.2019
2374 Clouds 7 1011 55 0 0.55 343.221 14:58 07.09.2019
2375 Clouds 7 1011 55 0 0.55 343.221 14:38 07.09.2019
2376 Clouds 7 1011 55 0 0.55 343.221 14:20 07.09.2019
2377 Clouds 7 1011 55 0 0.55 343.221 14:20 07.09.2019
2378 Clouds 7 1011 55 0 0.55 343.221 13:59 07.09.2019
2379 Clouds 7 1011 55 0 0.55 343.221 13:41 07.09.2019
2380 Clouds 7 1011 51 0 1.24 355.018 13:23 07.09.2019
2381 Clouds 7 1011 51 0 1.24 355.018 12:45 07.09.2019
2382 Clouds 7 1011 51 0 1.24 355.018 12:26 07.09.2019
2383 Clouds 13 1010 31 0 2.72 270.758 11:58 07.09.2019
2384 Clouds 13 1010 31 0 2.72 270.758 11:39 07.09.2019
2385 Clouds 13 1010 31 0 2.72 270.758 11:19 07.09.2019
2386 Clouds 13 1010 31 0 2.72 270.758 10:41 07.09.2019
2387 Clouds 13 1010 31 0 2.72 270.758 10:22 07.09.2019
2388 Clouds 13 1010 31 0 2.72 270.758 09:57 07.09.2019
2389 Clouds 13 1010 31 0 2.72 270.758 09:38 07.09.2019
2390 Clouds 13 1012 28 0 2.76 267.318 09:20 07.09.2019
2391 Clouds 13 1012 28 0 2.76 267.318 09:20 07.09.2019
2392 Clouds 13 1012 29 0 3.3 273.387 08:44 07.09.2019
2393 Clouds 13 1012 29 0 3.3 273.387 08:26 07.09.2019
2394 Clouds 13 1012 29 0 3.3 273.387 07:48 07.09.2019
2395 Clouds 13 1012 29 0 3.3 273.387 07:28 07.09.2019
2396 Clouds 13 1012 29 0 3.3 273.387 06:53 07.09.2019
2397 Clear 10 1014 40 0 0.52 259.922 06:21 07.09.2019
2398 Clear 10 1014 40 0 0.52 259.922 05:31 07.09.2019
2399 Clear 10 1014 40 0 0.52 259.922 04:23 07.09.2019
2400 Clear 3 1015 70 0 0.25 63.849 02:52 07.09.2019
2401 Clear 3 1015 70 0 0.25 63.849 02:20 07.09.2019
2402 Clear 3 1016 68 0 0.33 59.125 01:26 07.09.2019
2403 Clear 3 1016 68 0 0.33 59.125 00:44 07.09.2019
2404 Clear 2 1015 65 0 1.52 38.866 00:21 07.09.2019
2405 Clear 2 1015 65 0 1.52 38.866 23:41 06.09.2019
2406 Clear 2 1015 65 0 1.52 38.866 23:22 06.09.2019
2407 Clear 2 1015 65 0 1.52 38.866 23:22 06.09.2019
2408 Clear 2 1015 65 0 1.52 38.866 22:58 06.09.2019
2409 Clear 2 1015 65 0 1.52 38.866 22:39 06.09.2019
2410 Clear 2 1015 65 0 1.52 38.866 22:19 06.09.2019
2411 Clear 2 1015 65 0 1.52 38.866 21:58 06.09.2019
2412 Clear 2 1015 65 0 1.52 38.866 21:58 06.09.2019
2413 Clear 2 1015 65 0 1.52 38.866 21:58 06.09.2019
2414 Clear 2 1015 65 0 1.52 38.866 21:39 06.09.2019
2415 Clear 3 1016 63 0 2.12 39.074 21:21 06.09.2019
2416 Clear 3 1016 63 0 2.12 39.074 20:58 06.09.2019
2417 Clear 3 1016 63 0 2.04 42.538 20:39 06.09.2019
2418 Clear 3 1016 63 0 2.04 42.538 20:21 06.09.2019
2419 Clear 3 1016 63 0 2.04 42.538 20:21 06.09.2019
2420 Clear 3 1016 63 0 2.04 42.538 19:57 06.09.2019
2421 Clear 3 1016 63 0 2.04 42.538 19:39 06.09.2019
2422 Clear 3 1016 63 0 2.04 42.538 19:20 06.09.2019
2423 Clear 3 1016 63 0 2.04 42.538 18:47 06.09.2019
2424 Clear 3 1016 63 0 2.04 42.538 18:27 06.09.2019
2425 Clear 5 1015 65 0 1.87 18.017 17:59 06.09.2019
2426 Clear 5 1015 65 0 1.87 18.017 17:38 06.09.2019
2427 Clear 5 1015 65 0 1.87 18.017 17:19 06.09.2019
2428 Clear 5 1015 65 0 1.87 18.017 17:19 06.09.2019
2429 Clear 5 1015 65 0 1.87 18.017 16:41 06.09.2019
2430 Clear 5 1015 65 0 1.87 18.017 16:19 06.09.2019
2431 Clear 5 1015 65 0 1.87 18.017 15:44 06.09.2019
2432 Clear 5 1015 65 0 1.87 18.017 15:26 06.09.2019
2433 Clear 8 1012 59 0 3.37 14.197 14:59 06.09.2019
2434 Clear 8 1012 59 0 3.37 14.197 14:39 06.09.2019
2435 Clear 8 1012 59 0 3.37 14.197 14:18 06.09.2019
2436 Clear 8 1012 59 0 3.37 14.197 13:42 06.09.2019
2437 Clear 8 1012 59 0 3.39 14.597 13:22 06.09.2019
2438 Clear 8 1012 59 0 3.39 14.597 12:38 06.09.2019
2439 Clear 12 1011 42 0 5.85 326.332 12:20 06.09.2019
2440 Clear 12 1011 42 0 5.85 326.332 11:55 06.09.2019
2441 -273 0 0 0 0 0 11:55 06.09.2019
2442 Clear 12 1011 42 0 5.85 326.332 11:37 06.09.2019
2443 Clear 12 1011 42 0 5.85 326.332 11:18 06.09.2019
2444 Clear 12 1011 42 0 5.85 326.332 10:41 06.09.2019
2445 Clear 12 1011 41 0 6.18 337.415 10:22 06.09.2019
2446 Clear 12 1011 41 0 6.18 337.415 09:58 06.09.2019
2447 Clear 12 1011 41 0 6.18 337.415 09:36 06.09.2019
2448 Clouds 13 1011 44 0 5.47 304.82 09:18 06.09.2019
2449 Clouds 13 1011 44 0 5.47 304.82 08:44 06.09.2019
2450 Clouds 13 1011 44 0 5.47 304.82 08:26 06.09.2019
2451 Clouds 13 1011 44 0 5.47 304.82 07:49 06.09.2019
2452 Clouds 13 1011 44 0 5.47 304.82 07:28 06.09.2019
2453 Clouds 13 1011 44 0 5.47 304.82 06:58 06.09.2019
2454 Clouds 13 1011 44 0 5.47 304.82 06:28 06.09.2019
2455 Clouds 10 1012 61 0 1.26 292.266 05:43 06.09.2019
2456 Clouds 10 1012 61 0 1.26 292.266 04:52 06.09.2019
2457 Clouds 10 1012 61 0 1.26 292.266 04:19 06.09.2019
2458 Rain 6 1011 86 0 1.25 93.625 02:27 06.09.2019
2459 Rain 6 1011 82 0 1.49 22.073 00:48 06.09.2019
2460 Rain 6 1010 86 0 3.48 9.062 23:57 05.09.2019
2461 Rain 6 1010 86 0 3.48 9.062 23:57 05.09.2019
2462 Rain 6 1010 86 0 3.48 9.062 23:39 05.09.2019
2463 Rain 6 1010 86 0 3.48 9.062 23:19 05.09.2019
2464 Rain 6 1010 86 0 3.48 9.062 22:44 05.09.2019
2465 Rain 6 1010 86 0 3.48 9.062 22:25 05.09.2019
2466 Rain 6 1010 86 0 3.48 9.062 21:57 05.09.2019
2467 Rain 6 1010 86 0 3.48 9.062 21:38 05.09.2019
2468 Clouds 8 1009 69 0 2.51 2.745 21:19 05.09.2019
2469 Clouds 8 1009 69 0 2.51 2.745 20:57 05.09.2019
2470 Rain 10 1010 65 0 2.61 15.819 20:38 05.09.2019
2471 Rain 10 1010 65 0 2.61 15.819 20:19 05.09.2019
2472 Rain 10 1010 65 0 2.61 15.819 19:55 05.09.2019
2473 Rain 10 1010 65 0 2.61 15.819 19:37 05.09.2019
2474 Rain 10 1010 65 0 2.61 15.819 19:18 05.09.2019
2475 Rain 10 1010 65 0 2.61 15.819 18:41 05.09.2019
2476 Clouds 9 1008 60 0 1.43 285.336 18:21 05.09.2019
2477 Clouds 9 1008 60 0 1.43 285.336 17:57 05.09.2019
2478 Clouds 9 1008 60 0 1.43 285.336 17:38 05.09.2019
2479 Clouds 9 1008 60 0 1.43 285.336 17:20 05.09.2019
2480 Clouds 9 1008 60 0 1.43 285.336 16:42 05.09.2019
2481 Clouds 9 1008 60 0 1.43 285.336 16:21 05.09.2019
2482 Clouds 9 1008 60 0 1.43 285.336 16:21 05.09.2019
2483 Clouds 9 1008 60 0 1.43 285.336 15:58 05.09.2019
2484 Clouds 9 1008 60 0 1.43 285.336 15:39 05.09.2019
2485 Clouds 10 1006 57 0 1.4 307.352 15:19 05.09.2019
2486 Clouds 10 1006 57 0 1.4 307.352 14:55 05.09.2019
2487 Clouds 10 1006 57 0 1.4 307.352 14:55 05.09.2019
2488 Clouds 10 1006 57 0 1.4 307.352 14:37 05.09.2019
2489 Clouds 10 1006 57 0 1.4 307.352 14:37 05.09.2019
2490 Clouds 10 1006 57 0 1.4 307.352 14:18 05.09.2019
2491 Clouds 10 1006 57 0 1.4 307.352 13:41 05.09.2019
2492 Clouds 11 1006 55 0 1.73 324.818 13:18 05.09.2019
2493 Clouds 11 1006 55 0 1.73 324.818 12:42 05.09.2019
2494 Clouds 18 1004 30 0 5.51 257.24 12:24 05.09.2019
2495 Clouds 18 1004 30 0 5.51 257.24 11:56 05.09.2019
2496 Clouds 18 1004 30 0 5.51 257.24 11:36 05.09.2019
2497 Clouds 18 1004 30 0 5.51 257.24 11:18 05.09.2019
2498 Clouds 18 1004 30 0 5.51 257.24 10:37 05.09.2019
2499 Clouds 18 1004 30 0 5.51 257.24 10:19 05.09.2019
2500 Clouds 18 1004 30 0 5.51 257.24 09:57 05.09.2019
2501 Clouds 18 1004 27 0 5.35 249.337 09:38 05.09.2019
2502 Clouds 19 1005 27 0 7.68 252.698 09:18 05.09.2019
2503 Clouds 19 1005 27 0 7.68 252.698 09:18 05.09.2019
2504 Clouds 19 1005 27 0 7.68 252.698 08:43 05.09.2019
2505 Clouds 19 1005 27 0 7.68 252.698 08:24 05.09.2019
2506 Clouds 19 1005 27 0 7.68 252.698 07:44 05.09.2019
2507 Clouds 19 1005 27 0 7.68 252.698 07:25 05.09.2019
2508 Clouds 19 1005 27 0 7.68 252.698 06:50 05.09.2019
2509 Clouds 19 1005 27 0 7.68 252.698 06:29 05.09.2019
2510 Clouds 16 1007 31 0 3.23 190.864 05:49 05.09.2019
2511 Clouds 16 1007 31 0 3.23 190.864 05:28 05.09.2019
2512 Clouds 16 1007 31 0 3.23 190.864 04:45 05.09.2019
2513 Clouds 16 1007 31 0 3.23 190.864 04:19 05.09.2019
2514 Clouds 8 1008 53 0 0.92 129.425 03:22 05.09.2019
2515 Clouds 8 1008 53 0 0.92 129.425 02:40 05.09.2019
2516 Clouds 8 1008 53 0 0.92 129.425 02:18 05.09.2019
2517 Clouds 9 1008 53 0 0.92 136.813 01:19 05.09.2019
2518 Clouds 9 1008 53 0 0.92 136.813 00:40 05.09.2019
2519 Clouds 6 1008 50 0 1.17 115.905 00:19 05.09.2019
2520 Clouds 6 1008 50 0 1.17 115.905 23:45 04.09.2019
2521 Clouds 6 1008 50 0 1.17 115.905 23:23 04.09.2019
2522 Clouds 6 1008 50 0 1.17 115.905 22:49 04.09.2019
2523 Clouds 6 1008 50 0 1.17 115.905 22:22 04.09.2019
2524 Clouds 6 1008 50 0 1.17 115.905 21:58 04.09.2019
2525 Clouds 6 1008 49 0 1.1 117.523 21:39 04.09.2019
2526 Clouds 7 1008 51 0 1.02 68.639 21:20 04.09.2019
2527 Clouds 7 1008 51 0 1.02 68.639 20:55 04.09.2019
2528 Clouds 7 1008 51 0 1.02 68.639 20:37 04.09.2019
2529 Clouds 7 1008 51 0 1.02 68.639 20:18 04.09.2019
2530 Clouds 7 1008 51 0 1.02 68.639 20:18 04.09.2019
2531 Clouds 7 1008 51 0 1.02 68.639 19:43 04.09.2019
2532 Clouds 7 1008 51 0 1.02 68.639 19:23 04.09.2019
2533 Clouds 7 1008 51 0 1.02 68.639 18:55 04.09.2019
2534 Clouds 7 1008 51 0 1.02 68.639 18:36 04.09.2019
2535 Clouds 8 1009 43 0 1.65 36.432 18:18 04.09.2019
2536 Clouds 8 1009 43 0 1.65 36.432 17:41 04.09.2019
2537 Clouds 8 1009 43 0 1.65 36.432 17:22 04.09.2019
2538 Clouds 8 1009 43 0 1.65 36.432 16:56 04.09.2019
2539 Clouds 8 1009 43 0 1.65 36.432 16:38 04.09.2019
2540 Clouds 8 1009 43 0 1.65 36.432 16:19 04.09.2019
2541 Clouds 8 1009 43 0 1.65 36.432 15:41 04.09.2019
2542 Clouds 10 1008 43 0 0.64 359.64 15:22 04.09.2019
2543 Clouds 10 1008 43 0 0.64 359.64 14:58 04.09.2019
2544 Clouds 10 1008 43 0 0.64 359.64 14:38 04.09.2019
2545 Clouds 10 1008 43 0 0.64 359.64 14:20 04.09.2019
2546 Clouds 10 1008 43 0 0.64 359.64 13:58 04.09.2019
2547 Clouds 10 1008 43 0 0.64 359.64 13:39 04.09.2019
2548 Clear 10 1008 43 0 1.15 307.419 13:21 04.09.2019
2549 Clear 10 1008 43 0 1.15 307.419 12:44 04.09.2019
2550 Clear 10 1008 43 0 1.15 307.419 12:26 04.09.2019
2551 Clear 17 1008 22 0 0.79 254.453 11:58 04.09.2019
2552 Clear 17 1008 22 0 0.79 254.453 11:38 04.09.2019
2553 Clear 17 1008 22 0 0.79 254.453 11:19 04.09.2019
2554 Clear 17 1008 22 0 0.79 254.453 10:55 04.09.2019
2555 Clear 17 1008 22 0 0.79 254.453 10:36 04.09.2019
2556 Clear 17 1008 22 0 0.79 254.453 10:18 04.09.2019
2557 Clear 17 1008 24 0 2.12 257.715 09:42 04.09.2019
2558 Clouds 16 1009 25 0 1.24 239.87 09:19 04.09.2019
2559 Clouds 16 1009 25 0 1.24 239.87 08:42 04.09.2019
2560 Clouds 16 1009 25 0 1.24 239.87 08:24 04.09.2019
2561 Clouds 16 1009 25 0 1.24 239.87 07:58 04.09.2019
2562 Clouds 16 1009 25 0 1.24 239.87 07:35 04.09.2019
2563 Clouds 16 1009 25 0 1.24 239.87 06:49 04.09.2019
2564 Clouds 16 1009 25 0 1.24 239.87 06:26 04.09.2019
2565 Clouds 13 1011 37 0 0.37 109.904 04:54 04.09.2019
2566 Clouds 13 1011 37 0 0.37 109.904 04:21 04.09.2019
2567 Clear 6 1012 73 0 1.16 66.873 02:36 04.09.2019
2568 Clouds 6 1013 76 0 1.04 72.472 00:56 04.09.2019
2569 Clouds 6 1013 76 0 1.04 72.472 00:38 04.09.2019
2570 Clouds 4 1012 84 0 1.45 64.302 00:18 04.09.2019
2571 Clouds 4 1012 84 0 1.45 64.302 23:47 03.09.2019
2572 Clouds 4 1012 84 0 1.45 64.302 23:23 03.09.2019
2573 Clouds 4 1012 84 0 1.45 64.302 22:40 03.09.2019
2574 Clouds 4 1012 84 0 1.45 64.302 22:22 03.09.2019
2575 Clouds 4 1012 80 0 1.52 62.981 21:56 03.09.2019
2576 Clouds 4 1012 80 0 1.52 62.981 21:38 03.09.2019
2577 Clouds 5 1013 85 0 1.91 35.782 21:20 03.09.2019
2578 Clouds 5 1013 85 0 1.91 35.782 20:54 03.09.2019
2579 Clouds 5 1013 85 0 1.91 35.782 20:36 03.09.2019
2580 Clouds 5 1013 85 0 1.91 35.782 20:36 03.09.2019
2581 Clouds 5 1013 85 0 1.91 35.782 20:18 03.09.2019
2582 Clouds 5 1013 85 0 1.91 35.782 19:42 03.09.2019
2583 Clouds 5 1013 85 0 1.91 35.782 19:19 03.09.2019
2584 Clouds 5 1013 85 0 1.91 35.782 18:56 03.09.2019
2585 Clouds 5 1013 85 0 1.91 35.782 18:38 03.09.2019
2586 Clouds 5 1013 85 0 1.91 35.782 18:38 03.09.2019
2587 Clear 6 1013 89 0 2.24 26.942 18:18 03.09.2019
2588 Clear 6 1013 89 0 2.24 26.942 17:43 03.09.2019
2589 Clear 6 1013 89 0 2.24 26.942 17:21 03.09.2019
2590 Clear 6 1013 89 0 2.24 26.942 16:59 03.09.2019
2591 Clear 6 1013 89 0 2.24 26.942 16:41 03.09.2019
2592 Clear 6 1013 89 0 2.24 26.942 16:22 03.09.2019
2593 Clear 6 1013 89 0 2.24 26.942 15:42 03.09.2019
2594 Rain 7 1012 89 0 2.09 52.687 15:22 03.09.2019
2595 Rain 7 1012 89 0 2.09 52.687 14:59 03.09.2019
2596 Rain 7 1012 89 0 2.09 52.687 14:40 03.09.2019
2597 Rain 7 1012 89 0 2.09 52.687 14:21 03.09.2019
2598 Rain 7 1012 89 0 2.09 52.687 13:58 03.09.2019
2599 Rain 7 1012 89 0 2.09 52.687 13:38 03.09.2019
2600 Rain 8 1012 83 0 1.95 69.967 13:19 03.09.2019
2601 Rain 8 1012 83 0 1.95 69.967 12:57 03.09.2019
2602 Rain 8 1012 83 0 1.95 69.967 12:38 03.09.2019
2603 Rain 8 1012 85 0 3.07 351.126 12:20 03.09.2019
2604 Rain 8 1012 85 0 3.07 351.126 11:42 03.09.2019
2605 Rain 8 1012 85 0 3.07 351.126 11:22 03.09.2019
2606 Rain 8 1012 85 0 3.07 351.126 10:57 03.09.2019
2607 Rain 8 1012 85 0 3.07 351.126 10:38 03.09.2019
2608 Rain 8 1012 85 0 3.07 351.126 10:20 03.09.2019
2609 Rain 8 1011 89 0 2.93 316.174 09:44 03.09.2019
2610 Rain 8 1011 89 0 2.93 316.174 09:25 03.09.2019
2611 Rain 9 1009 86 0 1 118.049 08:55 03.09.2019
2612 Rain 9 1009 86 0 1 118.049 08:36 03.09.2019
2613 Rain 9 1009 86 0 1 118.049 08:18 03.09.2019
2614 Rain 9 1009 86 0 1 118.049 07:40 03.09.2019
2615 Rain 9 1009 86 0 1 118.049 07:22 03.09.2019
2616 Rain 9 1009 86 0 1 118.049 06:45 03.09.2019
2617 Clouds 16 1008 43 0 3.09 202.508 05:53 03.09.2019
2618 Clouds 16 1008 43 0 3.09 202.508 03:36 03.09.2019
2619 Clear 10 1010 61 0 1.13 159.634 02:44 03.09.2019
2620 Clear 10 1010 61 0 1.13 159.634 02:23 03.09.2019
2621 Clear 10 1010 61 0 1.13 159.634 01:49 03.09.2019
2622 Clear 10 1010 59 0 1.33 177.668 01:29 03.09.2019
2623 Clear 10 1010 59 0 1.33 177.668 00:40 03.09.2019
2624 Clear 8 1009 57 0 1.65 159.107 00:20 03.09.2019
2625 Clear 8 1009 57 0 1.65 159.107 23:40 02.09.2019
2626 Clear 8 1009 57 0 1.65 159.107 23:20 02.09.2019
2627 Clear 8 1009 57 0 1.65 159.107 22:56 02.09.2019
2628 Clear 8 1009 57 0 1.65 159.107 22:38 02.09.2019
2629 Clear 8 1009 57 0 1.65 159.107 22:38 02.09.2019
2630 Clear 8 1009 57 0 1.65 159.107 22:19 02.09.2019
2631 Clear 8 1009 57 0 1.65 159.107 21:56 02.09.2019
2632 Clear 8 1009 60 0 1.25 151.473 21:38 02.09.2019
2633 Rain 10 1009 58 0 1.56 137.177 21:20 02.09.2019
2634 Rain 10 1009 58 0 1.56 137.177 21:20 02.09.2019
2635 Rain 10 1009 58 0 1.56 137.177 20:55 02.09.2019
2636 Rain 10 1009 58 0 1.56 137.177 20:37 02.09.2019
2637 Rain 10 1009 58 0 1.56 137.177 20:18 02.09.2019
2638 Rain 10 1009 58 0 1.56 137.177 19:55 02.09.2019
2639 Rain 10 1009 58 0 1.56 137.177 19:37 02.09.2019
2640 Rain 10 1009 58 0 1.56 137.177 19:19 02.09.2019
2641 Rain 10 1009 58 0 1.56 137.177 18:39 02.09.2019
2642 Rain 12 1008 53 0 1.73 124.611 18:21 02.09.2019
2643 Rain 12 1008 53 0 1.73 124.611 17:57 02.09.2019
2644 Rain 12 1008 53 0 1.73 124.611 17:38 02.09.2019
2645 Rain 12 1008 53 0 1.73 124.611 17:19 02.09.2019
2646 Rain 12 1008 53 0 1.73 124.611 16:41 02.09.2019
2647 Rain 12 1008 53 0 1.73 124.611 16:22 02.09.2019
2648 Rain 12 1008 53 0 1.73 124.611 15:57 02.09.2019
2649 Rain 12 1008 53 0 1.73 124.611 15:38 02.09.2019
2650 Clouds 14 1007 49 0 1.18 291.604 15:19 02.09.2019
2651 -273 0 0 0 0 0 14:56 02.09.2019
2652 Clouds 14 1007 49 0 1.18 291.604 14:37 02.09.2019
2653 Clouds 14 1007 49 0 1.18 291.604 14:37 02.09.2019
2654 Clouds 14 1007 49 0 1.18 291.604 14:18 02.09.2019
2655 Clouds 14 1007 49 0 1.18 291.604 13:44 02.09.2019
2656 Rain 15 1007 48 0 2.59 288.94 13:25 02.09.2019
2657 Rain 15 1007 48 0 2.59 288.94 12:47 02.09.2019
2658 Rain 15 1007 48 0 2.59 288.94 12:27 02.09.2019
2659 Clouds 21 1006 26 0 7.27 234.396 12:00 02.09.2019
2660 Clouds 21 1006 26 0 7.27 234.396 11:41 02.09.2019
2661 Clouds 21 1006 26 0 7.27 234.396 11:22 02.09.2019
2662 Clouds 21 1006 26 0 7.27 234.396 10:58 02.09.2019
2663 Clouds 21 1006 26 0 7.27 234.396 10:39 02.09.2019
2664 Clouds 21 1006 26 0 7.27 234.396 10:21 02.09.2019
2665 Clouds 21 1006 26 0 7.27 234.396 09:58 02.09.2019
2666 Clouds 22 1006 24 0 8.37 224.08 09:38 02.09.2019
2667 Clouds 22 1008 24 0 9.4 215.039 09:19 02.09.2019
2668 Clouds 22 1008 24 0 9.4 215.039 08:39 02.09.2019
2669 Clouds 22 1008 24 0 9.4 215.039 08:18 02.09.2019
2670 Clouds 22 1008 24 0 9.4 215.039 07:42 02.09.2019
2671 Clouds 22 1008 24 0 9.4 215.039 07:22 02.09.2019
2672 Clouds 22 1008 24 0 9.4 215.039 06:58 02.09.2019
2673 Clouds 22 1008 24 0 9.4 215.039 06:39 02.09.2019
2674 Clouds 17 1010 38 0 2.88 182.146 05:50 02.09.2019
2675 Clouds 17 1010 38 0 2.88 182.146 05:20 02.09.2019
2676 Clouds 17 1010 38 0 2.88 182.146 04:45 02.09.2019
2677 Clouds 10 1013 71 0 2.59 102.138 01:50 02.09.2019
2678 Clouds 10 1013 69 0 3.11 93.394 00:55 02.09.2019
2679 Clouds 10 1013 69 0 3.11 93.394 00:32 02.09.2019
2680 Rain 9 1014 80 0 2.09 100.719 23:48 01.09.2019
2681 Rain 9 1014 80 0 2.09 100.719 23:23 01.09.2019
2682 Rain 9 1014 80 0 2.09 100.719 22:59 01.09.2019
2683 Rain 9 1014 80 0 2.09 100.719 22:59 01.09.2019
2684 Rain 9 1014 80 0 2.09 100.719 22:40 01.09.2019
2685 Rain 9 1014 80 0 2.09 100.719 22:20 01.09.2019
2686 Rain 9 1014 80 0 2.09 100.719 21:59 01.09.2019
2687 Rain 10 1014 76 0 3.06 91.123 21:40 01.09.2019
2688 Clouds 11 1014 64 0 4.55 258.843 21:22 01.09.2019
2689 Clouds 11 1014 64 0 4.55 258.843 20:57 01.09.2019
2690 Clouds 11 1014 64 0 4.55 258.843 20:38 01.09.2019
2691 Clouds 11 1014 64 0 4.55 258.843 20:19 01.09.2019
2692 Clouds 11 1014 64 0 4.55 258.843 19:58 01.09.2019
2693 Clouds 11 1014 64 0 4.55 258.843 19:38 01.09.2019
2694 Clouds 11 1014 64 0 4.55 258.843 19:19 01.09.2019
2695 Clouds 11 1014 64 0 4.55 258.843 18:43 01.09.2019
2696 Clouds 11 1014 64 0 4.55 258.843 18:25 01.09.2019
2697 Clouds 12 1014 61 0 1.4 333.398 17:57 01.09.2019
2698 Clouds 12 1014 61 0 1.4 333.398 17:38 01.09.2019
2699 Clouds 12 1014 61 0 1.4 333.398 17:19 01.09.2019
2700 Clouds 12 1014 61 0 1.4 333.398 16:41 01.09.2019
2701 Clouds 12 1014 61 0 1.4 333.398 16:20 01.09.2019
2702 Clouds 12 1014 61 0 1.4 333.398 15:55 01.09.2019
2703 Clouds 12 1014 61 0 1.4 333.398 15:37 01.09.2019
2704 Clouds 14 1012 57 0 1.31 197.438 15:19 01.09.2019
2705 Clouds 14 1012 57 0 1.31 197.438 14:41 01.09.2019
2706 Clouds 14 1012 57 0 1.31 197.438 14:21 01.09.2019
2707 Clouds 14 1012 57 0 1.31 197.438 13:58 01.09.2019
2708 Clouds 14 1012 57 0 1.31 197.438 13:39 01.09.2019
2709 Clouds 15 1012 50 0 1.65 173.296 13:20 01.09.2019
2710 Clouds 15 1012 50 0 1.65 173.296 13:20 01.09.2019
2711 Clouds 15 1012 50 0 1.65 173.296 12:42 01.09.2019
2712 Clouds 15 1012 50 0 1.65 173.296 12:42 01.09.2019
2713 Clouds 19 1009 33 0 7.26 246.343 12:24 01.09.2019
2714 Clouds 19 1009 33 0 7.26 246.343 11:55 01.09.2019
2715 Clouds 19 1009 33 0 7.26 246.343 11:36 01.09.2019
2716 Clouds 19 1009 33 0 7.26 246.343 11:18 01.09.2019
2717 Clouds 19 1009 33 0 7.26 246.343 10:43 01.09.2019
2718 Clouds 19 1009 33 0 7.26 246.343 10:23 01.09.2019
2719 Clouds 19 1009 33 0 7.26 246.343 09:44 01.09.2019
2720 Clouds 20 1009 31 0 5.17 255.706 09:25 01.09.2019
2721 Clouds 21 1009 28 0 9.53 235.918 08:45 01.09.2019
2722 Clouds 21 1009 28 0 9.53 235.918 08:25 01.09.2019
2723 Clouds 21 1009 28 0 9.53 235.918 07:59 01.09.2019
2724 Clouds 21 1009 28 0 9.53 235.918 07:40 01.09.2019
2725 Clouds 21 1009 28 0 9.53 235.918 06:59 01.09.2019
2726 Clouds 21 1009 28 0 9.53 235.918 06:34 01.09.2019
2727 Clouds 17 1009 34 0 2.34 173.173 05:57 01.09.2019
2728 Clouds 17 1009 34 0 2.34 173.173 04:34 01.09.2019
2729 Clouds 17 1009 34 0 2.34 173.173 03:43 01.09.2019
2730 Clouds 14 1010 41 0 1.48 170.073 02:59 01.09.2019
2731 Clouds 14 1010 41 0 1.48 170.073 02:29 01.09.2019
2732 Clouds 14 1010 41 0 1.48 170.073 01:51 01.09.2019
2733 Clouds 14 1010 38 0 2.01 168.255 01:24 01.09.2019
2734 Clouds 14 1010 38 0 2.01 168.255 00:47 01.09.2019
2735 Clouds 13 1010 31 0 1.92 152.138 00:23 01.09.2019
2736 Clouds 13 1010 31 0 1.92 152.138 23:55 31.08.2019
2737 Clouds 13 1010 31 0 1.92 152.138 23:36 31.08.2019
2738 Clouds 13 1010 31 0 1.92 152.138 23:18 31.08.2019
2739 Clouds 13 1010 31 0 1.92 152.138 22:44 31.08.2019
2740 Clouds 13 1010 31 0 1.92 152.138 22:25 31.08.2019
2741 Clouds 13 1010 31 0 1.92 152.138 21:58 31.08.2019
2742 Clouds 14 1010 31 0 2.93 101.091 21:39 31.08.2019
2743 Clouds 13 1010 33 0 1.54 339.3 21:19 31.08.2019
2744 Clouds 13 1010 33 0 1.54 339.3 20:47 31.08.2019
2745 Clouds 13 1010 33 0 1.54 339.3 20:29 31.08.2019
2746 Clouds 13 1010 33 0 1.54 339.3 19:57 31.08.2019
2747 Clouds 13 1010 33 0 1.54 339.3 19:38 31.08.2019
2748 Clouds 13 1010 33 0 1.54 339.3 19:20 31.08.2019
2749 Clouds 13 1010 33 0 1.54 339.3 18:40 31.08.2019
2750 Clouds 12 1009 35 0 1.05 125.398 18:21 31.08.2019
2751 Clouds 12 1009 35 0 1.05 125.398 17:57 31.08.2019
2752 Clouds 12 1009 35 0 1.05 125.398 17:37 31.08.2019
2753 Clouds 12 1009 35 0 1.05 125.398 17:37 31.08.2019
2754 Clouds 12 1009 35 0 1.05 125.398 17:18 31.08.2019
2755 Clouds 12 1009 35 0 1.05 125.398 16:57 31.08.2019
2756 Clouds 12 1009 35 0 1.05 125.398 16:39 31.08.2019
2757 Clouds 12 1009 35 0 1.05 125.398 16:20 31.08.2019
2758 Clouds 12 1009 35 0 1.05 125.398 15:55 31.08.2019
2759 Clouds 12 1009 35 0 1.05 125.398 15:36 31.08.2019
2760 Clouds 15 1008 35 0 1.46 224.666 15:18 31.08.2019
2761 Clouds 15 1008 35 0 1.46 224.666 14:41 31.08.2019
2762 Clouds 15 1008 35 0 1.46 224.666 14:41 31.08.2019
2763 Clouds 15 1008 35 0 1.46 224.666 14:41 31.08.2019
2764 Clouds 15 1008 35 0 1.46 224.666 14:22 31.08.2019
2765 Clouds 15 1008 35 0 1.46 224.666 13:41 31.08.2019
2766 Clouds 15 1008 34 0 1.65 213.072 13:23 31.08.2019
2767 Clouds 15 1008 34 0 1.65 213.072 12:59 31.08.2019
2768 Clouds 15 1008 34 0 1.65 213.072 12:39 31.08.2019
2769 Clouds 22 1007 20 0 2.31 217.449 12:20 31.08.2019
2770 Clouds 22 1007 20 0 2.31 217.449 11:55 31.08.2019
2771 Clouds 22 1007 20 0 2.31 217.449 11:36 31.08.2019
2772 Clouds 22 1007 20 0 2.31 217.449 11:18 31.08.2019
2773 Clouds 22 1007 20 0 2.31 217.449 10:41 31.08.2019
2774 Clouds 22 1007 20 0 2.31 217.449 10:19 31.08.2019
2775 Clouds 22 1007 20 0 2.31 217.449 09:56 31.08.2019
2776 Clouds 22 1007 19 0 1.55 171.102 09:37 31.08.2019
2777 Clear 21 1009 22 0 2.2 181.043 09:19 31.08.2019
2778 Clear 21 1009 22 0 2.2 181.043 08:42 31.08.2019
2779 Clear 21 1009 22 0 2.2 181.043 08:42 31.08.2019
2780 Clear 21 1009 22 0 2.2 181.043 08:23 31.08.2019
2781 Clear 21 1009 22 0 2.2 181.043 07:40 31.08.2019
2782 Clear 21 1009 22 0 2.2 181.043 07:22 31.08.2019
2783 Clear 21 1009 22 0 2.2 181.043 06:29 31.08.2019
2784 Clear 18 1011 28 0 1.93 156.537 05:59 31.08.2019
2785 Clear 18 1011 28 0 1.93 156.537 05:32 31.08.2019
2786 Clear 18 1011 28 0 1.93 156.537 04:34 31.08.2019
2787 Clear 18 1011 28 0 1.93 156.537 03:44 31.08.2019
2788 Clear 10 1013 50 0 1.05 129.019 02:36 31.08.2019
2789 Clear 10 1013 50 0 1.05 129.019 01:53 31.08.2019
2790 Clear 10 1013 49 0 1.08 105.524 01:33 31.08.2019
2791 Clear 10 1013 49 0 1.08 105.524 00:50 31.08.2019
2792 Clear 10 1013 49 0 1.08 105.524 00:30 31.08.2019
2793 Clear 8 1012 48 0 1.2 81.559 23:57 30.08.2019
2794 Clear 8 1012 48 0 1.2 81.559 23:38 30.08.2019
2795 Clear 8 1012 48 0 1.2 81.559 23:18 30.08.2019
2796 Clear 8 1012 48 0 1.2 81.559 22:40 30.08.2019
2797 Clear 8 1012 48 0 1.2 81.559 22:22 30.08.2019
2798 Clear 8 1012 48 0 1.2 81.559 21:58 30.08.2019
2799 Clear 8 1012 48 0 1.2 81.559 21:58 30.08.2019
2800 Clear 8 1013 47 0 1.27 87.749 21:37 30.08.2019
2801 Clear 9 1013 43 0 1.46 66.662 21:19 30.08.2019
2802 Clear 9 1013 43 0 1.46 66.662 21:19 30.08.2019
2803 Clear 9 1013 43 0 1.46 66.662 21:19 30.08.2019
2804 Clear 9 1013 43 0 1.46 66.662 20:58 30.08.2019
2805 Clear 9 1013 43 0 1.46 66.662 20:39 30.08.2019
2806 Clear 9 1013 43 0 1.46 66.662 20:20 30.08.2019
2807 Clear 9 1013 43 0 1.46 66.662 19:57 30.08.2019
2808 Clear 9 1013 43 0 1.46 66.662 19:38 30.08.2019
2809 Clear 9 1013 43 0 1.46 66.662 19:19 30.08.2019
2810 Clear 9 1013 43 0 1.46 66.662 18:47 30.08.2019
2811 Clear 9 1013 43 0 1.46 66.662 18:25 30.08.2019
2812 Clouds 11 1012 39 0 2.77 57.67 17:58 30.08.2019
2813 Clouds 11 1012 39 0 2.77 57.67 17:40 30.08.2019
2814 Clouds 11 1012 39 0 2.77 57.67 17:19 30.08.2019
2815 Clouds 11 1012 39 0 2.77 57.67 16:57 30.08.2019
2816 Clouds 11 1012 39 0 2.77 57.67 16:39 30.08.2019
2817 Clouds 11 1012 39 0 2.77 57.67 16:21 30.08.2019
2818 Clouds 11 1012 39 0 2.77 57.67 15:43 30.08.2019
2819 Clouds 14 1011 35 0 2.01 21.928 15:22 30.08.2019
2820 Clouds 14 1011 35 0 2.01 21.928 14:46 30.08.2019
2821 Clouds 14 1011 35 0 2.01 21.928 14:28 30.08.2019
2822 Clouds 14 1011 35 0 2.01 21.928 13:58 30.08.2019
2823 Clouds 14 1011 35 0 2.01 21.928 13:40 30.08.2019
2824 Clouds 14 1011 35 0 2.72 20.109 13:21 30.08.2019
2825 Clouds 14 1011 35 0 2.72 20.109 12:45 30.08.2019
2826 Clouds 14 1011 35 0 2.72 20.109 12:26 30.08.2019
2827 Clouds 21 1010 18 0 2.48 319.709 11:58 30.08.2019
2828 Clouds 21 1010 18 0 2.48 319.709 11:39 30.08.2019
2829 Clouds 21 1010 18 0 2.48 319.709 11:21 30.08.2019
2830 Clouds 21 1010 18 0 2.48 319.709 11:21 30.08.2019
2831 Clouds 21 1010 18 0 2.48 319.709 10:39 30.08.2019
2832 Clouds 21 1010 18 0 2.48 319.709 10:20 30.08.2019
2833 Clouds 21 1010 18 0 2.48 319.709 09:56 30.08.2019
2834 Clouds 21 1010 18 0 2.48 319.709 09:36 30.08.2019
2835 Clouds 21 1010 18 0 2.48 319.709 09:36 30.08.2019
2836 Clear 20 1012 20 0 2.46 294.723 09:18 30.08.2019
2837 Clear 20 1012 20 0 2.46 294.723 08:44 30.08.2019
2838 Clear 20 1012 20 0 2.46 294.723 08:24 30.08.2019
2839 Clear 20 1012 20 0 2.46 294.723 07:47 30.08.2019
2840 Clear 20 1012 20 0 2.46 294.723 07:27 30.08.2019
2841 Clear 20 1012 20 0 2.46 294.723 06:58 30.08.2019
2842 Clear 20 1012 20 0 2.46 294.723 06:40 30.08.2019
2843 Clear 18 1013 25 0 0.3 354.1 06:20 30.08.2019
2844 Clear 18 1013 25 0 0.3 354.1 05:28 30.08.2019
2845 Clear 18 1013 25 0 0.3 354.1 03:57 30.08.2019
2846 Clear 18 1013 25 0 0.3 354.1 03:37 30.08.2019
2847 Clear 18 1013 25 0 0.3 354.1 03:37 30.08.2019
2848 Clear 10 1014 54 0 1.34 33.619 02:41 30.08.2019
2849 Clear 10 1014 54 0 1.34 33.619 01:51 30.08.2019
2850 Clear 9 1015 55 0 1.39 33.713 00:55 30.08.2019
2851 Clear 7 1014 56 0 1.76 30.254 00:20 30.08.2019
2852 Clear 7 1014 56 0 1.76 30.254 23:48 29.08.2019
2853 Clear 7 1014 56 0 1.76 30.254 23:48 29.08.2019
2854 Clear 7 1014 56 0 1.76 30.254 23:23 29.08.2019
2855 Clear 7 1014 56 0 1.76 30.254 22:56 29.08.2019
2856 Clear 7 1014 56 0 1.76 30.254 22:37 29.08.2019
2857 Clear 7 1014 56 0 1.76 30.254 22:19 29.08.2019
2858 Clear 7 1014 56 0 1.72 32.925 21:41 29.08.2019
2859 Clear 9 1015 48 0 2.39 34.536 21:21 29.08.2019
2860 Clear 9 1015 48 0 2.39 34.536 20:59 29.08.2019
2861 Clear 9 1015 48 0 2.39 34.536 20:41 29.08.2019
2862 Clear 9 1015 48 0 2.39 34.536 20:19 29.08.2019
2863 Clear 9 1015 48 0 2.39 34.536 19:56 29.08.2019
2864 Clear 9 1015 48 0 2.39 34.536 19:38 29.08.2019
2865 Clear 9 1015 48 0 2.39 34.536 19:19 29.08.2019
2866 Clear 9 1015 48 0 2.39 34.536 18:41 29.08.2019
2867 Clear 10 1014 45 0 2.08 24.237 18:19 29.08.2019
2868 Clear 10 1014 45 0 2.08 24.237 17:56 29.08.2019
2869 Clear 10 1014 45 0 2.08 24.237 17:36 29.08.2019
2870 Clear 10 1014 45 0 2.08 24.237 17:18 29.08.2019
2871 Clear 10 1014 45 0 2.08 24.237 16:43 29.08.2019
2872 Clear 10 1014 45 0 2.08 24.237 16:23 29.08.2019
2873 Clear 10 1014 45 0 2.08 24.237 15:57 29.08.2019
2874 Clear 10 1014 45 0 2.08 24.237 15:37 29.08.2019
2875 Clear 14 1013 35 0 2.78 347.111 15:18 29.08.2019
2876 Clear 14 1013 35 0 2.78 347.111 14:43 29.08.2019
2877 Clear 14 1013 35 0 2.78 347.111 14:21 29.08.2019
2878 Clear 14 1013 35 0 2.78 347.111 13:58 29.08.2019
2879 Clear 14 1013 35 0 2.78 347.111 13:58 29.08.2019
2880 Clear 14 1013 35 0 2.78 347.111 13:39 29.08.2019
2881 Clear 14 1013 35 0 2.78 347.111 13:39 29.08.2019
2882 Clear 14 1013 33 0 3.21 342.541 13:20 29.08.2019
2883 Clear 14 1013 33 0 3.21 342.541 12:58 29.08.2019
2884 Clear 14 1013 33 0 3.21 342.541 12:39 29.08.2019
2885 Clear 21 1012 19 0 4.46 289.304 12:20 29.08.2019
2886 Clear 21 1012 19 0 4.46 289.304 11:57 29.08.2019
2887 Clear 21 1012 19 0 4.46 289.304 11:36 29.08.2019
2888 Clear 21 1012 19 0 4.46 289.304 11:18 29.08.2019
2889 Clear 21 1012 19 0 4.46 289.304 10:41 29.08.2019
2890 Clear 21 1012 19 0 4.46 289.304 10:23 29.08.2019
2891 Clear 21 1011 19 0 3.99 290.445 09:42 29.08.2019
2892 Clouds 21 1013 17 0 3.56 261.82 09:20 29.08.2019
2893 Clouds 21 1013 17 0 3.56 261.82 08:56 29.08.2019
2894 Clouds 21 1013 17 0 3.56 261.82 08:37 29.08.2019
2895 Clouds 21 1013 17 0 3.56 261.82 08:19 29.08.2019
2896 Clouds 21 1013 17 0 3.56 261.82 07:43 29.08.2019
2897 Clouds 21 1013 17 0 3.56 261.82 07:25 29.08.2019
2898 Clouds 21 1013 17 0 3.56 261.82 06:43 29.08.2019
2899 Clouds 17 1014 23 0 1.84 193.833 06:21 29.08.2019
2900 Clouds 17 1014 23 0 1.84 193.833 05:38 29.08.2019
2901 Clouds 17 1014 23 0 1.84 193.833 04:50 29.08.2019
2902 Clouds 17 1014 23 0 1.84 193.833 04:28 29.08.2019
2903 Clear 9 1015 46 0 0.66 111.169 02:44 29.08.2019
2904 Clear 9 1015 46 0 0.66 111.169 01:42 29.08.2019
2905 Clouds 9 1015 46 0 0.81 110.407 00:56 29.08.2019
2906 Clouds 9 1015 46 0 0.81 110.407 00:37 29.08.2019
2907 Clear 6 1015 62 0 1.31 75.719 00:18 29.08.2019
2908 Clear 6 1015 62 0 1.31 75.719 23:41 28.08.2019
2909 Clear 6 1015 62 0 1.31 75.719 23:22 28.08.2019
2910 Clear 6 1015 62 0 1.31 75.719 22:57 28.08.2019
2911 Clear 6 1015 62 0 1.31 75.719 22:38 28.08.2019
2912 Clear 6 1015 62 0 1.31 75.719 22:18 28.08.2019
2913 Clear 6 1015 61 0 1.22 87.559 21:54 28.08.2019
2914 Clear 6 1015 61 0 1.22 87.559 21:36 28.08.2019
2915 Clear 8 1015 39 0 1.21 87.341 21:18 28.08.2019
2916 Clear 8 1015 39 0 1.21 87.341 20:40 28.08.2019
2917 Clear 8 1015 39 0 1.21 87.341 20:22 28.08.2019
2918 Clear 8 1015 39 0 1.21 87.341 19:44 28.08.2019
2919 Clear 8 1015 39 0 1.21 87.341 19:23 28.08.2019
2920 Clear 8 1015 39 0 1.21 87.341 18:59 28.08.2019
2921 Clear 8 1015 39 0 1.21 87.341 18:41 28.08.2019
2922 Clear 9 1014 32 0 1.34 73.321 18:21 28.08.2019
2923 Clear 9 1014 32 0 1.34 73.321 17:39 28.08.2019
2924 Clear 9 1014 32 0 1.34 73.321 17:20 28.08.2019
2925 Clear 9 1014 32 0 1.34 73.321 16:56 28.08.2019
2926 Clear 9 1014 32 0 1.34 73.321 16:38 28.08.2019
2927 Clear 9 1014 32 0 1.34 73.321 16:38 28.08.2019
2928 Clear 9 1014 32 0 1.34 73.321 16:18 28.08.2019
2929 Clear 9 1014 32 0 1.34 73.321 15:38 28.08.2019
2930 Clear 13 1013 35 0 0.26 223.255 15:20 28.08.2019
2931 Clear 13 1013 35 0 0.26 223.255 14:58 28.08.2019
2932 Clear 13 1013 35 0 0.26 223.255 14:40 28.08.2019
2933 Clear 13 1013 35 0 0.26 223.255 14:21 28.08.2019
2934 Clear 13 1013 35 0 0.26 223.255 13:59 28.08.2019
2935 Clear 13 1013 35 0 0.26 223.255 13:39 28.08.2019
2936 Clear 13 1013 35 0 0.26 223.255 13:39 28.08.2019
2937 Clouds 13 1013 35 0 1.04 113.098 13:20 28.08.2019
2938 Clouds 13 1013 35 0 1.04 113.098 12:42 28.08.2019
2939 Clear 21 1013 17 0 4.15 209.891 12:24 28.08.2019
2940 Clear 21 1013 17 0 4.15 209.891 11:57 28.08.2019
2941 Clear 21 1013 17 0 4.15 209.891 11:39 28.08.2019
2942 Clear 21 1013 17 0 4.15 209.891 11:20 28.08.2019
2943 Clear 21 1013 17 0 4.15 209.891 10:56 28.08.2019
2944 Clear 21 1013 17 0 4.15 209.891 10:37 28.08.2019
2945 Clear 21 1013 17 0 4.15 209.891 10:19 28.08.2019
2946 Clear 21 1013 17 0 4.15 209.891 09:41 28.08.2019
2947 Clear 20 1014 18 0 2.23 220.894 09:21 28.08.2019
2948 Clear 20 1014 18 0 2.23 220.894 08:55 28.08.2019
2949 -273 0 0 0 0 0 08:36 28.08.2019
2950 Clear 20 1014 18 0 2.23 220.894 08:18 28.08.2019
2951 Clear 20 1014 18 0 2.23 220.894 07:37 28.08.2019
2952 Clear 20 1014 18 0 2.23 220.894 07:19 28.08.2019
2953 Clear 20 1014 18 0 2.23 220.894 06:46 28.08.2019
2954 Clear 17 1016 25 0 1.32 155.79 05:52 28.08.2019
2955 Clear 17 1016 25 0 1.32 155.79 04:41 28.08.2019
2956 Clear 8 1017 50 0 1.1 92.6 01:58 28.08.2019
2957 Clear 8 1018 50 0 1.12 88.824 01:30 28.08.2019
2958 Clear 8 1018 50 0 1.12 88.824 00:50 28.08.2019
2959 Clear 8 1018 50 0 1.12 88.824 00:32 28.08.2019
2960 Clear 4 1016 69 0 0.96 94.225 23:45 27.08.2019
2961 Clear 4 1016 69 0 0.96 94.225 23:22 27.08.2019
2962 Clear 4 1016 69 0 0.96 94.225 22:59 27.08.2019
2963 Clear 4 1016 69 0 0.96 94.225 22:41 27.08.2019
2964 Clear 4 1016 69 0 0.96 94.225 22:21 27.08.2019
2965 Clear 5 1016 67 0 0.99 99.5 21:56 27.08.2019
2966 Clear 5 1016 67 0 0.99 99.5 21:38 27.08.2019
2967 Clear 6 1016 58 0 1.1 87.19 21:19 27.08.2019
2968 Clear 6 1016 58 0 1.1 87.19 20:56 27.08.2019
2969 Clear 6 1016 58 0 1.1 87.19 20:56 27.08.2019
2970 Clear 6 1016 58 0 1.1 87.19 20:37 27.08.2019
2971 Clear 6 1016 58 0 1.1 87.19 20:19 27.08.2019
2972 Clear 6 1016 58 0 1.1 87.19 19:43 27.08.2019
2973 Clear 6 1016 58 0 1.1 87.19 19:24 27.08.2019
2974 Clear 6 1016 58 0 1.1 87.19 18:56 27.08.2019
2975 Clear 6 1016 58 0 1.1 87.19 18:37 27.08.2019
2976 Clear 8 1016 42 0 1.47 51.638 18:18 27.08.2019
2977 Clear 8 1016 42 0 1.47 51.638 17:43 27.08.2019
2978 Clear 8 1016 42 0 1.47 51.638 17:24 27.08.2019
2979 Clear 8 1016 42 0 1.47 51.638 16:57 27.08.2019
2980 Clear 8 1016 42 0 1.47 51.638 16:36 27.08.2019
2981 Clear 8 1016 42 0 1.47 51.638 16:18 27.08.2019
2982 Clear 8 1016 42 0 1.47 51.638 15:42 27.08.2019
2983 Clouds 11 1014 43 0 0.66 296.331 15:23 27.08.2019
2984 Clouds 11 1014 43 0 0.66 296.331 14:59 27.08.2019
2985 Clouds 11 1014 43 0 0.66 296.331 14:41 27.08.2019
2986 Clouds 11 1014 43 0 0.66 296.331 14:23 27.08.2019
2987 Clouds 11 1014 43 0 0.66 296.331 13:43 27.08.2019
2988 Clouds 11 1014 44 0 0.79 308.694 13:24 27.08.2019
2989 Clouds 11 1014 44 0 0.79 308.694 12:56 27.08.2019
2990 Clouds 11 1014 44 0 0.79 308.694 12:37 27.08.2019
2991 Clouds 18 1014 22 0 2.39 264.547 12:18 27.08.2019
2992 Clouds 18 1014 22 0 2.39 264.547 11:43 27.08.2019
2993 Clouds 18 1014 22 0 2.39 264.547 11:25 27.08.2019
2994 Clouds 18 1014 22 0 2.39 264.547 10:44 27.08.2019
2995 Clouds 18 1014 22 0 2.39 264.547 10:21 27.08.2019
2996 Clouds 18 1014 22 0 2.39 264.547 09:58 27.08.2019
2997 Clouds 18 1014 22 0 2.39 264.547 09:39 27.08.2019
2998 Clear 16 1015 25 0 2.07 212.67 09:20 27.08.2019
2999 Clear 16 1015 25 0 2.07 212.67 08:54 27.08.2019
3000 Clear 16 1015 25 0 2.07 212.67 08:36 27.08.2019
3001 Clear 16 1015 25 0 2.07 212.67 08:18 27.08.2019
3002 Clear 16 1015 25 0 2.07 212.67 07:39 27.08.2019
3003 Clear 16 1015 25 0 2.07 212.67 07:19 27.08.2019
3004 Clear 16 1015 25 0 2.07 212.67 06:50 27.08.2019
3005 Clear 13 1018 33 0 1.68 164.425 06:22 27.08.2019
3006 Clear 13 1018 33 0 1.68 164.425 05:36 27.08.2019
3007 Clear 13 1018 33 0 1.68 164.425 04:33 27.08.2019
3008 Clear 13 1018 33 0 1.68 164.425 03:33 27.08.2019
3009 Clear 6 1019 62 0 1.02 86.445 02:23 27.08.2019
3010 Clear 6 1019 62 0 1.02 86.445 01:35 27.08.2019
3011 Clear 6 1019 61 0 1.03 86.722 00:54 27.08.2019
3012 Clear 6 1019 61 0 1.03 86.722 00:29 27.08.2019
3013 Clear 3 1019 66 0 1.52 57.719 23:59 26.08.2019
3014 Clear 3 1019 66 0 1.52 57.719 23:37 26.08.2019
3015 Clear 3 1019 66 0 1.52 57.719 23:19 26.08.2019
3016 Clear 3 1019 66 0 1.52 57.719 22:38 26.08.2019
3017 Clear 3 1019 66 0 1.52 57.719 22:19 26.08.2019
3018 Clear 3 1019 67 0 1.48 64.321 21:57 26.08.2019
3019 Clear 3 1019 67 0 1.48 64.321 21:37 26.08.2019
3020 Clear 4 1019 58 0 1.9 41.586 21:18 26.08.2019
3021 Clear 4 1019 58 0 1.9 41.586 20:54 26.08.2019
3022 Clear 4 1019 58 0 1.9 41.586 20:36 26.08.2019
3023 Clear 4 1019 58 0 1.9 41.586 20:18 26.08.2019
3024 Clear 4 1019 58 0 1.9 41.586 19:42 26.08.2019
3025 Clear 4 1019 58 0 1.9 41.586 19:19 26.08.2019
3026 Clear 4 1019 58 0 1.9 41.586 18:56 26.08.2019
3027 Clear 4 1019 58 0 1.9 41.586 18:37 26.08.2019
3028 Clear 6 1019 54 0 2.57 39.057 18:18 26.08.2019
3029 Clear 6 1019 54 0 2.57 39.057 17:43 26.08.2019
3030 Clear 6 1019 54 0 2.57 39.057 17:19 26.08.2019
3031 Clear 6 1019 54 0 2.57 39.057 17:19 26.08.2019
3032 Clear 6 1019 54 0 2.57 39.057 16:57 26.08.2019
3033 Clear 6 1019 54 0 2.57 39.057 16:38 26.08.2019
3034 Clear 6 1019 54 0 2.57 39.057 16:18 26.08.2019
3035 Clear 6 1019 54 0 2.57 39.057 15:44 26.08.2019
3036 Clear 10 1018 46 0 2.42 46.711 15:22 26.08.2019
3037 Clear 10 1018 46 0 2.42 46.711 14:58 26.08.2019
3038 Clear 10 1018 46 0 2.42 46.711 14:39 26.08.2019
3039 Clear 10 1018 46 0 2.42 46.711 14:21 26.08.2019
3040 Clear 10 1018 46 0 2.42 46.711 13:43 26.08.2019
3041 Clear 10 1018 46 0 2.68 50.033 13:23 26.08.2019
3042 Clear 10 1018 46 0 2.68 50.033 12:56 26.08.2019
3043 Clear 10 1018 46 0 2.68 50.033 12:37 26.08.2019
3044 Clear 15 1017 26 0 2.23 6.599 12:19 26.08.2019
3045 Clear 15 1017 26 0 2.23 6.599 11:38 26.08.2019
3046 Clear 15 1017 26 0 2.23 6.599 11:20 26.08.2019
3047 Clear 15 1017 26 0 2.23 6.599 10:57 26.08.2019
3048 Clear 15 1017 26 0 2.23 6.599 10:39 26.08.2019
3049 Clear 15 1017 26 0 2.23 6.599 10:18 26.08.2019
3050 Clear 15 1017 26 0 2.23 6.599 09:41 26.08.2019
3051 Clear 14 1018 25 0 0.99 330.443 09:23 26.08.2019
3052 Clear 14 1018 25 0 0.99 330.443 08:56 26.08.2019
3053 Clear 14 1018 25 0 0.99 330.443 08:37 26.08.2019
3054 Clear 14 1018 25 0 0.99 330.443 08:19 26.08.2019
3055 Clear 14 1018 25 0 0.99 330.443 07:42 26.08.2019
3056 Clear 14 1018 25 0 0.99 330.443 07:24 26.08.2019
3057 Clear 14 1018 25 0 0.99 330.443 06:50 26.08.2019
3058 Clear 14 1018 25 0 0.99 330.443 06:26 26.08.2019
3059 Clear 10 1020 33 0 1.24 41.112 05:58 26.08.2019
3060 Clear 10 1020 33 0 1.24 41.112 04:36 26.08.2019
3061 Clear 10 1020 33 0 1.24 41.112 03:48 26.08.2019
3062 Clear 4 1022 69 0 1.49 42.792 02:19 26.08.2019
3063 Clear 4 1022 69 0 1.5 44.35 01:22 26.08.2019
3064 Clear 4 1022 69 0 1.5 44.35 00:43 26.08.2019
3065 Clear 1 1021 80 0 1.37 33.864 00:24 26.08.2019
3066 Clear 1 1021 80 0 1.37 33.864 23:44 25.08.2019
3067 Clear 1 1021 80 0 1.37 33.864 23:44 25.08.2019
3068 Clear 1 1021 80 0 1.37 33.864 23:20 25.08.2019
3069 Clear 1 1021 80 0 1.37 33.864 22:58 25.08.2019
3070 Clear 1 1021 80 0 1.37 33.864 22:58 25.08.2019
3071 Clear 1 1021 80 0 1.37 33.864 22:39 25.08.2019
3072 Clear 1 1021 80 0 1.37 33.864 22:20 25.08.2019
3073 Clear 1 1021 80 0 1.37 33.864 21:58 25.08.2019
3074 Clear 1 1021 80 0 1.37 33.864 21:58 25.08.2019
3075 Clear 1 1021 81 0 1.23 43.619 21:39 25.08.2019
3076 Clear 2 1022 74 0 1.6 41.159 21:18 25.08.2019
3077 Clear 2 1022 74 0 1.6 41.159 20:41 25.08.2019
3078 Clear 2 1022 74 0 1.6 41.159 20:20 25.08.2019
3079 Clear 2 1022 74 0 1.6 41.159 19:59 25.08.2019
3080 Clear 2 1022 74 0 1.6 41.159 19:39 25.08.2019
3081 Clear 2 1022 74 0 1.6 41.159 19:20 25.08.2019
3082 Clear 2 1022 74 0 1.6 41.159 18:58 25.08.2019
3083 Clear 2 1022 74 0 1.6 41.159 18:39 25.08.2019
3084 Clear 4 1021 67 0 1.81 35.648 18:21 25.08.2019
3085 Clear 4 1021 67 0 1.81 35.648 17:46 25.08.2019
3086 Clear 4 1021 67 0 1.81 35.648 17:25 25.08.2019
3087 Clear 4 1021 67 0 1.81 35.648 16:59 25.08.2019
3088 Clear 4 1021 67 0 1.81 35.648 16:37 25.08.2019
3089 Clear 4 1021 67 0 1.81 35.648 16:18 25.08.2019
3090 Clear 4 1021 67 0 1.81 35.648 15:43 25.08.2019
3091 Clear 4 1021 67 0 1.81 35.648 15:25 25.08.2019
3092 Clear 8 1019 55 0 3.25 25.902 14:54 25.08.2019
3093 Clear 8 1019 55 0 3.25 25.902 14:36 25.08.2019
3094 Clear 8 1019 55 0 3.25 25.902 14:18 25.08.2019
3095 Clear 8 1019 55 0 3.25 25.902 13:42 25.08.2019
3096 Clear 8 1019 52 0 2.72 0.844 13:20 25.08.2019
3097 Clear 8 1019 52 0 2.72 0.844 12:48 25.08.2019
3098 Clear 8 1019 52 0 2.72 0.844 12:26 25.08.2019
3099 Clear 12 1017 36 0 5.83 337.109 11:59 25.08.2019
3100 Clear 12 1017 36 0 5.83 337.109 11:40 25.08.2019
3101 Clear 12 1017 36 0 5.83 337.109 11:21 25.08.2019
3102 Clear 12 1017 36 0 5.83 337.109 10:58 25.08.2019
3103 Clear 12 1017 36 0 5.83 337.109 10:39 25.08.2019
3104 Clear 12 1017 36 0 5.83 337.109 10:19 25.08.2019
3105 Clear 12 1017 36 0 5.83 337.109 09:44 25.08.2019
3106 Clear 12 1018 33 0 5.47 324.185 09:25 25.08.2019
3107 Clear 12 1018 33 0 5.47 324.185 08:56 25.08.2019
3108 Clear 12 1018 33 0 5.47 324.185 08:38 25.08.2019
3109 Clear 12 1018 33 0 5.47 324.185 08:20 25.08.2019
3110 Clear 12 1018 33 0 5.47 324.185 07:34 25.08.2019
3111 Clear 12 1018 33 0 5.47 324.185 06:46 25.08.2019
3112 Clear 10 1019 39 0 3.36 345.348 05:43 25.08.2019
3113 Clear 10 1019 39 0 3.36 345.348 04:32 25.08.2019
3114 Clear 10 1019 39 0 3.36 345.348 03:31 25.08.2019
3115 Clear 4 1019 65 0 1.33 36.672 02:39 25.08.2019
3116 Clear 5 1019 64 0 1.54 30.925 01:20 25.08.2019
3117 Clear 5 1019 64 0 1.54 30.925 00:38 25.08.2019
3118 Clouds 2 1019 75 0 2.23 18.646 00:20 25.08.2019
3119 Clouds 2 1019 75 0 2.23 18.646 23:47 24.08.2019
3120 Clouds 2 1019 75 0 2.23 18.646 23:22 24.08.2019
3121 Clouds 2 1019 75 0 2.23 18.646 22:55 24.08.2019
3122 Clouds 2 1019 75 0 2.23 18.646 22:37 24.08.2019
3123 Clouds 2 1019 75 0 2.23 18.646 22:18 24.08.2019
3124 Clouds 2 1019 75 0 2.23 18.646 21:55 24.08.2019
3125 Clouds 2 1019 75 0 2.23 18.646 21:36 24.08.2019
3126 Clouds 3 1018 67 0 2.7 22.764 21:18 24.08.2019
3127 Clouds 3 1018 67 0 2.7 22.764 20:41 24.08.2019
3128 Clouds 3 1018 67 0 2.7 22.764 20:20 24.08.2019
3129 Clouds 3 1018 67 0 2.7 22.764 19:59 24.08.2019
3130 Clouds 3 1018 67 0 2.7 22.764 19:40 24.08.2019
3131 Clouds 3 1018 67 0 2.7 22.764 19:22 24.08.2019
3132 Clouds 3 1018 67 0 2.7 22.764 18:57 24.08.2019
3133 Clouds 3 1018 67 0 2.7 22.764 18:37 24.08.2019
3134 Clouds 5 1017 44 0 2.19 359.112 18:19 24.08.2019
3135 Clouds 5 1017 44 0 2.19 359.112 17:42 24.08.2019
3136 Clouds 5 1017 44 0 2.19 359.112 17:23 24.08.2019
3137 Clouds 5 1017 44 0 2.19 359.112 16:42 24.08.2019
3138 Clouds 5 1017 44 0 2.19 359.112 16:19 24.08.2019
3139 Clouds 5 1017 44 0 2.19 359.112 15:55 24.08.2019
3140 Clouds 5 1017 44 0 2.19 359.112 15:37 24.08.2019
3141 Clouds 9 1015 37 0 3.59 299.148 15:19 24.08.2019
3142 Clouds 9 1015 37 0 3.59 299.148 14:42 24.08.2019
3143 Clouds 9 1015 37 0 3.59 299.148 14:20 24.08.2019
3144 Clouds 9 1015 37 0 3.59 299.148 13:55 24.08.2019
3145 Clouds 9 1015 37 0 3.59 299.148 13:37 24.08.2019
3146 Clouds 9 1015 37 0 3.6 302.361 13:18 24.08.2019
3147 Clouds 9 1015 37 0 3.6 302.361 12:42 24.08.2019
3148 Clear 14 1013 26 0 5.71 290.678 12:23 24.08.2019
3149 Clear 14 1013 26 0 5.71 290.678 11:55 24.08.2019
3150 Clear 14 1013 26 0 5.71 290.678 11:37 24.08.2019
3151 Clear 14 1013 26 0 5.71 290.678 11:18 24.08.2019
3152 Clear 14 1013 26 0 5.71 290.678 10:41 24.08.2019
3153 Clear 14 1013 26 0 5.71 290.678 10:21 24.08.2019
3154 Clear 14 1013 26 0 5.71 290.678 09:44 24.08.2019
3155 Clouds 14 1013 29 0 6.42 294.686 09:20 24.08.2019
3156 Clouds 14 1013 29 0 6.42 294.686 08:44 24.08.2019
3157 Clouds 14 1013 29 0 6.42 294.686 08:26 24.08.2019
3158 Clouds 14 1013 29 0 6.42 294.686 07:54 24.08.2019
3159 Clouds 14 1013 29 0 6.42 294.686 07:54 24.08.2019
3160 Clouds 14 1013 29 0 6.42 294.686 07:33 24.08.2019
3161 Clouds 14 1013 29 0 6.42 294.686 06:58 24.08.2019
3162 Clear 13 1014 29 0 5.14 271.995 06:23 24.08.2019
3163 Clear 13 1014 29 0 5.14 271.995 05:40 24.08.2019
3164 Clear 13 1014 29 0 5.14 271.995 03:51 24.08.2019
3165 Clear 13 1014 29 0 5.14 271.995 03:32 24.08.2019
3166 Clouds 8 1013 52 0 1.34 262.6 02:23 24.08.2019
3167 Clouds 8 1013 54 0 0.94 261.887 01:29 24.08.2019
3168 Clouds 8 1013 54 0 0.94 261.887 00:49 24.08.2019
3169 Clouds 6 1011 48 0 1.73 269.568 00:24 24.08.2019
3170 Clouds 6 1011 48 0 1.73 269.568 23:49 23.08.2019
3171 Clouds 6 1011 48 0 1.73 269.568 23:23 23.08.2019
3172 Clouds 6 1011 48 0 1.73 269.568 22:59 23.08.2019
3173 Clouds 6 1011 48 0 1.73 269.568 22:40 23.08.2019
3174 Clouds 6 1011 48 0 1.73 269.568 22:20 23.08.2019
3175 Clouds 6 1010 57 0 1.7 300.75 21:38 23.08.2019
3176 Rain 8 1009 57 0 1.15 215.88 21:19 23.08.2019
3177 Rain 8 1009 57 0 1.15 215.88 20:53 23.08.2019
3178 Rain 8 1009 57 0 1.15 215.88 20:35 23.08.2019
3179 Rain 8 1009 57 0 1.15 215.88 19:58 23.08.2019
3180 Rain 8 1009 57 0 1.15 215.88 19:40 23.08.2019
3181 Rain 8 1009 57 0 1.15 215.88 19:18 23.08.2019
3182 Rain 8 1009 57 0 1.15 215.88 18:42 23.08.2019
3183 Clear 8 1009 55 0 0.67 0.942 18:24 23.08.2019
3184 Clear 8 1009 55 0 0.67 0.942 17:46 23.08.2019
3185 Clear 8 1009 55 0 0.67 0.942 17:28 23.08.2019
3186 Clear 8 1009 55 0 0.67 0.942 16:59 23.08.2019
3187 Clear 8 1009 55 0 0.67 0.942 16:40 23.08.2019
3188 Clear 8 1009 55 0 0.67 0.942 16:22 23.08.2019
3189 Clear 8 1009 55 0 0.67 0.942 15:41 23.08.2019
3190 Clouds 14 1007 44 0 2.68 271.049 15:22 23.08.2019
3191 Clouds 14 1007 44 0 2.68 271.049 14:58 23.08.2019
3192 Clouds 14 1007 44 0 2.68 271.049 14:40 23.08.2019
3193 Clouds 14 1007 44 0 2.68 271.049 14:20 23.08.2019
3194 Clouds 14 1007 44 0 2.68 271.049 13:56 23.08.2019
3195 Clouds 14 1007 44 0 2.68 271.049 13:38 23.08.2019
3196 Clouds 14 1007 43 0 3.92 285.528 13:19 23.08.2019
3197 Clouds 14 1007 43 0 3.92 285.528 12:44 23.08.2019
3198 Clouds 14 1007 43 0 3.92 285.528 12:25 23.08.2019
3199 Clear 18 1006 32 0 5.23 249.83 11:59 23.08.2019
3200 Clear 18 1006 32 0 5.23 249.83 11:41 23.08.2019
3201 Clear 18 1006 32 0 5.23 249.83 11:41 23.08.2019
3202 Clear 18 1006 32 0 5.23 249.83 11:20 23.08.2019
3203 Clear 18 1006 32 0 5.23 249.83 10:58 23.08.2019
3204 Clear 18 1006 32 0 5.23 249.83 10:58 23.08.2019
3205 Clear 18 1006 32 0 5.23 249.83 10:40 23.08.2019
3206 Clouds 18 1006 34 0 5.26 255.245 10:21 23.08.2019
3207 Clouds 18 1006 34 0 5.26 255.245 09:45 23.08.2019
3208 Clouds 18 1006 34 0 5.26 255.245 09:45 23.08.2019
3209 Clouds 18 1006 34 0 5.26 255.245 09:26 23.08.2019
3210 Rain 18 1007 38 0 2.4 215.133 08:57 23.08.2019
3211 Rain 18 1007 38 0 2.4 215.133 08:37 23.08.2019
3212 Rain 18 1007 38 0 2.4 215.133 08:18 23.08.2019
3213 Rain 18 1007 38 0 2.4 215.133 07:41 23.08.2019
3214 Rain 18 1007 38 0 2.4 215.133 07:23 23.08.2019
3215 Rain 18 1007 38 0 2.4 215.133 06:44 23.08.2019
3216 Clear 14 1009 54 0 2.39 170.573 06:23 23.08.2019
3217 Clear 14 1009 54 0 2.39 170.573 05:46 23.08.2019
3218 Clear 14 1009 54 0 2.39 170.573 05:27 23.08.2019
3219 Clear 14 1009 54 0 2.39 170.573 04:19 23.08.2019
3220 Clouds 9 1010 77 0 1.28 124.834 02:41 23.08.2019
3221 Clouds 9 1010 77 0 1.28 124.834 02:21 23.08.2019
3222 Clouds 9 1010 77 0 1.28 124.834 01:37 23.08.2019
3223 Clouds 9 1010 78 0 1.66 139.735 00:44 23.08.2019
3224 Clouds 8 1010 79 0 0.81 180.142 00:18 23.08.2019
3225 Clouds 8 1010 79 0 0.81 180.142 23:43 22.08.2019
3226 Clouds 8 1010 79 0 0.81 180.142 23:23 22.08.2019
3227 Clouds 8 1010 79 0 0.81 180.142 22:54 22.08.2019
3228 Clouds 8 1010 79 0 0.81 180.142 22:36 22.08.2019
3229 Clouds 8 1010 79 0 0.81 180.142 22:18 22.08.2019
3230 Clouds 7 1010 82 0 1.49 150.494 21:41 22.08.2019
3231 Clouds 7 1010 76 0 1.11 168.862 21:23 22.08.2019
3232 Clouds 7 1010 76 0 1.11 168.862 20:59 22.08.2019
3233 Clouds 7 1010 76 0 1.11 168.862 20:41 22.08.2019
3234 Clouds 7 1010 76 0 1.11 168.862 20:20 22.08.2019
3235 Clouds 7 1010 76 0 1.11 168.862 19:58 22.08.2019
3236 Clouds 7 1010 76 0 1.11 168.862 19:39 22.08.2019
3237 Clouds 7 1010 76 0 1.11 168.862 19:21 22.08.2019
3238 Clouds 7 1010 76 0 1.11 168.862 18:58 22.08.2019
3239 Clouds 7 1010 76 0 1.11 168.862 18:40 22.08.2019
3240 Clouds 9 1010 67 0 1.55 146.536 18:20 22.08.2019
3241 Clouds 9 1010 67 0 1.55 146.536 18:20 22.08.2019
3242 Clouds 9 1010 67 0 1.55 146.536 17:57 22.08.2019
3243 Clouds 9 1010 67 0 1.55 146.536 17:38 22.08.2019
3244 Clouds 9 1010 67 0 1.55 146.536 17:19 22.08.2019
3245 Clouds 9 1010 67 0 1.55 146.536 16:56 22.08.2019
3246 Clouds 9 1010 67 0 1.55 146.536 16:37 22.08.2019
3247 Clouds 9 1010 67 0 1.55 146.536 16:19 22.08.2019
3248 Clouds 9 1010 67 0 1.55 146.536 16:19 22.08.2019
3249 Clouds 9 1010 67 0 1.55 146.536 15:42 22.08.2019
3250 Clouds 9 1010 67 0 1.55 146.536 15:42 22.08.2019
3251 Clouds 9 1010 67 0 1.55 146.536 15:42 22.08.2019
3252 Clouds 13 1009 47 0 1.18 225.069 15:23 22.08.2019
3253 Clouds 13 1009 47 0 1.18 225.069 14:58 22.08.2019
3254 Clouds 13 1009 47 0 1.18 225.069 14:58 22.08.2019
3255 Clouds 13 1009 47 0 1.18 225.069 14:40 22.08.2019
3256 Clouds 13 1009 47 0 1.18 225.069 14:21 22.08.2019
3257 Clouds 13 1009 47 0 1.18 225.069 13:57 22.08.2019
3258 Clouds 13 1009 47 0 1.18 225.069 13:39 22.08.2019
3259 Clouds 14 1008 41 0 2.27 210.713 13:19 22.08.2019
3260 Clouds 14 1008 41 0 2.27 210.713 12:42 22.08.2019
3261 Clouds 19 1008 27 0 4.67 226.998 12:24 22.08.2019
3262 Clouds 19 1008 27 0 4.67 226.998 11:58 22.08.2019
3263 Clouds 19 1008 27 0 4.67 226.998 11:40 22.08.2019
3264 Clouds 19 1008 27 0 4.67 226.998 11:20 22.08.2019
3265 Clouds 19 1008 27 0 4.67 226.998 10:58 22.08.2019
3266 Clouds 19 1008 27 0 4.67 226.998 10:38 22.08.2019
3267 Clouds 19 1008 27 0 4.67 226.998 10:20 22.08.2019
3268 Clouds 19 1007 25 0 4.2 219.305 09:56 22.08.2019
3269 Clouds 19 1007 25 0 4.2 219.305 09:37 22.08.2019
3270 Clear 18 1009 30 0 3.48 180.692 09:19 22.08.2019
3271 Clear 18 1009 30 0 3.48 180.692 08:41 22.08.2019
3272 Clear 18 1009 30 0 3.48 180.692 08:22 22.08.2019
3273 Clear 18 1009 30 0 3.48 180.692 07:58 22.08.2019
3274 Clear 18 1009 30 0 3.48 180.692 07:38 22.08.2019
3275 Clear 18 1009 30 0 3.48 180.692 07:19 22.08.2019
3276 Clear 18 1009 30 0 3.48 180.692 06:46 22.08.2019
3277 Clear 15 1011 37 0 1.67 169.12 06:21 22.08.2019
3278 Clear 15 1011 37 0 1.67 169.12 05:29 22.08.2019
3279 Clear 15 1011 37 0 1.67 169.12 03:26 22.08.2019
3280 Clear 9 1013 65 0 0.82 109.809 02:36 22.08.2019
3281 Clear 9 1013 65 0 0.82 109.809 01:36 22.08.2019
3282 Clear 9 1013 65 0 0.7 119.572 00:57 22.08.2019
3283 Clear 9 1013 65 0 0.7 119.572 00:38 22.08.2019
3284 Clear 5 1013 77 0 0.73 84.102 00:20 22.08.2019
3285 Clear 5 1013 77 0 0.73 84.102 23:41 21.08.2019
3286 Clear 5 1013 77 0 0.73 84.102 23:23 21.08.2019
3287 Clear 5 1013 77 0 0.73 84.102 22:58 21.08.2019
3288 Clear 5 1013 77 0 0.73 84.102 22:39 21.08.2019
3289 Clear 5 1013 77 0 0.73 84.102 22:20 21.08.2019
3290 Clear 5 1013 77 0 0.73 84.102 21:55 21.08.2019
3291 Clouds 5 1012 75 0 0.82 139.231 21:37 21.08.2019
3292 Clouds 6 1012 64 0 0.81 173.832 21:19 21.08.2019
3293 Clouds 6 1012 64 0 0.81 173.832 20:55 21.08.2019
3294 Clouds 6 1012 64 0 0.81 173.832 20:37 21.08.2019
3295 Clouds 6 1012 64 0 0.81 173.832 20:19 21.08.2019
3296 Clouds 6 1012 64 0 0.81 173.832 19:42 21.08.2019
3297 Clouds 6 1012 64 0 0.81 173.832 19:23 21.08.2019
3298 Clouds 6 1012 64 0 0.81 173.832 18:56 21.08.2019
3299 Clouds 6 1012 64 0 0.81 173.832 18:56 21.08.2019
3300 Clouds 6 1012 64 0 0.81 173.832 18:56 21.08.2019
3301 Clouds 6 1012 64 0 0.81 173.832 18:38 21.08.2019
3302 Clouds 8 1012 56 0 0.93 204.935 18:20 21.08.2019
3303 Clouds 8 1012 56 0 0.93 204.935 17:44 21.08.2019
3304 Clouds 8 1012 56 0 0.93 204.935 17:21 21.08.2019
3305 Clouds 8 1012 56 0 0.93 204.935 16:56 21.08.2019
3306 Clouds 8 1012 56 0 0.93 204.935 16:37 21.08.2019
3307 Clouds 8 1012 56 0 0.93 204.935 16:18 21.08.2019
3308 Clouds 8 1012 56 0 0.93 204.935 15:56 21.08.2019
3309 Clouds 8 1012 56 0 0.93 204.935 15:38 21.08.2019
3310 Clouds 14 1010 49 0 1.44 187.041 15:18 21.08.2019
3311 Clouds 14 1010 49 0 1.44 187.041 14:54 21.08.2019
3312 Clouds 14 1010 49 0 1.44 187.041 14:36 21.08.2019
3313 Clouds 14 1010 49 0 1.44 187.041 14:18 21.08.2019
3314 Clouds 14 1010 49 0 1.44 187.041 13:43 21.08.2019
3315 Clouds 14 1010 54 0 0.2 282.465 13:20 21.08.2019
3316 Clouds 14 1010 54 0 0.2 282.465 12:57 21.08.2019
3317 Clouds 14 1010 54 0 0.2 282.465 12:39 21.08.2019
3318 Clouds 17 1009 32 0 2.52 259.253 12:19 21.08.2019
3319 Clouds 17 1009 32 0 2.52 259.253 11:44 21.08.2019
3320 Clouds 17 1009 32 0 2.52 259.253 11:24 21.08.2019
3321 Clouds 17 1009 32 0 2.52 259.253 10:59 21.08.2019
3322 Clouds 17 1009 32 0 2.52 259.253 10:40 21.08.2019
3323 Clouds 17 1009 32 0 2.52 259.253 10:22 21.08.2019
3324 Clouds 17 1009 32 0 2.52 259.253 09:58 21.08.2019
3325 Clouds 17 1009 32 0 2.52 259.253 09:40 21.08.2019
3326 Clouds 16 1010 30 0 2.44 210.29 09:21 21.08.2019
3327 Clouds 16 1010 30 0 2.44 210.29 08:50 21.08.2019
3328 Clouds 16 1010 30 0 2.44 210.29 08:26 21.08.2019
3329 Clouds 16 1010 30 0 2.44 210.29 07:56 21.08.2019
3330 Clouds 16 1010 30 0 2.44 210.29 07:37 21.08.2019
3331 Clouds 16 1010 30 0 2.44 210.29 07:18 21.08.2019
3332 Clouds 16 1010 30 0 2.44 210.29 06:44 21.08.2019
3333 Clouds 14 1012 33 0 1.76 184.923 06:19 21.08.2019
3334 Clouds 14 1012 33 0 1.76 184.923 05:29 21.08.2019
3335 Clouds 14 1012 33 0 1.76 184.923 04:51 21.08.2019
3336 Clouds 8 1014 59 0 0.9 113.728 02:44 21.08.2019
3337 Clouds 8 1014 59 0 0.9 113.728 01:36 21.08.2019
3338 Clouds 9 1014 57 0 0.94 113.054 00:43 21.08.2019
3339 Clouds 4 1014 59 0 0.8 112.757 00:21 21.08.2019
3340 Clouds 4 1014 59 0 0.8 112.757 23:45 20.08.2019
3341 Clouds 4 1014 59 0 0.8 112.757 23:45 20.08.2019
3342 Clouds 4 1014 59 0 0.8 112.757 23:21 20.08.2019
3343 Clouds 4 1014 59 0 0.8 112.757 22:59 20.08.2019
3344 Clouds 4 1014 59 0 0.8 112.757 22:41 20.08.2019
3345 Clouds 4 1014 59 0 0.8 112.757 22:22 20.08.2019
3346 Clouds 4 1014 59 0 0.8 112.757 21:58 20.08.2019
3347 Clouds 5 1014 59 0 0.85 110.398 21:39 20.08.2019
3348 Clouds 5 1014 59 0 0.85 110.398 21:39 20.08.2019
3349 Clouds 6 1014 55 0 1 148.001 21:20 20.08.2019
3350 Clouds 6 1014 55 0 1 148.001 20:59 20.08.2019
3351 Clouds 6 1014 55 0 1 148.001 20:41 20.08.2019
3352 Clouds 6 1014 55 0 1 148.001 20:23 20.08.2019
3353 Clouds 6 1014 55 0 1 148.001 19:40 20.08.2019
3354 Clouds 6 1014 55 0 1 148.001 19:22 20.08.2019
3355 Clouds 6 1014 55 0 1 148.001 18:58 20.08.2019
3356 Clouds 6 1014 55 0 1 148.001 18:40 20.08.2019
3357 Clouds 9 1015 54 0 0.24 148.87 18:19 20.08.2019
3358 Clouds 9 1015 54 0 0.24 148.87 18:19 20.08.2019
3359 Clouds 9 1015 54 0 0.24 148.87 17:57 20.08.2019
3360 Clouds 9 1015 54 0 0.24 148.87 17:57 20.08.2019
3361 Clouds 9 1015 54 0 0.24 148.87 17:38 20.08.2019
3362 Clouds 9 1015 54 0 0.24 148.87 17:19 20.08.2019
3363 Clouds 9 1015 54 0 0.24 148.87 16:45 20.08.2019
3364 Clouds 9 1015 54 0 0.24 148.87 16:26 20.08.2019
3365 Clouds 9 1015 54 0 0.24 148.87 15:56 20.08.2019
3366 Clouds 9 1015 54 0 0.24 148.87 15:38 20.08.2019
3367 Clouds 11 1015 51 0 0.17 131.807 15:18 20.08.2019
3368 Clouds 11 1015 51 0 0.17 131.807 14:43 20.08.2019
3369 Clouds 11 1015 51 0 0.17 131.807 14:22 20.08.2019
3370 Clouds 11 1015 51 0 0.17 131.807 14:22 20.08.2019
3371 Clouds 11 1015 51 0 0.17 131.807 13:57 20.08.2019
3372 Clouds 11 1015 51 0 0.17 131.807 13:57 20.08.2019
3373 Clouds 11 1015 51 0 0.17 131.807 13:39 20.08.2019
3374 Clouds 11 1015 50 0 0.25 192.158 13:20 20.08.2019
3375 Clouds 11 1015 50 0 0.25 192.158 12:51 20.08.2019
3376 Clouds 11 1015 50 0 0.25 192.158 12:31 20.08.2019
3377 Clear 15 1015 28 0 0.32 318.263 11:59 20.08.2019
3378 Clear 15 1015 28 0 0.32 318.263 11:40 20.08.2019
3379 Clear 15 1015 28 0 0.32 318.263 11:21 20.08.2019
3380 Clear 15 1015 28 0 0.32 318.263 10:57 20.08.2019
3381 Clear 15 1015 28 0 0.32 318.263 10:38 20.08.2019
3382 Clear 15 1015 28 0 0.32 318.263 10:20 20.08.2019
3383 Clear 15 1015 28 0 0.32 318.263 09:54 20.08.2019
3384 Clear 15 1015 28 0 0.32 318.263 09:36 20.08.2019
3385 Clear 13 1018 34 0 1.06 290.512 09:18 20.08.2019
3386 Clear 13 1018 34 0 1.06 290.512 08:41 20.08.2019
3387 Clear 13 1018 34 0 1.06 290.512 08:21 20.08.2019
3388 Clear 13 1018 34 0 1.06 290.512 07:57 20.08.2019
3389 Clear 13 1018 34 0 1.06 290.512 07:38 20.08.2019
3390 Clear 13 1018 34 0 1.06 290.512 07:18 20.08.2019
3391 Clear 13 1018 34 0 1.06 290.512 06:41 20.08.2019
3392 Clear 9 1020 50 0 0.33 235.733 06:19 20.08.2019
3393 Clear 9 1020 50 0 0.33 235.733 05:40 20.08.2019
3394 Clear 9 1020 50 0 0.33 235.733 04:21 20.08.2019
3395 Clear 4 1021 74 0 0.93 56.774 02:47 20.08.2019
3396 Clear 4 1021 74 0 0.93 56.774 01:45 20.08.2019
3397 Clear 4 1021 74 0 0.53 71.292 01:19 20.08.2019
3398 Clear 4 1021 74 0 0.53 71.292 00:43 20.08.2019
3399 Clear 0 1021 88 0 1.32 25.299 00:21 20.08.2019
3400 Clear 0 1021 88 0 1.32 25.299 23:42 19.08.2019
3401 Clear 0 1021 88 0 1.32 25.299 23:18 19.08.2019
3402 Clear 0 1021 88 0 1.32 25.299 22:57 19.08.2019
3403 Clear 0 1021 88 0 1.32 25.299 22:39 19.08.2019
3404 Clear 0 1021 88 0 1.32 25.299 22:19 19.08.2019
3405 Clear 0 1021 88 0 1.32 25.299 21:56 19.08.2019
3406 Clear 0 1020 88 0 1.31 33.024 21:37 19.08.2019
3407 Clear 2 1020 88 0 1.43 2.446 21:19 19.08.2019
3408 Clear 2 1020 88 0 1.43 2.446 20:40 19.08.2019
3409 Clear 2 1020 88 0 1.43 2.446 20:20 19.08.2019
3410 Clear 2 1020 88 0 1.43 2.446 19:59 19.08.2019
3411 Clear 2 1020 88 0 1.43 2.446 19:40 19.08.2019
3412 Clear 2 1020 88 0 1.43 2.446 19:19 19.08.2019
3413 Clear 2 1020 88 0 1.43 2.446 18:58 19.08.2019
3414 Clear 2 1020 88 0 1.43 2.446 18:39 19.08.2019
3415 Clear 3 1019 84 0 2.37 11.835 18:20 19.08.2019
3416 Clear 3 1019 84 0 2.37 11.835 17:54 19.08.2019
3417 Clear 3 1019 84 0 2.37 11.835 17:36 19.08.2019
3418 Clear 3 1019 84 0 2.37 11.835 17:18 19.08.2019
3419 Clear 3 1019 84 0 2.37 11.835 16:38 19.08.2019
3420 Clear 3 1019 84 0 2.37 11.835 16:20 19.08.2019
3421 Clear 3 1019 84 0 2.37 11.835 15:56 19.08.2019
3422 Clear 3 1019 84 0 2.37 11.835 15:37 19.08.2019
3423 Rain 8 1016 63 0 5.79 333.391 15:19 19.08.2019
3424 Rain 8 1016 63 0 5.79 333.391 14:43 19.08.2019
3425 Rain 8 1016 63 0 5.79 333.391 14:23 19.08.2019
3426 Rain 8 1016 63 0 5.79 333.391 13:58 19.08.2019
3427 Rain 8 1016 63 0 5.79 333.391 13:38 19.08.2019
3428 Rain 8 1015 64 0 6.22 334.44 13:19 19.08.2019
3429 Rain 8 1015 64 0 6.22 334.44 12:57 19.08.2019
3430 Rain 8 1015 64 0 6.22 334.44 12:57 19.08.2019
3431 Rain 8 1015 64 0 6.22 334.44 12:39 19.08.2019
3432 Rain 11 1014 51 0 7.47 301.65 12:19 19.08.2019
3433 Rain 11 1014 51 0 7.47 301.65 11:39 19.08.2019
3434 Rain 11 1014 51 0 7.47 301.65 11:21 19.08.2019
3435 Rain 11 1014 51 0 7.47 301.65 10:58 19.08.2019
3436 Rain 11 1014 51 0 7.47 301.65 10:37 19.08.2019
3437 Rain 11 1014 51 0 7.47 301.65 10:18 19.08.2019
3438 Rain 11 1014 51 0 7.47 301.65 09:45 19.08.2019
3439 Rain 11 1014 57 0 6.46 326.627 09:24 19.08.2019
3440 Rain 11 1014 57 0 6.46 326.627 09:24 19.08.2019
3441 Rain 11 1014 57 0 6.46 326.627 08:57 19.08.2019
3442 Rain 11 1014 57 0 6.46 326.627 08:39 19.08.2019
3443 Rain 11 1014 57 0 6.46 326.627 08:20 19.08.2019
3444 Rain 11 1014 57 0 6.46 326.627 07:48 19.08.2019
3445 Rain 11 1014 57 0 6.46 326.627 07:30 19.08.2019
3446 Rain 11 1014 57 0 6.46 326.627 06:48 19.08.2019
3447 Rain 11 1014 57 0 6.46 326.627 06:26 19.08.2019
3448 Rain 5 1015 86 0 2.48 10.024 04:57 19.08.2019
3449 Rain 5 1015 86 0 2.48 10.024 04:26 19.08.2019
3450 Rain 6 1013 95 0 3.08 259.697 03:22 19.08.2019
3451 Rain 6 1013 95 0 3.08 259.697 02:24 19.08.2019
3452 Rain 6 1013 95 0 3.08 259.697 01:34 19.08.2019
3453 Rain 6 1013 95 0 2.76 252.752 00:44 19.08.2019
3454 Clouds 6 1011 89 0 2.49 281.77 00:23 19.08.2019
3455 Clouds 6 1011 89 0 2.49 281.77 23:42 18.08.2019
3456 Clouds 6 1011 89 0 2.49 281.77 23:21 18.08.2019
3457 Clouds 6 1011 89 0 2.49 281.77 22:56 18.08.2019
3458 Clouds 6 1011 89 0 2.49 281.77 22:56 18.08.2019
3459 Clouds 6 1011 89 0 2.49 281.77 22:38 18.08.2019
3460 Clouds 6 1011 89 0 2.49 281.77 22:20 18.08.2019
3461 Clouds 6 1011 89 0 2.49 281.77 21:55 18.08.2019
3462 Clouds 6 1011 89 0 2.49 281.77 21:37 18.08.2019
3463 Rain 9 1009 76 0 2.16 290.5 21:18 18.08.2019
3464 Rain 9 1009 76 0 2.16 290.5 20:43 18.08.2019
3465 Rain 9 1009 76 0 2.16 290.5 20:25 18.08.2019
3466 Rain 9 1009 76 0 2.16 290.5 19:55 18.08.2019
3467 Rain 9 1009 76 0 2.16 290.5 19:37 18.08.2019
3468 Rain 9 1009 76 0 2.16 290.5 19:19 18.08.2019
3469 Rain 9 1009 76 0 2.16 290.5 18:41 18.08.2019
3470 Clouds 8 1008 79 0 1.21 349.357 18:23 18.08.2019
3471 Clouds 8 1008 79 0 1.21 349.357 17:58 18.08.2019
3472 Clouds 8 1008 79 0 1.21 349.357 17:40 18.08.2019
3473 Clouds 8 1008 79 0 1.21 349.357 17:19 18.08.2019
3474 Clouds 8 1008 79 0 1.21 349.357 16:56 18.08.2019
3475 Clouds 8 1008 79 0 1.21 349.357 16:38 18.08.2019
3476 Clouds 8 1008 79 0 1.21 349.357 16:19 18.08.2019
3477 Clouds 8 1008 79 0 1.21 349.357 15:55 18.08.2019
3478 Clouds 8 1008 79 0 1.21 349.357 15:37 18.08.2019
3479 Clouds 13 1006 59 0 2.84 290.009 15:19 18.08.2019
3480 Clouds 13 1006 59 0 2.84 290.009 14:40 18.08.2019
3481 Clouds 13 1006 59 0 2.84 290.009 14:21 18.08.2019
3482 Clouds 13 1006 59 0 2.84 290.009 13:59 18.08.2019
3483 Clouds 13 1006 59 0 2.84 290.009 13:59 18.08.2019
3484 Clouds 13 1006 59 0 2.84 290.009 13:41 18.08.2019
3485 Clouds 13 1006 59 0 2.84 290.009 13:22 18.08.2019
3486 Clouds 13 1006 59 0 2.84 290.009 12:57 18.08.2019
3487 Clouds 13 1006 59 0 2.84 290.009 12:38 18.08.2019
3488 Clouds 13 1006 59 0 2.84 290.009 12:38 18.08.2019
3489 Clouds 17 1006 44 0 6.24 246.167 12:20 18.08.2019
3490 Clouds 17 1006 44 0 6.24 246.167 12:20 18.08.2019
3491 Clouds 17 1006 44 0 6.24 246.167 11:43 18.08.2019
3492 Clouds 17 1006 44 0 6.24 246.167 11:23 18.08.2019
3493 Clouds 17 1006 44 0 6.24 246.167 11:23 18.08.2019
3494 Clouds 17 1006 44 0 6.24 246.167 10:57 18.08.2019
3495 Clouds 17 1006 44 0 6.24 246.167 10:39 18.08.2019
3496 Clouds 17 1006 44 0 6.24 246.167 10:18 18.08.2019
3497 Clouds 17 1006 44 0 6.24 246.167 09:43 18.08.2019
3498 Rain 11 1006 73 0 3.85 45.874 09:20 18.08.2019
3499 Rain 11 1006 73 0 3.85 45.874 08:44 18.08.2019
3500 Rain 11 1006 73 0 3.85 45.874 08:44 18.08.2019
3501 Rain 11 1006 73 0 3.85 45.874 08:25 18.08.2019
3502 Rain 11 1006 73 0 3.85 45.874 07:57 18.08.2019
3503 Rain 11 1006 73 0 3.85 45.874 07:30 18.08.2019
3504 Rain 11 1006 73 0 3.85 45.874 06:33 18.08.2019
3505 Rain 12 1008 61 0 3.26 49.128 05:42 18.08.2019
3506 Rain 12 1008 61 0 3.26 49.128 03:51 18.08.2019
3507 Clouds 9 1009 62 0 2.7 53.648 02:52 18.08.2019
3508 Clouds 9 1009 62 0 2.7 53.648 02:34 18.08.2019
3509 Clouds 9 1009 62 0 2.7 53.648 01:57 18.08.2019
3510 Clouds 9 1010 66 0 3.09 36.762 01:26 18.08.2019
3511 Clouds 9 1010 66 0 3.09 36.762 00:42 18.08.2019
3512 Clouds 9 1010 64 0 2.79 37.442 00:20 18.08.2019
3513 Clouds 9 1010 64 0 2.79 37.442 23:58 17.08.2019
3514 Clouds 9 1010 64 0 2.79 37.442 23:38 17.08.2019
3515 Clouds 9 1010 64 0 2.79 37.442 23:19 17.08.2019
3516 Clouds 9 1010 64 0 2.79 37.442 22:57 17.08.2019
3517 Clouds 9 1010 64 0 2.79 37.442 22:39 17.08.2019
3518 Clouds 9 1010 64 0 2.79 37.442 22:20 17.08.2019
3519 Clouds 9 1010 64 0 2.79 37.442 21:44 17.08.2019
3520 Clouds 9 1010 64 0 2.79 37.442 21:26 17.08.2019
3521 Clouds 7 1011 72 0 2.63 35.578 20:59 17.08.2019
3522 Clouds 7 1011 72 0 2.63 35.578 20:37 17.08.2019
3523 Clouds 7 1011 72 0 2.63 35.578 20:19 17.08.2019
3524 Clouds 7 1011 72 0 2.63 35.578 19:43 17.08.2019
3525 Clouds 7 1011 72 0 2.63 35.578 19:24 17.08.2019
3526 Clouds 7 1011 72 0 2.63 35.578 18:59 17.08.2019
3527 Clouds 7 1011 72 0 2.63 35.578 18:39 17.08.2019
3528 Clouds 9 1011 70 0 3.63 28.953 18:18 17.08.2019
3529 Clouds 9 1011 70 0 3.63 28.953 18:18 17.08.2019
3530 Clouds 9 1011 70 0 3.63 28.953 18:18 17.08.2019
3531 Clouds 9 1011 70 0 3.63 28.953 17:43 17.08.2019
3532 Clouds 9 1011 70 0 3.63 28.953 17:22 17.08.2019
3533 Clouds 9 1011 70 0 3.63 28.953 16:59 17.08.2019
3534 Clouds 9 1011 70 0 3.63 28.953 16:40 17.08.2019
3535 Clouds 9 1011 70 0 3.63 28.953 16:22 17.08.2019
3536 Clouds 9 1011 70 0 3.63 28.953 15:54 17.08.2019
3537 Clouds 9 1011 70 0 3.63 28.953 15:36 17.08.2019
3538 Clouds 13 1009 60 0 4.35 29.719 15:18 17.08.2019
3539 Clouds 13 1009 60 0 4.35 29.719 14:40 17.08.2019
3540 Clouds 13 1009 60 0 4.35 29.719 14:21 17.08.2019
3541 Clouds 13 1009 60 0 4.35 29.719 13:45 17.08.2019
3542 Clouds 13 1009 57 0 3.62 31.757 13:21 17.08.2019
3543 Clouds 13 1009 57 0 3.62 31.757 12:45 17.08.2019
3544 Clouds 13 1009 57 0 3.62 31.757 12:45 17.08.2019
3545 Clouds 17 1009 35 0 2.6 318.553 12:21 17.08.2019
3546 Clouds 17 1009 35 0 2.6 318.553 11:59 17.08.2019
3547 Clouds 17 1009 35 0 2.6 318.553 11:39 17.08.2019
3548 Clouds 17 1009 35 0 2.6 318.553 11:20 17.08.2019
3549 Clouds 17 1009 35 0 2.6 318.553 10:42 17.08.2019
3550 Clouds 17 1009 35 0 2.6 318.553 10:42 17.08.2019
3551 Clouds 17 1009 35 0 2.6 318.553 10:22 17.08.2019
3552 Clouds 17 1009 35 0 2.6 318.553 09:59 17.08.2019
3553 Clouds 17 1009 35 0 2.6 318.553 09:40 17.08.2019
3554 Clouds 17 1009 36 0 2.78 321.446 09:21 17.08.2019
3555 Clouds 17 1009 36 0 2.78 321.446 08:51 17.08.2019
3556 Clouds 17 1009 36 0 2.78 321.446 08:22 17.08.2019
3557 Clouds 17 1009 36 0 2.78 321.446 07:44 17.08.2019
3558 Clouds 17 1009 36 0 2.78 321.446 07:20 17.08.2019
3559 Clouds 17 1009 36 0 2.78 321.446 06:34 17.08.2019
3560 Clouds 15 1010 41 0 2.02 41.825 04:48 17.08.2019
3561 Clouds 15 1010 41 0 2.02 41.825 04:21 17.08.2019
3562 Clouds 10 1011 74 0 1.95 54.141 02:43 17.08.2019
3563 Clouds 10 1011 74 0 1.95 54.141 01:39 17.08.2019
3564 Clouds 10 1011 73 0 1.43 38.229 01:20 17.08.2019
3565 Clouds 10 1011 73 0 1.43 38.229 00:46 17.08.2019
3566 Clouds 7 1010 83 0 1.96 36.934 00:21 17.08.2019
3567 Clouds 7 1010 83 0 1.96 36.934 23:44 16.08.2019
3568 Clouds 7 1010 83 0 1.96 36.934 23:24 16.08.2019
3569 Clouds 7 1010 83 0 1.96 36.934 22:43 16.08.2019
3570 Clouds 7 1010 83 0 1.96 36.934 22:20 16.08.2019
3571 Clouds 7 1010 83 0 1.96 36.934 21:58 16.08.2019
3572 Clouds 6 1010 85 0 0.97 43.544 21:38 16.08.2019
3573 Clouds 7 1009 84 0 0.88 202.166 21:18 16.08.2019
3574 Clouds 7 1009 84 0 0.88 202.166 20:43 16.08.2019
3575 Clouds 7 1009 84 0 0.88 202.166 20:20 16.08.2019
3576 Clouds 7 1009 84 0 0.88 202.166 19:58 16.08.2019
3577 Clouds 7 1009 84 0 0.88 202.166 19:39 16.08.2019
3578 Clouds 7 1009 84 0 0.88 202.166 19:19 16.08.2019
3579 Clouds 7 1009 84 0 0.88 202.166 18:42 16.08.2019
3580 Clouds 9 1008 82 0 0.59 239.94 18:23 16.08.2019
3581 Clouds 9 1008 82 0 0.59 239.94 17:48 16.08.2019
3582 Clouds 9 1008 82 0 0.59 239.94 17:28 16.08.2019
3583 Clouds 9 1008 82 0 0.59 239.94 16:59 16.08.2019
3584 Clouds 9 1008 82 0 0.59 239.94 16:40 16.08.2019
3585 Clouds 9 1008 82 0 0.59 239.94 16:19 16.08.2019
3586 Clouds 9 1008 82 0 0.59 239.94 15:56 16.08.2019
3587 Clouds 9 1008 82 0 0.59 239.94 15:56 16.08.2019
3588 Clouds 9 1008 82 0 0.59 239.94 15:37 16.08.2019
3589 Clouds 14 1006 57 0 2.2 220.864 15:19 16.08.2019
3590 Clouds 14 1006 57 0 2.2 220.864 14:56 16.08.2019
3591 Clouds 14 1006 57 0 2.2 220.864 14:37 16.08.2019
3592 Clouds 14 1006 57 0 2.2 220.864 14:18 16.08.2019
3593 Clouds 14 1006 57 0 2.2 220.864 13:39 16.08.2019
3594 Clouds 14 1007 61 0 1.35 159.191 13:20 16.08.2019
3595 Clouds 14 1007 61 0 1.35 159.191 12:40 16.08.2019
3596 Clouds 18 1005 39 0 7.4 264.529 12:21 16.08.2019
3597 Clouds 18 1005 39 0 7.4 264.529 11:55 16.08.2019
3598 Clouds 18 1005 39 0 7.4 264.529 11:37 16.08.2019
3599 Clouds 18 1005 39 0 7.4 264.529 11:37 16.08.2019
3600 Clouds 18 1005 39 0 7.4 264.529 11:18 16.08.2019
3601 Clouds 18 1005 39 0 7.4 264.529 10:42 16.08.2019
3602 Clouds 18 1005 39 0 7.4 264.529 10:20 16.08.2019
3603 Clouds 18 1005 39 0 7.4 264.529 09:39 16.08.2019
3604 Clouds 19 1005 45 0 10.43 229.3 09:19 16.08.2019
3605 Clouds 19 1005 45 0 10.43 229.3 08:58 16.08.2019
3606 Clouds 19 1005 45 0 10.43 229.3 08:39 16.08.2019
3607 Clouds 19 1005 45 0 10.43 229.3 08:19 16.08.2019
3608 Clouds 19 1005 45 0 10.43 229.3 07:45 16.08.2019
3609 Clouds 19 1005 45 0 10.43 229.3 07:26 16.08.2019
3610 Clouds 19 1005 45 0 10.43 229.3 06:53 16.08.2019
3611 Clouds 16 1007 44 0 4.59 185.431 06:18 16.08.2019
3612 Clouds 16 1007 44 0 4.59 185.431 05:33 16.08.2019
3613 Clouds 13 1008 51 0 1.67 152.944 03:20 16.08.2019
3614 Clouds 13 1008 51 0 1.67 152.944 01:52 16.08.2019
3615 Clouds 12 1009 53 0 1.45 147.483 01:25 16.08.2019
3616 Clouds 12 1009 53 0 1.45 147.483 00:50 16.08.2019
3617 Clouds 9 1008 53 0 1.5 61.813 00:23 16.08.2019
3618 Clouds 9 1008 53 0 1.5 61.813 23:57 15.08.2019
3619 Clouds 9 1008 53 0 1.5 61.813 23:38 15.08.2019
3620 Clouds 9 1008 53 0 1.5 61.813 23:18 15.08.2019
3621 Clouds 9 1008 53 0 1.5 61.813 22:41 15.08.2019
3622 Clouds 9 1008 53 0 1.5 61.813 22:22 15.08.2019
3623 Clouds 9 1008 53 0 1.5 61.813 21:58 15.08.2019
3624 Clouds 8 1008 56 0 1.24 81.328 21:39 15.08.2019
3625 Clouds 9 1008 54 0 1.66 59.577 21:19 15.08.2019
3626 Clouds 9 1008 54 0 1.66 59.577 20:57 15.08.2019
3627 Clouds 9 1008 54 0 1.66 59.577 20:38 15.08.2019
3628 Clouds 9 1008 54 0 1.66 59.577 20:20 15.08.2019
3629 Clouds 9 1008 54 0 1.66 59.577 19:40 15.08.2019
3630 Clouds 9 1008 54 0 1.66 59.577 19:21 15.08.2019
3631 Clouds 9 1008 54 0 1.66 59.577 18:55 15.08.2019
3632 Clouds 9 1008 54 0 1.66 59.577 18:37 15.08.2019
3633 Clouds 10 1009 53 0 1.93 51.122 18:18 15.08.2019
3634 Clouds 10 1009 53 0 1.93 51.122 17:39 15.08.2019
3635 Clouds 10 1009 53 0 1.93 51.122 17:20 15.08.2019
3636 Clouds 10 1009 53 0 1.93 51.122 16:59 15.08.2019
3637 Clouds 10 1009 53 0 1.93 51.122 16:41 15.08.2019
3638 Clouds 10 1009 53 0 1.93 51.122 16:23 15.08.2019
3639 Clouds 10 1009 53 0 1.93 51.122 15:39 15.08.2019
3640 Clouds 15 1007 46 0 1.86 43.565 15:20 15.08.2019
3641 Clouds 15 1007 46 0 1.86 43.565 14:58 15.08.2019
3642 Clouds 15 1007 46 0 1.86 43.565 14:40 15.08.2019
3643 Clouds 15 1007 46 0 1.86 43.565 14:21 15.08.2019
3644 Clouds 15 1007 46 0 1.86 43.565 13:56 15.08.2019
3645 Clouds 15 1007 46 0 1.86 43.565 13:38 15.08.2019
3646 Clouds 15 1007 47 0 1.75 43.729 13:19 15.08.2019
3647 Clouds 15 1007 47 0 1.75 43.729 13:19 15.08.2019
3648 Clouds 15 1007 47 0 1.75 43.729 12:40 15.08.2019
3649 Clouds 19 1007 25 0 1.11 23.947 12:22 15.08.2019
3650 Clouds 19 1007 25 0 1.11 23.947 12:22 15.08.2019
3651 Clouds 19 1007 25 0 1.11 23.947 11:59 15.08.2019
3652 Clouds 19 1007 25 0 1.11 23.947 11:39 15.08.2019
3653 Clouds 19 1007 25 0 1.11 23.947 11:20 15.08.2019
3654 Clouds 19 1007 25 0 1.11 23.947 10:59 15.08.2019
3655 Clouds 19 1007 25 0 1.11 23.947 10:59 15.08.2019
3656 Clouds 19 1007 25 0 1.11 23.947 10:59 15.08.2019
3657 Clouds 19 1007 25 0 1.11 23.947 10:37 15.08.2019
3658 Clouds 19 1007 25 0 1.11 23.947 10:37 15.08.2019
3659 Clouds 19 1007 25 0 1.11 23.947 10:37 15.08.2019
3660 Clouds 19 1007 25 0 1.11 23.947 10:19 15.08.2019
3661 Clouds 19 1007 25 0 1.11 23.947 09:44 15.08.2019
3662 Clouds 18 1009 26 0 0.31 150.44 09:23 15.08.2019
3663 Clouds 18 1009 26 0 0.31 150.44 08:55 15.08.2019
3664 Clouds 18 1009 26 0 0.31 150.44 08:36 15.08.2019
3665 Clouds 18 1009 26 0 0.31 150.44 08:18 15.08.2019
3666 Clouds 18 1009 26 0 0.31 150.44 07:41 15.08.2019
3667 Clouds 18 1009 26 0 0.31 150.44 07:21 15.08.2019
3668 Clouds 18 1009 26 0 0.31 150.44 06:53 15.08.2019
3669 Clouds 18 1009 26 0 0.31 150.44 06:31 15.08.2019
3670 Clouds 14 1012 37 0 1.32 71.703 05:39 15.08.2019
3671 Clouds 14 1012 37 0 1.32 71.703 05:21 15.08.2019
3672 Clouds 14 1012 37 0 1.32 71.703 04:29 15.08.2019
3673 Clouds 14 1012 37 0 1.32 71.703 03:28 15.08.2019
3674 Clouds 9 1013 61 0 1.79 45.204 02:35 15.08.2019
3675 Clouds 9 1013 61 0 1.79 45.204 01:45 15.08.2019
3676 Clouds 9 1013 61 0 1.93 46.196 01:23 15.08.2019
3677 Clouds 9 1013 61 0 1.93 46.196 00:38 15.08.2019
3678 Clouds 5 1013 77 0 1.6 32.934 00:19 15.08.2019
3679 Clouds 5 1013 77 0 1.6 32.934 23:57 14.08.2019
3680 Clouds 5 1013 77 0 1.6 32.934 23:37 14.08.2019
3681 Clouds 5 1013 77 0 1.6 32.934 23:19 14.08.2019
3682 Clouds 5 1013 77 0 1.6 32.934 22:42 14.08.2019
3683 Clouds 5 1013 77 0 1.6 32.934 22:23 14.08.2019
3684 Clouds 5 1013 77 0 1.6 32.934 21:58 14.08.2019
3685 Clouds 5 1013 77 0 1.6 32.934 21:58 14.08.2019
3686 Clouds 5 1013 77 0 1.6 32.934 21:40 14.08.2019
3687 Clouds 7 1012 72 0 1.46 32.193 21:21 14.08.2019
3688 Clouds 7 1012 72 0 1.46 32.193 20:59 14.08.2019
3689 Clouds 7 1012 72 0 1.46 32.193 20:41 14.08.2019
3690 Clouds 7 1012 72 0 1.46 32.193 20:19 14.08.2019
3691 Clouds 7 1012 72 0 1.46 32.193 19:55 14.08.2019
3692 Clouds 7 1012 72 0 1.46 32.193 19:36 14.08.2019
3693 Clouds 7 1012 72 0 1.46 32.193 19:18 14.08.2019
3694 Clouds 7 1012 72 0 1.46 32.193 18:55 14.08.2019
3695 Clouds 7 1012 72 0 1.46 32.193 18:36 14.08.2019
3696 Clouds 8 1012 69 0 1.57 22.732 18:18 14.08.2019
3697 Clouds 8 1012 69 0 1.57 22.732 17:40 14.08.2019
3698 Clouds 8 1012 69 0 1.57 22.732 17:22 14.08.2019
3699 Clouds 8 1012 69 0 1.57 22.732 16:58 14.08.2019
3700 Clouds 8 1012 69 0 1.57 22.732 16:39 14.08.2019
3701 Clouds 8 1012 69 0 1.57 22.732 16:19 14.08.2019
3702 Clouds 8 1012 69 0 1.57 22.732 15:43 14.08.2019
3703 Clear 14 1009 48 0 4.84 333.742 15:19 14.08.2019
3704 Clear 14 1009 48 0 4.84 333.742 15:19 14.08.2019
3705 Clear 14 1009 48 0 4.84 333.742 14:57 14.08.2019
3706 Clear 14 1009 48 0 4.84 333.742 14:39 14.08.2019
3707 Clear 14 1009 48 0 4.84 333.742 14:19 14.08.2019
3708 Clear 14 1009 48 0 4.84 333.742 13:44 14.08.2019
3709 Clear 14 1009 48 0 4.84 333.742 13:44 14.08.2019
3710 Clear 14 1009 49 0 5.31 334.51 13:25 14.08.2019
3711 Clear 14 1009 49 0 5.31 334.51 12:59 14.08.2019
3712 Clear 14 1009 49 0 5.31 334.51 12:40 14.08.2019
3713 Clear 18 1007 33 0 7.94 315.102 12:22 14.08.2019
3714 Clear 18 1007 33 0 7.94 315.102 11:57 14.08.2019
3715 Clear 18 1007 33 0 7.94 315.102 11:57 14.08.2019
3716 Clear 18 1007 33 0 7.94 315.102 11:39 14.08.2019
3717 Clear 18 1007 33 0 7.94 315.102 11:21 14.08.2019
3718 Clear 18 1007 33 0 7.94 315.102 10:45 14.08.2019
3719 Clear 18 1007 33 0 7.94 315.102 10:25 14.08.2019
3720 Clear 18 1007 33 0 7.94 315.102 09:58 14.08.2019
3721 Clear 18 1007 33 0 7.94 315.102 09:39 14.08.2019
3722 -273 0 0 0 0 0 09:19 14.08.2019
3723 Clear 18 1008 32 0 7.61 301.947 08:40 14.08.2019
3724 Clear 18 1008 32 0 7.61 301.947 08:21 14.08.2019
3725 Clear 18 1008 32 0 7.61 301.947 07:53 14.08.2019
3726 Clear 18 1008 32 0 7.61 301.947 07:33 14.08.2019
3727 Clear 18 1008 32 0 7.61 301.947 06:47 14.08.2019
3728 Clear 16 1009 39 0 3.77 288.387 05:54 14.08.2019
3729 Clear 16 1009 39 0 3.77 288.387 05:28 14.08.2019
3730 Clear 16 1009 39 0 3.77 288.387 03:38 14.08.2019
3731 Clear 11 1010 66 0 0.2 112.902 02:34 14.08.2019
3732 Clear 11 1010 66 0 0.2 112.902 01:49 14.08.2019
3733 Clear 11 1010 66 0 0.25 154.898 01:18 14.08.2019
3734 Clear 6 1010 78 0 1.27 37.599 23:51 13.08.2019
3735 Clear 6 1010 78 0 1.27 37.599 23:27 13.08.2019
3736 Clear 6 1010 78 0 1.27 37.599 23:00 13.08.2019
3737 Clear 6 1010 78 0 1.27 37.599 22:40 13.08.2019
3738 Clear 6 1010 78 0 1.27 37.599 22:40 13.08.2019
3739 Clear 6 1010 78 0 1.27 37.599 22:21 13.08.2019
3740 Clear 6 1010 78 0 1.27 37.599 21:58 13.08.2019
3741 Clear 6 1010 78 0 1.27 37.599 21:39 13.08.2019
3742 Clouds 7 1009 79 0 0.44 323.621 21:19 13.08.2019
3743 Clouds 7 1009 79 0 0.44 323.621 20:56 13.08.2019
3744 Clouds 7 1009 79 0 0.44 323.621 20:37 13.08.2019
3745 Clouds 7 1009 79 0 0.44 323.621 20:18 13.08.2019
3746 Clouds 7 1009 79 0 0.44 323.621 19:43 13.08.2019
3747 Clouds 7 1009 79 0 0.44 323.621 19:22 13.08.2019
3748 Clouds 7 1009 79 0 0.44 323.621 18:59 13.08.2019
3749 Clouds 7 1009 79 0 0.44 323.621 18:40 13.08.2019
3750 Clear 8 1009 63 0 1.71 3.215 18:20 13.08.2019
3751 Clear 8 1009 63 0 1.71 3.215 17:43 13.08.2019
3752 Clear 8 1009 63 0 1.71 3.215 17:22 13.08.2019
3753 Clear 8 1009 63 0 1.71 3.215 16:57 13.08.2019
3754 Clear 8 1009 63 0 1.71 3.215 16:39 13.08.2019
3755 Clear 8 1009 63 0 1.71 3.215 16:20 13.08.2019
3756 Clear 8 1009 63 0 1.71 3.215 15:58 13.08.2019
3757 Clear 8 1009 63 0 1.71 3.215 15:36 13.08.2019
3758 Clouds 14 1006 47 0 3.69 317.534 15:18 13.08.2019
3759 Clouds 14 1006 47 0 3.69 317.534 14:41 13.08.2019
3760 Clouds 14 1006 47 0 3.69 317.534 14:19 13.08.2019
3761 Clouds 14 1006 47 0 3.69 317.534 13:56 13.08.2019
3762 Clouds 14 1006 47 0 3.69 317.534 13:37 13.08.2019
3763 Clouds 14 1006 47 0 3.84 315.664 13:18 13.08.2019
3764 Clouds 14 1006 47 0 3.84 315.664 12:41 13.08.2019
3765 Clouds 18 1005 31 0 5.11 271.672 12:23 13.08.2019
3766 Clouds 18 1005 31 0 5.11 271.672 11:59 13.08.2019
3767 Clouds 18 1005 31 0 5.11 271.672 11:39 13.08.2019
3768 Clouds 18 1005 31 0 5.11 271.672 11:20 13.08.2019
3769 Clouds 18 1005 31 0 5.11 271.672 10:56 13.08.2019
3770 Clouds 18 1005 31 0 5.11 271.672 10:37 13.08.2019
3771 Clouds 18 1005 31 0 5.11 271.672 10:37 13.08.2019
3772 Clouds 18 1005 31 0 5.11 271.672 10:19 13.08.2019
3773 Clouds 18 1005 31 0 5.11 271.672 09:43 13.08.2019
3774 Clouds 18 1005 32 0 4.52 248.119 09:23 13.08.2019
3775 Clouds 18 1005 32 0 4.52 248.119 08:44 13.08.2019
3776 Clouds 18 1005 32 0 4.52 248.119 08:23 13.08.2019
3777 Clouds 18 1005 32 0 4.52 248.119 08:23 13.08.2019
3778 Clouds 18 1005 32 0 4.52 248.119 07:58 13.08.2019
3779 Clouds 18 1005 32 0 4.52 248.119 07:58 13.08.2019
3780 Clouds 18 1005 32 0 4.52 248.119 07:38 13.08.2019
3781 Clouds 18 1005 32 0 4.52 248.119 07:19 13.08.2019
3782 Clouds 18 1005 32 0 4.52 248.119 06:41 13.08.2019
3783 Clear 14 1007 38 0 1.96 188.192 05:37 13.08.2019
3784 Clear 14 1007 38 0 1.96 188.192 03:36 13.08.2019
3785 Clear 9 1009 57 0 1.17 136.071 02:20 13.08.2019
3786 Clear 9 1009 57 0 1.19 129.744 01:19 13.08.2019
3787 Clear 9 1009 57 0 1.19 129.744 00:47 13.08.2019
3788 Clear 4 1009 64 0 0.67 123.052 23:57 12.08.2019
3789 Clear 4 1009 64 0 0.67 123.052 23:38 12.08.2019
3790 Clear 4 1009 64 0 0.67 123.052 23:19 12.08.2019
3791 Clear 4 1009 64 0 0.67 123.052 23:19 12.08.2019
3792 Clear 4 1009 64 0 0.67 123.052 22:40 12.08.2019
3793 Clear 4 1009 64 0 0.67 123.052 22:20 12.08.2019
3794 Clear 4 1009 64 0 0.67 123.052 22:20 12.08.2019
3795 Clear 4 1009 64 0 0.67 123.052 21:56 12.08.2019
3796 Clear 4 1009 64 0 0.67 123.052 21:37 12.08.2019
3797 Clear 5 1010 61 0 0.7 92.458 21:19 12.08.2019
3798 Clear 5 1010 61 0 0.7 92.458 20:57 12.08.2019
3799 Clear 5 1010 61 0 0.7 92.458 20:38 12.08.2019
3800 Clear 5 1010 61 0 0.7 92.458 20:20 12.08.2019
3801 Clear 5 1010 61 0 0.7 92.458 19:56 12.08.2019
3802 Clear 5 1010 61 0 0.7 92.458 19:56 12.08.2019
3803 Clear 5 1010 61 0 0.7 92.458 19:37 12.08.2019
3804 Clear 5 1010 61 0 0.7 92.458 19:19 12.08.2019
3805 Clear 5 1010 61 0 0.7 92.458 18:55 12.08.2019
3806 Clear 5 1010 61 0 0.7 92.458 18:55 12.08.2019
3807 Clear 5 1010 61 0 0.7 92.458 18:55 12.08.2019
3808 Clear 5 1010 61 0 0.7 92.458 18:37 12.08.2019
3809 Clear 7 1010 55 0 1.59 37.564 18:18 12.08.2019
3810 Clear 7 1010 55 0 1.59 37.564 18:18 12.08.2019
3811 Clear 7 1010 55 0 1.59 37.564 17:46 12.08.2019
3812 Clear 7 1010 55 0 1.59 37.564 17:28 12.08.2019
3813 Clear 7 1010 55 0 1.59 37.564 16:56 12.08.2019
3814 Clear 7 1010 55 0 1.59 37.564 16:56 12.08.2019
3815 Clear 7 1010 55 0 1.59 37.564 16:56 12.08.2019
3816 Clear 7 1010 55 0 1.59 37.564 16:56 12.08.2019
3817 Clear 7 1010 55 0 1.59 37.564 16:56 12.08.2019
3818 Clear 7 1010 55 0 1.59 37.564 16:37 12.08.2019
3819 Clear 7 1010 55 0 1.59 37.564 16:19 12.08.2019
3820 Clear 7 1010 55 0 1.59 37.564 15:54 12.08.2019
3821 Clear 7 1010 55 0 1.59 37.564 15:36 12.08.2019
3822 Clear 12 1009 45 0 3.4 311.268 15:18 12.08.2019
3823 Clear 12 1009 45 0 3.4 311.268 14:41 12.08.2019
3824 -273 0 0 0 0 0 14:41 12.08.2019
3825 -273 0 0 0 0 0 14:41 12.08.2019
3826 -273 0 0 0 0 0 14:41 12.08.2019
3827 Clear 12 1009 45 0 3.4 311.268 14:22 12.08.2019
3828 Clear 12 1009 45 0 3.4 311.268 13:57 12.08.2019
3829 Clear 12 1009 45 0 3.4 311.268 13:39 12.08.2019
3830 Clear 12 1009 45 0 3.18 317.265 13:20 12.08.2019
3831 Clear 12 1009 45 0 3.18 317.265 12:43 12.08.2019
3832 Clear 12 1009 45 0 3.18 317.265 12:43 12.08.2019
3833 Clear 15 1009 30 0 3.55 275.054 12:21 12.08.2019
3834 Clear 15 1009 30 0 3.55 275.054 11:45 12.08.2019
3835 Clear 15 1009 30 0 3.55 275.054 11:44 12.08.2019
3836 Clear 15 1009 30 0 3.55 275.054 11:44 12.08.2019
3837 Clear 15 1009 30 0 3.55 275.054 11:44 12.08.2019
3838 Clear 15 1009 30 0 3.55 275.054 11:25 12.08.2019
3839 Clear 15 1009 30 0 3.55 275.054 10:54 12.08.2019
3840 Clear 15 1009 30 0 3.55 275.054 10:36 12.08.2019
3841 Clear 15 1009 30 0 3.55 275.054 10:18 12.08.2019
3842 Clear 15 1009 30 0 3.55 275.054 09:42 12.08.2019
3843 Clear 14 1011 31 0 1.33 288.979 09:20 12.08.2019
3844 Clear 14 1011 31 0 1.33 288.979 08:58 12.08.2019
3845 Clear 14 1011 31 0 1.33 288.979 08:39 12.08.2019
3846 Clear 14 1011 31 0 1.33 288.979 08:21 12.08.2019
3847 Clear 14 1011 31 0 1.33 288.979 07:53 12.08.2019
3848 Clear 14 1011 31 0 1.33 288.979 07:33 12.08.2019
3849 Clear 14 1011 31 0 1.33 288.979 06:53 12.08.2019
3850 Clear 11 1013 43 0 0.58 54.207 05:41 12.08.2019
3851 Clear 6 1015 73 0 2.05 39.462 03:25 12.08.2019
3852 Clear 6 1015 73 0 2.07 39.241 02:41 12.08.2019
3853 Clear 6 1015 73 0 2.07 39.241 01:22 12.08.2019
3854 Clear 6 1015 73 0 2.07 39.241 00:58 12.08.2019
3855 Clear 6 1015 73 0 2.07 39.241 00:58 12.08.2019
3856 Clear 6 1015 73 0 2.07 39.241 00:40 12.08.2019
3857 Clear 3 1015 85 0 2.08 31.129 00:20 12.08.2019
3858 Clear 3 1015 85 0 2.08 31.129 23:56 11.08.2019
3859 Clear 3 1015 85 0 2.08 31.129 23:38 11.08.2019
3860 Clear 3 1015 85 0 2.08 31.129 23:19 11.08.2019
3861 Clear 3 1015 85 0 2.08 31.129 22:40 11.08.2019
3862 Clear 3 1015 85 0 2.08 31.129 22:20 11.08.2019
3863 Clear 3 1015 85 0 2.08 31.129 21:59 11.08.2019
3864 Clear 3 1015 85 0 2.08 31.129 21:59 11.08.2019
3865 Clear 3 1015 85 0 2.08 31.129 21:41 11.08.2019
3866 Clouds 5 1015 81 0 2.26 26.995 21:22 11.08.2019
3867 Clouds 5 1014 78 0 2.39 26.79 20:58 11.08.2019
3868 Clouds 5 1014 78 0 2.39 26.79 20:40 11.08.2019
3869 Clouds 5 1014 78 0 2.39 26.79 20:22 11.08.2019
3870 Clouds 5 1014 78 0 2.39 26.79 19:45 11.08.2019
3871 Clouds 5 1014 78 0 2.39 26.79 19:20 11.08.2019
3872 Clouds 5 1014 78 0 2.39 26.79 18:56 11.08.2019
3873 Clouds 5 1014 78 0 2.39 26.79 18:36 11.08.2019
3874 Clear 6 1014 77 0 2.49 31.72 18:18 11.08.2019
3875 Clear 6 1014 77 0 2.49 31.72 17:41 11.08.2019
3876 Clear 6 1014 77 0 2.49 31.72 17:20 11.08.2019
3877 Clear 6 1014 77 0 2.49 31.72 16:58 11.08.2019
3878 Clear 6 1014 77 0 2.49 31.72 16:38 11.08.2019
3879 Clear 6 1014 77 0 2.49 31.72 16:20 11.08.2019
3880 Clear 6 1014 77 0 2.49 31.72 15:44 11.08.2019
3881 Clear 6 1014 77 0 2.49 31.72 15:44 11.08.2019
3882 Clear 6 1014 77 0 2.49 31.72 15:26 11.08.2019
3883 Clear 6 1014 77 0 2.49 31.72 15:26 11.08.2019
3884 Clear 11 1013 57 0 3.39 348.077 14:59 11.08.2019
3885 Clear 11 1013 57 0 3.39 348.077 14:59 11.08.2019
3886 Clear 11 1013 57 0 3.39 348.077 14:40 11.08.2019
3887 Clear 11 1013 57 0 3.39 348.077 14:21 11.08.2019
3888 Clear 11 1013 57 0 3.39 348.077 13:46 11.08.2019
3889 Clear 11 1013 57 0 3.39 348.077 13:46 11.08.2019
3890 Clear 11 1012 57 0 3.07 342.067 13:26 11.08.2019
3891 Clear 11 1012 57 0 3.07 342.067 12:58 11.08.2019
3892 Clear 11 1012 57 0 3.07 342.067 12:38 11.08.2019
3893 Clear 14 1012 41 0 4.9 299.008 12:20 11.08.2019
3894 -273 0 0 0 0 0 11:40 11.08.2019
3895 Clear 14 1012 41 0 4.9 299.008 11:22 11.08.2019
3896 Clear 14 1012 41 0 4.9 299.008 10:56 11.08.2019
3897 Clear 14 1012 41 0 4.9 299.008 10:38 11.08.2019
3898 Clear 14 1012 41 0 4.9 299.008 10:19 11.08.2019
3899 Clear 14 1012 41 0 4.9 299.008 09:44 11.08.2019
3900 Clear 14 1012 41 0 4.9 299.008 09:26 11.08.2019
3901 Rain 14 1013 44 0 6.05 282.496 08:58 11.08.2019
3902 Rain 14 1013 44 0 6.05 282.496 08:39 11.08.2019
3903 Rain 14 1013 44 0 6.05 282.496 08:20 11.08.2019
3904 Rain 14 1013 44 0 6.05 282.496 07:32 11.08.2019
3905 Rain 14 1013 44 0 6.05 282.496 06:52 11.08.2019
3906 Rain 14 1013 44 0 6.05 282.496 06:31 11.08.2019
3907 Rain 9 1014 82 0 3.7 242.133 04:46 11.08.2019
3908 Rain 7 1012 87 0 2.83 328.068 02:53 11.08.2019
3909 Rain 7 1012 87 0 2.83 328.068 01:58 11.08.2019
3910 Rain 7 1012 87 0 2.83 328.068 01:32 11.08.2019
3911 Rain 7 1012 89 0 5.74 303.372 00:56 11.08.2019
3912 Rain 7 1012 89 0 5.74 303.372 00:36 11.08.2019
3913 Rain 10 1009 88 0 2.41 273.396 23:56 10.08.2019
3914 Rain 10 1009 88 0 2.41 273.396 23:37 10.08.2019
3915 Rain 10 1009 88 0 2.41 273.396 23:18 10.08.2019
3916 Rain 10 1009 88 0 2.41 273.396 22:38 10.08.2019
3917 Rain 10 1009 88 0 2.41 273.396 22:20 10.08.2019
3918 Rain 10 1009 88 0 2.41 273.396 21:41 10.08.2019
3919 Clouds 11 1008 78 0 1.99 28.661 21:22 10.08.2019
3920 Clouds 11 1008 78 0 1.99 28.661 21:22 10.08.2019
3921 Clouds 11 1007 80 0 2.08 16.211 20:59 10.08.2019
3922 Clouds 11 1007 80 0 2.08 16.211 20:59 10.08.2019
3923 Clouds 11 1007 80 0 2.08 16.211 20:40 10.08.2019
3924 Clouds 11 1007 80 0 2.08 16.211 20:20 10.08.2019
3925 Clouds 11 1007 80 0 2.08 16.211 19:54 10.08.2019
3926 Clouds 11 1007 80 0 2.08 16.211 19:36 10.08.2019
3927 Clouds 11 1007 80 0 2.08 16.211 19:18 10.08.2019
3928 Clouds 11 1007 80 0 2.08 16.211 18:38 10.08.2019
3929 Clouds 13 1006 66 0 3.27 355.322 18:20 10.08.2019
3930 Clouds 13 1006 66 0 3.27 355.322 17:40 10.08.2019
3931 Clouds 13 1006 66 0 3.27 355.322 17:21 10.08.2019
3932 Clouds 13 1006 66 0 3.27 355.322 16:43 10.08.2019
3933 Clouds 13 1006 66 0 3.27 355.322 16:25 10.08.2019
3934 Clouds 13 1006 66 0 3.27 355.322 15:51 10.08.2019
3935 Clouds 19 1005 47 0 1.47 197.879 15:23 10.08.2019
3936 Clouds 19 1005 47 0 1.47 197.879 14:44 10.08.2019
3937 Clouds 19 1005 47 0 1.47 197.879 14:21 10.08.2019
3938 Clouds 19 1005 47 0 1.47 197.879 13:42 10.08.2019
3939 Clouds 19 1004 43 0 3.6 173.351 13:21 10.08.2019
3940 Clouds 19 1004 43 0 3.6 173.351 12:57 10.08.2019
3941 Clouds 19 1004 43 0 3.6 173.351 12:57 10.08.2019
3942 Clouds 19 1004 43 0 3.6 173.351 12:39 10.08.2019
3943 Clouds 21 1004 33 0 3.07 167.117 12:20 10.08.2019
3944 Clouds 21 1004 33 0 3.07 167.117 11:42 10.08.2019
3945 Clouds 21 1004 33 0 3.07 167.117 11:23 10.08.2019
3946 Clouds 21 1004 33 0 3.07 167.117 10:58 10.08.2019
3947 Clouds 21 1004 33 0 3.07 167.117 10:37 10.08.2019
3948 Clouds 21 1004 33 0 3.07 167.117 10:19 10.08.2019
3949 Clouds 21 1004 33 0 3.07 167.117 09:43 10.08.2019
3950 Clear 21 1005 29 0 1.84 239.721 09:24 10.08.2019
3951 Clouds 21 1005 29 0 2.26 226.491 08:55 10.08.2019
3952 Clouds 21 1005 29 0 2.26 226.491 08:55 10.08.2019
3953 Clouds 21 1005 29 0 2.26 226.491 08:37 10.08.2019
3954 Clouds 21 1005 29 0 2.26 226.491 08:18 10.08.2019
3955 Clouds 21 1005 29 0 2.26 226.491 07:43 10.08.2019
3956 Clouds 21 1005 29 0 2.26 226.491 07:19 10.08.2019
3957 Clouds 21 1005 29 0 2.26 226.491 06:43 10.08.2019
3958 Clear 19 1007 39 0 0.76 175.995 05:44 10.08.2019
3959 Clear 19 1007 39 0 0.76 175.995 05:44 10.08.2019
3960 Clear 19 1007 39 0 0.76 175.995 05:18 10.08.2019
3961 Clear 19 1007 39 0 0.76 175.995 03:32 10.08.2019
3962 Clear 13 1009 62 0 1.1 91.769 02:32 10.08.2019
3963 Clear 13 1009 62 0 1.1 91.769 01:44 10.08.2019
3964 Clouds 13 1009 63 0 0.94 87.183 01:23 10.08.2019
3965 Clouds 13 1009 63 0 0.94 87.183 00:58 10.08.2019
3966 Clouds 13 1009 63 0 0.94 87.183 00:39 10.08.2019
3967 Clear 8 1008 78 0 0.32 35.348 00:18 10.08.2019
3968 Clear 8 1008 78 0 0.32 35.348 23:38 09.08.2019
3969 Clear 8 1008 78 0 0.32 35.348 23:20 09.08.2019
3970 Clear 8 1008 78 0 0.32 35.348 22:54 09.08.2019
3971 Clear 8 1008 78 0 0.32 35.348 22:36 09.08.2019
3972 Clear 8 1008 78 0 0.32 35.348 22:18 09.08.2019
3973 Clear 8 1008 78 0 0.32 35.348 21:39 09.08.2019
3974 Clear 8 1008 78 0 0.69 61.649 21:21 09.08.2019
3975 Clear 8 1008 78 0 0.69 61.649 20:56 09.08.2019
3976 Clear 8 1009 78 0 0.76 57.292 20:38 09.08.2019
3977 Clear 8 1009 78 0 0.76 57.292 20:18 09.08.2019
3978 Clear 8 1009 78 0 0.76 57.292 19:43 09.08.2019
3979 Clear 8 1009 78 0 0.76 57.292 19:22 09.08.2019
3980 Clear 8 1009 78 0 0.76 57.292 18:55 09.08.2019
3981 Clear 8 1009 78 0 0.76 57.292 18:36 09.08.2019
3982 Clear 10 1008 66 0 1.6 64.734 18:18 09.08.2019
3983 Clear 10 1008 66 0 1.6 64.734 17:42 09.08.2019
3984 Clear 10 1008 66 0 1.6 64.734 17:23 09.08.2019
3985 Clear 10 1008 66 0 1.6 64.734 16:54 09.08.2019
3986 Clear 10 1008 66 0 1.6 64.734 16:36 09.08.2019
3987 Clear 10 1008 66 0 1.6 64.734 16:18 09.08.2019
3988 Clear 10 1008 66 0 1.6 64.734 15:41 09.08.2019
3989 Clouds 16 1007 52 0 3.04 2.508 15:21 09.08.2019
3990 Clouds 16 1007 52 0 3.04 2.508 14:57 09.08.2019
3991 Clouds 16 1007 52 0 3.04 2.508 14:38 09.08.2019
3992 Clouds 16 1007 52 0 3.04 2.508 14:19 09.08.2019
3993 Clouds 16 1007 52 0 3.04 2.508 13:44 09.08.2019
3994 Clouds 16 1006 51 0 3.14 355.105 13:21 09.08.2019
3995 Clouds 16 1006 51 0 3.14 355.105 12:48 09.08.2019
3996 Clouds 16 1006 51 0 3.14 355.105 12:26 09.08.2019
3997 Clouds 20 1006 36 0 5.99 315.541 11:59 09.08.2019
3998 Clouds 20 1006 36 0 5.99 315.541 11:40 09.08.2019
3999 Clouds 20 1006 36 0 5.99 315.541 11:20 09.08.2019
4000 Clouds 20 1006 36 0 5.99 315.541 10:41 09.08.2019
4001 Clouds 20 1006 36 0 5.99 315.541 10:22 09.08.2019
4002 -273 0 0 0 0 0 09:59 09.08.2019
4003 Clouds 20 1006 36 0 5.99 315.541 09:37 09.08.2019
4004 Clear 19 1007 43 0 2.18 305.175 09:18 09.08.2019
4005 Clear 19 1007 44 0 2.35 304.204 08:44 09.08.2019
4006 Clear 19 1007 44 0 2.35 304.204 08:25 09.08.2019
4007 Clear 19 1007 44 0 2.35 304.204 07:55 09.08.2019
4008 Clear 19 1007 44 0 2.35 304.204 07:55 09.08.2019
4009 Clear 19 1007 44 0 2.35 304.204 07:24 09.08.2019
4010 Clear 19 1007 44 0 2.35 304.204 06:59 09.08.2019
4011 Clear 19 1007 44 0 2.35 304.204 06:38 09.08.2019
4012 Clear 15 1008 59 0 2.36 26.891 06:20 09.08.2019
4013 Clear 15 1008 59 0 2.36 26.891 04:57 09.08.2019
4014 Clouds 11 1009 77 0 1.92 359.881 02:26 09.08.2019
4015 Clear 11 1009 79 0 1.89 354.591 00:58 09.08.2019
4016 Clear 11 1009 79 0 1.89 354.591 00:40 09.08.2019
4017 Clear 7 1008 87 0 2.05 19.609 00:22 09.08.2019
4018 Clear 7 1008 87 0 2.05 19.609 23:55 08.08.2019
4019 Clear 7 1008 87 0 2.05 19.609 23:36 08.08.2019
4020 Clear 7 1008 87 0 2.05 19.609 23:18 08.08.2019
4021 Clear 7 1008 87 0 2.05 19.609 22:37 08.08.2019
4022 Clear 7 1008 87 0 2.05 19.609 22:19 08.08.2019
4023 Clear 7 1008 87 0 2.05 19.609 21:59 08.08.2019
4024 Clear 7 1008 87 0 2.05 19.609 21:59 08.08.2019
4025 Clear 7 1008 87 0 2.05 19.609 21:41 08.08.2019
4026 Clouds 8 1008 78 0 1.69 20.381 21:22 08.08.2019
4027 Clouds 8 1008 78 0 1.69 20.381 20:56 08.08.2019
4028 Clouds 8 1008 78 0 1.54 16.027 20:38 08.08.2019
4029 Clouds 8 1008 78 0 1.54 16.027 20:19 08.08.2019
4030 Clouds 8 1008 78 0 1.54 16.027 19:44 08.08.2019
4031 Clouds 8 1008 78 0 1.54 16.027 19:22 08.08.2019
4032 Clouds 8 1008 78 0 1.54 16.027 18:44 08.08.2019
4033 Clouds 9 1007 72 0 1.22 3 18:24 08.08.2019
4034 Clouds 9 1007 72 0 1.22 3 17:58 08.08.2019
4035 Clouds 9 1007 72 0 1.22 3 17:40 08.08.2019
4036 Clouds 9 1007 72 0 1.22 3 17:22 08.08.2019
4037 Clouds 9 1007 72 0 1.22 3 16:55 08.08.2019
4038 Clouds 9 1007 72 0 1.22 3 16:37 08.08.2019
4039 Clouds 9 1007 72 0 1.22 3 16:37 08.08.2019
4040 -273 0 0 0 0 0 16:19 08.08.2019
4041 Clouds 9 1007 72 0 1.22 3 15:41 08.08.2019
4042 Clouds 14 1006 60 0 1.79 356.194 15:23 08.08.2019
4043 Clouds 14 1006 60 0 1.79 356.194 14:56 08.08.2019
4044 Clouds 14 1006 60 0 1.79 356.194 14:37 08.08.2019
4045 Clouds 14 1006 60 0 1.79 356.194 14:18 08.08.2019
4046 Clouds 14 1006 60 0 1.79 356.194 13:39 08.08.2019
4047 Clouds 14 1006 58 0 2.23 2.573 13:20 08.08.2019
4048 Clouds 14 1006 58 0 2.23 2.573 12:40 08.08.2019
4049 Clouds 17 1005 42 0 4.52 309.428 12:21 08.08.2019
4050 Clouds 17 1005 42 0 4.52 309.428 11:59 08.08.2019
4051 Clouds 17 1005 42 0 4.52 309.428 11:39 08.08.2019
4052 Clouds 17 1005 42 0 4.52 309.428 11:21 08.08.2019
4053 Clouds 17 1005 42 0 4.52 309.428 10:41 08.08.2019
4054 Clouds 17 1005 42 0 4.52 309.428 10:21 08.08.2019
4055 Clouds 17 1005 42 0 4.52 309.428 09:52 08.08.2019
4056 Clouds 17 1005 42 0 4.52 309.428 09:31 08.08.2019
4057 Clear 18 1005 38 0 5.07 290.531 08:57 08.08.2019
4058 Clouds 18 1005 36 0 4.39 279.801 08:39 08.08.2019
4059 Clouds 18 1005 36 0 4.39 279.801 08:19 08.08.2019
4060 Clouds 18 1005 36 0 4.39 279.801 07:41 08.08.2019
4061 Clouds 18 1005 36 0 4.39 279.801 07:20 08.08.2019
4062 Clouds 18 1005 36 0 4.39 279.801 06:49 08.08.2019
4063 Clouds 18 1005 36 0 4.39 279.801 06:30 08.08.2019
4064 Clouds 16 1007 42 0 1.22 274.6 05:53 08.08.2019
4065 Clouds 16 1007 42 0 1.22 274.6 05:18 08.08.2019
4066 Clouds 16 1007 42 0 1.22 274.6 03:53 08.08.2019
4067 Clouds 12 1008 62 0 0.81 19.534 02:51 08.08.2019
4068 Clouds 12 1008 62 0 0.81 19.534 01:38 08.08.2019
4069 Clouds 13 1008 62 0 0.01 26.565 00:26 08.08.2019
4070 Clouds 8 1007 72 0 0.56 12.451 23:56 07.08.2019
4071 Clouds 8 1007 72 0 0.56 12.451 23:21 07.08.2019
4072 Clouds 8 1007 72 0 0.56 12.451 22:59 07.08.2019
4073 Clouds 8 1007 72 0 0.56 12.451 22:40 07.08.2019
4074 Clouds 8 1007 72 0 0.56 12.451 22:20 07.08.2019
4075 Clouds 8 1007 72 0 0.56 12.451 21:56 07.08.2019
4076 Clouds 8 1007 72 0 0.56 12.451 21:37 07.08.2019
4077 Clouds 10 1008 64 0 1.32 328.441 21:19 07.08.2019
4078 Clouds 10 1008 64 0 1.51 5.918 20:43 07.08.2019
4079 Clouds 10 1008 64 0 1.51 5.918 20:24 07.08.2019
4080 Clouds 10 1008 64 0 1.51 5.918 19:58 07.08.2019
4081 Clouds 10 1008 64 0 1.51 5.918 19:39 07.08.2019
4082 Clouds 10 1008 64 0 1.51 5.918 19:21 07.08.2019
4083 Clouds 10 1008 64 0 1.51 5.918 18:44 07.08.2019
4084 Clear 10 1008 63 0 1.61 15.465 18:22 07.08.2019
4085 Clear 10 1008 63 0 1.61 15.465 17:59 07.08.2019
4086 Clear 10 1008 63 0 1.61 15.465 17:40 07.08.2019
4087 Clear 10 1008 63 0 1.61 15.465 17:21 07.08.2019
4088 Clear 10 1008 63 0 1.61 15.465 17:21 07.08.2019
4089 Clear 10 1008 63 0 1.61 15.465 16:57 07.08.2019
4090 Clear 10 1008 63 0 1.61 15.465 16:39 07.08.2019
4091 Clear 10 1008 63 0 1.61 15.465 16:21 07.08.2019
4092 Clear 10 1008 63 0 1.61 15.465 15:57 07.08.2019
4093 Clear 10 1008 63 0 1.61 15.465 15:38 07.08.2019
4094 Clouds 16 1007 49 0 3.24 292.836 15:19 07.08.2019
4095 Clouds 16 1007 49 0 3.24 292.836 14:49 07.08.2019
4096 Clouds 16 1007 49 0 3.24 292.836 14:28 07.08.2019
4097 Clouds 16 1007 49 0 3.24 292.836 13:55 07.08.2019
4098 Clouds 16 1007 49 0 3.24 292.836 13:36 07.08.2019
4099 Clouds 16 1006 47 0 3.76 299.875 13:18 07.08.2019
4100 Clouds 16 1006 47 0 3.76 299.875 12:55 07.08.2019
4101 Clouds 16 1006 47 0 3.76 299.875 12:36 07.08.2019
4102 Clouds 19 1004 45 0 5.06 256.082 12:18 07.08.2019
4103 Clouds 19 1004 45 0 5.06 256.082 11:42 07.08.2019
4104 Clouds 19 1004 45 0 5.06 256.082 11:20 07.08.2019
4105 Clouds 19 1004 45 0 5.06 256.082 10:56 07.08.2019
4106 Clouds 19 1004 45 0 5.06 256.082 10:38 07.08.2019
4107 Clouds 19 1004 45 0 5.06 256.082 10:18 07.08.2019
4108 Clouds 19 1004 45 0 5.06 256.082 10:18 07.08.2019
4109 Clouds 19 1004 45 0 5.06 256.082 09:44 07.08.2019
4110 Clouds 20 1005 42 0 5.99 221.627 09:22 07.08.2019
4111 Clouds 20 1005 42 0 5.99 221.627 08:56 07.08.2019
4112 Rain 18 1005 56 0 5.46 228.198 08:38 07.08.2019
4113 Rain 18 1005 56 0 5.46 228.198 08:20 07.08.2019
4114 Rain 18 1005 56 0 5.46 228.198 07:39 07.08.2019
4115 Rain 18 1005 56 0 5.46 228.198 07:20 07.08.2019
4116 Rain 18 1005 56 0 5.46 228.198 06:29 07.08.2019
4117 Clear 17 1007 56 0 3.79 181.256 05:54 07.08.2019
4118 Clear 17 1007 56 0 3.79 181.256 04:57 07.08.2019
4119 Rain 13 1009 73 0 1.48 138.309 03:21 07.08.2019
4120 Rain 13 1009 73 0 1.48 138.309 02:49 07.08.2019
4121 Rain 13 1009 73 0 1.48 138.309 01:58 07.08.2019
4122 Rain 13 1009 73 0 1.48 138.309 01:39 07.08.2019
4123 Rain 14 1009 71 0 1.47 132.389 00:43 07.08.2019
4124 Clouds 10 1008 87 0 1.38 103.703 00:22 07.08.2019
4125 Clouds 10 1008 87 0 1.38 103.703 23:41 06.08.2019
4126 Clouds 10 1008 87 0 1.38 103.703 23:21 06.08.2019
4127 Clouds 10 1008 87 0 1.38 103.703 22:56 06.08.2019
4128 Clouds 10 1008 87 0 1.38 103.703 22:37 06.08.2019
4129 Clouds 10 1008 87 0 1.38 103.703 22:18 06.08.2019
4130 Clouds 10 1008 87 0 1.38 103.703 21:42 06.08.2019
4131 Rain 10 1009 92 0 2.41 59.692 21:24 06.08.2019
4132 Rain 10 1009 92 0 2.41 59.692 20:57 06.08.2019
4133 Rain 9 1009 89 0 1.79 77.516 20:39 06.08.2019
4134 Rain 9 1009 89 0 1.79 77.516 20:21 06.08.2019
4135 Rain 9 1009 89 0 1.79 77.516 19:43 06.08.2019
4136 Rain 9 1009 89 0 1.79 77.516 19:25 06.08.2019
4137 Rain 9 1009 89 0 1.79 77.516 18:46 06.08.2019
4138 Rain 9 1009 89 0 1.79 77.516 18:27 06.08.2019
4139 Rain 11 1009 86 0 2.96 31.017 17:59 06.08.2019
4140 Rain 11 1009 86 0 2.96 31.017 17:40 06.08.2019
4141 Rain 11 1009 86 0 2.96 31.017 17:21 06.08.2019
4142 Rain 11 1009 86 0 2.96 31.017 16:59 06.08.2019
4143 Rain 11 1009 86 0 2.96 31.017 16:39 06.08.2019
4144 Rain 11 1009 86 0 2.96 31.017 16:20 06.08.2019
4145 Rain 11 1009 86 0 2.96 31.017 15:57 06.08.2019
4146 Rain 11 1009 86 0 2.96 31.017 15:57 06.08.2019
4147 Rain 11 1009 86 0 2.96 31.017 15:38 06.08.2019
4148 Rain 15 1007 68 0 2.44 98.346 15:19 06.08.2019
4149 Rain 15 1007 68 0 2.44 98.346 14:44 06.08.2019
4150 Rain 15 1007 68 0 2.44 98.346 14:25 06.08.2019
4151 Rain 15 1007 68 0 2.44 98.346 13:58 06.08.2019
4152 Rain 15 1007 68 0 2.44 98.346 13:39 06.08.2019
4153 Clouds 17 1006 56 0 2.41 109.993 13:20 06.08.2019
4154 Clouds 17 1006 56 0 2.41 109.993 12:57 06.08.2019
4155 Clouds 17 1006 56 0 2.41 109.993 12:38 06.08.2019
4156 Clouds 20 1004 41 0 4.45 203.983 12:20 06.08.2019
4157 Clouds 20 1004 41 0 4.45 203.983 11:41 06.08.2019
4158 Clouds 20 1004 41 0 4.45 203.983 11:19 06.08.2019
4159 -273 0 0 0 0 0 10:42 06.08.2019
4160 Clouds 20 1004 41 0 4.45 203.983 10:23 06.08.2019
4161 Clouds 20 1004 41 0 4.45 203.983 09:57 06.08.2019
4162 Clouds 20 1004 41 0 4.45 203.983 09:37 06.08.2019
4163 Clouds 21 1005 37 0 3.3 196.4 09:19 06.08.2019
4164 Clear 21 1005 37 0 3.45 198.577 08:41 06.08.2019
4165 Clear 21 1005 37 0 3.45 198.577 08:23 06.08.2019
4166 Clear 21 1005 37 0 3.45 198.577 07:36 06.08.2019
4167 Clear 21 1005 37 0 3.45 198.577 06:51 06.08.2019
4168 Clear 21 1005 37 0 3.45 198.577 06:32 06.08.2019
4169 Clear 19 1007 41 0 1.78 166.097 05:48 06.08.2019
4170 Clear 19 1007 41 0 1.78 166.097 03:44 06.08.2019
4171 Clear 14 1009 61 0 1.51 83.973 01:51 06.08.2019
4172 Clear 14 1010 60 0 1.53 79.445 01:22 06.08.2019
4173 Clear 14 1010 60 0 1.53 79.445 00:29 06.08.2019
4174 Clear 9 1009 73 0 1.68 61.863 23:44 05.08.2019
4175 Clear 9 1009 73 0 1.68 61.863 23:18 05.08.2019
4176 Clear 9 1009 73 0 1.68 61.863 22:40 05.08.2019
4177 Clear 9 1009 73 0 1.68 61.863 22:22 05.08.2019
4178 Clear 9 1009 73 0 1.68 61.863 21:45 05.08.2019
4179 Clear 10 1009 75 0 2.08 46.265 21:22 05.08.2019
4180 Clear 10 1010 77 0 1.99 41.224 21:00 05.08.2019
4181 Clear 10 1010 77 0 1.99 41.224 20:41 05.08.2019
4182 Clear 10 1010 77 0 1.99 41.224 20:23 05.08.2019
4183 Clear 10 1010 77 0 1.99 41.224 19:59 05.08.2019
4184 Clear 10 1010 77 0 1.99 41.224 19:39 05.08.2019
4185 Clear 10 1010 77 0 1.99 41.224 19:20 05.08.2019
4186 Clear 10 1010 77 0 1.99 41.224 18:43 05.08.2019
4187 Clear 12 1009 76 0 2.71 44.716 18:22 05.08.2019
4188 Clear 12 1009 76 0 2.71 44.716 17:57 05.08.2019
4189 Clear 12 1009 76 0 2.71 44.716 17:39 05.08.2019
4190 Clear 12 1009 76 0 2.71 44.716 17:20 05.08.2019
4191 Clear 12 1009 76 0 2.71 44.716 16:43 05.08.2019
4192 Clear 12 1009 76 0 2.71 44.716 16:23 05.08.2019
4193 Clear 12 1009 76 0 2.71 44.716 15:43 05.08.2019
4194 Clear 17 1007 49 0 3.14 8.29 15:21 05.08.2019
4195 Clear 17 1007 49 0 3.14 8.29 14:43 05.08.2019
4196 Clear 17 1007 49 0 3.14 8.29 14:23 05.08.2019
4197 Clear 17 1007 49 0 3.14 8.29 13:57 05.08.2019
4198 Clear 17 1007 49 0 3.14 8.29 13:39 05.08.2019
4199 Clear 17 1007 45 0 3.19 357.714 13:18 05.08.2019
4200 Clear 17 1007 45 0 3.19 357.714 12:42 05.08.2019
4201 Clear 21 1007 27 0 4.08 318.592 12:19 05.08.2019
4202 Clear 21 1007 27 0 4.08 318.592 11:44 05.08.2019
4203 Clear 21 1007 27 0 4.08 318.592 11:25 05.08.2019
4204 Clear 21 1007 27 0 4.08 318.592 10:49 05.08.2019
4205 Clear 21 1007 27 0 4.08 318.592 10:31 05.08.2019
4206 Clear 21 1007 27 0 4.08 318.592 10:31 05.08.2019
4207 Clear 21 1007 27 0 4.08 318.592 09:57 05.08.2019
4208 Clear 21 1007 27 0 4.08 318.592 09:57 05.08.2019
4209 Clear 21 1007 27 0 4.08 318.592 09:38 05.08.2019
4210 Clear 20 1008 29 0 2.02 293.452 09:20 05.08.2019
4211 Clear 20 1009 29 0 1.74 289.634 08:44 05.08.2019
4212 Clear 20 1009 29 0 1.74 289.634 08:25 05.08.2019
4213 Clear 20 1009 29 0 1.74 289.634 07:49 05.08.2019
4214 Clear 20 1009 29 0 1.74 289.634 07:30 05.08.2019
4215 Clear 20 1009 29 0 1.74 289.634 06:57 05.08.2019
4216 Clear 17 1011 44 0 0.41 65.981 06:24 05.08.2019
4217 Clear 17 1011 44 0 0.41 65.981 05:31 05.08.2019
4218 Clear 17 1011 44 0 0.41 65.981 04:51 05.08.2019
4219 Clear 17 1011 44 0 0.41 65.981 03:50 05.08.2019
4220 Clouds 12 1011 66 0 1.91 36.33 02:46 05.08.2019
4221 Clouds 12 1011 66 0 1.91 36.33 01:55 05.08.2019
4222 Clouds 12 1011 67 0 1.88 37.712 01:22 05.08.2019
4223 Clouds 12 1011 67 0 1.88 37.712 00:40 05.08.2019
4224 Clear 8 1011 79 0 1.63 31.935 00:19 05.08.2019
4225 Clear 8 1011 79 0 1.63 31.935 23:43 04.08.2019
4226 Clear 8 1011 79 0 1.63 31.935 23:23 04.08.2019
4227 Clear 8 1011 79 0 1.63 31.935 23:23 04.08.2019
4228 Clear 8 1011 79 0 1.63 31.935 22:57 04.08.2019
4229 Clear 8 1011 79 0 1.63 31.935 22:38 04.08.2019
4230 Clear 8 1011 79 0 1.63 31.935 22:19 04.08.2019
4231 Clear 8 1011 79 0 1.63 31.935 21:45 04.08.2019
4232 Clear 8 1011 79 0 1.63 31.935 21:45 04.08.2019
4233 Clear 9 1011 75 0 1.29 20.608 21:24 04.08.2019
4234 Clear 9 1010 80 0 1.2 29.311 20:58 04.08.2019
4235 Clear 9 1010 80 0 1.2 29.311 20:40 04.08.2019
4236 Clear 9 1010 80 0 1.2 29.311 20:18 04.08.2019
4237 Clear 9 1010 80 0 1.2 29.311 19:48 04.08.2019
4238 Clear 9 1010 80 0 1.2 29.311 19:27 04.08.2019
4239 Clear 9 1010 80 0 1.2 29.311 18:57 04.08.2019
4240 Clear 9 1010 80 0 1.2 29.311 18:39 04.08.2019
4241 Clear 11 1010 68 0 2.58 38.462 18:19 04.08.2019
4242 Clear 11 1010 68 0 2.58 38.462 17:42 04.08.2019
4243 Clear 11 1010 68 0 2.58 38.462 17:21 04.08.2019
4244 Clear 11 1010 68 0 2.58 38.462 16:44 04.08.2019
4245 Clear 11 1010 68 0 2.58 38.462 16:26 04.08.2019
4246 Clear 11 1010 68 0 2.58 38.462 15:55 04.08.2019
4247 Clear 11 1010 68 0 2.58 38.462 15:37 04.08.2019
4248 Clear 11 1010 68 0 2.58 38.462 15:37 04.08.2019
4249 Clear 11 1010 68 0 2.58 38.462 15:37 04.08.2019
4250 Clouds 16 1008 59 0 2.93 31.608 15:18 04.08.2019
4251 Clouds 16 1008 59 0 2.93 31.608 14:42 04.08.2019
4252 Clouds 16 1008 59 0 2.93 31.608 14:20 04.08.2019
4253 Clouds 16 1008 59 0 2.93 31.608 13:43 04.08.2019
4254 Clouds 16 1008 58 0 3.06 28.753 13:23 04.08.2019
4255 Clouds 16 1008 58 0 3.06 28.753 12:47 04.08.2019
4256 Clouds 16 1008 58 0 3.06 28.753 12:28 04.08.2019
4257 Clear 19 1008 40 0 4.19 6.799 11:58 04.08.2019
4258 Clear 19 1008 40 0 4.19 6.799 11:39 04.08.2019
4259 Clear 19 1008 40 0 4.19 6.799 11:21 04.08.2019
4260 Clear 19 1008 40 0 4.19 6.799 10:41 04.08.2019
4261 Clear 19 1008 40 0 4.19 6.799 10:21 04.08.2019
4262 Clear 19 1008 40 0 4.19 6.799 09:45 04.08.2019
4263 Clear 19 1009 36 0 3.89 10.429 09:25 04.08.2019
4264 Clear 19 1009 39 0 4.16 11.353 08:53 04.08.2019
4265 Clear 19 1009 39 0 4.16 11.353 08:32 04.08.2019
4266 Clear 19 1009 39 0 4.16 11.353 07:53 04.08.2019
4267 Clear 19 1009 39 0 4.16 11.353 07:22 04.08.2019
4268 Clear 19 1009 39 0 4.16 11.353 06:28 04.08.2019
4269 Clear 16 1011 46 0 4.68 26.625 05:43 04.08.2019
4270 Clear 12 1012 71 0 1.93 17.721 02:47 04.08.2019
4271 Clear 12 1012 71 0 1.93 17.721 01:51 04.08.2019
4272 Clear 12 1012 71 0 1.74 13.964 01:27 04.08.2019
4273 Clear 12 1012 71 0 1.74 13.964 00:41 04.08.2019
4274 Clear 8 1011 80 0 1.78 27.947 00:22 04.08.2019
4275 Clear 8 1011 80 0 1.78 27.947 23:42 03.08.2019
4276 Clear 8 1011 80 0 1.78 27.947 23:19 03.08.2019
4277 Clear 8 1011 80 0 1.78 27.947 22:55 03.08.2019
4278 Clear 8 1011 80 0 1.78 27.947 22:37 03.08.2019
4279 Clear 8 1011 80 0 1.78 27.947 22:18 03.08.2019
4280 Clear 8 1011 80 0 1.78 27.947 21:38 03.08.2019
4281 Clear 9 1011 73 0 1.77 14.099 21:19 03.08.2019
4282 Clear 9 1011 73 0 1.52 19.816 20:43 03.08.2019
4283 Clear 9 1011 73 0 1.52 19.816 20:23 03.08.2019
4284 Clear 9 1011 73 0 1.52 19.816 19:43 03.08.2019
4285 Clear 9 1011 73 0 1.52 19.816 19:24 03.08.2019
4286 Clear 9 1011 73 0 1.52 19.816 18:56 03.08.2019
4287 Clear 9 1011 73 0 1.52 19.816 18:28 03.08.2019
4288 Clear 11 1010 69 0 2.15 356.961 17:50 03.08.2019
4289 Clear 11 1010 69 0 2.15 356.961 17:22 03.08.2019
4290 Clear 11 1010 69 0 2.15 356.961 16:58 03.08.2019
4291 Clear 11 1010 69 0 2.15 356.961 16:38 03.08.2019
4292 Clear 11 1010 69 0 2.15 356.961 16:19 03.08.2019
4293 Clear 11 1010 69 0 2.15 356.961 15:45 03.08.2019
4294 Clear 16 1008 59 0 3.82 21.603 15:23 03.08.2019
4295 Clear 16 1008 59 0 3.82 21.603 14:42 03.08.2019
4296 Clear 16 1008 59 0 3.82 21.603 14:21 03.08.2019
4297 Clear 16 1008 59 0 3.82 21.603 13:52 03.08.2019
4298 Clear 16 1008 59 0 3.82 21.603 13:52 03.08.2019
4299 Clouds 16 1008 61 0 3.36 18.979 13:25 03.08.2019
4300 Clouds 16 1008 61 0 3.36 18.979 12:58 03.08.2019
4301 Clouds 16 1008 61 0 3.36 18.979 12:40 03.08.2019
4302 Rain 18 1007 48 0 5.84 17.638 12:21 03.08.2019
4303 Rain 18 1007 48 0 5.84 17.638 11:49 03.08.2019
4304 Rain 18 1007 48 0 5.84 17.638 11:28 03.08.2019
4305 Rain 18 1007 48 0 5.84 17.638 10:42 03.08.2019
4306 Rain 18 1007 48 0 5.84 17.638 10:24 03.08.2019
4307 Rain 18 1007 48 0 5.84 17.638 09:44 03.08.2019
4308 Rain 18 1007 51 0 4.29 305.204 09:23 03.08.2019
4309 Rain 18 1006 52 0 3.77 297.102 08:54 03.08.2019
4310 Rain 18 1006 52 0 3.77 297.102 07:56 03.08.2019
4311 Rain 18 1006 52 0 3.77 297.102 07:36 03.08.2019
4312 Rain 18 1006 52 0 3.77 297.102 06:39 03.08.2019
4313 Rain 16 1007 60 0 2.19 204.344 04:52 03.08.2019
4314 Rain 12 1007 70 0 0.31 180.368 02:39 03.08.2019
4315 Rain 12 1007 70 0 0.31 180.368 01:50 03.08.2019
4316 Rain 12 1008 73 0 0.95 195.298 00:49 03.08.2019
4317 Clouds 8 1007 88 0 1.21 132.656 23:59 02.08.2019
4318 Clouds 8 1007 88 0 1.21 132.656 23:40 02.08.2019
4319 Clouds 8 1007 88 0 1.21 132.656 23:19 02.08.2019
4320 Clouds 8 1007 88 0 1.21 132.656 22:57 02.08.2019
4321 Clouds 8 1007 88 0 1.21 132.656 22:38 02.08.2019
4322 Clouds 8 1007 88 0 1.21 132.656 22:19 02.08.2019
4323 Clouds 8 1007 88 0 1.21 132.656 21:43 02.08.2019
4324 Clouds 9 1007 79 0 1.81 144.275 21:25 02.08.2019
4325 Clouds 10 1006 67 0 1.46 157.716 20:59 02.08.2019
4326 Clouds 10 1006 67 0 1.46 157.716 20:40 02.08.2019
4327 Clouds 10 1006 67 0 1.46 157.716 20:20 02.08.2019
4328 Clouds 10 1006 67 0 1.46 157.716 19:46 02.08.2019
4329 Clouds 10 1006 67 0 1.46 157.716 19:26 02.08.2019
4330 Clouds 10 1006 67 0 1.46 157.716 18:45 02.08.2019
4331 Clouds 10 1006 67 0 1.46 157.716 18:26 02.08.2019
4332 Clouds 11 1007 62 0 1.27 127.323 17:48 02.08.2019
4333 Clouds 11 1007 62 0 1.27 127.323 17:25 02.08.2019
4334 Clouds 11 1007 62 0 1.27 127.323 16:58 02.08.2019
4335 Clouds 11 1007 62 0 1.27 127.323 16:38 02.08.2019
4336 Clouds 11 1007 62 0 1.27 127.323 16:19 02.08.2019
4337 Clouds 11 1007 62 0 1.27 127.323 15:39 02.08.2019
4338 Clouds 16 1005 48 0 5.01 190.799 15:19 02.08.2019
4339 Clouds 16 1005 48 0 5.01 190.799 14:46 02.08.2019
4340 Clouds 16 1005 48 0 5.01 190.799 14:19 02.08.2019
4341 Clouds 16 1005 48 0 5.01 190.799 13:49 02.08.2019
4342 Clouds 17 1005 45 0 5.37 186.133 13:27 02.08.2019
4343 Clouds 17 1005 45 0 5.37 186.133 12:46 02.08.2019
4344 Rain 19 1005 38 0 5.59 171.742 12:23 02.08.2019
4345 Rain 19 1005 38 0 5.59 171.742 11:55 02.08.2019
4346 Rain 19 1005 38 0 5.59 171.742 11:37 02.08.2019
4347 Rain 19 1005 38 0 5.59 171.742 11:18 02.08.2019
4348 Rain 19 1005 38 0 5.59 171.742 10:41 02.08.2019
4349 Rain 19 1005 38 0 5.59 171.742 10:23 02.08.2019
4350 Rain 19 1005 38 0 5.59 171.742 09:52 02.08.2019
4351 Rain 19 1005 38 0 5.59 171.742 09:26 02.08.2019
4352 Rain 15 1005 56 0 7.67 174.381 08:50 02.08.2019
4353 Rain 15 1005 56 0 7.67 174.381 08:23 02.08.2019
4354 Rain 15 1005 56 0 7.67 174.381 07:51 02.08.2019
4355 Rain 15 1005 56 0 7.67 174.381 07:31 02.08.2019
4356 Rain 15 1005 56 0 7.67 174.381 06:51 02.08.2019
4357 Clouds 18 1007 44 0 6 182.589 06:24 02.08.2019
4358 Clouds 18 1007 44 0 6 182.589 05:26 02.08.2019
4359 Clouds 18 1007 44 0 6 182.589 03:29 02.08.2019
4360 Clouds 13 1008 63 0 1.61 122.438 02:33 02.08.2019
4361 Clouds 13 1008 62 0 1.71 135.878 00:41 02.08.2019
4362 Clouds 9 1008 73 0 1.93 136.427 23:56 01.08.2019
4363 Clouds 9 1008 73 0 1.93 136.427 23:38 01.08.2019
4364 Clouds 9 1008 73 0 1.93 136.427 23:18 01.08.2019
4365 Clouds 9 1008 73 0 1.93 136.427 22:40 01.08.2019
4366 Clouds 9 1008 73 0 1.93 136.427 22:21 01.08.2019
4367 Clouds 9 1008 73 0 1.93 136.427 21:44 01.08.2019
4368 Clouds 10 1008 76 0 1.48 109.656 21:24 01.08.2019
4369 Clouds 9 1008 79 0 1.61 113.049 20:59 01.08.2019
4370 Clouds 9 1008 79 0 1.61 113.049 20:40 01.08.2019
4371 Clouds 9 1008 79 0 1.61 113.049 20:21 01.08.2019
4372 Clouds 9 1008 79 0 1.61 113.049 19:42 01.08.2019
4373 Clouds 9 1008 79 0 1.61 113.049 19:20 01.08.2019
4374 Clouds 9 1008 79 0 1.61 113.049 18:44 01.08.2019
4375 Rain 11 1008 75 0 2.81 143.318 18:25 01.08.2019
4376 Rain 11 1008 75 0 2.81 143.318 17:55 01.08.2019
4377 Rain 11 1008 75 0 2.81 143.318 17:36 01.08.2019
4378 Rain 11 1008 75 0 2.81 143.318 17:18 01.08.2019
4379 Rain 11 1008 75 0 2.81 143.318 16:44 01.08.2019
4380 Rain 11 1008 75 0 2.81 143.318 16:21 01.08.2019
4381 Rain 11 1008 75 0 2.81 143.318 15:41 01.08.2019
4382 Rain 15 1006 64 0 0.97 103.034 15:20 01.08.2019
4383 Rain 15 1006 64 0 0.97 103.034 14:44 01.08.2019
4384 Rain 15 1006 64 0 0.97 103.034 14:21 01.08.2019
4385 Rain 15 1006 64 0 0.97 103.034 13:58 01.08.2019
4386 Rain 15 1006 64 0 0.97 103.034 13:40 01.08.2019
4387 Rain 16 1006 60 0 1.58 127.726 13:21 01.08.2019
4388 Rain 16 1006 60 0 1.58 127.726 12:49 01.08.2019
4389 Rain 16 1006 60 0 1.58 127.726 12:28 01.08.2019
4390 Clouds 19 1005 40 0 5.58 191.251 11:44 01.08.2019
4391 Clouds 19 1005 40 0 5.58 191.251 11:26 01.08.2019
4392 Clouds 19 1005 40 0 5.58 191.251 10:59 01.08.2019
4393 Clouds 19 1005 40 0 5.58 191.251 10:40 01.08.2019
4394 Clouds 19 1005 40 0 5.58 191.251 10:22 01.08.2019
4395 Clouds 19 1005 40 0 5.58 191.251 09:47 01.08.2019
4396 Clouds 20 1006 37 0 7.03 220.289 09:23 01.08.2019
4397 Clouds 20 1006 37 0 6.46 222.944 08:49 01.08.2019
4398 Clouds 20 1006 37 0 6.46 222.944 08:21 01.08.2019
4399 Clouds 20 1006 37 0 6.46 222.944 07:52 01.08.2019
4400 Clouds 20 1006 37 0 6.46 222.944 07:29 01.08.2019
4401 Clouds 20 1006 37 0 6.46 222.944 06:49 01.08.2019
4402 Clouds 20 1006 37 0 6.46 222.944 06:29 01.08.2019
4403 Clouds 18 1008 37 0 4.57 168.604 05:31 01.08.2019
4404 Clouds 14 1009 49 0 3.44 83.728 02:36 01.08.2019
4405 Clouds 14 1009 53 0 2.09 80.794 00:55 01.08.2019
4406 Clouds 14 1009 53 0 2.09 80.794 00:27 01.08.2019
4407 Clouds 12 1008 48 0 2.11 52.619 23:57 31.07.2019
4408 Clouds 12 1008 48 0 2.11 52.619 23:39 31.07.2019
4409 Clouds 12 1008 48 0 2.11 52.619 23:19 31.07.2019
4410 Clouds 12 1008 48 0 2.11 52.619 22:44 31.07.2019
4411 Clouds 12 1008 48 0 2.11 52.619 22:24 31.07.2019
4412 Clouds 12 1008 48 0 2.11 52.619 21:41 31.07.2019
4413 Clouds 12 1008 51 0 1.87 51.705 21:22 31.07.2019
4414 Clouds 12 1008 49 0 2.56 43.34 20:49 31.07.2019
4415 Clouds 12 1008 49 0 2.56 43.34 20:24 31.07.2019
4416 Clouds 12 1008 49 0 2.56 43.34 19:49 31.07.2019
4417 Clouds 12 1008 49 0 2.56 43.34 19:31 31.07.2019
4418 Clouds 12 1008 49 0 2.56 43.34 18:58 31.07.2019
4419 Clouds 12 1008 49 0 2.56 43.34 18:37 31.07.2019
4420 Clouds 13 1008 47 0 2.62 43.101 18:18 31.07.2019
4421 Clouds 13 1008 47 0 2.62 43.101 17:44 31.07.2019
4422 Clouds 13 1008 47 0 2.62 43.101 17:20 31.07.2019
4423 Clouds 13 1008 47 0 2.62 43.101 16:54 31.07.2019
4424 Clouds 13 1008 47 0 2.62 43.101 16:27 31.07.2019
4425 Clouds 13 1008 47 0 2.62 43.101 15:58 31.07.2019
4426 Clouds 13 1008 47 0 2.62 43.101 15:38 31.07.2019
4427 Clouds 13 1008 47 0 2.62 43.101 15:38 31.07.2019
4428 Clouds 18 1006 49 0 0.21 155.113 15:20 31.07.2019
4429 Clouds 18 1006 49 0 0.21 155.113 14:42 31.07.2019
4430 Clouds 18 1006 49 0 0.21 155.113 14:20 31.07.2019
4431 Clouds 18 1006 49 0 0.21 155.113 13:55 31.07.2019
4432 Clouds 18 1006 49 0 0.21 155.113 13:37 31.07.2019
4433 Clouds 18 1006 50 0 0.09 282.947 13:18 31.07.2019
4434 Clouds 18 1006 50 0 0.09 282.947 12:40 31.07.2019
4435 Clouds 21 1006 26 0 1.7 242.998 12:22 31.07.2019
4436 Clouds 21 1006 26 0 1.7 242.998 11:39 31.07.2019
4437 Clouds 21 1006 26 0 1.7 242.998 11:21 31.07.2019
4438 Clouds 21 1006 26 0 1.7 242.998 10:55 31.07.2019
4439 Clouds 21 1006 26 0 1.7 242.998 10:37 31.07.2019
4440 Clouds 21 1006 26 0 1.7 242.998 10:18 31.07.2019
4441 Clouds 21 1006 26 0 1.7 242.998 09:42 31.07.2019
4442 Clouds 19 1008 29 0 1.58 240.359 09:23 31.07.2019
4443 Clouds 19 1008 30 0 1.8 231.515 08:43 31.07.2019
4444 Clouds 19 1008 30 0 1.8 231.515 08:24 31.07.2019
4445 Clouds 19 1008 30 0 1.8 231.515 07:47 31.07.2019
4446 Clouds 19 1008 30 0 1.8 231.515 07:27 31.07.2019
4447 Clear 16 1010 43 0 1.63 179.648 05:23 31.07.2019
4448 Clear 16 1010 43 0 1.63 179.648 03:56 31.07.2019
4449 Clouds 12 1012 73 0 0.91 112.852 00:37 31.07.2019
4450 Clear 6 1012 86 0 1.12 90.308 23:49 30.07.2019
4451 Clear 6 1012 86 0 1.12 90.308 23:27 30.07.2019
4452 Clear 6 1012 86 0 1.12 90.308 22:49 30.07.2019
4453 Clear 6 1012 86 0 1.12 90.308 22:26 30.07.2019
4454 Clear 6 1012 86 0 1.12 90.308 21:59 30.07.2019
4455 Clear 6 1012 86 0 1.12 90.308 21:37 30.07.2019
4456 Clear 8 1012 83 0 1.69 36.938 21:19 30.07.2019
4457 Clear 8 1012 84 0 1.51 41.14 20:55 30.07.2019
4458 Clear 8 1012 84 0 1.51 41.14 20:36 30.07.2019
4459 Clear 8 1012 84 0 1.51 41.14 20:18 30.07.2019
4460 Clear 8 1012 84 0 1.51 41.14 19:42 30.07.2019
4461 Clear 8 1012 84 0 1.51 41.14 19:24 30.07.2019
4462 Clear 8 1012 84 0 1.51 41.14 18:45 30.07.2019
4463 Clear 9 1011 80 0 1.45 18.772 18:21 30.07.2019
4464 Clear 9 1011 80 0 1.45 18.772 17:43 30.07.2019
4465 Clear 9 1011 80 0 1.45 18.772 17:20 30.07.2019
4466 Clear 9 1011 80 0 1.45 18.772 16:55 30.07.2019
4467 Clear 9 1011 80 0 1.45 18.772 16:37 30.07.2019
4468 Clear 9 1011 80 0 1.45 18.772 16:18 30.07.2019
4469 Clear 9 1011 80 0 1.45 18.772 15:39 30.07.2019
4470 Clear 9 1011 80 0 1.45 18.772 15:39 30.07.2019
4471 Clouds 16 1010 58 0 1.49 278.108 15:19 30.07.2019
4472 Clouds 16 1010 58 0 1.49 278.108 14:43 30.07.2019
4473 Clouds 16 1010 58 0 1.49 278.108 14:22 30.07.2019
4474 Clouds 16 1010 58 0 1.49 278.108 13:55 30.07.2019
4475 Clouds 16 1010 58 0 1.49 278.108 13:36 30.07.2019
4476 Clouds 15 1010 56 0 1.44 267.378 13:18 30.07.2019
4477 Clouds 15 1010 56 0 1.44 267.378 12:43 30.07.2019
4478 Clouds 17 1010 46 0 2.28 280.482 12:24 30.07.2019
4479 Clouds 17 1010 46 0 2.28 280.482 11:44 30.07.2019
4480 Clouds 17 1010 46 0 2.28 280.482 11:44 30.07.2019
4481 Clouds 17 1010 46 0 2.28 280.482 11:23 30.07.2019
4482 Clouds 16 1010 48 0 1.93 265.236 10:55 30.07.2019
4483 Clouds 16 1010 48 0 1.93 265.236 10:37 30.07.2019
4484 Clouds 16 1010 48 0 1.93 265.236 10:19 30.07.2019
4485 Clouds 16 1010 48 0 1.93 265.236 09:45 30.07.2019
4486 Clouds 16 1010 48 0 1.93 265.236 09:26 30.07.2019
4487 Clear 16 1011 48 0 2.58 222.895 08:32 30.07.2019
4488 Clear 16 1011 48 0 2.58 222.895 07:52 30.07.2019
4489 Clear 16 1011 48 0 2.58 222.895 07:34 30.07.2019
4490 Clear 16 1011 48 0 2.58 222.895 06:52 30.07.2019
4491 Clear 16 1011 48 0 2.58 222.895 06:32 30.07.2019
4492 Clear 13 1013 57 0 1.72 192.71 05:34 30.07.2019
4493 Clear 13 1013 57 0 1.72 192.71 03:29 30.07.2019
4494 Clear 8 1015 79 0 1.57 57.68 01:22 30.07.2019
4495 Clear 8 1015 79 0 1.57 57.68 00:26 30.07.2019
4496 Clear 4 1016 93 0 2.15 39.063 23:57 29.07.2019
4497 Clear 4 1016 93 0 2.15 39.063 23:38 29.07.2019
4498 Clear 4 1016 93 0 2.15 39.063 23:19 29.07.2019
4499 Clear 4 1016 93 0 2.15 39.063 22:54 29.07.2019
4500 Clear 4 1016 93 0 2.15 39.063 22:36 29.07.2019
4501 Clear 4 1016 93 0 2.15 39.063 22:18 29.07.2019
4502 Clear 4 1016 93 0 2.15 39.063 21:41 29.07.2019
4503 Clear 5 1016 91 0 2.72 37.903 21:23 29.07.2019
4504 Clear 5 1016 91 0 2.72 37.903 20:57 29.07.2019
4505 Clear 5 1016 91 0 2.72 37.903 20:38 29.07.2019
4506 Clear 5 1016 91 0 2.72 37.903 20:19 29.07.2019
4507 Clear 5 1016 91 0 2.72 37.903 19:43 29.07.2019
4508 Clear 5 1016 91 0 2.72 37.903 19:22 29.07.2019
4509 Clear 5 1016 91 0 2.72 37.903 18:55 29.07.2019
4510 Clear 5 1016 91 0 2.72 37.903 18:36 29.07.2019
4511 Clear 6 1016 90 0 2.86 46.008 18:18 29.07.2019
4512 Clear 6 1016 90 0 2.86 46.008 17:46 29.07.2019
4513 Clear 6 1016 90 0 2.86 46.008 17:26 29.07.2019
4514 Clear 6 1016 90 0 2.86 46.008 16:46 29.07.2019
4515 Clear 6 1016 90 0 2.86 46.008 16:26 29.07.2019
4516 Clear 6 1016 90 0 2.86 46.008 15:54 29.07.2019
4517 Clear 6 1016 90 0 2.86 46.008 15:35 29.07.2019
4518 Clouds 10 1014 74 0 3.61 29.956 14:57 29.07.2019
4519 Clouds 10 1014 74 0 3.61 29.956 14:39 29.07.2019
4520 Clouds 10 1014 74 0 3.61 29.956 14:20 29.07.2019
4521 Clouds 10 1014 74 0 3.61 29.956 13:43 29.07.2019
4522 Rain 10 1014 71 0 3.4 24.742 13:23 29.07.2019
4523 Rain 10 1014 71 0 3.4 24.742 12:43 29.07.2019
4524 Rain 12 1014 58 0 4.24 16.943 12:25 29.07.2019
4525 Rain 12 1014 58 0 4.24 16.943 11:45 29.07.2019
4526 Rain 12 1014 58 0 4.24 16.943 11:24 29.07.2019
4527 Rain 12 1014 58 0 4.24 16.943 10:57 29.07.2019
4528 Rain 12 1014 58 0 4.24 16.943 10:57 29.07.2019
4529 Rain 12 1014 58 0 4.24 16.943 10:39 29.07.2019
4530 Rain 12 1014 58 0 4.24 16.943 10:20 29.07.2019
4531 Rain 12 1014 58 0 4.24 16.943 09:40 29.07.2019
4532 Rain 11 1014 62 0 4.01 14.144 09:19 29.07.2019
4533 Clouds 11 1014 58 0 4.4 6.421 08:41 29.07.2019
4534 Clouds 11 1014 58 0 4.4 6.421 08:20 29.07.2019
4535 Clouds 11 1014 58 0 4.4 6.421 07:45 29.07.2019
4536 Clouds 11 1014 58 0 4.4 6.421 07:23 29.07.2019
4537 Clouds 8 1015 67 0 4.16 2.606 05:50 29.07.2019
4538 Clouds 8 1015 67 0 4.16 2.606 04:54 29.07.2019
4539 Clouds 6 1014 76 0 3.7 351.99 02:27 29.07.2019
4540 Clouds 6 1014 76 0 3.7 351.99 01:45 29.07.2019
4541 Clouds 6 1014 75 0 4.03 355.071 01:23 29.07.2019
4542 Clouds 6 1014 75 0 4.03 355.071 00:43 29.07.2019
4543 Clouds 4 1013 91 0 1.51 328.626 00:20 29.07.2019
4544 Clouds 4 1013 91 0 1.51 328.626 23:41 28.07.2019
4545 Clouds 4 1013 91 0 1.51 328.626 23:18 28.07.2019
4546 Clouds 4 1013 91 0 1.51 328.626 22:40 28.07.2019
4547 Clouds 4 1013 91 0 1.51 328.626 22:22 28.07.2019
4548 Clouds 4 1013 91 0 1.51 328.626 21:48 28.07.2019
4549 Clouds 5 1013 91 0 2.18 356.347 21:19 28.07.2019
4550 Clouds 5 1013 90 0 2.27 4.529 20:48 28.07.2019
4551 Clouds 5 1013 90 0 2.27 4.529 20:29 28.07.2019
4552 Clouds 5 1013 90 0 2.27 4.529 19:54 28.07.2019
4553 Clouds 5 1013 90 0 2.27 4.529 19:36 28.07.2019
4554 Clouds 5 1013 90 0 2.27 4.529 19:36 28.07.2019
4555 Clouds 5 1013 90 0 2.27 4.529 19:18 28.07.2019
4556 Clouds 5 1013 90 0 2.27 4.529 18:42 28.07.2019
4557 Clouds 6 1011 88 0 2.68 4.008 18:19 28.07.2019
4558 Clouds 6 1011 88 0 2.68 4.008 17:42 28.07.2019
4559 Clouds 6 1011 88 0 2.68 4.008 17:22 28.07.2019
4560 Clouds 6 1011 88 0 2.68 4.008 16:57 28.07.2019
4561 Clouds 6 1011 88 0 2.68 4.008 16:39 28.07.2019
4562 Clouds 6 1011 88 0 2.68 4.008 16:20 28.07.2019
4563 Clouds 6 1011 88 0 2.68 4.008 15:43 28.07.2019
4564 Rain 9 1009 73 0 4.69 4.406 15:21 28.07.2019
4565 Rain 9 1009 73 0 4.69 4.406 14:37 28.07.2019
4566 Rain 9 1009 73 0 4.69 4.406 14:19 28.07.2019
4567 Rain 9 1009 73 0 4.69 4.406 13:45 28.07.2019
4568 Rain 9 1009 73 0 4.58 358.022 13:25 28.07.2019
4569 Rain 9 1009 73 0 4.58 358.022 12:59 28.07.2019
4570 Rain 9 1009 73 0 4.58 358.022 12:40 28.07.2019
4571 Rain 10 1008 65 0 4.53 343.082 12:22 28.07.2019
4572 Rain 10 1008 65 0 4.53 343.082 11:47 28.07.2019
4573 Rain 10 1008 65 0 4.53 343.082 11:27 28.07.2019
4574 Rain 10 1008 65 0 4.53 343.082 10:41 28.07.2019
4575 Rain 10 1008 65 0 4.53 343.082 10:22 28.07.2019
4576 Rain 10 1008 65 0 4.53 343.082 09:47 28.07.2019
4577 Rain 10 1008 65 0 4.53 343.082 09:29 28.07.2019
4578 Rain 8 1007 74 0 3.2 356.958 08:52 28.07.2019
4579 Rain 8 1007 74 0 3.2 356.958 08:30 28.07.2019
4580 Rain 8 1007 74 0 3.2 356.958 07:59 28.07.2019
4581 Rain 8 1007 74 0 3.2 356.958 07:38 28.07.2019
4582 Rain 8 1007 74 0 3.2 356.958 06:45 28.07.2019
4583 Rain 8 1008 70 0 1.55 301.736 05:53 28.07.2019
4584 Rain 8 1008 70 0 1.55 301.736 03:39 28.07.2019
4585 Clouds 5 1007 93 0 0.7 338.804 02:24 28.07.2019
4586 Clouds 5 1007 92 0 0.59 324.609 01:20 28.07.2019
4587 Clouds 5 1007 92 0 0.59 324.609 00:45 28.07.2019
4588 Clouds 2 1007 97 0 0.99 253.512 00:20 28.07.2019
4589 Clouds 2 1007 97 0 0.99 253.512 23:46 27.07.2019
4590 Clouds 2 1007 97 0 0.99 253.512 23:22 27.07.2019
4591 Clouds 2 1007 97 0 0.99 253.512 22:41 27.07.2019
4592 Clouds 2 1007 97 0 0.99 253.512 22:22 27.07.2019
4593 Clouds 2 1007 97 0 0.99 253.512 22:22 27.07.2019
4594 Clouds 2 1007 97 0 0.99 253.512 21:41 27.07.2019
4595 Clouds 2 1006 97 0 0.95 248.355 21:20 27.07.2019
4596 Clouds 3 1005 96 0 1.24 253.679 20:52 27.07.2019
4597 Clouds 3 1005 96 0 1.24 253.679 20:26 27.07.2019
4598 Clouds 3 1005 96 0 1.24 253.679 19:56 27.07.2019
4599 Clouds 3 1005 96 0 1.24 253.679 19:38 27.07.2019
4600 Clouds 3 1005 96 0 1.24 253.679 19:18 27.07.2019
4601 Clouds 3 1005 96 0 1.24 253.679 18:42 27.07.2019
4602 Clouds 4 1004 95 0 1.51 255.652 18:24 27.07.2019
4603 Clouds 4 1004 95 0 1.51 255.652 17:42 27.07.2019
4604 Clouds 4 1004 95 0 1.51 255.652 17:42 27.07.2019
4605 Clouds 4 1004 95 0 1.51 255.652 17:23 27.07.2019
4606 Clouds 4 1004 95 0 1.51 255.652 16:50 27.07.2019
4607 Clouds 4 1004 95 0 1.51 255.652 16:32 27.07.2019
4608 Clouds 4 1004 95 0 1.51 255.652 15:54 27.07.2019
4609 Rain 8 1003 78 0 2.41 272.547 15:22 27.07.2019
4610 Rain 8 1003 78 0 2.41 272.547 14:51 27.07.2019
4611 Rain 8 1003 78 0 2.41 272.547 14:32 27.07.2019
4612 Rain 8 1003 78 0 2.41 272.547 13:56 27.07.2019
4613 Rain 8 1003 78 0 2.41 272.547 13:38 27.07.2019
4614 Clouds 8 1003 78 0 2.91 265.066 13:19 27.07.2019
4615 Clouds 8 1003 78 0 2.91 265.066 12:41 27.07.2019
4616 Rain 7 1002 83 0 3.25 268.679 12:21 27.07.2019
4617 Rain 7 1002 83 0 3.25 268.679 11:42 27.07.2019
4618 Rain 7 1002 83 0 3.25 268.679 11:24 27.07.2019
4619 Rain 7 1002 83 0 3.25 268.679 10:42 27.07.2019
4620 Rain 7 1002 83 0 3.25 268.679 10:23 27.07.2019
4621 Rain 7 1002 83 0 3.25 268.679 09:45 27.07.2019
4622 Rain 7 1002 83 0 3.25 268.679 09:26 27.07.2019
4623 Rain 6 1002 88 0 3.68 264.423 08:58 27.07.2019
4624 Rain 7 1002 83 0 3.83 264.129 08:40 27.07.2019
4625 Rain 7 1002 83 0 3.83 264.129 08:20 27.07.2019
4626 Rain 7 1002 83 0 3.83 264.129 07:41 27.07.2019
4627 Rain 7 1002 83 0 3.83 264.129 07:22 27.07.2019
4628 Rain 7 1002 83 0 3.83 264.129 06:50 27.07.2019
4629 Rain 6 1002 88 0 2.91 276.349 06:22 27.07.2019
4630 Rain 6 1002 88 0 2.91 276.349 05:37 27.07.2019
4631 Rain 6 1002 88 0 2.91 276.349 04:51 27.07.2019
4632 Rain 6 1002 88 0 2.91 276.349 03:50 27.07.2019
4633 Rain 6 1001 92 0 3.25 262.875 02:43 27.07.2019
4634 Rain 6 1001 92 0 3.25 262.875 01:59 27.07.2019
4635 Rain 6 1001 92 0 3.25 262.875 01:36 27.07.2019
4636 Rain 6 1001 93 0 3.47 261.889 00:41 27.07.2019
4637 Rain 6 1001 97 0 0.77 202.159 00:22 27.07.2019
4638 Rain 6 1001 97 0 0.77 202.159 23:44 26.07.2019
4639 Rain 6 1001 97 0 0.77 202.159 23:44 26.07.2019
4640 Rain 6 1001 97 0 0.77 202.159 23:26 26.07.2019
4641 Rain 6 1001 97 0 0.77 202.159 22:43 26.07.2019
4642 Rain 6 1001 97 0 0.77 202.159 22:25 26.07.2019
4643 Rain 6 1001 97 0 0.77 202.159 21:52 26.07.2019
4644 Clouds 6 1001 96 0 1.44 224.38 21:21 26.07.2019
4645 Rain 6 1001 89 0 1.78 206.464 20:52 26.07.2019
4646 Rain 6 1001 89 0 1.78 206.464 20:33 26.07.2019
4647 Rain 6 1001 89 0 1.78 206.464 19:57 26.07.2019
4648 Rain 6 1001 89 0 1.78 206.464 19:38 26.07.2019
4649 Rain 6 1001 89 0 1.78 206.464 19:20 26.07.2019
4650 Rain 6 1001 89 0 1.78 206.464 19:20 26.07.2019
4651 Rain 6 1001 89 0 1.78 206.464 18:41 26.07.2019
4652 Rain 6 1000 93 0 2.69 254.829 18:21 26.07.2019
4653 Rain 6 1000 93 0 2.69 254.829 17:56 26.07.2019
4654 Rain 6 1000 93 0 2.69 254.829 17:37 26.07.2019
4655 Rain 6 1000 93 0 2.69 254.829 17:18 26.07.2019
4656 Rain 6 1000 93 0 2.69 254.829 16:54 26.07.2019
4657 Rain 6 1000 93 0 2.69 254.829 16:36 26.07.2019
4658 Rain 6 1000 93 0 2.69 254.829 16:18 26.07.2019
4659 Rain 6 1000 93 0 2.69 254.829 15:43 26.07.2019
4660 Rain 10 998 73 0 5.03 297.585 15:21 26.07.2019
4661 Rain 10 998 73 0 5.03 297.585 14:45 26.07.2019
4662 Rain 10 998 73 0 5.03 297.585 14:25 26.07.2019
4663 Rain 10 998 73 0 5.03 297.585 13:47 26.07.2019
4664 Rain 10 999 73 0 5.41 295.187 13:28 26.07.2019
4665 Rain 10 999 73 0 5.41 295.187 12:50 26.07.2019
4666 Rain 13 997 60 0 6.18 286.043 12:24 26.07.2019
4667 Rain 13 997 60 0 6.18 286.043 11:58 26.07.2019
4668 Rain 13 997 60 0 6.18 286.043 11:37 26.07.2019
4669 Rain 13 997 60 0 6.18 286.043 11:18 26.07.2019
4670 Rain 13 997 60 0 6.18 286.043 10:42 26.07.2019
4671 Rain 13 997 60 0 6.18 286.043 10:24 26.07.2019
4672 Rain 13 997 60 0 6.18 286.043 09:50 26.07.2019
4673 Rain 13 997 60 0 6.18 286.043 09:30 26.07.2019
4674 Rain 14 997 53 0 6.37 281.446 08:41 26.07.2019
4675 Rain 14 997 53 0 6.37 281.446 08:21 26.07.2019
4676 Rain 14 997 53 0 6.37 281.446 07:43 26.07.2019
4677 Rain 14 997 53 0 6.37 281.446 07:24 26.07.2019
4678 Rain 14 997 53 0 6.37 281.446 06:31 26.07.2019
4679 Rain 13 998 50 0 4.01 250.124 04:30 26.07.2019
4680 Rain 13 998 50 0 4.01 250.124 03:54 26.07.2019
4681 Clouds 10 999 57 0 0.92 275.33 01:50 26.07.2019
4682 Clouds 10 1000 61 0 1.29 241.805 01:24 26.07.2019
4683 Clouds 10 1000 61 0 1.29 241.805 00:29 26.07.2019
4684 Clouds 5 1000 75 0 1.16 284.407 23:48 25.07.2019
4685 Clouds 5 1000 75 0 1.16 284.407 23:22 25.07.2019
4686 Clouds 5 1000 75 0 1.16 284.407 22:42 25.07.2019
4687 Clouds 5 1000 75 0 1.16 284.407 22:23 25.07.2019
4688 Clouds 5 1000 75 0 1.16 284.407 21:57 25.07.2019
4689 Clouds 5 1000 75 0 1.16 284.407 21:38 25.07.2019
4690 Clouds 6 1000 72 0 0.78 120.362 21:20 25.07.2019
4691 Clear 6 1000 80 0 1.03 198.979 20:41 25.07.2019
4692 Clear 6 1000 80 0 1.03 198.979 20:21 25.07.2019
4693 Clear 6 1000 80 0 1.03 198.979 19:41 25.07.2019
4694 Clear 6 1000 80 0 1.03 198.979 19:23 25.07.2019
4695 Clear 6 1000 80 0 1.03 198.979 18:43 25.07.2019
4696 Clear 7 999 76 0 0.8 27.655 18:25 25.07.2019
4697 Clear 7 999 76 0 0.8 27.655 17:51 25.07.2019
4698 Clear 7 999 76 0 0.8 27.655 17:33 25.07.2019
4699 Clear 7 999 76 0 0.8 27.655 16:57 25.07.2019
4700 Clear 7 999 76 0 0.8 27.655 16:39 25.07.2019
4701 Clear 7 999 76 0 0.8 27.655 16:20 25.07.2019
4702 Clear 7 999 76 0 0.8 27.655 15:50 25.07.2019
4703 Clouds 13 998 57 0 2.59 301.005 15:21 25.07.2019
4704 Clouds 13 998 57 0 2.59 301.005 14:43 25.07.2019
4705 Clouds 13 998 57 0 2.59 301.005 14:23 25.07.2019
4706 Clouds 13 998 57 0 2.59 301.005 13:59 25.07.2019
4707 Clouds 13 998 57 0 2.59 301.005 13:36 25.07.2019
4708 Clouds 13 998 54 0 3.56 305.207 13:18 25.07.2019
4709 Clouds 13 998 54 0 3.56 305.207 12:34 25.07.2019
4710 Clouds 14 998 51 0 6.53 275.897 11:56 25.07.2019
4711 Clouds 14 998 51 0 6.53 275.897 11:37 25.07.2019
4712 Clouds 14 998 51 0 6.53 275.897 11:19 25.07.2019
4713 Clouds 14 998 51 0 6.53 275.897 10:42 25.07.2019
4714 Clouds 14 998 51 0 6.53 275.897 10:23 25.07.2019
4715 Clouds 14 998 51 0 6.53 275.897 09:44 25.07.2019
4716 Clouds 14 998 51 0 6.53 275.897 09:26 25.07.2019
4717 Rain 14 999 57 0 4.34 270.7 08:47 25.07.2019
4718 Rain 14 999 57 0 4.34 270.7 08:20 25.07.2019
4719 Rain 14 999 57 0 4.34 270.7 07:37 25.07.2019
4720 Rain 14 999 57 0 4.34 270.7 06:44 25.07.2019
4721 Rain 9 1001 79 0 3.14 295.96 05:53 25.07.2019
4722 Rain 9 1001 79 0 3.14 295.96 05:31 25.07.2019
4723 Rain 9 1001 79 0 3.14 295.96 04:39 25.07.2019
4724 Rain 9 1001 77 0 3.52 267.345 02:21 25.07.2019
4725 Rain 8 1000 87 0 3.75 278.472 01:21 25.07.2019
4726 Rain 8 999 88 0 0.76 304.131 00:22 25.07.2019
4727 Rain 8 999 88 0 0.76 304.131 23:52 24.07.2019
4728 Rain 8 999 88 0 0.76 304.131 23:31 24.07.2019
4729 Rain 8 999 88 0 0.76 304.131 22:58 24.07.2019
4730 Rain 8 999 88 0 0.76 304.131 22:39 24.07.2019
4731 Rain 8 999 88 0 0.76 304.131 22:20 24.07.2019
4732 Rain 8 999 88 0 0.76 304.131 21:43 24.07.2019
4733 Rain 11 999 62 0 2.14 247.139 21:22 24.07.2019
4734 Clouds 10 998 66 0 1.5 225.027 20:57 24.07.2019
4735 Clouds 10 998 66 0 1.5 225.027 20:38 24.07.2019
4736 Clouds 10 998 66 0 1.5 225.027 20:19 24.07.2019
4737 Clouds 10 998 66 0 1.5 225.027 19:54 24.07.2019
4738 Clouds 10 998 66 0 1.5 225.027 19:36 24.07.2019
4739 Clouds 10 998 66 0 1.5 225.027 19:36 24.07.2019
4740 Clouds 10 998 66 0 1.5 225.027 19:36 24.07.2019
4741 Clouds 10 998 66 0 1.5 225.027 19:18 24.07.2019
4742 Clouds 10 998 66 0 1.5 225.027 18:37 24.07.2019
4743 Clouds 11 997 64 0 1.65 97.315 18:19 24.07.2019
4744 Clouds 11 997 64 0 1.65 97.315 17:42 24.07.2019
4745 Clouds 11 997 64 0 1.65 97.315 17:20 24.07.2019
4746 Clouds 11 997 64 0 1.65 97.315 16:41 24.07.2019
4747 Clouds 11 997 64 0 1.65 97.315 16:21 24.07.2019
4748 Clouds 11 997 64 0 1.65 97.315 16:21 24.07.2019
4749 Clouds 11 997 64 0 1.65 97.315 15:40 24.07.2019
4750 Clouds 17 997 46 0 1.23 249.362 15:21 24.07.2019
4751 Clouds 17 997 46 0 1.23 249.362 14:50 24.07.2019
4752 Clouds 17 997 46 0 1.23 249.362 14:24 24.07.2019
4753 Clouds 17 997 46 0 1.23 249.362 13:59 24.07.2019
4754 Clouds 17 997 46 0 1.23 249.362 13:36 24.07.2019
4755 Clouds 16 997 42 0 2.45 265.731 13:18 24.07.2019
4756 Clouds 16 997 42 0 2.45 265.731 12:46 24.07.2019
4757 Clouds 18 997 39 0 4.86 275.905 12:24 24.07.2019
4758 Clouds 18 997 39 0 4.86 275.905 11:38 24.07.2019
4759 Clouds 18 997 39 0 4.86 275.905 11:19 24.07.2019
4760 Clouds 18 997 39 0 4.86 275.905 10:43 24.07.2019
4761 Clouds 18 997 39 0 4.86 275.905 10:24 24.07.2019
4762 Clouds 18 997 39 0 4.86 275.905 09:45 24.07.2019
4763 Rain 17 998 43 0 3.52 253.485 09:24 24.07.2019
4764 Rain 17 998 43 0 3.52 253.485 08:56 24.07.2019
4765 Rain 16 998 46 0 2.65 264.466 08:30 24.07.2019
4766 Rain 16 998 46 0 2.65 264.466 07:51 24.07.2019
4767 Rain 16 998 46 0 2.65 264.466 07:24 24.07.2019
4768 Rain 16 998 46 0 2.65 264.466 06:29 24.07.2019
4769 Rain 16 1000 49 0 2.08 239.841 05:40 24.07.2019
4770 Rain 13 1002 59 0 1.31 201.793 02:45 24.07.2019
4771 Rain 13 1002 55 0 0.35 255.454 01:29 24.07.2019
4772 Rain 13 1002 55 0 0.35 255.454 00:57 24.07.2019
4773 Clouds 8 1002 73 0 1.21 36.284 00:22 24.07.2019
4774 Clouds 8 1002 73 0 1.21 36.284 23:42 23.07.2019
4775 Clouds 8 1002 73 0 1.21 36.284 23:42 23.07.2019
4776 Clouds 8 1002 73 0 1.21 36.284 23:23 23.07.2019
4777 Clouds 8 1002 73 0 1.21 36.284 22:39 23.07.2019
4778 Clouds 8 1002 73 0 1.21 36.284 22:19 23.07.2019
4779 Clouds 8 1002 73 0 1.21 36.284 21:58 23.07.2019
4780 Clouds 8 1002 73 0 1.21 36.284 21:58 23.07.2019
4781 Clouds 8 1002 73 0 1.21 36.284 21:40 23.07.2019
4782 Clouds 8 1002 73 0 1.21 36.284 21:40 23.07.2019
4783 Clouds 9 1003 73 0 1.51 50.009 21:21 23.07.2019
4784 Clouds 9 1003 70 0 1.42 55.239 20:44 23.07.2019
4785 Clouds 9 1003 70 0 1.42 55.239 20:21 23.07.2019
4786 Clouds 9 1003 70 0 1.42 55.239 19:42 23.07.2019
4787 Clouds 9 1003 70 0 1.42 55.239 19:19 23.07.2019
4788 Clouds 9 1003 70 0 1.42 55.239 18:47 23.07.2019
4789 Rain 10 1003 71 0 2.23 31.135 18:23 23.07.2019
4790 Rain 10 1003 71 0 2.23 31.135 17:45 23.07.2019
4791 Rain 10 1003 71 0 2.23 31.135 17:25 23.07.2019
4792 Rain 10 1003 71 0 2.23 31.135 16:57 23.07.2019
4793 Rain 10 1003 71 0 2.23 31.135 16:39 23.07.2019
4794 Rain 10 1003 71 0 2.23 31.135 16:18 23.07.2019
4795 Rain 10 1003 71 0 2.23 31.135 15:43 23.07.2019
4796 Clouds 15 1002 59 0 2.97 35.904 15:23 23.07.2019
4797 Clouds 15 1002 59 0 2.97 35.904 14:39 23.07.2019
4798 Clouds 15 1002 59 0 2.97 35.904 14:20 23.07.2019
4799 Clouds 15 1002 59 0 2.97 35.904 13:57 23.07.2019
4800 Clouds 15 1002 59 0 2.97 35.904 13:38 23.07.2019
4801 Clouds 17 1002 51 0 2.06 39.467 13:20 23.07.2019
4802 Clouds 17 1002 51 0 2.06 39.467 12:47 23.07.2019
4803 Clouds 18 1001 44 0 3.03 351.581 12:25 23.07.2019
4804 Clouds 18 1001 44 0 3.03 351.581 11:47 23.07.2019
4805 Clouds 18 1001 44 0 3.03 351.581 11:29 23.07.2019
4806 Clouds 18 1001 44 0 3.03 351.581 10:57 23.07.2019
4807 Clouds 18 1001 44 0 3.03 351.581 10:38 23.07.2019
4808 Clouds 18 1001 44 0 3.03 351.581 10:19 23.07.2019
4809 Clouds 18 1001 44 0 3.03 351.581 09:40 23.07.2019
4810 Clouds 18 1001 37 0 1.46 303.177 09:18 23.07.2019
4811 Clouds 18 1001 38 0 2.28 320.797 08:40 23.07.2019
4812 Clouds 18 1001 38 0 2.28 320.797 08:19 23.07.2019
4813 Clouds 18 1001 38 0 2.28 320.797 07:53 23.07.2019
4814 Clouds 18 1001 38 0 2.28 320.797 07:33 23.07.2019
4815 Clouds 18 1001 38 0 2.28 320.797 06:38 23.07.2019
4816 Clouds 17 1002 37 0 1.49 41.374 05:51 23.07.2019
4817 Clouds 13 1003 54 0 2.01 58.577 02:25 23.07.2019
4818 Clouds 13 1003 54 0 1.73 50.063 01:29 23.07.2019
4819 Clouds 13 1003 54 0 1.73 50.063 00:30 23.07.2019
4820 Clear 8 1003 69 0 1.36 44.703 23:42 22.07.2019
4821 Clear 8 1003 69 0 1.36 44.703 23:21 22.07.2019
4822 Clear 8 1003 69 0 1.36 44.703 22:58 22.07.2019
4823 Clear 8 1003 69 0 1.36 44.703 22:40 22.07.2019
4824 Clear 8 1003 69 0 1.36 44.703 22:20 22.07.2019
4825 Clear 8 1003 69 0 1.36 44.703 22:20 22.07.2019
4826 Clear 8 1003 69 0 1.36 44.703 21:42 22.07.2019
4827 Clear 9 1003 64 0 1.56 59.068 21:21 22.07.2019
4828 Clear 9 1003 66 0 1.89 49.899 20:48 22.07.2019
4829 Clear 9 1003 66 0 1.89 49.899 20:29 22.07.2019
4830 Clear 9 1003 66 0 1.89 49.899 19:55 22.07.2019
4831 Clear 9 1003 66 0 1.89 49.899 19:36 22.07.2019
4832 Clear 9 1003 66 0 1.89 49.899 19:18 22.07.2019
4833 Clear 9 1003 66 0 1.89 49.899 18:41 22.07.2019
4834 Clear 11 1003 61 0 2.32 51.012 18:22 22.07.2019
4835 Clear 11 1003 61 0 2.32 51.012 17:42 22.07.2019
4836 Clear 11 1003 61 0 2.32 51.012 17:24 22.07.2019
4837 Clear 11 1003 61 0 2.32 51.012 16:43 22.07.2019
4838 Clear 11 1003 61 0 2.32 51.012 16:22 22.07.2019
4839 Clear 11 1003 61 0 2.32 51.012 15:59 22.07.2019
4840 Clear 11 1003 61 0 2.32 51.012 15:38 22.07.2019
4841 Clouds 17 1001 49 0 4.05 27.994 15:18 22.07.2019
4842 Clouds 17 1001 49 0 4.05 27.994 14:43 22.07.2019
4843 Clouds 17 1001 49 0 4.05 27.994 14:21 22.07.2019
4844 Clouds 17 1001 49 0 4.05 27.994 14:21 22.07.2019
4845 Clouds 17 1001 49 0 4.05 27.994 13:48 22.07.2019
4846 Clouds 17 1001 49 0 4.05 27.994 13:29 22.07.2019
4847 Clouds 17 1001 49 0 4.05 27.994 12:47 22.07.2019
4848 Clouds 17 1001 49 0 4.05 27.994 12:28 22.07.2019
4849 Clouds 18 1000 35 0 1.67 7.815 11:45 22.07.2019
4850 Clouds 18 1000 35 0 1.67 7.815 11:25 22.07.2019
4851 Clouds 18 1000 35 0 1.67 7.815 10:58 22.07.2019
4852 Clouds 18 1000 35 0 1.67 7.815 10:33 22.07.2019
4853 Clouds 18 1000 35 0 1.67 7.815 09:45 22.07.2019
4854 Clouds 18 1002 37 0 1.3 307.601 09:26 22.07.2019
4855 Clouds 18 1002 37 0 1.3 307.601 08:56 22.07.2019
4856 Clouds 18 1002 37 0 1.3 307.601 08:36 22.07.2019
4857 Clouds 18 1002 37 0 1.3 307.601 08:18 22.07.2019
4858 Clouds 18 1002 37 0 1.3 307.601 07:41 22.07.2019
4859 Clouds 18 1002 37 0 1.3 307.601 07:22 22.07.2019
4860 Clear 16 1003 44 0 0.78 281.468 03:59 22.07.2019
4861 Clear 12 1005 63 0 1.83 27.573 02:45 22.07.2019
4862 Clear 12 1005 62 0 1.5 36.655 00:58 22.07.2019
4863 Clear 12 1005 62 0 1.5 36.655 00:38 22.07.2019
4864 Clear 12 1005 62 0 1.5 36.655 00:38 22.07.2019
4865 Clear 12 1005 62 0 1.5 36.655 00:38 22.07.2019
4866 Clear 7 1004 83 0 1.37 43.789 00:18 22.07.2019
4867 Clear 7 1004 83 0 1.37 43.789 23:42 21.07.2019
4868 Clear 7 1004 83 0 1.37 43.789 22:56 21.07.2019
4869 Clear 7 1004 83 0 1.37 43.789 22:37 21.07.2019
4870 Clear 7 1004 83 0 1.37 43.789 22:19 21.07.2019
4871 Clear 7 1004 83 0 1.37 43.789 21:48 21.07.2019
4872 Clouds 8 1006 71 0 1.56 36.54 21:25 21.07.2019
4873 Clouds 8 1006 71 0 1.56 36.54 20:56 21.07.2019
4874 Clouds 8 1006 68 0 1.29 35.054 20:38 21.07.2019
4875 Clouds 8 1006 68 0 1.29 35.054 20:19 21.07.2019
4876 Clouds 8 1006 68 0 1.29 35.054 19:47 21.07.2019
4877 Clouds 8 1006 68 0 1.29 35.054 19:26 21.07.2019
4878 Clouds 8 1006 68 0 1.29 35.054 18:48 21.07.2019
4879 Clouds 8 1006 68 0 1.29 35.054 18:26 21.07.2019
4880 Clouds 9 1005 66 0 1 2.46 17:44 21.07.2019
4881 Clouds 9 1005 66 0 1 2.46 17:21 21.07.2019
4882 Clouds 9 1005 66 0 1 2.46 16:59 21.07.2019
4883 Clouds 9 1005 66 0 1 2.46 16:40 21.07.2019
4884 Clouds 9 1005 66 0 1 2.46 16:20 21.07.2019
4885 Clouds 9 1005 66 0 1 2.46 15:39 21.07.2019
4886 Clouds 15 1004 51 0 3.6 328.165 15:19 21.07.2019
4887 Clouds 15 1004 51 0 3.6 328.165 14:42 21.07.2019
4888 Clouds 15 1004 51 0 3.6 328.165 14:23 21.07.2019
4889 Clouds 15 1004 51 0 3.6 328.165 13:53 21.07.2019
4890 Clouds 15 1004 51 0 3.6 328.165 13:32 21.07.2019
4891 Clouds 15 1004 50 0 2.96 330.538 12:46 21.07.2019
4892 Clouds 15 1004 50 0 2.96 330.538 12:28 21.07.2019
4893 Clouds 18 1003 40 0 6.46 268.466 11:55 21.07.2019
4894 Clouds 18 1003 40 0 6.46 268.466 11:37 21.07.2019
4895 Clouds 18 1003 40 0 6.46 268.466 11:18 21.07.2019
4896 Clouds 18 1003 40 0 6.46 268.466 10:41 21.07.2019
4897 Clouds 18 1003 40 0 6.46 268.466 10:22 21.07.2019
4898 Clouds 18 1003 40 0 6.46 268.466 09:42 21.07.2019
4899 Clouds 18 1004 41 0 5.21 246.69 09:24 21.07.2019
4900 Rain 18 1003 44 0 5.94 262.625 08:45 21.07.2019
4901 Rain 18 1003 44 0 5.94 262.625 08:45 21.07.2019
4902 Rain 18 1003 44 0 5.94 262.625 08:26 21.07.2019
4903 Rain 18 1003 44 0 5.94 262.625 07:38 21.07.2019
4904 Rain 18 1003 44 0 5.94 262.625 06:52 21.07.2019
4905 Clouds 17 1003 44 0 3.64 222.208 05:43 21.07.2019
4906 Rain 13 1004 57 0 1.01 317.49 02:52 21.07.2019
4907 Clouds 14 1004 50 0 0.55 314.852 01:19 21.07.2019
4908 Clouds 14 1004 50 0 0.55 314.852 00:40 21.07.2019
4909 Clouds 9 1003 66 0 1.65 63.978 00:18 21.07.2019
4910 Clouds 9 1003 66 0 1.65 63.978 23:40 20.07.2019
4911 Clouds 9 1003 66 0 1.65 63.978 23:21 20.07.2019
4912 Clouds 9 1003 66 0 1.65 63.978 22:44 20.07.2019
4913 Clouds 9 1003 66 0 1.65 63.978 22:21 20.07.2019
4914 Clouds 9 1003 66 0 1.65 63.978 21:45 20.07.2019
4915 Clouds 9 1003 66 0 1.65 63.978 21:26 20.07.2019
4916 Clouds 10 1003 55 0 1.1 71.976 20:57 20.07.2019
4917 Clouds 11 1003 60 0 1.18 89.951 20:38 20.07.2019
4918 Clouds 11 1003 60 0 1.18 89.951 20:18 20.07.2019
4919 Clouds 11 1003 60 0 1.18 89.951 20:18 20.07.2019
4920 Clouds 11 1003 60 0 1.18 89.951 19:44 20.07.2019
4921 Clouds 11 1003 60 0 1.18 89.951 19:19 20.07.2019
4922 Clouds 11 1003 60 0 1.18 89.951 18:41 20.07.2019
4923 Clear 11 1002 54 0 1.82 28.666 18:20 20.07.2019
4924 Clear 11 1002 54 0 1.82 28.666 17:51 20.07.2019
4925 Clear 11 1002 54 0 1.82 28.666 17:23 20.07.2019
4926 Clear 11 1002 54 0 1.82 28.666 16:44 20.07.2019
4927 Clear 11 1002 54 0 1.82 28.666 16:26 20.07.2019
4928 Clear 11 1002 54 0 1.82 28.666 15:57 20.07.2019
4929 Clear 11 1002 54 0 1.82 28.666 15:38 20.07.2019
4930 Clear 17 1001 44 0 4.11 311.861 15:19 20.07.2019
4931 Clear 17 1001 44 0 4.11 311.861 14:47 20.07.2019
4932 Clear 17 1001 44 0 4.11 311.861 14:22 20.07.2019
4933 Clear 17 1001 44 0 4.11 311.861 13:39 20.07.2019
4934 Clear 17 1001 43 0 3.46 289.446 13:20 20.07.2019
4935 Clear 17 1001 43 0 3.46 289.446 13:20 20.07.2019
4936 Clear 17 1001 43 0 3.46 289.446 12:54 20.07.2019
4937 Clouds 20 999 28 0 6.56 254.236 12:21 20.07.2019
4938 Clouds 20 999 28 0 6.56 254.236 11:56 20.07.2019
4939 Clouds 20 999 28 0 6.56 254.236 11:24 20.07.2019
4940 Clouds 20 999 28 0 6.56 254.236 10:55 20.07.2019
4941 Clouds 20 999 28 0 6.56 254.236 10:36 20.07.2019
4942 Clouds 20 999 28 0 6.56 254.236 10:18 20.07.2019
4943 Clouds 20 999 28 0 6.56 254.236 09:43 20.07.2019
4944 Clouds 21 1001 30 0 5.67 245.131 09:18 20.07.2019
4945 Clouds 21 1001 30 0 5.67 245.131 09:18 20.07.2019
4946 Clouds 21 1000 29 0 4.33 247.37 08:39 20.07.2019
4947 Clouds 21 1000 29 0 4.33 247.37 08:19 20.07.2019
4948 Clouds 21 1000 29 0 4.33 247.37 07:18 20.07.2019
4949 Clouds 21 1000 29 0 4.33 247.37 06:35 20.07.2019
4950 Clouds 19 1002 30 0 3.44 203.917 04:31 20.07.2019
4951 Clouds 15 1004 45 0 1.19 140.528 02:38 20.07.2019
4952 Clear 15 1004 45 0 1.16 132.668 01:21 20.07.2019
4953 Clear 15 1004 45 0 1.16 132.668 00:46 20.07.2019
4954 Clouds 9 1003 51 0 1.15 114.119 00:19 20.07.2019
4955 Clouds 9 1003 51 0 1.15 114.119 23:43 19.07.2019
4956 Clouds 9 1003 51 0 1.15 114.119 23:24 19.07.2019
4957 Clouds 9 1003 51 0 1.15 114.119 22:45 19.07.2019
4958 Clouds 9 1003 51 0 1.15 114.119 22:26 19.07.2019
4959 Clouds 9 1003 51 0 1.15 114.119 21:49 19.07.2019
4960 Clouds 9 1003 51 0 1.15 114.119 21:31 19.07.2019
4961 Clear 10 1004 51 0 1.41 69.649 20:58 19.07.2019
4962 Clear 10 1004 51 0 1.41 69.649 20:37 19.07.2019
4963 Clear 10 1004 51 0 1.41 69.649 20:18 19.07.2019
4964 Clear 10 1004 51 0 1.41 69.649 19:35 19.07.2019
4965 Clear 10 1004 51 0 1.41 69.649 18:43 19.07.2019
4966 Clear 10 1004 51 0 0.75 34.69 18:25 19.07.2019
4967 Clear 10 1004 51 0 0.75 34.69 17:55 19.07.2019
4968 Clear 10 1004 51 0 0.75 34.69 17:29 19.07.2019
4969 Clear 10 1004 51 0 0.75 34.69 16:57 19.07.2019
4970 Clear 10 1004 51 0 0.75 34.69 16:39 19.07.2019
4971 Clear 10 1004 51 0 0.75 34.69 16:18 19.07.2019
4972 Clear 10 1004 51 0 0.75 34.69 15:43 19.07.2019
4973 Clouds 17 1003 37 0 4.29 280.066 15:24 19.07.2019
4974 Clouds 17 1003 37 0 4.29 280.066 14:45 19.07.2019
4975 Clouds 17 1003 37 0 4.29 280.066 14:25 19.07.2019
4976 Clouds 17 1003 37 0 4.29 280.066 13:47 19.07.2019
4977 Clouds 17 1003 38 0 3.87 287.221 13:27 19.07.2019
4978 Clouds 17 1003 38 0 3.87 287.221 12:58 19.07.2019
4979 Clouds 17 1003 38 0 3.87 287.221 12:38 19.07.2019
4980 Clouds 20 1003 32 0 6.68 282.871 12:19 19.07.2019
4981 Clouds 20 1003 32 0 6.68 282.871 11:45 19.07.2019
4982 Clouds 20 1003 32 0 6.68 282.871 11:18 19.07.2019
4983 Clouds 20 1003 32 0 6.68 282.871 10:48 19.07.2019
4984 Clouds 20 1003 32 0 6.68 282.871 10:23 19.07.2019
4985 Clouds 20 1003 32 0 6.68 282.871 09:59 19.07.2019
4986 Clouds 20 1003 32 0 6.68 282.871 09:41 19.07.2019
4987 Clouds 21 1004 28 0 5.57 287.18 09:22 19.07.2019
4988 Clouds 21 1003 29 0 5 275.916 08:49 19.07.2019
4989 Clouds 21 1003 29 0 5 275.916 08:22 19.07.2019
4990 Clouds 21 1003 29 0 5 275.916 07:29 19.07.2019
4991 Clouds 18 1005 38 0 1.43 232.754 06:19 19.07.2019
4992 Clear 15 1006 46 0 1.16 170.961 02:55 19.07.2019
4993 Clear 15 1006 48 0 0.98 186.72 01:21 19.07.2019
4994 Clear 15 1006 48 0 0.98 186.72 00:45 19.07.2019
4995 Clear 9 1005 62 0 0.42 111.902 23:58 18.07.2019
4996 Clear 9 1005 62 0 0.42 111.902 23:39 18.07.2019
4997 Clear 9 1005 62 0 0.42 111.902 23:21 18.07.2019
4998 Clear 9 1005 62 0 0.42 111.902 22:41 18.07.2019
4999 Clear 9 1005 62 0 0.42 111.902 22:20 18.07.2019
5000 Clear 9 1005 62 0 0.42 111.902 21:49 18.07.2019
5001 Clear 9 1005 62 0 0.42 111.902 21:30 18.07.2019
5002 Clouds 11 1006 66 0 1.97 29.355 20:54 18.07.2019
5003 Clouds 11 1006 66 0 1.97 29.355 20:36 18.07.2019
5004 Clouds 11 1006 66 0 1.97 29.355 20:18 18.07.2019
5005 Clouds 11 1006 66 0 1.97 29.355 19:45 18.07.2019
5006 Clouds 11 1006 66 0 1.97 29.355 19:20 18.07.2019
5007 Clouds 11 1006 66 0 1.97 29.355 18:49 18.07.2019
5008 Clouds 12 1006 65 0 1.98 10.517 18:21 18.07.2019
5009 Clouds 12 1006 65 0 1.98 10.517 17:44 18.07.2019
5010 Clouds 12 1006 65 0 1.98 10.517 17:25 18.07.2019
5011 Clouds 12 1006 65 0 1.98 10.517 16:58 18.07.2019
5012 Clouds 12 1006 65 0 1.98 10.517 16:40 18.07.2019
5013 Clouds 12 1006 65 0 1.98 10.517 16:19 18.07.2019
5014 Clouds 12 1006 65 0 1.98 10.517 15:53 18.07.2019
5015 Clouds 12 1006 65 0 1.98 10.517 15:34 18.07.2019
5016 Clouds 18 1004 48 0 1.75 152.864 14:55 18.07.2019
5017 Clouds 18 1004 48 0 1.75 152.864 14:36 18.07.2019
5018 Clouds 18 1004 48 0 1.75 152.864 13:52 18.07.2019
5019 Clouds 17 1004 52 0 1.13 131.84 13:31 18.07.2019
5020 Clouds 17 1004 52 0 1.13 131.84 12:57 18.07.2019
5021 Clouds 17 1004 52 0 1.13 131.84 12:37 18.07.2019
5022 Clouds 22 1003 24 0 1.4 16.515 12:18 18.07.2019
5023 Clouds 22 1003 24 0 1.4 16.515 11:47 18.07.2019
5024 Clouds 22 1003 24 0 1.4 16.515 11:26 18.07.2019
5025 Clouds 22 1003 24 0 1.4 16.515 10:51 18.07.2019
5026 Clouds 22 1003 24 0 1.4 16.515 09:51 18.07.2019
5027 Clouds 22 1003 24 0 1.4 16.515 09:27 18.07.2019
5028 Clear 21 1005 26 0 1.77 10.986 08:55 18.07.2019
5029 Clear 21 1005 26 0 1.77 10.986 08:25 18.07.2019
5030 Clear 21 1005 26 0 1.77 10.986 07:59 18.07.2019
5031 Clear 21 1005 26 0 1.77 10.986 07:36 18.07.2019
5032 Clear 21 1005 26 0 1.77 10.986 06:55 18.07.2019
5033 Clear 21 1005 26 0 1.77 10.986 06:30 18.07.2019
5034 Clear 18 1006 36 0 1.55 36.248 03:46 18.07.2019
5035 Clear 13 1008 56 0 1.96 38.797 02:51 18.07.2019
5036 Clouds 13 1008 57 0 2.37 40.302 01:36 18.07.2019
5037 Clouds 9 1007 64 0 2.18 21.319 00:23 18.07.2019
5038 Clouds 9 1007 64 0 2.18 21.319 23:40 17.07.2019
5039 Clouds 9 1007 64 0 2.18 21.319 23:18 17.07.2019
5040 Clouds 9 1007 64 0 2.18 21.319 22:41 17.07.2019
5041 Clouds 9 1007 64 0 2.18 21.319 22:22 17.07.2019
5042 Clouds 9 1007 64 0 2.18 21.319 21:58 17.07.2019
5043 Clouds 9 1007 64 0 2.18 21.319 21:38 17.07.2019
5044 Clouds 10 1008 61 0 2.18 27.401 21:20 17.07.2019
5045 Clouds 11 1008 61 0 2.12 32.745 20:56 17.07.2019
5046 Clouds 11 1008 61 0 2.12 32.745 20:38 17.07.2019
5047 Clouds 11 1008 61 0 2.12 32.745 20:18 17.07.2019
5048 Clouds 11 1008 61 0 2.12 32.745 19:42 17.07.2019
5049 Clouds 11 1008 61 0 2.12 32.745 19:20 17.07.2019
5050 Clouds 11 1008 61 0 2.12 32.745 18:45 17.07.2019
5051 Clouds 12 1006 50 0 2.21 7.524 18:21 17.07.2019
5052 Clouds 12 1006 50 0 2.21 7.524 17:57 17.07.2019
5053 Clouds 12 1006 50 0 2.21 7.524 17:39 17.07.2019
5054 Clouds 12 1006 50 0 2.21 7.524 17:20 17.07.2019
5055 Clouds 12 1006 50 0 2.21 7.524 16:40 17.07.2019
5056 Clouds 12 1006 50 0 2.21 7.524 16:20 17.07.2019
5057 Clouds 12 1006 50 0 2.21 7.524 15:51 17.07.2019
5058 Clouds 12 1006 50 0 2.21 7.524 15:31 17.07.2019
5059 Clear 18 1005 45 0 2.24 313.318 14:57 17.07.2019
5060 -273 0 0 0 0 0 14:38 17.07.2019
5061 Clear 18 1005 45 0 2.24 313.318 14:19 17.07.2019
5062 Clear 18 1005 45 0 2.24 313.318 13:48 17.07.2019
5063 Clouds 18 1005 46 0 1.55 305.289 13:30 17.07.2019
5064 Clouds 18 1005 46 0 1.55 305.289 12:44 17.07.2019
5065 Clouds 21 1004 32 0 4.75 257.225 12:24 17.07.2019
5066 Clouds 21 1004 32 0 4.75 257.225 11:59 17.07.2019
5067 Clouds 21 1004 32 0 4.75 257.225 11:39 17.07.2019
5068 Clouds 21 1004 32 0 4.75 257.225 11:19 17.07.2019
5069 Clouds 21 1004 32 0 4.75 257.225 10:43 17.07.2019
5070 Clouds 21 1004 32 0 4.75 257.225 10:20 17.07.2019
5071 Clouds 21 1004 32 0 4.75 257.225 09:44 17.07.2019
5072 Clouds 21 1004 32 0 4.75 257.225 09:26 17.07.2019
5073 Clouds 20 1005 41 0 4.97 213.376 08:44 17.07.2019
5074 Clouds 20 1005 41 0 4.97 213.376 08:22 17.07.2019
5075 Clouds 20 1005 41 0 4.97 213.376 07:53 17.07.2019
5076 Clouds 20 1005 41 0 4.97 213.376 07:28 17.07.2019
5077 Clouds 20 1005 41 0 4.97 213.376 06:59 17.07.2019
5078 Clouds 20 1005 41 0 4.97 213.376 06:37 17.07.2019
5079 Clouds 17 1006 53 0 3.21 197.442 06:18 17.07.2019
5080 Clouds 17 1006 53 0 3.21 197.442 05:32 17.07.2019
5081 Clouds 17 1006 53 0 3.21 197.442 04:49 17.07.2019
5082 Clouds 17 1006 53 0 3.21 197.442 03:46 17.07.2019
5083 Rain 13 1007 67 0 1.36 145.513 02:31 17.07.2019
5084 Clouds 13 1007 65 0 1.11 166.514 01:28 17.07.2019
5085 Clouds 13 1007 65 0 1.11 166.514 00:59 17.07.2019
5086 Clouds 13 1007 65 0 1.11 166.514 00:38 17.07.2019
5087 Rain 9 1006 81 0 1.4 150.484 00:19 17.07.2019
5088 Rain 9 1006 81 0 1.4 150.484 23:42 16.07.2019
5089 Rain 9 1006 81 0 1.4 150.484 23:22 16.07.2019
5090 Rain 9 1006 81 0 1.4 150.484 22:43 16.07.2019
5091 Rain 9 1006 81 0 1.4 150.484 22:24 16.07.2019
5092 Rain 9 1006 81 0 1.4 150.484 21:56 16.07.2019
5093 Rain 9 1006 81 0 1.4 150.484 21:36 16.07.2019
5094 Rain 10 1005 71 0 1.98 136.554 21:18 16.07.2019
5095 Rain 10 1006 72 0 1.97 120.435 20:41 16.07.2019
5096 Rain 10 1006 72 0 1.97 120.435 20:22 16.07.2019
5097 Rain 10 1006 72 0 1.97 120.435 19:54 16.07.2019
5098 Rain 10 1006 72 0 1.97 120.435 19:30 16.07.2019
5099 Rain 10 1006 72 0 1.97 120.435 18:59 16.07.2019
5100 Rain 10 1006 72 0 1.97 120.435 18:40 16.07.2019
5101 Clouds 10 1004 74 0 1.99 123.132 18:20 16.07.2019
5102 Clouds 10 1004 74 0 1.99 123.132 17:44 16.07.2019
5103 Clouds 10 1004 74 0 1.99 123.132 17:26 16.07.2019
5104 Clouds 10 1004 74 0 1.99 123.132 16:49 16.07.2019
5105 Clouds 10 1004 74 0 1.99 123.132 16:25 16.07.2019
5106 Clouds 10 1004 74 0 1.99 123.132 15:57 16.07.2019
5107 Clouds 10 1004 74 0 1.99 123.132 15:38 16.07.2019
5108 Clouds 10 1004 74 0 1.99 123.132 15:38 16.07.2019
5109 Clouds 10 1004 74 0 1.99 123.132 15:38 16.07.2019
5110 Clouds 14 1003 66 0 2.25 132.262 15:19 16.07.2019
5111 Clouds 14 1003 66 0 2.25 132.262 14:47 16.07.2019
5112 Clouds 14 1003 66 0 2.25 132.262 14:28 16.07.2019
5113 Clouds 14 1003 66 0 2.25 132.262 13:57 16.07.2019
5114 Clouds 14 1003 66 0 2.25 132.262 13:37 16.07.2019
5115 Rain 13 1003 71 0 1.97 84.229 13:18 16.07.2019
5116 Rain 13 1003 71 0 1.97 84.229 12:43 16.07.2019
5117 Clouds 18 1002 45 0 2.71 242.245 12:20 16.07.2019
5118 Clouds 18 1002 45 0 2.71 242.245 11:54 16.07.2019
5119 Clouds 18 1002 45 0 2.71 242.245 11:36 16.07.2019
5120 Clouds 18 1002 45 0 2.71 242.245 11:18 16.07.2019
5121 Clouds 18 1002 45 0 2.71 242.245 11:18 16.07.2019
5122 Clouds 18 1002 45 0 2.71 242.245 10:43 16.07.2019
5123 Clouds 18 1002 45 0 2.71 242.245 10:19 16.07.2019
5124 Clouds 18 1002 45 0 2.71 242.245 09:43 16.07.2019
5125 Clear 18 1003 46 0 3.57 212.822 09:21 16.07.2019
5126 Clear 18 1003 44 0 3.68 210.352 08:48 16.07.2019
5127 Clear 18 1003 44 0 3.68 210.352 08:27 16.07.2019
5128 Clear 18 1003 44 0 3.68 210.352 08:27 16.07.2019
5129 Clear 18 1003 44 0 3.68 210.352 07:54 16.07.2019
5130 Clear 18 1003 44 0 3.68 210.352 07:35 16.07.2019
5131 Clear 18 1003 44 0 3.68 210.352 06:59 16.07.2019
5132 Clear 18 1003 44 0 3.68 210.352 06:37 16.07.2019
5133 Clear 14 1005 54 0 2.17 188.284 05:52 16.07.2019
5134 Clear 14 1005 54 0 2.17 188.284 05:28 16.07.2019
5135 Clear 14 1005 54 0 2.17 188.284 04:36 16.07.2019
5136 Clear 14 1005 54 0 2.17 188.284 03:43 16.07.2019
5137 Clear 10 1006 81 0 1.38 151.006 02:44 16.07.2019
5138 Clear 10 1006 81 0 1.38 151.006 02:24 16.07.2019
5139 Clear 10 1006 81 0 1.38 151.006 01:26 16.07.2019
5140 Clouds 7 1006 93 0 1.38 179.792 00:24 16.07.2019
5141 Clouds 7 1006 93 0 1.38 179.792 23:58 15.07.2019
5142 Clouds 7 1006 93 0 1.38 179.792 23:39 15.07.2019
5143 Clouds 7 1006 93 0 1.38 179.792 23:20 15.07.2019
5144 Clouds 7 1006 93 0 1.38 179.792 22:44 15.07.2019
5145 Clouds 7 1006 93 0 1.38 179.792 22:20 15.07.2019
5146 Clouds 7 1006 93 0 1.38 179.792 21:57 15.07.2019
5147 Clouds 7 1006 93 0 1.38 179.792 21:39 15.07.2019
5148 Clouds 8 1005 91 0 1.5 215.267 21:19 15.07.2019
5149 Clouds 8 1005 91 0 1.5 215.267 20:44 15.07.2019
5150 Clouds 8 1005 91 0 1.5 215.267 20:24 15.07.2019
5151 Clouds 8 1005 91 0 1.5 215.267 19:57 15.07.2019
5152 Clouds 8 1005 91 0 1.5 215.267 19:38 15.07.2019
5153 Clouds 8 1005 91 0 1.5 215.267 19:18 15.07.2019
5154 Clouds 8 1005 91 0 1.5 215.267 18:44 15.07.2019
5155 Rain 9 1005 88 0 1.46 227.695 18:21 15.07.2019
5156 Rain 9 1005 88 0 1.46 227.695 17:56 15.07.2019
5157 Rain 9 1005 88 0 1.46 227.695 17:38 15.07.2019
5158 Rain 9 1005 88 0 1.46 227.695 17:20 15.07.2019
5159 Rain 9 1005 88 0 1.46 227.695 16:57 15.07.2019
5160 Rain 9 1005 88 0 1.46 227.695 16:36 15.07.2019
5161 Rain 9 1005 88 0 1.46 227.695 16:36 15.07.2019
5162 Rain 9 1005 88 0 1.46 227.695 16:18 15.07.2019
5163 Rain 9 1005 88 0 1.46 227.695 15:38 15.07.2019
5164 Rain 9 1005 88 0 1.46 227.695 15:38 15.07.2019
5165 Rain 13 1003 71 0 3.73 255.803 15:20 15.07.2019
5166 Rain 13 1003 71 0 3.73 255.803 14:55 15.07.2019
5167 Rain 13 1003 71 0 3.73 255.803 14:37 15.07.2019
5168 Rain 13 1003 71 0 3.73 255.803 14:18 15.07.2019
5169 Rain 13 1003 71 0 3.73 255.803 13:43 15.07.2019
5170 Rain 13 1003 72 0 4.01 263.203 13:18 15.07.2019
5171 Rain 13 1003 72 0 4.01 263.203 12:43 15.07.2019
5172 Rain 15 1002 59 0 5.67 258.24 12:23 15.07.2019
5173 Rain 15 1002 59 0 5.67 258.24 11:44 15.07.2019
5174 Rain 15 1002 59 0 5.67 258.24 11:26 15.07.2019
5175 Rain 15 1002 59 0 5.67 258.24 10:49 15.07.2019
5176 Rain 15 1002 59 0 5.67 258.24 10:30 15.07.2019
5177 Rain 15 1002 59 0 5.67 258.24 09:58 15.07.2019
5178 Rain 15 1002 59 0 5.67 258.24 09:39 15.07.2019
5179 Rain 15 1001 58 0 4.5 259.172 09:18 15.07.2019
5180 Rain 15 1001 54 0 4.06 243.688 08:42 15.07.2019
5181 Rain 15 1001 54 0 4.06 243.688 08:23 15.07.2019
5182 Rain 15 1001 54 0 4.06 243.688 07:41 15.07.2019
5183 Rain 15 1001 54 0 4.06 243.688 07:20 15.07.2019
5184 Rain 15 1001 54 0 4.06 243.688 06:39 15.07.2019
5185 Rain 15 1001 54 0 4.06 243.688 06:39 15.07.2019
5186 Rain 14 1001 62 0 2.81 234.46 05:51 15.07.2019
5187 Rain 14 1001 62 0 2.81 234.46 05:51 15.07.2019
5188 Rain 14 1001 62 0 2.81 234.46 05:32 15.07.2019
5189 Rain 14 1001 62 0 2.81 234.46 04:43 15.07.2019
5190 Rain 14 1001 62 0 2.81 234.46 03:58 15.07.2019
5191 Rain 14 1001 62 0 2.81 234.46 03:58 15.07.2019
5192 Rain 11 1003 73 0 0.98 215.551 02:49 15.07.2019
5193 Rain 11 1003 73 0 0.98 215.551 01:54 15.07.2019
5194 Rain 11 1003 74 0 0.64 346.898 01:32 15.07.2019
5195 Rain 11 1003 74 0 0.64 346.898 00:53 15.07.2019
5196 Rain 11 1003 74 0 0.64 346.898 00:26 15.07.2019
5197 Clear 7 1003 89 0 1.35 88.349 23:57 14.07.2019
5198 Clear 7 1003 89 0 1.35 88.349 23:39 14.07.2019
5199 Clear 7 1003 89 0 1.35 88.349 23:18 14.07.2019
5200 Clear 7 1003 89 0 1.35 88.349 23:18 14.07.2019
5201 Clear 7 1003 89 0 1.35 88.349 22:55 14.07.2019
5202 Clear 7 1003 89 0 1.35 88.349 22:37 14.07.2019
5203 Clear 7 1003 89 0 1.35 88.349 22:18 14.07.2019
5204 Clear 7 1003 89 0 1.35 88.349 21:42 14.07.2019
5205 Clouds 8 1003 92 0 1.29 115.93 21:19 14.07.2019
5206 Clouds 8 1003 92 0 1.29 115.93 21:19 14.07.2019
5207 Clouds 8 1003 92 0 1.29 115.93 20:57 14.07.2019
5208 Clouds 8 1003 92 0 1.29 115.93 20:57 14.07.2019
5209 Clouds 8 1003 92 0 1.29 115.93 20:37 14.07.2019
5210 Clouds 8 1003 92 0 1.29 115.93 20:19 14.07.2019
5211 Clouds 8 1003 92 0 1.29 115.93 19:45 14.07.2019
5212 Clouds 8 1003 92 0 1.29 115.93 19:26 14.07.2019
5213 Clouds 8 1003 92 0 1.29 115.93 18:58 14.07.2019
5214 Clouds 8 1003 92 0 1.29 115.93 18:39 14.07.2019
5215 Rain 9 1004 92 0 2.43 146.33 18:21 14.07.2019
5216 Rain 9 1004 92 0 2.43 146.33 17:49 14.07.2019
5217 Rain 9 1004 92 0 2.43 146.33 17:21 14.07.2019
5218 Rain 9 1004 92 0 2.43 146.33 16:47 14.07.2019
5219 Rain 9 1004 92 0 2.43 146.33 16:24 14.07.2019
5220 Rain 9 1004 92 0 2.43 146.33 15:56 14.07.2019
5221 Rain 9 1004 92 0 2.43 146.33 15:34 14.07.2019
5222 Clouds 16 1002 56 0 2.34 263.3 14:51 14.07.2019
5223 Clouds 16 1002 56 0 2.34 263.3 14:22 14.07.2019
5224 Clouds 16 1002 56 0 2.34 263.3 13:58 14.07.2019
5225 Clouds 16 1002 56 0 2.34 263.3 13:38 14.07.2019
5226 Rain 14 1002 64 0 0.18 51.14 13:20 14.07.2019
5227 Rain 14 1002 64 0 0.18 51.14 12:43 14.07.2019
5228 Rain 16 1001 55 0 2.12 264.864 12:22 14.07.2019
5229 Rain 16 1001 55 0 2.12 264.864 11:55 14.07.2019
5230 Rain 16 1001 55 0 2.12 264.864 11:28 14.07.2019
5231 Rain 16 1001 55 0 2.12 264.864 10:59 14.07.2019
5232 Rain 16 1001 55 0 2.12 264.864 10:40 14.07.2019
5233 Rain 16 1001 55 0 2.12 264.864 10:19 14.07.2019
5234 Rain 16 1001 55 0 2.12 264.864 09:42 14.07.2019
5235 Rain 18 1002 43 0 3.49 211.296 09:23 14.07.2019
5236 Rain 16 1002 50 0 5.13 220.013 08:43 14.07.2019
5237 Rain 16 1002 50 0 5.13 220.013 07:58 14.07.2019
5238 Rain 16 1002 50 0 5.13 220.013 07:38 14.07.2019
5239 Rain 16 1002 50 0 5.13 220.013 06:55 14.07.2019
5240 Rain 15 1004 57 0 3.02 163.481 05:44 14.07.2019
5241 Rain 15 1004 57 0 3.02 163.481 03:48 14.07.2019
5242 Rain 15 1004 57 0 3.02 163.481 03:29 14.07.2019
5243 Clouds 11 1006 74 0 1.99 138.787 02:41 14.07.2019
5244 Clouds 11 1006 74 0 1.99 138.787 02:21 14.07.2019
5245 Clouds 11 1006 73 0 1.81 125.681 01:32 14.07.2019
5246 Clouds 11 1006 73 0 1.81 125.681 00:57 14.07.2019
5247 Clouds 11 1006 73 0 1.81 125.681 00:38 14.07.2019
5248 Clouds 8 1007 82 0 1.25 135 00:19 14.07.2019
5249 Clouds 8 1007 82 0 1.25 135 23:44 13.07.2019
5250 Clouds 8 1007 82 0 1.25 135 23:25 13.07.2019
5251 Clouds 8 1007 82 0 1.25 135 22:47 13.07.2019
5252 Clouds 8 1007 82 0 1.25 135 22:26 13.07.2019
5253 Clouds 8 1007 82 0 1.25 135 21:58 13.07.2019
5254 Clouds 8 1007 82 0 1.25 135 21:39 13.07.2019
5255 Clouds 10 1008 79 0 0.93 80.578 21:19 13.07.2019
5256 Clouds 10 1008 79 0 0.93 80.578 20:41 13.07.2019
5257 Clouds 10 1008 79 0 0.93 80.578 20:23 13.07.2019
5258 Clouds 10 1008 79 0 0.93 80.578 19:43 13.07.2019
5259 Clouds 10 1008 79 0 0.93 80.578 19:25 13.07.2019
5260 Clouds 10 1008 79 0 0.93 80.578 18:42 13.07.2019
5261 Clouds 11 1008 75 0 2.13 122.95 18:20 13.07.2019
5262 Clouds 11 1008 75 0 2.13 122.95 17:38 13.07.2019
5263 Clouds 11 1008 75 0 2.13 122.95 17:20 13.07.2019
5264 Clouds 11 1008 75 0 2.13 122.95 16:46 13.07.2019
5265 Clouds 11 1008 75 0 2.13 122.95 16:26 13.07.2019
5266 Clouds 11 1008 75 0 2.13 122.95 15:54 13.07.2019
5267 Clouds 11 1008 75 0 2.13 122.95 15:36 13.07.2019
5268 Rain 13 1007 65 0 4.39 233.78 15:18 13.07.2019
5269 Rain 13 1007 65 0 4.39 233.78 14:41 13.07.2019
5270 Rain 13 1007 65 0 4.39 233.78 14:20 13.07.2019
5271 Rain 13 1007 65 0 4.39 233.78 13:44 13.07.2019
5272 Clouds 14 1006 61 0 1.41 152.185 13:23 13.07.2019
5273 Clouds 14 1006 61 0 1.41 152.185 12:42 13.07.2019
5274 Clouds 16 1007 48 0 2.58 140.753 12:23 13.07.2019
5275 Clouds 16 1007 48 0 2.58 140.753 11:58 13.07.2019
5276 Clouds 16 1007 48 0 2.58 140.753 11:37 13.07.2019
5277 Clouds 16 1007 48 0 2.58 140.753 11:18 13.07.2019
5278 Clouds 16 1007 48 0 2.58 140.753 10:41 13.07.2019
5279 Clouds 16 1007 48 0 2.58 140.753 10:23 13.07.2019
5280 Clouds 16 1007 48 0 2.58 140.753 09:48 13.07.2019
5281 Clouds 16 1007 48 0 2.58 140.753 09:28 13.07.2019
5282 Clouds 15 1009 51 0 4.04 141.821 08:56 13.07.2019
5283 Clouds 15 1009 51 0 4.04 141.821 08:28 13.07.2019
5284 Clouds 15 1009 51 0 4.04 141.821 07:55 13.07.2019
5285 Clouds 15 1009 51 0 4.04 141.821 07:28 13.07.2019
5286 Clouds 15 1009 51 0 4.04 141.821 06:31 13.07.2019
5287 Clouds 15 1009 50 0 2.62 165.921 05:48 13.07.2019
5288 Clouds 15 1009 50 0 2.62 165.921 04:40 13.07.2019
5289 Clouds 15 1009 50 0 2.62 165.921 04:20 13.07.2019
5290 Clouds 15 1009 50 0 2.62 165.921 03:41 13.07.2019
5291 Clouds 12 1010 63 0 1.6 119.496 03:18 13.07.2019
5292 Clouds 12 1010 63 0 1.6 119.496 01:53 13.07.2019
5293 Clouds 12 1010 62 0 1.56 122.559 01:21 13.07.2019
5294 Clouds 12 1010 62 0 1.56 122.559 00:58 13.07.2019
5295 Clouds 8 1010 79 0 1.89 139.165 00:21 13.07.2019
5296 Clouds 8 1010 79 0 1.89 139.165 23:53 12.07.2019
5297 Clouds 8 1010 79 0 1.89 139.165 23:33 12.07.2019
5298 Clouds 8 1010 79 0 1.89 139.165 22:59 12.07.2019
5299 Clouds 8 1010 79 0 1.89 139.165 22:40 12.07.2019
5300 Clouds 8 1010 79 0 1.89 139.165 22:21 12.07.2019
5301 Clouds 8 1010 79 0 1.89 139.165 21:42 12.07.2019
5302 Clouds 9 1009 78 0 2.14 79.148 21:21 12.07.2019
5303 Clouds 9 1009 78 0 2.14 79.148 20:47 12.07.2019
5304 Clouds 9 1009 78 0 2.14 79.148 20:23 12.07.2019
5305 Clouds 9 1009 78 0 2.14 79.148 19:44 12.07.2019
5306 Clouds 9 1009 78 0 2.14 79.148 19:26 12.07.2019
5307 Clouds 9 1009 78 0 2.14 79.148 18:58 12.07.2019
5308 Clouds 9 1009 78 0 2.14 79.148 18:37 12.07.2019
5309 Clear 10 1009 73 0 2.4 55.674 18:19 12.07.2019
5310 Clear 10 1009 73 0 2.4 55.674 17:45 12.07.2019
5311 Clear 10 1009 73 0 2.4 55.674 17:27 12.07.2019
5312 Clear 10 1009 73 0 2.4 55.674 16:38 12.07.2019
5313 Clear 10 1009 73 0 2.4 55.674 16:20 12.07.2019
5314 Clear 10 1009 73 0 2.4 55.674 15:41 12.07.2019
5315 Clouds 14 1008 68 0 1.66 66.122 15:20 12.07.2019
5316 Clouds 14 1008 68 0 1.66 66.122 14:47 12.07.2019
5317 Clouds 14 1008 68 0 1.66 66.122 14:47 12.07.2019
5318 Clouds 14 1008 68 0 1.66 66.122 14:22 12.07.2019
5319 Clouds 14 1008 68 0 1.66 66.122 13:55 12.07.2019
5320 Clouds 14 1008 68 0 1.66 66.122 13:37 12.07.2019
5321 Clouds 14 1007 68 0 1.6 94.195 12:55 12.07.2019
5322 Clouds 14 1007 68 0 1.6 94.195 12:37 12.07.2019
5323 Rain 15 1007 67 0 2.9 156.072 12:18 12.07.2019
5324 Rain 15 1007 67 0 2.9 156.072 11:43 12.07.2019
5325 Rain 15 1007 67 0 2.9 156.072 11:20 12.07.2019
5326 Rain 15 1007 67 0 2.9 156.072 10:43 12.07.2019
5327 Rain 15 1007 67 0 2.9 156.072 10:23 12.07.2019
5328 Rain 15 1007 67 0 2.9 156.072 09:54 12.07.2019
5329 Rain 15 1007 67 0 2.9 156.072 09:29 12.07.2019
5330 Rain 17 1007 59 0 5.14 183.455 08:58 12.07.2019
5331 Rain 17 1007 59 0 5.14 183.455 08:26 12.07.2019
5332 Rain 17 1007 59 0 5.14 183.455 07:55 12.07.2019
5333 Rain 17 1007 59 0 5.14 183.455 07:32 12.07.2019
5334 Rain 17 1007 59 0 5.14 183.455 06:59 12.07.2019
5335 Rain 17 1007 59 0 5.14 183.455 06:28 12.07.2019
5336 Rain 15 1009 66 0 3.19 178.187 05:42 12.07.2019
5337 Rain 11 1009 91 0 1.89 108.799 03:21 12.07.2019
5338 Rain 11 1009 91 0 1.89 108.799 01:41 12.07.2019
5339 Rain 11 1010 92 0 2.04 104.213 00:54 12.07.2019
5340 Clouds 11 1009 78 0 1.69 121.574 00:20 12.07.2019
5341 Clouds 11 1009 78 0 1.69 121.574 23:47 11.07.2019
5342 Clouds 11 1009 78 0 1.69 121.574 23:26 11.07.2019
5343 Clouds 11 1009 78 0 1.69 121.574 22:52 11.07.2019
5344 Clouds 11 1009 78 0 1.69 121.574 22:27 11.07.2019
5345 Clouds 11 1009 78 0 1.69 121.574 21:59 11.07.2019
5346 Clouds 11 1009 78 0 1.69 121.574 21:40 11.07.2019
5347 Rain 10 1009 85 0 1.9 95.756 21:18 11.07.2019
5348 Rain 10 1009 85 0 1.9 95.756 20:42 11.07.2019
5349 Rain 10 1009 85 0 1.9 95.756 20:24 11.07.2019
5350 Rain 10 1009 85 0 1.9 95.756 19:58 11.07.2019
5351 Rain 10 1009 85 0 1.9 95.756 19:39 11.07.2019
5352 Rain 10 1009 85 0 1.9 95.756 19:21 11.07.2019
5353 Rain 10 1009 85 0 1.9 95.756 18:43 11.07.2019
5354 Rain 10 1009 85 0 1.9 95.756 18:43 11.07.2019
5355 Rain 11 1008 91 0 2.64 14.405 18:24 11.07.2019
5356 Rain 11 1008 91 0 2.64 14.405 17:50 11.07.2019
5357 Rain 11 1008 91 0 2.64 14.405 17:31 11.07.2019
5358 Rain 11 1008 91 0 2.64 14.405 16:56 11.07.2019
5359 Rain 11 1008 91 0 2.64 14.405 16:37 11.07.2019
5360 Rain 11 1008 91 0 2.64 14.405 16:18 11.07.2019
5361 Rain 11 1008 91 0 2.64 14.405 15:40 11.07.2019
5362 Clouds 16 1005 61 0 2.56 109.058 15:21 11.07.2019
5363 Clouds 16 1005 61 0 2.56 109.058 14:45 11.07.2019
5364 Clouds 16 1005 61 0 2.56 109.058 14:25 11.07.2019
5365 Clouds 16 1005 61 0 2.56 109.058 13:59 11.07.2019
5366 Clouds 16 1005 61 0 2.56 109.058 13:40 11.07.2019
5367 Clouds 17 1005 58 0 1.53 105.94 13:22 11.07.2019
5368 Clouds 17 1005 58 0 1.53 105.94 12:38 11.07.2019
5369 Clouds 20 1004 43 0 7.42 217.226 12:19 11.07.2019
5370 Clouds 20 1004 43 0 7.42 217.226 11:45 11.07.2019
5371 Clouds 20 1004 43 0 7.42 217.226 11:27 11.07.2019
5372 Clouds 20 1004 43 0 7.42 217.226 10:52 11.07.2019
5373 Clouds 20 1004 43 0 7.42 217.226 10:20 11.07.2019
5374 Clouds 20 1004 43 0 7.42 217.226 10:20 11.07.2019
5375 Clouds 20 1004 43 0 7.42 217.226 09:53 11.07.2019
5376 Clouds 20 1004 43 0 7.42 217.226 09:32 11.07.2019
5377 Clouds 19 1005 48 0 5.16 194.228 08:59 11.07.2019
5378 Clouds 19 1005 48 0 5.16 194.228 08:39 11.07.2019
5379 Clouds 19 1005 48 0 5.16 194.228 08:19 11.07.2019
5380 Clouds 19 1005 48 0 5.16 194.228 07:43 11.07.2019
5381 Clouds 19 1005 48 0 5.16 194.228 07:23 11.07.2019
5382 Clouds 17 1006 54 0 5.26 173.117 06:19 11.07.2019
5383 Clouds 17 1006 54 0 5.26 173.117 05:32 11.07.2019
5384 Clouds 17 1006 54 0 5.26 173.117 04:56 11.07.2019
5385 Clouds 17 1006 54 0 5.26 173.117 03:57 11.07.2019
5386 Clouds 14 1007 66 0 2.19 134.5 02:25 11.07.2019
5387 Clouds 14 1007 67 0 1.98 92.204 00:35 11.07.2019
5388 Rain 11 1007 79 0 1.26 83.75 23:51 10.07.2019
5389 Rain 11 1007 79 0 1.26 83.75 23:27 10.07.2019
5390 Rain 11 1007 79 0 1.26 83.75 22:57 10.07.2019
5391 Rain 11 1007 79 0 1.26 83.75 22:26 10.07.2019
5392 Rain 11 1007 79 0 1.26 83.75 21:57 10.07.2019
5393 Rain 11 1007 79 0 1.26 83.75 21:38 10.07.2019
5394 Clouds 10 1007 78 0 1.5 98.297 21:20 10.07.2019
5395 Clouds 10 1007 78 0 1.5 98.297 20:46 10.07.2019
5396 Clouds 10 1007 78 0 1.5 98.297 20:26 10.07.2019
5397 Clouds 10 1007 78 0 1.5 98.297 19:57 10.07.2019
5398 Clouds 10 1007 78 0 1.5 98.297 19:38 10.07.2019
5399 Clouds 10 1007 78 0 1.5 98.297 19:20 10.07.2019
5400 Clouds 10 1007 78 0 1.5 98.297 18:46 10.07.2019
5401 Clouds 12 1006 73 0 1.45 121.582 18:23 10.07.2019
5402 Clouds 12 1006 73 0 1.45 121.582 17:47 10.07.2019
5403 Clouds 12 1006 73 0 1.45 121.582 17:29 10.07.2019
5404 Clouds 12 1006 73 0 1.45 121.582 16:47 10.07.2019
5405 Clouds 12 1006 73 0 1.45 121.582 16:21 10.07.2019
5406 Clouds 12 1006 73 0 1.45 121.582 15:47 10.07.2019
5407 Clouds 17 1004 58 0 3.16 136.746 15:26 10.07.2019
5408 Clouds 17 1004 58 0 3.16 136.746 14:49 10.07.2019
5409 Clouds 17 1004 58 0 3.16 136.746 14:29 10.07.2019
5410 Clouds 17 1004 58 0 3.16 136.746 13:59 10.07.2019
5411 Clouds 17 1004 58 0 3.16 136.746 13:36 10.07.2019
5412 Rain 15 1004 69 0 4.18 110.914 13:18 10.07.2019
5413 Rain 15 1004 69 0 4.18 110.914 12:41 10.07.2019
5414 Rain 18 1004 53 0 5.93 156.202 12:21 10.07.2019
5415 Rain 18 1004 53 0 5.93 156.202 11:49 10.07.2019
5416 Rain 18 1004 53 0 5.93 156.202 11:22 10.07.2019
5417 Rain 18 1004 53 0 5.93 156.202 10:58 10.07.2019
5418 Rain 18 1004 53 0 5.93 156.202 10:58 10.07.2019
5419 Rain 18 1004 53 0 5.93 156.202 10:58 10.07.2019
5420 Rain 18 1004 53 0 5.93 156.202 10:24 10.07.2019
5421 Rain 18 1004 53 0 5.93 156.202 09:56 10.07.2019
5422 Rain 18 1004 53 0 5.93 156.202 09:37 10.07.2019
5423 Clouds 19 1004 47 0 4.19 154.776 09:19 10.07.2019
5424 Clouds 20 1004 43 0 3.84 151.418 08:48 10.07.2019
5425 Clouds 20 1004 43 0 3.84 151.418 08:23 10.07.2019
5426 Clouds 20 1004 43 0 3.84 151.418 07:46 10.07.2019
5427 Clouds 20 1004 43 0 3.84 151.418 07:23 10.07.2019
5428 Clouds 20 1004 43 0 3.84 151.418 06:36 10.07.2019
5429 Clouds 18 1005 51 0 3.74 166.536 05:40 10.07.2019
5430 Clouds 18 1005 51 0 3.74 166.536 04:30 10.07.2019
5431 Clear 14 1006 61 0 1.44 101.989 02:18 10.07.2019
5432 Clear 14 1007 62 0 1.38 110.906 00:44 10.07.2019
5433 Clear 9 1006 81 0 0.98 119.361 23:42 09.07.2019
5434 Clear 9 1006 81 0 0.98 119.361 23:23 09.07.2019
5435 Clear 9 1006 81 0 0.98 119.361 22:57 09.07.2019
5436 Clear 9 1006 81 0 0.98 119.361 22:37 09.07.2019
5437 Clear 9 1006 81 0 0.98 119.361 22:18 09.07.2019
5438 Clear 9 1006 81 0 0.98 119.361 21:45 09.07.2019
5439 Clouds 10 1007 80 0 0.99 96.469 21:25 09.07.2019
5440 Clouds 10 1007 78 0 0.98 128.596 20:45 09.07.2019
5441 Clouds 10 1007 78 0 0.98 128.596 20:26 09.07.2019
5442 Clouds 10 1007 78 0 0.98 128.596 19:45 09.07.2019
5443 Clouds 10 1007 78 0 0.98 128.596 19:26 09.07.2019
5444 Clouds 10 1007 78 0 0.98 128.596 18:58 09.07.2019
5445 Clouds 10 1007 78 0 0.98 128.596 18:36 09.07.2019
5446 Clouds 12 1007 76 0 1.18 121.48 18:18 09.07.2019
5447 Clouds 12 1007 76 0 1.18 121.48 17:42 09.07.2019
5448 Clouds 12 1007 76 0 1.18 121.48 17:21 09.07.2019
5449 Clouds 12 1007 76 0 1.18 121.48 16:51 09.07.2019
5450 Clouds 12 1007 76 0 1.18 121.48 16:26 09.07.2019
5451 Clouds 12 1007 76 0 1.18 121.48 15:57 09.07.2019
5452 Clouds 12 1007 76 0 1.18 121.48 15:36 09.07.2019
5453 Rain 17 1005 61 0 1.07 152.331 14:59 09.07.2019
5454 Rain 17 1005 61 0 1.07 152.331 14:40 09.07.2019
5455 Rain 17 1005 61 0 1.07 152.331 14:21 09.07.2019
5456 Rain 17 1005 61 0 1.07 152.331 13:46 09.07.2019
5457 Rain 16 1005 67 0 0.91 116.255 13:28 09.07.2019
5458 Rain 16 1005 67 0 0.91 116.255 12:57 09.07.2019
5459 Rain 16 1005 67 0 0.91 116.255 12:37 09.07.2019
5460 Rain 16 1006 61 0 4.98 196.143 12:18 09.07.2019
5461 Rain 16 1006 61 0 4.98 196.143 11:41 09.07.2019
5462 Rain 16 1006 61 0 4.98 196.143 11:22 09.07.2019
5463 Rain 16 1006 61 0 4.98 196.143 11:22 09.07.2019
5464 Rain 16 1006 61 0 4.98 196.143 10:58 09.07.2019
5465 Rain 16 1006 61 0 4.98 196.143 10:34 09.07.2019
5466 Rain 16 1006 61 0 4.98 196.143 09:56 09.07.2019
5467 Rain 16 1006 61 0 4.98 196.143 09:37 09.07.2019
5468 Rain 18 1006 50 0 10.13 219.113 09:19 09.07.2019
5469 Rain 18 1006 50 0 10.13 219.113 08:41 09.07.2019
5470 Clouds 15 1009 45 0 3.4 166.467 04:19 05.07.2019
5471 Clouds 15 1009 45 0 3.4 166.467 03:39 05.07.2019
5472 Clouds 11 1011 65 0 1.46 99.851 03:19 05.07.2019
5473 Clouds 11 1011 65 0 1.46 99.851 02:51 05.07.2019
5474 Clouds 11 1011 65 0 1.46 99.851 01:55 05.07.2019
5475 Clouds 11 1011 65 0 1.37 105.002 01:28 05.07.2019
5476 Clouds 11 1011 65 0 1.37 105.002 00:51 05.07.2019
5477 Clouds 11 1011 65 0 1.37 105.002 00:29 05.07.2019
5478 Clouds 7 1012 82 0 2.37 72.191 23:38 04.07.2019
5479 Clouds 7 1012 82 0 2.37 72.191 23:18 04.07.2019
5480 Clouds 7 1012 82 0 2.37 72.191 22:41 04.07.2019
5481 Clouds 7 1012 82 0 2.37 72.191 22:20 04.07.2019
5482 Clouds 7 1012 82 0 2.37 72.191 21:44 04.07.2019
5483 Clouds 7 1013 84 0 2.03 36.543 21:26 04.07.2019
5484 Clouds 7 1013 81 0 1.97 60.352 20:59 04.07.2019
5485 Clouds 7 1013 81 0 1.97 60.352 20:37 04.07.2019
5486 Clouds 7 1013 81 0 1.97 60.352 20:19 04.07.2019
5487 Clouds 7 1013 81 0 1.97 60.352 19:41 04.07.2019
5488 Clouds 7 1013 81 0 1.97 60.352 19:21 04.07.2019
5489 Clouds 7 1013 81 0 1.97 60.352 18:55 04.07.2019
5490 Clouds 7 1013 81 0 1.97 60.352 18:36 04.07.2019
5491 Clear 9 1013 75 0 3.3 50.101 18:18 04.07.2019
5492 Clear 9 1013 75 0 3.3 50.101 17:41 04.07.2019
5493 Clear 9 1013 75 0 3.3 50.101 17:18 04.07.2019
5494 Clear 9 1013 75 0 3.3 50.101 15:45 04.07.2019
5495 Clear 14 1011 54 0 5.34 44.985 15:25 04.07.2019
5496 Clear 14 1011 54 0 5.34 44.985 14:59 04.07.2019
5497 Clear 14 1011 54 0 5.34 44.985 14:39 04.07.2019
5498 Clear 14 1011 54 0 5.34 44.985 14:20 04.07.2019
5499 Clear 14 1011 54 0 5.34 44.985 13:57 04.07.2019
5500 Clear 14 1011 54 0 5.34 44.985 13:38 04.07.2019
5501 Clouds 15 1011 53 0 3.94 43.55 13:19 04.07.2019
5502 Clouds 15 1011 53 0 3.94 43.55 12:39 04.07.2019
5503 Clouds 15 1011 53 0 3.94 43.55 12:39 04.07.2019
5504 Clear 16 1011 45 0 5.65 41.054 12:20 04.07.2019
5505 Clear 16 1011 45 0 5.65 41.054 11:55 04.07.2019
5506 Clear 16 1011 45 0 5.65 41.054 11:36 04.07.2019
5507 Clear 16 1011 45 0 5.65 41.054 11:18 04.07.2019
5508 Clear 16 1011 45 0 5.65 41.054 10:39 04.07.2019
5509 Clear 16 1011 45 0 5.65 41.054 10:18 04.07.2019
5510 Clear 16 1011 45 0 5.65 41.054 09:39 04.07.2019
5511 Clouds 15 1012 49 0 5.52 32.145 09:19 04.07.2019
5512 Clouds 15 1012 48 0 5.63 39.04 08:53 04.07.2019
5513 Clouds 15 1012 48 0 5.63 39.04 08:19 04.07.2019
5514 Clouds 15 1012 48 0 5.63 39.04 07:42 04.07.2019
5515 Clouds 15 1012 48 0 5.63 39.04 07:19 04.07.2019
5516 Clouds 15 1012 48 0 5.63 39.04 06:33 04.07.2019
5517 Clear 13 1013 53 0 3.65 14.981 05:43 04.07.2019
5518 Clear 13 1013 53 0 3.65 14.981 04:59 04.07.2019
5519 Clear 7 1014 75 0 2.67 4.967 02:23 04.07.2019
5520 Clear 7 1014 74 0 2.79 12.491 01:27 04.07.2019
5521 Clear 7 1014 74 0 2.79 12.491 00:52 04.07.2019
5522 Clear 4 1013 91 0 2.19 4.162 23:53 03.07.2019
5523 Clear 4 1013 91 0 2.19 4.162 23:21 03.07.2019
5524 Clear 4 1013 91 0 2.19 4.162 22:57 03.07.2019
5525 Clear 4 1013 91 0 2.19 4.162 22:38 03.07.2019
5526 Clear 4 1013 91 0 1.71 345.63 22:20 03.07.2019
5527 Clear 4 1013 91 0 1.71 345.63 21:55 03.07.2019
5528 Clear 4 1013 91 0 1.71 345.63 21:36 03.07.2019
5529 Clear 6 1012 86 0 2.12 10.992 20:55 03.07.2019
5530 Clear 6 1012 86 0 2.12 10.992 20:36 03.07.2019
5531 Clear 6 1012 86 0 2.12 10.992 20:18 03.07.2019
5532 Clear 6 1012 86 0 2.12 10.992 19:44 03.07.2019
5533 Clear 6 1012 86 0 2.12 10.992 19:44 03.07.2019
5534 Clear 6 1012 86 0 2.12 10.992 19:25 03.07.2019
5535 Clear 6 1012 86 0 2.12 10.992 18:45 03.07.2019
5536 Clear 7 1010 74 0 2.11 10.123 18:22 03.07.2019
5537 Clear 7 1010 74 0 2.11 10.123 17:49 03.07.2019
5538 Clear 7 1010 74 0 2.11 10.123 17:19 03.07.2019
5539 Clear 7 1010 74 0 2.11 10.123 17:19 03.07.2019
5540 Clear 7 1010 74 0 2.11 10.123 16:58 03.07.2019
5541 Clear 7 1010 74 0 2.11 10.123 16:39 03.07.2019
5542 Clear 7 1010 74 0 2.11 10.123 16:18 03.07.2019
5543 Clear 7 1010 74 0 2.11 10.123 15:44 03.07.2019
5544 Clear 7 1010 74 0 2.11 10.123 15:26 03.07.2019
5545 Clouds 13 1007 43 0 6.23 300.276 14:44 03.07.2019
5546 Clouds 13 1007 43 0 6.23 300.276 14:22 03.07.2019
5547 Clouds 13 1007 43 0 6.23 300.276 13:50 03.07.2019
5548 Clouds 13 1006 39 0 5.88 305.382 13:31 03.07.2019
5549 Clouds 13 1006 39 0 5.88 305.382 12:52 03.07.2019
5550 Clouds 16 1005 27 0 8.32 278.169 12:19 03.07.2019
5551 Clouds 16 1005 27 0 8.32 278.169 11:54 03.07.2019
5552 Clouds 16 1005 27 0 8.32 278.169 11:36 03.07.2019
5553 Clouds 16 1005 27 0 8.32 278.169 11:18 03.07.2019
5554 Clouds 16 1005 27 0 8.32 278.169 10:38 03.07.2019
5555 Clouds 16 1005 27 0 8.32 278.169 10:20 03.07.2019
5556 Clouds 16 1005 27 0 8.32 278.169 09:41 03.07.2019
5557 Clouds 16 1005 30 0 8.08 267.665 09:20 03.07.2019
5558 Clouds 16 1005 30 0 8.08 267.665 08:52 03.07.2019
5559 Clouds 16 1005 30 0 8.08 267.665 08:31 03.07.2019
5560 Clouds 16 1005 30 0 8.08 267.665 08:31 03.07.2019
5561 Clouds 16 1005 28 0 8.78 268.023 07:49 03.07.2019
5562 Clouds 16 1005 28 0 8.78 268.023 07:31 03.07.2019
5563 Clouds 16 1005 28 0 8.78 268.023 06:35 03.07.2019
5564 Clouds 15 1006 33 0 7.19 277.572 05:39 03.07.2019
5565 Clouds 15 1006 33 0 7.19 277.572 04:50 03.07.2019
5566 Clouds 13 1005 38 0 2.33 260.348 03:26 03.07.2019
5567 Clouds 13 1005 38 0 2.33 260.348 02:27 03.07.2019
5568 Clouds 13 1005 39 0 2.47 265.113 01:21 03.07.2019
5569 Clouds 13 1005 39 0 2.47 265.113 00:52 03.07.2019
5570 Clouds 13 1005 39 0 2.47 265.113 00:32 03.07.2019
5571 Clear 9 1004 37 0 1.93 181.661 23:38 02.07.2019
5572 Clear 9 1004 37 0 1.93 181.661 23:38 02.07.2019
5573 Clear 9 1004 37 0 1.93 181.661 23:20 02.07.2019
5574 Clear 9 1004 37 0 1.93 181.661 22:57 02.07.2019
5575 Clear 9 1004 37 0 1.93 181.661 22:38 02.07.2019
5576 Clear 9 1004 37 0 1.93 181.661 22:20 02.07.2019
5577 Clear 9 1004 37 0 1.93 181.661 21:46 02.07.2019
5578 Clear 9 1004 37 0 1.93 181.661 21:46 02.07.2019
5579 Clouds 10 1004 32 0 1.4 147.977 21:24 02.07.2019
5580 Clear 10 1004 33 0 1.38 139.727 20:58 02.07.2019
5581 Clear 10 1004 33 0 1.38 139.727 20:40 02.07.2019
5582 Clear 10 1004 33 0 1.38 139.727 20:21 02.07.2019
5583 Clear 10 1004 33 0 1.38 139.727 19:44 02.07.2019
5584 Clear 10 1004 33 0 1.38 139.727 19:24 02.07.2019
5585 Clear 10 1004 33 0 1.38 139.727 18:58 02.07.2019
5586 Clear 11 1005 33 0 0.98 117.427 18:19 02.07.2019
5587 Clear 11 1005 33 0 0.98 117.427 17:58 02.07.2019
5588 Clear 11 1005 33 0 0.98 117.427 17:37 02.07.2019
5589 Clear 11 1005 33 0 0.98 117.427 17:19 02.07.2019
5590 Clear 11 1005 33 0 0.98 117.427 16:43 02.07.2019
5591 Clear 11 1005 33 0 0.98 117.427 16:25 02.07.2019
5592 Clear 11 1005 33 0 0.98 117.427 15:40 02.07.2019
5593 Clear 19 1003 28 0 2.17 253.283 15:22 02.07.2019
5594 Clear 19 1003 28 0 2.17 253.283 14:47 02.07.2019
5595 Clear 19 1003 28 0 2.17 253.283 14:27 02.07.2019
5596 Clear 19 1003 28 0 2.17 253.283 13:44 02.07.2019
5597 Clear 18 1003 28 0 2.13 256.363 13:20 02.07.2019
5598 Clear 18 1003 28 0 2.13 256.363 12:45 02.07.2019
5599 Clear 21 1004 19 0 4.61 249.287 12:24 02.07.2019
5600 Clear 21 1004 19 0 4.61 249.287 11:55 02.07.2019
5601 Clear 21 1004 19 0 4.61 249.287 11:37 02.07.2019
5602 Clear 21 1004 19 0 4.61 249.287 11:18 02.07.2019
5603 Clear 21 1004 19 0 4.61 249.287 10:41 02.07.2019
5604 Clear 21 1004 19 0 4.61 249.287 10:23 02.07.2019
5605 Clear 21 1004 19 0 4.61 249.287 09:43 02.07.2019
5606 Clear 20 1005 24 0 5.03 221.217 09:20 02.07.2019
5607 Clear 20 1005 24 0 4.93 222.478 08:41 02.07.2019
5608 Clear 20 1005 24 0 4.93 222.478 08:20 02.07.2019
5609 Clear 20 1005 24 0 4.93 222.478 07:52 02.07.2019
5610 Clear 20 1005 24 0 4.93 222.478 07:20 02.07.2019
5611 Clear 20 1005 24 0 4.93 222.478 06:42 02.07.2019
5612 Clear 17 1008 33 0 3.95 202.875 05:58 02.07.2019
5613 Clear 17 1008 33 0 3.95 202.875 03:53 02.07.2019
5614 Clouds 13 1009 48 0 1.64 203.194 00:56 02.07.2019
5615 Clouds 8 1008 52 0 1.67 209.728 23:46 01.07.2019
5616 Clouds 8 1008 52 0 1.67 209.728 23:20 01.07.2019
5617 Clouds 8 1008 52 0 1.67 209.728 22:45 01.07.2019
5618 Clouds 8 1008 52 0 1.67 209.728 22:26 01.07.2019
5619 Clouds 8 1008 52 0 1.67 209.728 21:47 01.07.2019
5620 Clouds 10 1005 47 0 1.39 291.985 21:26 01.07.2019
5621 Clouds 10 1005 38 0 1.36 297.302 20:51 01.07.2019
5622 Clouds 10 1005 38 0 1.36 297.302 20:21 01.07.2019
5623 Clouds 10 1005 38 0 1.36 297.302 19:57 01.07.2019
5624 Clouds 10 1005 38 0 1.36 297.302 19:39 01.07.2019
5625 Clouds 10 1005 38 0 1.36 297.302 19:21 01.07.2019
5626 Clouds 10 1005 38 0 1.36 297.302 18:51 01.07.2019
5627 Clouds 10 1005 38 0 1.36 297.302 18:29 01.07.2019
5628 Clouds 12 1003 42 0 0.75 141.448 17:57 01.07.2019
5629 Clouds 12 1003 42 0 0.75 141.448 17:39 01.07.2019
5630 Clouds 12 1003 42 0 0.75 141.448 17:19 01.07.2019
5631 Clouds 12 1003 42 0 0.75 141.448 16:44 01.07.2019
5632 Clouds 12 1003 42 0 0.75 141.448 16:24 01.07.2019
5633 Clouds 12 1003 42 0 0.75 141.448 15:46 01.07.2019
5634 Clouds 12 1003 42 0 0.75 141.448 15:26 01.07.2019
5635 Clouds 19 999 35 0 1.45 261.803 14:45 01.07.2019
5636 Clouds 19 999 35 0 1.45 261.803 14:24 01.07.2019
5637 Clouds 19 999 35 0 1.45 261.803 13:55 01.07.2019
5638 Clouds 19 999 35 0 1.45 261.803 13:37 01.07.2019
5639 Clouds 19 999 33 0 2.28 261.799 13:18 01.07.2019
5640 Clouds 19 999 33 0 2.28 261.799 12:39 01.07.2019
5641 Clouds 19 999 33 0 2.28 261.799 12:39 01.07.2019
5642 Clouds 19 999 33 0 2.28 261.799 12:39 01.07.2019
5643 Clouds 21 999 29 0 6.93 236.184 12:20 01.07.2019
5644 Clouds 21 999 29 0 6.93 236.184 11:56 01.07.2019
5645 Clouds 21 999 29 0 6.93 236.184 11:56 01.07.2019
5646 Clouds 21 999 29 0 6.93 236.184 11:37 01.07.2019
5647 Clouds 21 999 29 0 6.93 236.184 11:18 01.07.2019
5648 Clouds 21 999 29 0 6.93 236.184 10:41 01.07.2019
5649 Clouds 21 999 29 0 6.93 236.184 10:20 01.07.2019
5650 Clouds 21 999 29 0 6.93 236.184 09:41 01.07.2019
5651 Clear 21 1001 34 0 5.99 201.196 09:23 01.07.2019
5652 Clear 21 1001 34 0 5.93 199.41 08:42 01.07.2019
5653 Clear 21 1001 34 0 5.93 199.41 08:21 01.07.2019
5654 Clear 21 1001 34 0 5.93 199.41 07:34 01.07.2019
5655 Clear 21 1001 34 0 5.93 199.41 06:41 01.07.2019
5656 Clear 18 1003 41 0 4.45 163.959 04:38 01.07.2019
5657 Clouds 14 1004 48 0 1.8 112.38 00:54 01.07.2019
5658 Clouds 14 1004 48 0 1.8 112.38 00:34 01.07.2019
5659 Clouds 10 1005 59 0 1.39 71.383 23:59 30.06.2019
5660 Clouds 10 1005 59 0 1.39 71.383 23:25 30.06.2019
5661 Clouds 10 1005 59 0 1.39 71.383 23:25 30.06.2019
5662 Clouds 10 1005 59 0 1.39 71.383 22:55 30.06.2019
5663 Clouds 10 1005 59 0 1.39 71.383 22:23 30.06.2019
5664 Clouds 10 1005 59 0 1.39 71.383 21:58 30.06.2019
5665 Clouds 10 1005 59 0 1.39 71.383 21:40 30.06.2019
5666 Clouds 10 1005 61 0 1.88 61.594 21:18 30.06.2019
5667 Clouds 10 1005 61 0 1.88 61.594 20:41 30.06.2019
5668 Clouds 10 1004 61 0 1.94 65.39 20:23 30.06.2019
5669 Clouds 10 1004 61 0 1.94 65.39 19:51 30.06.2019
5670 Clouds 10 1004 61 0 1.94 65.39 19:25 30.06.2019
5671 Clouds 10 1004 61 0 1.94 65.39 18:53 30.06.2019
5672 Clouds 11 1005 55 0 2.33 64.05 18:23 30.06.2019
5673 Clouds 11 1005 55 0 2.33 64.05 17:41 30.06.2019
5674 Clouds 11 1005 55 0 2.33 64.05 17:20 30.06.2019
5675 Clouds 11 1005 55 0 2.33 64.05 16:56 30.06.2019
5676 Clouds 11 1005 55 0 2.33 64.05 16:37 30.06.2019
5677 Clouds 11 1005 55 0 2.33 64.05 16:18 30.06.2019
5678 Clouds 11 1005 55 0 2.33 64.05 15:36 30.06.2019
5679 Clouds 18 1004 39 0 1.63 350.625 15:18 30.06.2019
5680 Clouds 18 1004 39 0 1.63 350.625 14:45 30.06.2019
5681 Clouds 18 1004 39 0 1.63 350.625 14:27 30.06.2019
5682 Clouds 18 1004 39 0 1.63 350.625 13:43 30.06.2019
5683 Clouds 18 1003 36 0 3.02 309.432 13:23 30.06.2019
5684 Clouds 18 1003 36 0 3.02 309.432 12:48 30.06.2019
5685 Clouds 20 1004 26 0 4.36 283.836 12:25 30.06.2019
5686 Clouds 20 1004 26 0 4.36 283.836 11:55 30.06.2019
5687 Clouds 20 1004 26 0 4.36 283.836 11:36 30.06.2019
5688 Clouds 20 1004 26 0 4.36 283.836 11:18 30.06.2019
5689 Clouds 20 1004 26 0 4.36 283.836 11:18 30.06.2019
5690 Clouds 20 1004 26 0 4.36 283.836 10:40 30.06.2019
5691 Clouds 20 1004 26 0 4.36 283.836 10:19 30.06.2019
5692 Clouds 20 1004 26 0 4.36 283.836 09:44 30.06.2019
5693 Clouds 19 1005 27 0 2.61 280.771 09:23 30.06.2019
5694 Clouds 19 1005 27 0 2.61 280.771 08:59 30.06.2019
5695 Clouds 19 1005 27 0 2.98 278.541 08:38 30.06.2019
5696 Clouds 19 1005 27 0 2.98 278.541 08:18 30.06.2019
5697 Clouds 19 1005 27 0 2.98 278.541 07:37 30.06.2019
5698 Clouds 19 1005 27 0 2.98 278.541 07:18 30.06.2019
5699 Clouds 17 1008 34 0 0.74 298.858 05:54 30.06.2019
5700 Clear 12 1009 49 0 1.44 51.558 03:25 30.06.2019
5701 Clouds 12 1009 46 0 1.13 53.648 01:31 30.06.2019
5702 Clouds 12 1009 46 0 1.13 53.648 00:38 30.06.2019
5703 Clear 7 1010 64 0 1.18 48.266 23:57 29.06.2019
5704 Clear 7 1010 64 0 1.18 48.266 23:25 29.06.2019
5705 Clear 7 1010 64 0 1.18 48.266 23:25 29.06.2019
5706 Clear 7 1010 64 0 1.18 48.266 22:59 29.06.2019
5707 Clear 7 1010 64 0 1.18 48.266 22:40 29.06.2019
5708 Clear 7 1010 64 0 1.18 48.266 22:21 29.06.2019
5709 Clouds 7 1010 64 0 0.98 72.618 21:51 29.06.2019
5710 Clouds 8 1009 63 0 1.03 63.885 21:23 29.06.2019
5711 Clouds 8 1009 63 0 1.03 63.885 20:45 29.06.2019
5712 Clouds 8 1009 63 0 1.03 63.885 20:27 29.06.2019
5713 Clouds 8 1009 63 0 1.03 63.885 19:48 29.06.2019
5714 Clouds 8 1009 63 0 1.03 63.885 19:25 29.06.2019
5715 Clouds 8 1009 63 0 1.03 63.885 18:54 29.06.2019
5716 Clouds 8 1009 63 0 1.03 63.885 18:27 29.06.2019
5717 Clouds 10 1010 56 0 2.91 71.036 17:57 29.06.2019
5718 Clouds 10 1010 56 0 2.91 71.036 17:37 29.06.2019
5719 Clouds 10 1010 56 0 2.91 71.036 17:19 29.06.2019
5720 Clouds 10 1010 56 0 2.91 71.036 16:42 29.06.2019
5721 Clouds 10 1010 56 0 2.91 71.036 15:56 29.06.2019
5722 Clouds 10 1010 56 0 2.91 71.036 15:31 29.06.2019
5723 Clouds 16 1008 42 0 4.31 20.346 14:45 29.06.2019
5724 Clouds 16 1008 42 0 4.31 20.346 14:26 29.06.2019
5725 Clouds 16 1008 42 0 4.31 20.346 13:51 29.06.2019
5726 Clouds 15 1008 48 0 3.52 44.977 13:27 29.06.2019
5727 Clouds 15 1008 48 0 3.52 44.977 12:57 29.06.2019
5728 Clouds 15 1008 48 0 3.52 44.977 12:38 29.06.2019
5729 Clouds 16 1008 40 0 3.82 8.981 12:20 29.06.2019
5730 Clouds 16 1008 40 0 3.82 8.981 11:42 29.06.2019
5731 Clouds 16 1008 40 0 3.82 8.981 11:21 29.06.2019
5732 Clouds 16 1008 40 0 3.82 8.981 10:46 29.06.2019
5733 Clouds 16 1008 40 0 3.82 8.981 10:21 29.06.2019
5734 Clouds 16 1008 40 0 3.82 8.981 09:50 29.06.2019
5735 Clear 16 1009 38 0 3.34 352.994 08:55 29.06.2019
5736 Clouds 16 1008 37 0 3.39 335.929 08:28 29.06.2019
5737 Clouds 16 1008 37 0 3.39 335.929 07:45 29.06.2019
5738 Clouds 16 1008 37 0 3.39 335.929 06:47 29.06.2019
5739 Clear 14 1011 46 0 2.35 0.073 06:24 29.06.2019
5740 Clear 9 1011 68 0 2.39 31.962 03:25 29.06.2019
5741 Clear 9 1011 68 0 2.39 31.962 01:41 29.06.2019
5742 Clear 9 1011 66 0 2.37 32.267 00:32 29.06.2019
5743 Clear 5 1011 81 0 2.25 29.255 23:38 28.06.2019
5744 Clear 5 1011 81 0 2.25 29.255 23:20 28.06.2019
5745 Clear 5 1011 81 0 2.25 29.255 22:46 28.06.2019
5746 Clear 5 1011 81 0 2.25 29.255 21:58 28.06.2019
5747 Clear 5 1011 81 0 2.25 29.255 21:27 28.06.2019
5748 Clear 7 1011 75 0 2.97 24.262 20:55 28.06.2019
5749 Clear 7 1011 75 0 2.97 24.262 20:37 28.06.2019
5750 Clear 7 1011 75 0 2.97 24.262 20:18 28.06.2019
5751 Clear 7 1011 75 0 2.97 24.262 19:37 28.06.2019
5752 Clear 7 1011 75 0 2.97 24.262 19:19 28.06.2019
5753 Clear 7 1011 75 0 2.97 24.262 18:41 28.06.2019
5754 Clear 8 1011 75 0 2.34 43.803 18:21 28.06.2019
5755 Clear 8 1011 75 0 2.34 43.803 17:38 28.06.2019
5756 Clear 8 1011 75 0 2.34 43.803 17:18 28.06.2019
5757 Clear 8 1011 75 0 2.34 43.803 16:41 28.06.2019
5758 Clear 8 1011 75 0 2.34 43.803 16:18 28.06.2019
5759 Clear 8 1011 75 0 2.34 43.803 15:39 28.06.2019
5760 Rain 13 1008 52 0 3.88 41.355 15:18 28.06.2019
5761 Rain 13 1008 52 0 3.88 41.355 14:39 28.06.2019
5762 Rain 13 1008 52 0 3.88 41.355 14:20 28.06.2019
5763 Rain 13 1008 52 0 3.88 41.355 13:45 28.06.2019
5764 Clouds 13 1008 53 0 3.74 27.503 13:25 28.06.2019
5765 Clouds 13 1008 53 0 3.74 27.503 12:50 28.06.2019
5766 Clouds 13 1008 53 0 3.74 27.503 12:31 28.06.2019
5767 Clouds 15 1008 42 0 4.08 18.546 11:29 28.06.2019
5768 Clouds 15 1008 42 0 4.08 18.546 10:47 28.06.2019
5769 Clouds 15 1008 42 0 4.08 18.546 10:23 28.06.2019
5770 Clouds 15 1008 42 0 4.08 18.546 10:00 28.06.2019
5771 Clouds 15 1008 42 0 4.08 18.546 09:41 28.06.2019
5772 Clear 15 1008 39 0 4.23 2.845 09:22 28.06.2019
5773 Clear 15 1008 37 0 4.2 352.474 08:42 28.06.2019
5774 Clear 15 1008 37 0 4.2 352.474 08:23 28.06.2019
5775 Clear 15 1008 37 0 4.2 352.474 07:42 28.06.2019
5776 Clear 15 1008 37 0 4.2 352.474 06:49 28.06.2019
5777 Clear 12 1009 49 0 3.91 13.67 03:35 28.06.2019
5778 Clear 8 1009 70 0 1.91 25.011 00:46 28.06.2019
5779 Clear 3 1009 88 0 1.48 13.021 00:18 28.06.2019
5780 Clear 3 1009 88 0 1.48 13.021 23:41 27.06.2019
5781 Clear 3 1009 88 0 1.48 13.021 23:22 27.06.2019
5782 Clear 3 1009 88 0 1.48 13.021 22:43 27.06.2019
5783 Clear 3 1009 88 0 1.48 13.021 22:24 27.06.2019
5784 Clear 3 1009 88 0 1.48 13.021 21:57 27.06.2019
5785 Clear 3 1009 88 0 1.48 13.021 21:38 27.06.2019
5786 Clear 4 1009 87 0 1.82 2.077 21:19 27.06.2019
5787 Clear 4 1008 87 0 1.73 1.392 20:45 27.06.2019
5788 Clear 4 1008 87 0 1.73 1.392 20:26 27.06.2019
5789 Clear 4 1008 87 0 1.73 1.392 19:47 27.06.2019
5790 Clear 4 1008 87 0 1.73 1.392 19:27 27.06.2019
5791 Clear 4 1008 87 0 1.73 1.392 18:51 27.06.2019
5792 Clear 4 1008 87 0 1.73 1.392 18:30 27.06.2019
5793 Clear 6 1008 85 0 2.3 353.159 17:47 27.06.2019
5794 Clear 6 1008 85 0 2.3 353.159 17:24 27.06.2019
5795 Clear 6 1008 85 0 2.3 353.159 16:55 27.06.2019
5796 Clear 6 1008 85 0 2.3 353.159 16:36 27.06.2019
5797 Clear 6 1008 85 0 2.3 353.159 16:18 27.06.2019
5798 Clear 6 1008 85 0 2.3 353.159 15:44 27.06.2019
5799 Rain 11 1006 66 0 5.29 355.738 15:18 27.06.2019
5800 Rain 11 1006 66 0 5.29 355.738 14:43 27.06.2019
5801 Rain 11 1006 66 0 5.29 355.738 14:24 27.06.2019
5802 Rain 11 1006 66 0 5.29 355.738 13:48 27.06.2019
5803 Rain 11 1006 65 0 6.3 349.543 13:30 27.06.2019
5804 Rain 11 1006 65 0 6.3 349.543 12:52 27.06.2019
5805 Rain 11 1006 65 0 6.3 349.543 12:33 27.06.2019
5806 Rain 11 1007 64 0 5.73 343.723 11:56 27.06.2019
5807 Rain 11 1007 64 0 5.73 343.723 11:38 27.06.2019
5808 Rain 11 1007 64 0 5.73 343.723 11:20 27.06.2019
5809 Rain 11 1007 64 0 5.73 343.723 10:42 27.06.2019
5810 Rain 11 1007 64 0 5.73 343.723 10:20 27.06.2019
5811 Rain 11 1007 64 0 5.73 343.723 09:50 27.06.2019
5812 Clouds 8 1008 71 0 3.51 348.866 09:22 27.06.2019
5813 Clouds 8 1008 71 0 3.51 348.866 08:52 27.06.2019
5814 Clouds 9 1008 69 0 3.74 352.637 08:30 27.06.2019
5815 Clouds 9 1008 69 0 3.74 352.637 07:49 27.06.2019
5816 Clouds 9 1008 69 0 3.74 352.637 07:25 27.06.2019
5817 Clouds 9 1008 69 0 3.74 352.637 06:43 27.06.2019
5818 Rain 6 1009 80 0 2.14 321.194 04:24 27.06.2019
5819 Clouds 5 1010 79 0 1.96 322.383 02:44 27.06.2019
5820 Clouds 5 1010 79 0 1.96 322.383 01:48 27.06.2019
5821 Clouds 5 1010 80 0 1.68 287.163 00:56 27.06.2019
5822 Clouds 5 1010 80 0 1.68 287.163 00:36 27.06.2019
5823 Clouds 4 1009 82 0 1.78 343.181 00:18 27.06.2019
5824 Clouds 4 1009 82 0 1.78 343.181 23:24 26.06.2019
5825 Clouds 4 1009 82 0 1.78 343.181 22:59 26.06.2019
5826 Clouds 4 1009 82 0 1.78 343.181 22:41 26.06.2019
5827 Clouds 4 1009 82 0 1.78 343.181 22:20 26.06.2019
5828 Clouds 4 1009 82 0 1.78 343.181 21:55 26.06.2019
5829 Clouds 4 1009 82 0 1.78 343.181 21:37 26.06.2019
5830 Clouds 2 1010 84 0 1.44 316.629 21:18 26.06.2019
5831 Clouds 2 1010 83 0 1.48 315.737 20:40 26.06.2019
5832 Clouds 2 1010 83 0 1.48 315.737 20:40 26.06.2019
5833 Clouds 2 1010 83 0 1.48 315.737 20:22 26.06.2019
5834 Clouds 2 1010 83 0 1.48 315.737 19:44 26.06.2019
5835 Clouds 2 1010 83 0 1.48 315.737 19:25 26.06.2019
5836 Clouds 2 1010 83 0 1.48 315.737 18:54 26.06.2019
5837 Clouds 2 1010 83 0 1.48 315.737 18:36 26.06.2019
5838 Clouds 4 1010 76 0 1.97 321.972 18:18 26.06.2019
5839 Clouds 4 1010 76 0 1.97 321.972 17:38 26.06.2019
5840 Clouds 4 1010 76 0 1.97 321.972 17:19 26.06.2019
5841 Clouds 4 1010 76 0 1.97 321.972 16:50 26.06.2019
5842 Clouds 4 1010 76 0 1.97 321.972 16:26 26.06.2019
5843 Clouds 4 1010 76 0 1.97 321.972 15:48 26.06.2019
5844 Clouds 7 1008 57 0 7.62 343.243 15:26 26.06.2019
5845 Clouds 7 1008 57 0 7.62 343.243 14:38 26.06.2019
5846 Clouds 7 1008 57 0 7.62 343.243 14:20 26.06.2019
5847 Clouds 7 1008 57 0 7.62 343.243 13:45 26.06.2019
5848 Rain 7 1008 60 0 6.62 346.404 13:21 26.06.2019
5849 Rain 7 1008 60 0 6.62 346.404 13:21 26.06.2019
5850 Rain 7 1008 60 0 6.62 346.404 12:43 26.06.2019
5851 Clouds 10 1007 42 0 7.92 333.739 12:25 26.06.2019
5852 Clouds 10 1007 42 0 7.92 333.739 11:54 26.06.2019
5853 Clouds 10 1007 42 0 7.92 333.739 11:23 26.06.2019
5854 Clouds 10 1007 42 0 7.92 333.739 10:48 26.06.2019
5855 Clouds 10 1007 42 0 7.92 333.739 10:29 26.06.2019
5856 Clouds 10 1007 42 0 7.92 333.739 09:51 26.06.2019
5857 Clouds 10 1008 42 0 5.74 353.231 09:26 26.06.2019
5858 Clouds 10 1008 42 0 5.74 353.231 08:49 26.06.2019
5859 Rain 10 1007 40 0 4.96 348.507 08:20 26.06.2019
5860 Rain 10 1007 40 0 4.96 348.507 07:52 26.06.2019
5861 Rain 10 1007 40 0 4.96 348.507 07:34 26.06.2019
5862 Rain 10 1007 40 0 4.96 348.507 06:32 26.06.2019
5863 Clouds 5 1010 62 0 1.07 350.125 01:31 26.06.2019
5864 Clouds 5 1010 62 0 1.07 350.125 00:26 26.06.2019
5865 Clouds 3 1010 76 0 0.23 205.998 23:48 25.06.2019
5866 Clouds 3 1010 76 0 0.23 205.998 23:29 25.06.2019
5867 Clouds 3 1010 76 0 0.23 205.998 22:59 25.06.2019
5868 Clouds 3 1010 76 0 0.23 205.998 22:40 25.06.2019
5869 Clouds 3 1010 76 0 0.23 205.998 22:21 25.06.2019
5870 Clouds 3 1010 76 0 0.23 205.998 21:45 25.06.2019
5871 Clouds 4 1009 67 0 0.26 191.704 21:24 25.06.2019
5872 Clouds 4 1010 63 0 0.67 35.132 20:48 25.06.2019
5873 Clouds 4 1010 63 0 0.67 35.132 20:47 25.06.2019
5874 Clouds 4 1010 63 0 0.67 35.132 20:47 25.06.2019
5875 Clouds 4 1010 63 0 0.67 35.132 20:47 25.06.2019
5876 Clouds 4 1010 63 0 0.67 35.132 20:23 25.06.2019
5877 Clouds 4 1010 63 0 0.67 35.132 19:54 25.06.2019
5878 Clouds 4 1010 63 0 0.67 35.132 19:36 25.06.2019
5879 Clouds 4 1010 63 0 0.67 35.132 19:18 25.06.2019
5880 Clouds 4 1010 63 0 0.67 35.132 19:18 25.06.2019
5881 Clouds 4 1010 63 0 0.67 35.132 18:41 25.06.2019
5882 Clouds 5 1010 62 0 1.71 44.739 18:22 25.06.2019
5883 -273 0 0 0 0 0 17:42 25.06.2019
5884 -273 0 0 0 0 0 17:21 25.06.2019
5885 Clouds 5 1010 62 0 1.71 44.739 17:21 25.06.2019
5886 Clouds 5 1010 62 0 1.71 44.739 17:21 25.06.2019
5887 Clouds 5 1010 62 0 1.71 44.739 17:21 25.06.2019
5888 -273 0 0 0 0 0 17:20 25.06.2019
5889 Clouds 5 1010 62 0 1.71 44.739 16:43 25.06.2019
5890 Clouds 5 1010 62 0 1.71 44.739 16:25 25.06.2019
5891 Clouds 5 1010 62 0 1.71 44.739 15:43 25.06.2019
5892 Clouds 10 1007 38 0 5.64 303.828 15:25 25.06.2019
5893 Clouds 10 1007 38 0 5.64 303.828 14:57 25.06.2019
5894 Clouds 10 1007 38 0 5.64 303.828 14:37 25.06.2019
5895 Clouds 10 1007 38 0 5.64 303.828 13:59 25.06.2019
5896 Clouds 10 1007 38 0 5.64 303.828 13:39 25.06.2019
5897 Clouds 9 1007 37 0 6.4 305.782 13:19 25.06.2019
5898 Clouds 9 1007 37 0 6.4 305.782 12:39 25.06.2019
5899 Clouds 11 1006 37 0 7.08 287.921 12:21 25.06.2019
5900 Clouds 11 1006 37 0 7.08 287.921 11:44 25.06.2019
5901 Clouds 11 1006 37 0 7.08 287.921 11:21 25.06.2019
5902 Clouds 11 1006 37 0 7.08 287.921 10:46 25.06.2019
5903 Clouds 11 1006 37 0 7.08 287.921 10:24 25.06.2019
5904 Clouds 11 1006 37 0 7.08 287.921 09:56 25.06.2019
5905 Clouds 11 1006 37 0 7.08 287.921 09:38 25.06.2019
5906 Clouds 11 1007 40 0 5.91 278.91 09:19 25.06.2019
5907 Clouds 11 1007 40 0 5.91 278.91 08:48 25.06.2019
5908 Clouds 12 1007 37 0 6.55 280.297 08:28 25.06.2019
5909 Clouds 12 1007 37 0 6.55 280.297 07:43 25.06.2019
5910 Clouds 12 1007 37 0 6.55 280.297 06:59 25.06.2019
5911 Clouds 12 1007 37 0 6.55 280.297 06:40 25.06.2019
5912 Clouds 10 1008 44 0 3.72 273.703 04:24 25.06.2019
5913 Clouds 5 1010 82 0 1.79 204.251 02:23 25.06.2019
5914 Clouds 6 1010 76 0 1.76 206.565 00:38 25.06.2019
5915 Clouds 2 1010 84 0 0.44 169.626 00:18 25.06.2019
5916 Clouds 2 1010 84 0 0.44 169.626 23:42 24.06.2019
5917 Clouds 2 1010 84 0 0.44 169.626 23:23 24.06.2019
5918 Clouds 2 1010 84 0 0.44 169.626 22:44 24.06.2019
5919 Clouds 2 1010 84 0 0.44 169.626 22:19 24.06.2019
5920 Clouds 2 1010 84 0 0.44 169.626 21:42 24.06.2019
5921 Rain 4 1009 81 0 2.54 76.002 21:19 24.06.2019
5922 Rain 4 1009 81 0 2.54 76.002 20:58 24.06.2019
5923 Rain 5 1009 83 0 1.36 74.453 20:40 24.06.2019
5924 Rain 5 1009 83 0 1.36 74.453 20:21 24.06.2019
5925 Rain 5 1009 83 0 1.36 74.453 19:46 24.06.2019
5926 Rain 5 1009 83 0 1.36 74.453 19:24 24.06.2019
5927 Rain 5 1009 83 0 1.36 74.453 18:48 24.06.2019
5928 Rain 5 1009 83 0 1.36 74.453 18:30 24.06.2019
5929 Clear 5 1008 93 0 0.74 119.793 17:57 24.06.2019
5930 Clear 5 1008 93 0 0.74 119.793 17:36 24.06.2019
5931 Clear 5 1008 93 0 0.74 119.793 17:36 24.06.2019
5932 Clear 5 1008 93 0 0.74 119.793 16:55 24.06.2019
5933 Clear 5 1008 93 0 0.74 119.793 16:36 24.06.2019
5934 Clear 5 1008 93 0 0.74 119.793 16:18 24.06.2019
5935 Clear 5 1008 93 0 0.74 119.793 15:38 24.06.2019
5936 Rain 8 1006 77 0 2.4 144.085 15:19 24.06.2019
5937 Rain 8 1006 77 0 2.4 144.085 14:34 24.06.2019
5938 Rain 8 1006 77 0 2.4 144.085 13:51 24.06.2019
5939 Rain 9 1006 78 0 2.46 131.825 13:31 24.06.2019
5940 Rain 9 1006 78 0 2.46 131.825 12:45 24.06.2019
5941 Rain 9 1007 69 0 2.47 101.769 12:22 24.06.2019
5942 Rain 9 1007 69 0 2.47 101.769 11:58 24.06.2019
5943 Rain 9 1007 69 0 2.47 101.769 11:40 24.06.2019
5944 Rain 9 1007 69 0 2.47 101.769 11:20 24.06.2019
5945 Rain 9 1007 69 0 2.47 101.769 10:46 24.06.2019
5946 Rain 9 1007 69 0 2.47 101.769 10:25 24.06.2019
5947 Rain 9 1007 69 0 2.47 101.769 09:49 24.06.2019
5948 Rain 12 1007 64 0 5.52 297.541 09:22 24.06.2019
5949 Rain 12 1007 64 0 5.52 297.541 08:51 24.06.2019
5950 Rain 11 1007 71 0 6.54 292.071 08:25 24.06.2019
5951 Rain 11 1007 71 0 6.54 292.071 07:45 24.06.2019
5952 Rain 11 1007 71 0 6.54 292.071 07:26 24.06.2019
5953 Rain 11 1007 71 0 6.54 292.071 06:39 24.06.2019
5954 Rain 14 1006 61 0 2.55 267.546 06:19 24.06.2019
5955 Rain 14 1006 61 0 2.55 267.546 04:59 24.06.2019
5956 Rain 14 1006 61 0 2.55 267.546 04:23 24.06.2019
5957 Clouds 14 1005 64 0 1.37 156.306 02:55 24.06.2019
5958 Clouds 14 1005 64 0 1.37 156.306 01:59 24.06.2019
5959 Clouds 14 1005 64 0 1.37 156.306 01:41 24.06.2019
5960 Clouds 14 1005 63 0 1.56 185.894 01:21 24.06.2019
5961 Clouds 14 1005 63 0 1.56 185.894 00:39 24.06.2019
5962 Clouds 10 1005 79 0 1.96 68.857 00:18 24.06.2019
5963 Clouds 10 1005 79 0 1.96 68.857 23:43 23.06.2019
5964 Clouds 10 1005 79 0 1.96 68.857 23:21 23.06.2019
5965 Clouds 10 1005 79 0 1.96 68.857 22:42 23.06.2019
5966 Clouds 10 1005 79 0 1.96 68.857 22:20 23.06.2019
5967 Clouds 10 1005 79 0 1.96 68.857 21:44 23.06.2019
5968 Clouds 10 1006 83 0 2.15 51.639 21:25 23.06.2019
5969 Clouds 10 1006 83 0 2.15 51.639 20:58 23.06.2019
5970 Clouds 10 1006 83 0 2.15 51.639 20:38 23.06.2019
5971 Clouds 9 1006 86 0 2.94 53.927 20:20 23.06.2019
5972 Clouds 9 1006 86 0 2.94 53.927 19:43 23.06.2019
5973 Clouds 9 1006 86 0 2.94 53.927 19:20 23.06.2019
5974 Clouds 9 1006 86 0 2.94 53.927 18:48 23.06.2019
5975 Clouds 10 1006 80 0 2.81 47.452 18:20 23.06.2019
5976 Clouds 10 1006 80 0 2.81 47.452 17:46 23.06.2019
5977 Clouds 10 1006 80 0 2.81 47.452 17:25 23.06.2019
5978 Clouds 10 1006 80 0 2.81 47.452 16:47 23.06.2019
5979 Clouds 10 1006 80 0 2.81 47.452 16:27 23.06.2019
5980 Clouds 10 1006 80 0 2.81 47.452 15:59 23.06.2019
5981 Clouds 10 1006 80 0 2.81 47.452 15:40 23.06.2019
5982 Rain 15 1005 61 0 2.37 106.766 15:19 23.06.2019
5983 Rain 15 1005 61 0 2.37 106.766 14:39 23.06.2019
5984 Rain 15 1005 61 0 2.37 106.766 14:21 23.06.2019
5985 Rain 15 1005 61 0 2.37 106.766 13:54 23.06.2019
5986 Rain 15 1005 61 0 2.37 106.766 13:36 23.06.2019
5987 Clouds 17 1005 53 0 2.75 62.931 13:18 23.06.2019
5988 Clouds 17 1005 53 0 2.75 62.931 12:42 23.06.2019
5989 Clouds 19 1004 39 0 4.21 272.64 12:20 23.06.2019
5990 Clouds 19 1004 39 0 4.21 272.64 11:49 23.06.2019
5991 Clouds 19 1004 39 0 4.21 272.64 11:28 23.06.2019
5992 Clouds 19 1004 39 0 4.21 272.64 11:28 23.06.2019
5993 Clouds 19 1004 39 0 4.21 272.64 10:51 23.06.2019
5994 Clouds 19 1004 39 0 4.21 272.64 10:22 23.06.2019
5995 Clouds 19 1004 39 0 4.21 272.64 09:59 23.06.2019
5996 Clouds 20 1005 39 0 4.28 173.064 09:25 23.06.2019
5997 Clouds 20 1005 39 0 4.28 173.064 08:55 23.06.2019
5998 Clouds 20 1005 39 0 4.28 173.064 08:36 23.06.2019
5999 Clouds 20 1004 38 0 3.75 176.286 08:18 23.06.2019
6000 Clouds 20 1004 38 0 3.75 176.286 07:45 23.06.2019
6001 Clouds 20 1004 38 0 3.75 176.286 07:19 23.06.2019
6002 Clouds 20 1004 38 0 3.75 176.286 06:52 23.06.2019
6003 Clouds 18 1006 46 0 2.13 130.517 05:53 23.06.2019
6004 Clouds 13 1008 64 0 2.21 40.944 02:52 23.06.2019
6005 Clouds 13 1008 64 0 2.21 40.944 01:42 23.06.2019
6006 Rain 13 1008 66 0 2.41 35.322 01:24 23.06.2019
6007 Rain 13 1008 66 0 2.41 35.322 00:32 23.06.2019
6008 Rain 10 1008 76 0 1.94 48.533 23:49 22.06.2019
6009 Rain 10 1008 76 0 1.94 48.533 23:26 22.06.2019
6010 Rain 10 1008 76 0 1.94 48.533 22:47 22.06.2019
6011 Rain 10 1008 76 0 1.94 48.533 22:29 22.06.2019
6012 Rain 10 1008 76 0 1.94 48.533 21:59 22.06.2019
6013 Rain 10 1008 76 0 1.94 48.533 21:36 22.06.2019
6014 Rain 10 1008 76 0 1.94 48.533 21:36 22.06.2019
6015 Rain 10 1008 81 0 0.89 102.018 21:18 22.06.2019
6016 Clouds 10 1008 81 0 1.49 103.412 20:45 22.06.2019
6017 Clouds 10 1008 81 0 1.49 103.412 20:24 22.06.2019
6018 Clouds 10 1008 81 0 1.49 103.412 19:42 22.06.2019
6019 Clouds 10 1008 81 0 1.49 103.412 19:21 22.06.2019
6020 Clouds 10 1008 81 0 1.49 103.412 18:43 22.06.2019
6021 Rain 10 1009 87 0 1.36 108.155 18:23 22.06.2019
6022 Rain 10 1009 87 0 1.36 108.155 17:46 22.06.2019
6023 Rain 10 1009 87 0 1.36 108.155 17:26 22.06.2019
6024 Rain 10 1009 87 0 1.36 108.155 16:46 22.06.2019
6025 Rain 10 1009 87 0 1.36 108.155 16:24 22.06.2019
6026 Rain 10 1009 87 0 1.36 108.155 15:46 22.06.2019
6027 Rain 10 1009 87 0 1.36 108.155 15:27 22.06.2019
6028 Rain 14 1007 72 0 0.25 171.806 14:52 22.06.2019
6029 Rain 14 1007 72 0 0.25 171.806 14:32 22.06.2019
6030 Rain 14 1007 72 0 0.25 171.806 13:58 22.06.2019
6031 Rain 14 1007 72 0 0.25 171.806 13:39 22.06.2019
6032 Rain 14 1007 72 0 2.38 144.311 13:19 22.06.2019
6033 Rain 14 1007 72 0 2.38 144.311 12:45 22.06.2019
6034 Rain 16 1006 61 0 4.39 152.589 12:26 22.06.2019
6035 Rain 16 1006 61 0 4.39 152.589 11:45 22.06.2019
6036 Rain 16 1006 61 0 4.39 152.589 11:27 22.06.2019
6037 Rain 16 1006 61 0 4.39 152.589 10:23 22.06.2019
6038 Rain 16 1006 61 0 4.39 152.589 09:58 22.06.2019
6039 Rain 16 1006 61 0 4.39 152.589 09:37 22.06.2019
6040 Rain 18 1007 51 0 4.31 237.603 08:50 22.06.2019
6041 Rain 19 1006 46 0 5.05 215.634 08:31 22.06.2019
6042 Rain 19 1006 46 0 5.05 215.634 07:53 22.06.2019
6043 Rain 19 1006 46 0 5.05 215.634 07:29 22.06.2019
6044 Rain 19 1006 46 0 5.05 215.634 06:44 22.06.2019
6045 Rain 15 1008 62 0 2.72 143.219 04:37 22.06.2019
6046 Rain 13 1009 69 0 1.37 126.283 02:26 22.06.2019
6047 Clouds 14 1009 64 0 1.41 130.562 00:54 22.06.2019
6048 Clouds 14 1009 64 0 1.41 130.562 00:31 22.06.2019
6049 Clouds 9 1009 81 0 1.17 101.089 23:50 21.06.2019
6050 Clouds 9 1009 81 0 1.17 101.089 23:24 21.06.2019
6051 -273 0 0 0 0 0 22:57 21.06.2019
6052 Clouds 9 1009 81 0 1.17 101.089 22:39 21.06.2019
6053 Clouds 9 1009 81 0 1.17 101.089 22:19 21.06.2019
6054 Clouds 9 1009 81 0 1.17 101.089 21:40 21.06.2019
6055 Rain 10 1010 75 0 0.86 104.744 21:20 21.06.2019
6056 Clouds 10 1010 78 0 1.46 49.794 20:48 21.06.2019
6057 Clouds 10 1010 78 0 1.46 49.794 20:26 21.06.2019
6058 Clouds 10 1010 78 0 1.46 49.794 19:48 21.06.2019
6059 Clouds 10 1010 78 0 1.46 49.794 19:22 21.06.2019
6060 Clouds 10 1010 78 0 1.46 49.794 18:41 21.06.2019
6061 Clouds 11 1012 74 0 1.44 99.247 18:22 21.06.2019
6062 Clouds 11 1012 74 0 1.44 99.247 17:31 21.06.2019
6063 Clouds 11 1012 74 0 1.44 99.247 16:56 21.06.2019
6064 Clouds 11 1012 74 0 1.44 99.247 16:36 21.06.2019
6065 Clouds 11 1012 74 0 1.44 99.247 16:18 21.06.2019
6066 Clouds 11 1012 74 0 1.44 99.247 15:37 21.06.2019
6067 Rain 16 1010 59 0 2.08 153.139 14:57 21.06.2019
6068 Rain 16 1010 59 0 2.08 153.139 14:39 21.06.2019
6069 Rain 16 1010 59 0 2.08 153.139 14:20 21.06.2019
6070 Rain 16 1010 59 0 2.08 153.139 13:39 21.06.2019
6071 Clouds 20 1008 41 0 1.96 268.772 13:21 21.06.2019
6072 Clouds 20 1008 41 0 1.96 268.772 12:50 21.06.2019
6073 Clouds 21 1008 33 0 5.26 262.52 12:23 21.06.2019
6074 Clouds 21 1008 33 0 5.26 262.52 11:55 21.06.2019
6075 Clouds 21 1008 33 0 5.26 262.52 11:37 21.06.2019
6076 Clouds 21 1008 33 0 5.26 262.52 11:19 21.06.2019
6077 Clouds 21 1008 33 0 5.26 262.52 10:42 21.06.2019
6078 Clouds 21 1008 33 0 5.26 262.52 10:20 21.06.2019
6079 Clouds 21 1008 33 0 5.26 262.52 10:20 21.06.2019
6080 Clouds 21 1008 33 0 5.26 262.52 09:43 21.06.2019
6081 Clouds 21 1009 37 0 4.46 251.894 09:23 21.06.2019
6082 Clouds 21 1009 37 0 4.46 251.894 08:56 21.06.2019
6083 Rain 20 1009 40 0 3.96 261.864 08:37 21.06.2019
6084 Rain 20 1009 40 0 3.96 261.864 08:18 21.06.2019
6085 Rain 20 1009 40 0 3.96 261.864 07:42 21.06.2019
6086 Rain 20 1009 40 0 3.96 261.864 07:19 21.06.2019
6087 Rain 20 1009 40 0 3.96 261.864 06:28 21.06.2019
6088 Rain 18 1010 49 0 3.99 201.359 05:35 21.06.2019
6089 Rain 18 1010 49 0 3.99 201.359 04:40 21.06.2019
6090 Rain 18 1010 49 0 3.99 201.359 03:41 21.06.2019
6091 Rain 15 1011 59 0 1.81 157.794 03:23 21.06.2019
6092 Rain 15 1011 59 0 1.81 157.794 02:21 21.06.2019
6093 Rain 15 1010 59 0 2.25 158.487 01:27 21.06.2019
6094 Rain 15 1010 59 0 2.25 158.487 00:35 21.06.2019
6095 Rain 12 1010 66 0 1.69 137.487 23:55 20.06.2019
6096 Rain 12 1010 66 0 1.69 137.487 23:37 20.06.2019
6097 Rain 12 1010 66 0 1.69 137.487 23:37 20.06.2019
6098 Rain 12 1010 66 0 1.69 137.487 23:18 20.06.2019
6099 Rain 12 1010 66 0 1.69 137.487 22:41 20.06.2019
6100 Rain 12 1010 66 0 1.69 137.487 22:22 20.06.2019
6101 Rain 12 1010 66 0 1.69 137.487 21:54 20.06.2019
6102 Rain 12 1010 66 0 1.69 137.487 21:36 20.06.2019
6103 Clouds 13 1009 53 0 1.76 120.266 21:18 20.06.2019
6104 Clouds 12 1010 59 0 1.27 95.5 20:41 20.06.2019
6105 Clouds 12 1010 59 0 1.27 95.5 20:21 20.06.2019
6106 Clouds 12 1010 59 0 1.27 95.5 19:43 20.06.2019
6107 Clouds 12 1010 59 0 1.27 95.5 19:19 20.06.2019
6108 Clouds 12 1010 59 0 1.27 95.5 18:56 20.06.2019
6109 Clouds 12 1010 59 0 1.27 95.5 18:38 20.06.2019
6110 Clouds 14 1009 53 0 1.58 137.738 18:20 20.06.2019
6111 Clouds 14 1009 53 0 1.58 137.738 17:45 20.06.2019
6112 Clouds 14 1009 53 0 1.58 137.738 17:22 20.06.2019
6113 Clouds 14 1009 53 0 1.58 137.738 16:42 20.06.2019
6114 Clouds 14 1009 53 0 1.58 137.738 16:19 20.06.2019
6115 Clouds 14 1009 53 0 1.58 137.738 15:44 20.06.2019
6116 Clouds 21 1006 34 0 1.63 269.119 15:24 20.06.2019
6117 Clouds 21 1006 34 0 1.63 269.119 14:58 20.06.2019
6118 Clouds 21 1006 34 0 1.63 269.119 14:39 20.06.2019
6119 Clouds 21 1006 34 0 1.63 269.119 14:19 20.06.2019
6120 Clouds 21 1006 34 0 1.63 269.119 13:39 20.06.2019
6121 Clouds 21 1006 32 0 1.79 297.44 13:19 20.06.2019
6122 Clouds 21 1006 32 0 1.79 297.44 12:43 20.06.2019
6123 Clouds 23 1005 22 0 3.4 251.304 12:22 20.06.2019
6124 Clouds 23 1005 22 0 3.4 251.304 11:43 20.06.2019
6125 Clouds 23 1005 22 0 3.4 251.304 11:23 20.06.2019
6126 Clouds 23 1005 22 0 3.4 251.304 10:45 20.06.2019
6127 Clouds 23 1005 22 0 3.4 251.304 10:24 20.06.2019
6128 Clouds 23 1005 22 0 3.4 251.304 09:57 20.06.2019
6129 Clouds 23 1005 22 0 3.4 251.304 09:38 20.06.2019
6130 Clear 22 1006 25 0 3.66 196.288 09:20 20.06.2019
6131 Clear 22 1007 25 0 3.44 181.166 08:44 20.06.2019
6132 Clear 22 1007 25 0 3.44 181.166 08:25 20.06.2019
6133 Clear 22 1007 25 0 3.44 181.166 07:50 20.06.2019
6134 Clear 22 1007 25 0 3.44 181.166 07:26 20.06.2019
6135 Clear 19 1008 36 0 2.08 181.627 06:22 20.06.2019
6136 Clear 19 1008 36 0 2.08 181.627 03:55 20.06.2019
6137 Clouds 15 1010 51 0 1.23 144.571 02:29 20.06.2019
6138 Clear 15 1010 52 0 1.21 133.258 00:33 20.06.2019
6139 Clear 10 1009 71 0 1.38 150.599 23:49 19.06.2019
6140 Clear 10 1009 71 0 1.38 150.599 23:30 19.06.2019
6141 Clear 10 1009 71 0 1.38 150.599 22:49 19.06.2019
6142 Clear 10 1009 71 0 1.38 150.599 22:49 19.06.2019
6143 Clear 10 1009 71 0 1.38 150.599 22:25 19.06.2019
6144 Clear 10 1009 71 0 1.38 150.599 21:58 19.06.2019
6145 Clear 10 1009 71 0 1.38 150.599 21:40 19.06.2019
6146 Clouds 12 1009 61 0 1.79 145.982 21:21 19.06.2019
6147 Clouds 12 1009 61 0 1.79 145.982 20:42 19.06.2019
6148 Clouds 12 1009 61 0 1.79 145.982 20:21 19.06.2019
6149 Clouds 12 1009 61 0 1.79 145.982 19:46 19.06.2019
6150 Clouds 12 1009 61 0 1.79 145.982 19:28 19.06.2019
6151 Clouds 12 1009 61 0 1.79 145.982 18:57 19.06.2019
6152 Clouds 13 1009 54 0 1.67 142.459 18:26 19.06.2019
6153 Clouds 13 1009 54 0 1.67 142.459 17:53 19.06.2019
6154 Clouds 13 1009 54 0 1.67 142.459 17:33 19.06.2019
6155 Clouds 13 1009 54 0 1.67 142.459 16:56 19.06.2019
6156 Clouds 13 1009 54 0 1.67 142.459 16:38 19.06.2019
6157 Clouds 13 1009 54 0 1.67 142.459 16:19 19.06.2019
6158 Clouds 13 1009 54 0 1.67 142.459 15:46 19.06.2019
6159 Clouds 19 1006 38 0 2.47 300.073 15:24 19.06.2019
6160 Clouds 19 1006 38 0 2.47 300.073 14:48 19.06.2019
6161 Clouds 19 1006 38 0 2.47 300.073 14:29 19.06.2019
6162 Clouds 19 1006 38 0 2.47 300.073 13:55 19.06.2019
6163 Clouds 19 1006 38 0 2.47 300.073 13:37 19.06.2019
6164 Clouds 19 1006 37 0 2.51 300.807 13:19 19.06.2019
6165 Clouds 19 1006 37 0 2.51 300.807 12:42 19.06.2019
6166 Clouds 22 1005 24 0 5.95 226.654 12:20 19.06.2019
6167 Clouds 22 1005 24 0 5.95 226.654 11:43 19.06.2019
6168 Clouds 22 1005 24 0 5.95 226.654 11:43 19.06.2019
6169 Clouds 22 1005 24 0 5.95 226.654 11:23 19.06.2019
6170 Clouds 22 1005 24 0 5.95 226.654 10:51 19.06.2019
6171 Clouds 22 1005 24 0 5.95 226.654 10:30 19.06.2019
6172 Clouds 22 1005 24 0 5.95 226.654 09:58 19.06.2019
6173 Clouds 22 1005 24 0 5.95 226.654 09:58 19.06.2019
6174 Clouds 22 1005 24 0 5.95 226.654 09:38 19.06.2019
6175 Clouds 21 1006 32 0 3.45 191.017 09:19 19.06.2019
6176 Clouds 21 1005 33 0 3.43 188.069 08:44 19.06.2019
6177 Clouds 21 1005 33 0 3.43 188.069 08:25 19.06.2019
6178 Clouds 21 1005 33 0 3.43 188.069 07:44 19.06.2019
6179 Clouds 21 1005 33 0 3.43 188.069 07:23 19.06.2019
6180 Clouds 21 1005 33 0 3.43 188.069 06:42 19.06.2019
6181 Clouds 19 1007 39 0 3.62 178.225 06:20 19.06.2019
6182 Clouds 19 1007 39 0 3.62 178.225 05:41 19.06.2019
6183 Clouds 19 1007 39 0 3.62 178.225 03:58 19.06.2019
6184 Clouds 15 1008 49 0 1.5 125.44 02:59 19.06.2019
6185 Clouds 15 1008 49 0 1.5 125.44 01:47 19.06.2019
6186 Clouds 15 1008 48 0 1.49 127.085 00:56 19.06.2019
6187 Clouds 15 1008 48 0 1.49 127.085 00:38 19.06.2019
6188 Clouds 9 1008 61 0 1.58 105.058 00:19 19.06.2019
6189 Clouds 9 1008 61 0 1.58 105.058 23:43 18.06.2019
6190 Clouds 9 1008 61 0 1.58 105.058 23:25 18.06.2019
6191 Clouds 9 1008 61 0 1.58 105.058 22:42 18.06.2019
6192 Clouds 9 1008 61 0 1.58 105.058 22:23 18.06.2019
6193 Clouds 9 1008 61 0 1.58 105.058 21:55 18.06.2019
6194 Clouds 9 1008 61 0 1.58 105.058 21:37 18.06.2019
6195 Clouds 9 1008 61 0 1.58 105.058 21:37 18.06.2019
6196 Clouds 10 1007 51 0 1.26 90.363 21:18 18.06.2019
6197 Clouds 10 1008 53 0 1.03 85.729 20:41 18.06.2019
6198 Clouds 10 1008 53 0 1.03 85.729 20:22 18.06.2019
6199 Clouds 10 1008 53 0 1.03 85.729 19:41 18.06.2019
6200 Clouds 10 1008 53 0 1.03 85.729 19:22 18.06.2019
6201 Clouds 10 1008 53 0 1.03 85.729 18:55 18.06.2019
6202 Clear 11 1007 46 0 0.18 64.004 18:26 18.06.2019
6203 Clear 11 1007 46 0 0.18 64.004 17:55 18.06.2019
6204 Clear 11 1007 46 0 0.18 64.004 17:36 18.06.2019
6205 Clear 11 1007 46 0 0.18 64.004 17:18 18.06.2019
6206 Clear 11 1007 46 0 0.18 64.004 16:42 18.06.2019
6207 Clear 11 1007 46 0 0.18 64.004 16:22 18.06.2019
6208 Clear 11 1007 46 0 0.18 64.004 15:42 18.06.2019
6209 Clear 18 1006 36 0 2.09 293.676 15:23 18.06.2019
6210 Clear 18 1006 36 0 2.09 293.676 14:56 18.06.2019
6211 Clear 18 1006 36 0 2.09 293.676 14:38 18.06.2019
6212 Clear 18 1006 36 0 2.09 293.676 14:19 18.06.2019
6213 Clear 18 1006 36 0 2.09 293.676 13:50 18.06.2019
6214 Clear 18 1006 39 0 1.13 307.498 13:30 18.06.2019
6215 Clear 18 1006 39 0 1.13 307.498 12:46 18.06.2019
6216 Clear 18 1006 39 0 1.13 307.498 12:28 18.06.2019
6217 Clear 19 1006 23 0 1.46 213.919 11:54 18.06.2019
6218 Clear 19 1006 23 0 1.46 213.919 11:36 18.06.2019
6219 Clear 19 1006 23 0 1.46 213.919 11:18 18.06.2019
6220 Clear 19 1006 23 0 1.46 213.919 10:41 18.06.2019
6221 Clear 19 1006 23 0 1.46 213.919 10:21 18.06.2019
6222 Clear 19 1006 23 0 1.46 213.919 09:51 18.06.2019
6223 Clear 18 1007 26 0 1.6 184.226 09:25 18.06.2019
6224 Clear 18 1007 26 0 1.6 184.226 08:50 18.06.2019
6225 Clear 19 1007 26 0 0.93 197.321 08:23 18.06.2019
6226 Clear 19 1007 26 0 0.93 197.321 07:55 18.06.2019
6227 Clear 19 1007 26 0 0.93 197.321 07:25 18.06.2019
6228 Clear 19 1007 26 0 0.93 197.321 06:52 18.06.2019
6229 Clear 16 1009 38 0 2.56 50.476 05:25 18.06.2019
6230 Clear 16 1009 38 0 2.56 50.476 04:21 18.06.2019
6231 Clear 10 1011 71 0 2.96 29.32 02:47 18.06.2019
6232 Clear 10 1011 70 0 3.07 30.707 01:27 18.06.2019
6233 Clear 10 1011 70 0 3.07 30.707 00:58 18.06.2019
6234 Clear 10 1011 70 0 3.07 30.707 00:30 18.06.2019
6235 Clear 7 1011 76 0 2.93 30.772 23:42 17.06.2019
6236 Clear 7 1011 76 0 2.93 30.772 23:24 17.06.2019
6237 Clear 7 1011 76 0 2.93 30.772 22:58 17.06.2019
6238 Clear 7 1011 76 0 2.93 30.772 22:39 17.06.2019
6239 Clear 7 1011 76 0 2.93 30.772 22:20 17.06.2019
6240 Clear 7 1011 76 0 2.93 30.772 21:45 17.06.2019
6241 Clouds 7 1011 74 0 2.57 40.183 21:23 17.06.2019
6242 Clouds 7 1011 74 0 2.57 40.183 21:23 17.06.2019
6243 Clouds 7 1011 74 0 2.57 40.183 20:43 17.06.2019
6244 Clouds 7 1011 78 0 2.55 36.803 20:24 17.06.2019
6245 Clouds 7 1011 78 0 2.55 36.803 19:57 17.06.2019
6246 Clouds 7 1011 78 0 2.55 36.803 19:39 17.06.2019
6247 Clouds 7 1011 78 0 2.55 36.803 19:39 17.06.2019
6248 Clouds 7 1011 78 0 2.55 36.803 19:20 17.06.2019
6249 Clouds 7 1011 78 0 2.55 36.803 18:39 17.06.2019
6250 Rain 8 1010 84 0 1.46 92.037 18:18 17.06.2019
6251 Rain 8 1010 84 0 1.46 92.037 17:48 17.06.2019
6252 Rain 8 1010 84 0 1.46 92.037 17:30 17.06.2019
6253 Rain 8 1010 84 0 1.46 92.037 16:59 17.06.2019
6254 Rain 8 1010 84 0 1.46 92.037 16:41 17.06.2019
6255 Rain 8 1010 84 0 1.46 92.037 16:23 17.06.2019
6256 Rain 8 1010 84 0 1.46 92.037 15:44 17.06.2019
6257 Rain 9 1006 86 0 3.24 261.236 15:20 17.06.2019
6258 Rain 9 1006 86 0 3.24 261.236 14:56 17.06.2019
6259 Rain 9 1006 86 0 3.24 261.236 14:38 17.06.2019
6260 Rain 9 1006 86 0 3.24 261.236 14:19 17.06.2019
6261 Rain 9 1006 86 0 3.24 261.236 13:42 17.06.2019
6262 Rain 13 1006 62 0 1.77 285.178 13:21 17.06.2019
6263 Rain 13 1006 62 0 1.77 285.178 12:46 17.06.2019
6264 Clouds 18 1004 35 0 4.38 262.395 12:22 17.06.2019
6265 Clouds 18 1004 35 0 4.38 262.395 11:45 17.06.2019
6266 Clouds 18 1004 35 0 4.38 262.395 11:26 17.06.2019
6267 Clouds 18 1004 35 0 4.38 262.395 10:48 17.06.2019
6268 Clouds 18 1004 35 0 4.38 262.395 10:48 17.06.2019
6269 Clouds 18 1004 35 0 4.38 262.395 10:29 17.06.2019
6270 Clouds 18 1004 35 0 4.38 262.395 09:57 17.06.2019
6271 Clouds 18 1004 35 0 4.38 262.395 09:39 17.06.2019
6272 Clouds 18 1003 40 0 4.69 247.869 09:20 17.06.2019
6273 Clouds 18 1003 37 0 4.37 248.804 08:39 17.06.2019
6274 Clouds 18 1003 37 0 4.37 248.804 08:21 17.06.2019
6275 Clouds 18 1003 37 0 4.37 248.804 07:40 17.06.2019
6276 Clouds 18 1003 37 0 4.37 248.804 07:20 17.06.2019
6277 Clouds 18 1003 37 0 4.37 248.804 06:29 17.06.2019
6278 Clouds 16 1004 44 0 2.83 227.661 05:31 17.06.2019
6279 Clouds 16 1004 44 0 2.83 227.661 04:33 17.06.2019
6280 Clouds 16 1004 44 0 2.83 227.661 03:33 17.06.2019
6281 Clear 11 1005 60 0 1.05 140.125 02:50 17.06.2019
6282 Clear 11 1005 60 0 1.05 140.125 02:32 17.06.2019
6283 Clear 11 1005 60 0 1.05 140.125 02:32 17.06.2019
6284 Clear 11 1005 60 0 1.05 140.125 01:39 17.06.2019
6285 Clouds 11 1005 61 0 1.14 131.399 00:59 17.06.2019
6286 Clouds 11 1005 61 0 1.14 131.399 00:40 17.06.2019
6287 Clear 6 1005 81 0 1.05 142.715 00:20 17.06.2019
6288 Clear 6 1005 81 0 1.05 142.715 23:40 16.06.2019
6289 Clear 6 1005 81 0 1.05 142.715 23:21 16.06.2019
6290 Clear 6 1005 81 0 1.05 142.715 22:47 16.06.2019
6291 Clear 6 1005 81 0 1.05 142.715 22:21 16.06.2019
6292 Clear 6 1005 81 0 1.05 142.715 21:59 16.06.2019
6293 Clear 6 1005 81 0 1.05 142.715 21:40 16.06.2019
6294 Clear 7 1004 75 0 0.68 128.884 21:21 16.06.2019
6295 Clear 7 1004 75 0 0.68 128.884 20:55 16.06.2019
6296 Clear 7 1004 77 0 0.49 107.62 20:37 16.06.2019
6297 Clear 7 1004 77 0 0.49 107.62 20:18 16.06.2019
6298 Clear 7 1004 77 0 0.49 107.62 20:18 16.06.2019
6299 Clear 7 1004 77 0 0.49 107.62 19:40 16.06.2019
6300 Clear 7 1004 77 0 0.49 107.62 19:22 16.06.2019
6301 Clear 7 1004 77 0 0.49 107.62 18:58 16.06.2019
6302 Clear 7 1004 77 0 0.49 107.62 18:39 16.06.2019
6303 Clear 9 1004 72 0 1.19 30.724 18:20 16.06.2019
6304 Clear 9 1004 72 0 1.19 30.724 17:46 16.06.2019
6305 Clear 9 1004 72 0 1.19 30.724 17:22 16.06.2019
6306 Clear 9 1004 72 0 1.19 30.724 17:22 16.06.2019
6307 Clear 9 1004 72 0 1.19 30.724 16:56 16.06.2019
6308 Clear 9 1004 72 0 1.19 30.724 16:56 16.06.2019
6309 Clear 9 1004 72 0 1.19 30.724 16:56 16.06.2019
6310 Clear 9 1004 72 0 1.19 30.724 16:38 16.06.2019
6311 Clear 9 1004 72 0 1.19 30.724 16:19 16.06.2019
6312 Clear 9 1004 72 0 1.19 30.724 15:42 16.06.2019
6313 Clouds 15 1002 56 0 3.22 343.64 15:23 16.06.2019
6314 Clouds 15 1002 56 0 3.22 343.64 14:43 16.06.2019
6315 Clouds 15 1002 56 0 3.22 343.64 14:23 16.06.2019
6316 Clouds 15 1002 56 0 3.22 343.64 13:52 16.06.2019
6317 Clouds 15 1002 56 0 3.22 343.64 13:26 16.06.2019
6318 Clouds 14 1002 54 0 3.91 325.692 12:57 16.06.2019
6319 Clouds 14 1002 54 0 3.91 325.692 12:57 16.06.2019
6320 Clouds 14 1002 54 0 3.91 325.692 12:38 16.06.2019
6321 Rain 16 1002 46 0 6.2 325.019 12:18 16.06.2019
6322 Rain 16 1002 46 0 6.2 325.019 11:44 16.06.2019
6323 Rain 16 1002 46 0 6.2 325.019 11:19 16.06.2019
6324 Rain 16 1002 46 0 6.2 325.019 10:45 16.06.2019
6325 Rain 16 1002 46 0 6.2 325.019 10:21 16.06.2019
6326 Rain 16 1002 46 0 6.2 325.019 09:48 16.06.2019
6327 Rain 14 1003 57 0 5.67 332.359 09:26 16.06.2019
6328 Rain 14 1003 58 0 4.52 334.767 08:57 16.06.2019
6329 Rain 14 1003 58 0 4.52 334.767 08:38 16.06.2019
6330 Rain 14 1003 58 0 4.52 334.767 08:18 16.06.2019
6331 Rain 14 1003 58 0 4.52 334.767 07:43 16.06.2019
6332 Rain 14 1003 58 0 4.52 334.767 06:57 16.06.2019
6333 Rain 14 1003 58 0 4.52 334.767 06:37 16.06.2019
6334 Rain 12 1006 65 0 2.68 296.441 05:43 16.06.2019
6335 Rain 12 1006 65 0 2.68 296.441 04:36 16.06.2019
6336 Rain 12 1006 65 0 2.68 296.441 03:54 16.06.2019
6337 Rain 12 1006 65 0 2.68 296.441 03:31 16.06.2019
6338 Clouds 8 1005 83 0 1.43 318.283 02:18 16.06.2019
6339 Clouds 8 1005 83 0 1.43 318.283 01:41 16.06.2019
6340 Clouds 8 1005 83 0 1.43 318.283 01:23 16.06.2019
6341 Clouds 8 1005 83 0 1.39 328.598 00:40 16.06.2019
6342 Clouds 4 1005 94 0 1.25 331.316 00:19 16.06.2019
6343 Clouds 4 1005 94 0 1.25 331.316 23:42 15.06.2019
6344 Clouds 4 1005 94 0 1.25 331.316 23:23 15.06.2019
6345 Clouds 4 1005 94 0 1.25 331.316 22:49 15.06.2019
6346 Clouds 4 1005 94 0 1.25 331.316 22:26 15.06.2019
6347 Clouds 4 1005 94 0 1.25 331.316 21:47 15.06.2019
6348 Clouds 4 1005 94 0 1.25 331.316 21:29 15.06.2019
6349 Clouds 6 1004 92 0 1.52 318.942 20:57 15.06.2019
6350 Clouds 6 1004 92 0 1.52 318.942 20:39 15.06.2019
6351 Clouds 6 1004 92 0 1.52 318.942 20:18 15.06.2019
6352 Clouds 6 1004 92 0 1.52 318.942 19:41 15.06.2019
6353 Clouds 6 1004 92 0 1.52 318.942 19:23 15.06.2019
6354 Clouds 6 1004 92 0 1.52 318.942 18:39 15.06.2019
6355 Rain 7 1004 87 0 1.55 330.841 18:20 15.06.2019
6356 Rain 7 1004 87 0 1.55 330.841 17:43 15.06.2019
6357 Rain 7 1004 87 0 1.55 330.841 17:22 15.06.2019
6358 Rain 7 1004 87 0 1.55 330.841 16:48 15.06.2019
6359 Rain 7 1004 87 0 1.55 330.841 16:20 15.06.2019
6360 Rain 7 1004 87 0 1.55 330.841 15:44 15.06.2019
6361 Rain 11 1002 68 0 5.32 317.49 15:23 15.06.2019
6362 Rain 11 1002 68 0 5.32 317.49 14:43 15.06.2019
6363 Rain 11 1002 68 0 5.32 317.49 14:19 15.06.2019
6364 Rain 11 1002 68 0 5.32 317.49 13:58 15.06.2019
6365 Rain 11 1002 68 0 5.32 317.49 13:39 15.06.2019
6366 Rain 11 1002 68 0 5.32 317.49 13:18 15.06.2019
6367 Rain 11 1002 68 0 5.32 317.49 12:47 15.06.2019
6368 Rain 12 1002 63 0 5.69 302.408 12:25 15.06.2019
6369 Rain 12 1002 63 0 5.76 286.959 11:51 15.06.2019
6370 Rain 12 1002 63 0 5.76 286.959 11:32 15.06.2019
6371 Rain 13 1002 58 0 6.1 301.378 10:47 15.06.2019
6372 Rain 13 1002 58 0 6.1 301.378 10:26 15.06.2019
6373 Rain 13 1002 58 0 6.1 301.378 09:58 15.06.2019
6374 Rain 13 1002 58 0 6.1 301.378 09:39 15.06.2019
6375 Rain 11 1003 65 0 6.67 267.215 09:19 15.06.2019
6376 Rain 11 1003 65 0 6.67 267.215 08:43 15.06.2019
6377 Rain 11 1003 65 0 6.67 267.215 08:43 15.06.2019
6378 Rain 11 1003 65 0 6.67 267.215 08:24 15.06.2019
6379 Rain 11 1003 65 0 6.67 267.215 07:28 15.06.2019
6380 Rain 11 1003 65 0 6.67 267.215 07:27 15.06.2019
6381 Rain 11 1003 65 0 6.67 267.215 06:50 15.06.2019
6382 Rain 11 1003 65 0 6.67 267.215 06:30 15.06.2019
6383 Rain 10 1005 70 0 3.73 256.478 05:46 15.06.2019
6384 Rain 10 1005 70 0 3.73 256.478 05:18 15.06.2019
6385 Rain 10 1005 70 0 3.73 256.478 04:30 15.06.2019
6386 Rain 10 1005 70 0 3.73 256.478 03:33 15.06.2019
6387 Rain 10 1005 70 0 3.73 256.478 03:33 15.06.2019
6388 Rain 7 1005 78 0 1.14 227.302 02:37 15.06.2019
6389 Rain 7 1005 78 0 1.14 227.302 01:58 15.06.2019
6390 Rain 7 1005 78 0 1.14 227.302 01:25 15.06.2019
6391 Rain 7 1005 78 0 1.14 227.302 00:42 15.06.2019
6392 Clear 4 1005 88 0 0.61 10.128 00:24 15.06.2019
6393 Rain 4 1005 89 0 0.86 298.509 23:50 14.06.2019
6394 Rain 4 1005 89 0 0.86 298.509 23:21 14.06.2019
6395 Rain 4 1005 89 0 0.86 298.509 22:42 14.06.2019
6396 Rain 4 1005 89 0 0.86 298.509 22:21 14.06.2019
6397 Rain 4 1005 89 0 0.86 298.509 21:49 14.06.2019
6398 Rain 4 1005 89 0 0.86 298.509 21:28 14.06.2019
6399 Clear 6 1005 80 0 1.52 1.353 20:57 14.06.2019
6400 Clear 6 1005 80 0 1.52 1.353 20:38 14.06.2019
6401 Clear 6 1005 80 0 1.52 1.353 20:18 14.06.2019
6402 Clear 6 1005 80 0 1.52 1.353 19:41 14.06.2019
6403 Clear 6 1005 80 0 1.52 1.353 19:22 14.06.2019
6404 Clear 6 1005 80 0 1.52 1.353 18:54 14.06.2019
6405 Clear 6 1005 80 0 1.52 1.353 18:36 14.06.2019
6406 Clear 7 1004 78 0 1.39 27.966 18:18 14.06.2019
6407 Clear 7 1004 78 0 1.39 27.966 17:45 14.06.2019
6408 Clear 7 1004 78 0 1.39 27.966 17:23 14.06.2019
6409 Clear 7 1004 78 0 1.39 27.966 16:53 14.06.2019
6410 Clear 7 1004 78 0 1.39 27.966 16:24 14.06.2019
6411 Clear 7 1004 78 0 1.39 27.966 16:24 14.06.2019
6412 Clear 7 1004 78 0 1.39 27.966 16:24 14.06.2019
6413 Clear 7 1004 78 0 1.39 27.966 15:59 14.06.2019
6414 Clear 7 1004 78 0 1.39 27.966 15:59 14.06.2019
6415 Clear 7 1004 78 0 1.39 27.966 15:39 14.06.2019
6416 Rain 10 1002 62 0 0.88 277.093 15:20 14.06.2019
6417 Rain 10 1002 62 0 0.88 277.093 14:47 14.06.2019
6418 -273 0 0 0 0 0 14:29 14.06.2019
6419 -273 0 0 0 0 0 14:29 14.06.2019
6420 Rain 10 1002 62 0 0.88 277.093 13:47 14.06.2019
6421 Rain 8 1002 72 0 2.93 3.052 13:28 14.06.2019
6422 Rain 8 1002 72 0 2.93 3.052 12:59 14.06.2019
6423 Rain 8 1002 72 0 2.93 3.052 12:59 14.06.2019
6424 Rain 8 1002 72 0 2.93 3.052 12:59 14.06.2019
6425 Rain 8 1002 72 0 2.93 3.052 12:39 14.06.2019
6426 Rain 13 1001 56 0 3.5 270.197 12:21 14.06.2019
6427 Rain 13 1001 56 0 3.5 270.197 11:42 14.06.2019
6428 Rain 13 1001 56 0 3.5 270.197 11:23 14.06.2019
6429 Rain 13 1001 56 0 3.5 270.197 10:49 14.06.2019
6430 Rain 13 1001 56 0 3.5 270.197 10:22 14.06.2019
6431 Rain 13 1001 56 0 3.5 270.197 09:56 14.06.2019
6432 Rain 14 1003 43 0 5.4 270.244 09:34 14.06.2019
6433 Rain 12 1004 62 0 4.4 275.402 08:56 14.06.2019
6434 Rain 12 1004 62 0 4.4 275.402 08:38 14.06.2019
6435 Rain 12 1004 62 0 4.4 275.402 08:18 14.06.2019
6436 Rain 12 1004 62 0 4.4 275.402 07:43 14.06.2019
6437 Rain 12 1004 62 0 4.4 275.402 07:19 14.06.2019
6438 Rain 12 1004 62 0 4.4 275.402 06:27 14.06.2019
6439 Rain 9 1004 88 0 3.44 244.502 05:53 14.06.2019
6440 Rain 9 1004 88 0 3.44 244.502 04:56 14.06.2019
6441 Rain 9 1004 88 0 3.44 244.502 04:31 14.06.2019
6442 -273 0 0 0 0 0 03:41 14.06.2019
6443 Rain 8 1004 97 0 3.83 190.809 03:23 14.06.2019
6444 Rain 8 1004 97 0 3.83 190.809 02:43 14.06.2019
6445 Rain 8 1004 97 0 3.83 190.809 01:53 14.06.2019
6446 Rain 8 1004 97 0 3.83 190.809 00:45 14.06.2019
6447 Rain 8 1004 95 0 4.59 167.674 00:22 14.06.2019
6448 Rain 8 1004 95 0 4.59 167.674 23:51 13.06.2019
6449 Rain 8 1004 95 0 4.59 167.674 23:26 13.06.2019
6450 Rain 8 1004 95 0 4.59 167.674 22:58 13.06.2019
6451 Rain 8 1004 95 0 4.59 167.674 22:38 13.06.2019
6452 Rain 8 1004 95 0 4.59 167.674 22:19 13.06.2019
6453 Rain 8 1004 95 0 4.59 167.674 21:38 13.06.2019
6454 Rain 10 1005 88 0 2.24 176.958 21:19 13.06.2019
6455 Rain 10 1005 88 0 2.24 176.958 20:45 13.06.2019
6456 Rain 10 1005 88 0 2.24 176.958 20:21 13.06.2019
6457 Rain 10 1005 88 0 2.24 176.958 19:55 13.06.2019
6458 Rain 10 1005 88 0 2.24 176.958 19:36 13.06.2019
6459 Rain 10 1005 88 0 2.24 176.958 19:18 13.06.2019
6460 Rain 10 1005 88 0 2.24 176.958 18:43 13.06.2019
6461 Rain 10 1006 88 0 2.31 124.337 18:25 13.06.2019
6462 Rain 10 1006 88 0 2.31 124.337 17:57 13.06.2019
6463 Rain 10 1006 88 0 2.31 124.337 17:38 13.06.2019
6464 Rain 10 1006 88 0 2.31 124.337 17:19 13.06.2019
6465 Rain 10 1006 88 0 2.31 124.337 16:44 13.06.2019
6466 Rain 10 1006 88 0 2.31 124.337 16:21 13.06.2019
6467 Rain 10 1006 88 0 2.31 124.337 15:43 13.06.2019
6468 Rain 12 1005 74 0 8.22 194.638 15:25 13.06.2019
6469 Rain 12 1005 74 0 8.22 194.638 14:56 13.06.2019
6470 Rain 12 1005 74 0 8.22 194.638 14:38 13.06.2019
6471 Rain 12 1005 74 0 8.22 194.638 14:19 13.06.2019
6472 Rain 12 1005 74 0 8.22 194.638 13:40 13.06.2019
6473 Rain 12 1005 74 0 8.22 194.638 13:21 13.06.2019
6474 Rain 12 1005 74 0 8.22 194.638 13:21 13.06.2019
6475 Rain 12 1005 74 0 8.22 194.638 12:42 13.06.2019
6476 Clouds 18 1005 37 0 6.8 209.473 12:22 13.06.2019
6477 Clouds 18 1005 37 0 6.8 209.473 11:56 13.06.2019
6478 Clouds 18 1005 37 0 6.8 209.473 11:37 13.06.2019
6479 Clouds 18 1005 37 0 6.8 209.473 11:18 13.06.2019
6480 Clouds 18 1005 37 0 6.8 209.473 10:43 13.06.2019
6481 Clouds 18 1005 37 0 6.8 209.473 10:23 13.06.2019
6482 Clouds 18 1005 37 0 6.8 209.473 09:43 13.06.2019
6483 Clouds 18 1006 41 0 10.11 196.171 09:23 13.06.2019
6484 Clouds 18 1006 41 0 10.11 196.171 09:23 13.06.2019
6485 Clouds 18 1006 41 0 10.11 196.171 09:23 13.06.2019
6486 Clouds 18 1006 41 0 10.11 196.171 08:44 13.06.2019
6487 Clouds 18 1006 41 0 10.11 196.171 08:25 13.06.2019
6488 Clouds 18 1006 41 0 10.11 196.171 07:53 13.06.2019
6489 Clouds 18 1006 41 0 10.11 196.171 07:25 13.06.2019
6490 Clouds 18 1006 41 0 10.11 196.171 06:51 13.06.2019
6491 Rain 14 1009 57 0 10 185.801 06:24 13.06.2019
6492 Rain 14 1009 57 0 10 185.801 05:55 13.06.2019
6493 Rain 14 1009 57 0 10 185.801 05:37 13.06.2019
6494 Rain 14 1009 57 0 10 185.801 04:57 13.06.2019
6495 Clouds 12 1010 65 0 5.64 168.947 02:33 13.06.2019
6496 Clouds 12 1010 65 0 5.64 168.947 00:55 13.06.2019
6497 Clouds 10 1009 34 0 2.34 127.871 00:22 13.06.2019
6498 Clouds 10 1009 34 0 2.34 127.871 23:24 12.06.2019
6499 Clouds 10 1009 34 0 2.34 127.871 22:45 12.06.2019
6500 Clouds 10 1009 34 0 2.34 127.871 22:26 12.06.2019
6501 Clouds 10 1009 34 0 2.34 127.871 21:57 12.06.2019
6502 Clouds 10 1009 34 0 2.34 127.871 21:38 12.06.2019
6503 Clouds 9 1009 39 0 1.26 113.455 21:19 12.06.2019
6504 Clouds 9 1009 39 0 1.26 113.455 20:40 12.06.2019
6505 Clouds 9 1009 39 0 1.26 113.455 20:21 12.06.2019
6506 Clouds 9 1009 39 0 1.26 113.455 19:42 12.06.2019
6507 Clouds 9 1009 39 0 1.26 113.455 19:23 12.06.2019
6508 Clouds 9 1009 39 0 1.26 113.455 18:58 12.06.2019
6509 Clouds 9 1009 39 0 1.26 113.455 18:39 12.06.2019
6510 Clouds 10 1009 40 0 0.53 177.515 18:20 12.06.2019
6511 Clouds 10 1009 40 0 0.53 177.515 17:44 12.06.2019
6512 Clouds 10 1009 40 0 0.53 177.515 17:21 12.06.2019
6513 Clouds 10 1009 40 0 0.53 177.515 16:42 12.06.2019
6514 Clouds 10 1009 40 0 0.53 177.515 16:24 12.06.2019
6515 Clouds 10 1009 40 0 0.53 177.515 15:56 12.06.2019
6516 Clouds 10 1009 40 0 0.53 177.515 15:32 12.06.2019
6517 Clouds 17 1008 26 0 2.95 232.151 14:50 12.06.2019
6518 Clouds 17 1008 26 0 2.95 232.151 14:29 12.06.2019
6519 Clouds 17 1008 26 0 2.95 232.151 13:55 12.06.2019
6520 Clouds 17 1008 26 0 2.95 232.151 13:36 12.06.2019
6521 Clouds 17 1009 25 0 3.25 222.27 13:18 12.06.2019
6522 Clouds 17 1009 25 0 3.25 222.27 12:39 12.06.2019
6523 Clouds 18 1010 20 0 2.64 207.168 12:19 12.06.2019
6524 Clouds 18 1010 20 0 2.64 207.168 11:47 12.06.2019
6525 Clouds 18 1010 20 0 2.64 207.168 11:47 12.06.2019
6526 Clouds 18 1010 20 0 2.64 207.168 11:29 12.06.2019
6527 Clouds 18 1010 20 0 2.64 207.168 10:54 12.06.2019
6528 Clouds 18 1010 20 0 2.64 207.168 10:35 12.06.2019
6529 Clouds 18 1010 20 0 2.64 207.168 09:59 12.06.2019
6530 Clouds 18 1010 20 0 2.64 207.168 09:40 12.06.2019
6531 Clouds 16 1012 24 0 2.16 208.92 09:18 12.06.2019
6532 Clouds 16 1012 24 0 2.16 208.92 08:26 12.06.2019
6533 Clouds 16 1012 24 0 2.16 208.92 07:52 12.06.2019
6534 Clouds 16 1012 24 0 2.16 208.92 06:57 12.06.2019
6535 Clouds 16 1012 24 0 2.16 208.92 06:29 12.06.2019
6536 Clear 13 1015 35 0 1.5 132.56 05:25 12.06.2019
6537 Clouds 8 1017 61 0 2.42 53.324 02:21 12.06.2019
6538 Clouds 8 1016 59 0 2.52 53.626 00:46 12.06.2019
6539 Clouds 5 1017 71 0 2.64 41.441 23:54 11.06.2019
6540 Clouds 5 1017 71 0 2.64 41.441 23:35 11.06.2019
6541 -273 0 0 0 0 0 22:57 11.06.2019
6542 Clouds 5 1016 68 0 2.57 41.196 22:38 11.06.2019
6543 Clouds 5 1016 68 0 2.57 41.196 22:18 11.06.2019
6544 Clouds 5 1016 68 0 2.57 41.196 22:18 11.06.2019
6545 Clouds 5 1016 68 0 2.57 41.196 21:41 11.06.2019
6546 Clouds 6 1016 65 0 3.16 39.025 21:23 11.06.2019
6547 Clouds 6 1016 65 0 3.16 39.025 20:57 11.06.2019
6548 Clouds 6 1016 65 0 3.16 39.025 20:39 11.06.2019
6549 -273 0 0 0 0 0 20:21 11.06.2019
6550 Clouds 6 1016 65 0 3.16 39.025 19:50 11.06.2019
6551 Clouds 6 1016 65 0 3.16 39.025 19:28 11.06.2019
6552 Clouds 6 1016 65 0 3.16 39.025 18:49 11.06.2019
6553 Clouds 6 1016 65 0 3.16 39.025 18:49 11.06.2019
6554 Clouds 8 1015 56 0 3.38 34.85 18:20 11.06.2019
6555 Clouds 8 1015 56 0 3.38 34.85 17:41 11.06.2019
6556 Clouds 8 1015 56 0 3.38 34.85 17:21 11.06.2019
6557 Clouds 8 1015 56 0 3.38 34.85 16:46 11.06.2019
6558 Clouds 8 1015 56 0 3.38 34.85 16:24 11.06.2019
6559 Clouds 8 1015 56 0 3.38 34.85 16:24 11.06.2019
6560 Clouds 8 1015 56 0 3.38 34.85 15:59 11.06.2019
6561 Clouds 8 1015 56 0 3.38 34.85 15:41 11.06.2019
6562 Clouds 13 1012 36 0 4.11 335.101 15:18 11.06.2019
6563 Clouds 13 1012 36 0 4.11 335.101 14:40 11.06.2019
6564 Clouds 13 1012 36 0 4.11 335.101 14:20 11.06.2019
6565 Clouds 13 1012 36 0 4.11 335.101 14:20 11.06.2019
6566 Clouds 13 1012 36 0 4.11 335.101 13:43 11.06.2019
6567 Clouds 13 1012 36 0 4.11 335.101 13:22 11.06.2019
6568 Clouds 13 1012 34 0 3.7 327.027 12:43 11.06.2019
6569 Clouds 15 1011 27 0 5.49 308.49 12:22 11.06.2019
6570 Clouds 15 1011 27 0 5.49 308.49 11:57 11.06.2019
6571 Clouds 15 1011 27 0 5.49 308.49 11:34 11.06.2019
6572 Clouds 15 1011 27 0 5.49 308.49 10:58 11.06.2019
6573 Clouds 15 1011 27 0 5.49 308.49 10:40 11.06.2019
6574 Clouds 15 1011 27 0 5.49 308.49 10:21 11.06.2019
6575 Clouds 15 1011 27 0 5.49 308.49 09:45 11.06.2019
6576 Clouds 15 1011 28 0 5.3 302.661 09:23 11.06.2019
6577 Clouds 15 1011 28 0 5.3 302.661 08:42 11.06.2019
6578 Clouds 15 1011 28 0 5.3 302.661 08:23 11.06.2019
6579 Clouds 15 1011 28 0 5.3 302.661 07:36 11.06.2019
6580 Clouds 15 1011 29 0 5.1 301.201 06:54 11.06.2019
6581 Clouds 13 1011 33 0 4.29 296.129 06:23 11.06.2019
6582 Clouds 13 1011 33 0 4.29 296.129 04:48 11.06.2019
6583 Clouds 10 1011 42 0 0.74 289.144 02:27 11.06.2019
6584 -273 0 0 0 0 0 02:27 11.06.2019
6585 Clouds 10 1011 43 0 0.68 317.583 00:54 11.06.2019
6586 Clouds 10 1011 43 0 0.68 317.583 00:31 11.06.2019
6587 Clear 5 1010 60 0 1.56 28.941 23:46 10.06.2019
6588 Clouds 5 1009 52 0 1.32 48.453 23:21 10.06.2019
6589 Clouds 5 1009 52 0 1.32 48.453 22:46 10.06.2019
6590 Clouds 5 1009 52 0 1.32 48.453 22:46 10.06.2019
6591 Clouds 5 1009 52 0 1.32 48.453 22:27 10.06.2019
6592 Clouds 5 1009 52 0 1.32 48.453 21:58 10.06.2019
6593 Clouds 5 1009 52 0 1.32 48.453 21:38 10.06.2019
6594 Clear 6 1008 49 0 1.35 29.215 21:20 10.06.2019
6595 Clear 6 1008 49 0 1.35 29.215 20:44 10.06.2019
6596 Clear 6 1008 49 0 1.35 29.215 20:21 10.06.2019
6597 Clear 6 1008 49 0 1.35 29.215 19:48 10.06.2019
6598 Clear 6 1008 49 0 1.35 29.215 19:23 10.06.2019
6599 Clear 6 1008 49 0 1.35 29.215 18:58 10.06.2019
6600 Clear 6 1008 49 0 1.35 29.215 18:40 10.06.2019
6601 Clear 8 1006 42 0 1.81 346.002 18:20 10.06.2019
6602 Clear 8 1006 42 0 1.81 346.002 17:44 10.06.2019
6603 Clear 8 1006 42 0 1.81 346.002 17:24 10.06.2019
6604 Clear 8 1006 42 0 1.81 346.002 16:56 10.06.2019
6605 Clear 8 1006 42 0 1.81 346.002 16:37 10.06.2019
6606 Clear 8 1006 42 0 1.81 346.002 16:18 10.06.2019
6607 Clear 8 1006 42 0 1.81 346.002 15:41 10.06.2019
6608 Clouds 14 1003 31 0 5.75 278.516 15:23 10.06.2019
6609 Clouds 14 1003 31 0 5.75 278.516 14:46 10.06.2019
6610 Clouds 14 1003 31 0 5.75 278.516 14:28 10.06.2019
6611 Clouds 14 1003 31 0 5.75 278.516 13:56 10.06.2019
6612 Clouds 14 1003 31 0 5.75 278.516 13:38 10.06.2019
6613 Clouds 14 1003 31 0 5.75 278.516 13:19 10.06.2019
6614 Clouds 14 1003 27 0 5.75 277.292 12:40 10.06.2019
6615 Clouds 17 1003 29 0 7.82 268.982 12:22 10.06.2019
6616 Clouds 17 1003 29 0 7.82 268.982 11:43 10.06.2019
6617 Clouds 17 1003 29 0 7.82 268.982 11:19 10.06.2019
6618 Clouds 17 1003 29 0 7.82 268.982 11:19 10.06.2019
6619 Clouds 17 1003 29 0 7.82 268.982 10:42 10.06.2019
6620 Clouds 17 1003 29 0 7.82 268.982 10:20 10.06.2019
6621 Clouds 17 1003 29 0 7.82 268.982 09:55 10.06.2019
6622 Clouds 17 1003 29 0 7.82 268.982 09:32 10.06.2019
6623 Clouds 15 1002 40 0 6.65 268.232 08:50 10.06.2019
6624 Clouds 15 1002 40 0 6.65 268.232 08:27 10.06.2019
6625 Clouds 15 1002 40 0 6.65 268.232 07:46 10.06.2019
6626 Clouds 15 1003 43 0 6.35 240.735 06:26 10.06.2019
6627 Clouds 15 1003 43 0 6.35 240.735 03:59 10.06.2019
6628 Clouds 11 1003 59 0 5.58 188.653 01:56 10.06.2019
6629 Clouds 11 1003 59 0 5.58 188.653 01:23 10.06.2019
6630 Clouds 11 1003 59 0 5.58 188.653 00:48 10.06.2019
6631 Clouds 8 1003 62 0 3.5 156.662 23:58 09.06.2019
6632 Clouds 8 1003 62 0 3.5 156.662 23:38 09.06.2019
6633 Clouds 8 1003 62 0 3.5 156.662 23:18 09.06.2019
6634 Clouds 8 1003 62 0 3.5 156.662 22:41 09.06.2019
6635 Clouds 8 1003 62 0 3.5 156.662 22:21 09.06.2019
6636 Clouds 8 1003 62 0 3.5 156.662 21:40 09.06.2019
6637 Clouds 9 1003 67 0 2.35 127.466 21:22 09.06.2019
6638 Clouds 9 1003 67 0 2.35 127.466 20:42 09.06.2019
6639 Clouds 9 1003 67 0 2.35 127.466 20:22 09.06.2019
6640 Clouds 9 1003 67 0 2.35 127.466 19:46 09.06.2019
6641 Clouds 9 1003 67 0 2.35 127.466 19:46 09.06.2019
6642 Rain 9 1003 73 0 2.15 122.839 19:19 09.06.2019
6643 Rain 9 1003 73 0 2.15 122.839 18:56 09.06.2019
6644 Rain 9 1003 73 0 2.15 122.839 18:37 09.06.2019
6645 Rain 10 1004 70 0 1.96 76.461 18:19 09.06.2019
6646 Rain 10 1004 70 0 1.96 76.461 17:43 09.06.2019
6647 Rain 10 1004 70 0 1.96 76.461 17:24 09.06.2019
6648 Rain 10 1004 70 0 1.96 76.461 16:41 09.06.2019
6649 Rain 10 1004 70 0 1.96 76.461 16:21 09.06.2019
6650 Rain 10 1004 70 0 1.96 76.461 15:56 09.06.2019
6651 Rain 10 1004 70 0 1.96 76.461 15:38 09.06.2019
6652 Clouds 15 1003 48 0 2.26 123.683 15:20 09.06.2019
6653 Clouds 15 1003 48 0 2.26 123.683 14:42 09.06.2019
6654 Clouds 15 1003 48 0 2.26 123.683 14:21 09.06.2019
6655 Clouds 15 1003 48 0 2.26 123.683 13:50 09.06.2019
6656 Clouds 15 1003 48 0 2.26 123.683 13:19 09.06.2019
6657 Clouds 17 1003 41 0 4.56 195.611 12:40 09.06.2019
6658 Clouds 19 1002 35 0 7.28 197.693 12:21 09.06.2019
6659 Clouds 19 1002 35 0 7.28 197.693 11:39 09.06.2019
6660 Clouds 19 1002 35 0 7.28 197.693 11:20 09.06.2019
6661 Clouds 20 1002 34 0 6.82 199.03 10:44 09.06.2019
6662 Clouds 20 1002 34 0 6.82 199.03 10:22 09.06.2019
6663 Clouds 20 1002 34 0 6.82 199.03 09:40 09.06.2019
6664 Clouds 20 1004 31 0 4.94 198.897 09:21 09.06.2019
6665 Clouds 20 1003 33 0 5.07 193.449 08:46 09.06.2019
6666 Clouds 20 1003 33 0 5.07 193.449 08:28 09.06.2019
6667 Clouds 20 1003 33 0 5.07 193.449 07:21 09.06.2019
6668 Clouds 20 1003 33 0 5.07 193.449 06:30 09.06